<?xml version="1.0" encoding="UTF-8" standalone="no" ?>
<gpx xmlns="http://www.topografix.com/GPX/1/1" xmlns:xsi="http://www.w3.org/2001/XMLSchema-instance" xsi:schemaLocation="http://www.topografix.com/GPX/1/1 http://www.topografix.com/GPX/1/1/gpx.xsd" version="1.1" creator="VisuGPX - https://www.visugpx.com">
  <metadata>
    <name>CAP avec Flora_crapon</name>
  </metadata>
  <trk>
    <name><![CDATA[CAP avec Flora_crapon_1]]></name>
    <trkseg>
      <trkpt lat="44.37951" lon="5.16964">
        <ele>233</ele>
        <time>2022-02-27T10:40:16.804Z</time>
      </trkpt>
      <trkpt lat="44.37951" lon="5.16964">
        <ele>233</ele>
        <time>2022-02-27T10:40:17.806Z</time>
      </trkpt>
      <trkpt lat="44.37951" lon="5.16965">
        <ele>232</ele>
        <time>2022-02-27T10:40:18.806Z</time>
      </trkpt>
      <trkpt lat="44.37951" lon="5.16965">
        <ele>232</ele>
        <time>2022-02-27T10:40:19.806Z</time>
      </trkpt>
      <trkpt lat="44.3795" lon="5.16967">
        <ele>231</ele>
        <time>2022-02-27T10:40:20.806Z</time>
      </trkpt>
      <trkpt lat="44.37949" lon="5.16969">
        <ele>230</ele>
        <time>2022-02-27T10:40:21.806Z</time>
      </trkpt>
      <trkpt lat="44.37947" lon="5.16972">
        <ele>230</ele>
        <time>2022-02-27T10:40:22.806Z</time>
      </trkpt>
      <trkpt lat="44.37945" lon="5.16974">
        <ele>229</ele>
        <time>2022-02-27T10:40:23.806Z</time>
      </trkpt>
      <trkpt lat="44.37943" lon="5.16976">
        <ele>228</ele>
        <time>2022-02-27T10:40:24.806Z</time>
      </trkpt>
      <trkpt lat="44.37941" lon="5.16978">
        <ele>228</ele>
        <time>2022-02-27T10:40:25.806Z</time>
      </trkpt>
      <trkpt lat="44.3794" lon="5.16978">
        <ele>227</ele>
        <time>2022-02-27T10:40:26.806Z</time>
      </trkpt>
      <trkpt lat="44.37937" lon="5.16979">
        <ele>226</ele>
        <time>2022-02-27T10:40:27.806Z</time>
      </trkpt>
      <trkpt lat="44.37936" lon="5.16979">
        <ele>226</ele>
        <time>2022-02-27T10:40:28.806Z</time>
      </trkpt>
      <trkpt lat="44.37933" lon="5.1698">
        <ele>225</ele>
        <time>2022-02-27T10:40:29.806Z</time>
      </trkpt>
      <trkpt lat="44.37929" lon="5.16982">
        <ele>224</ele>
        <time>2022-02-27T10:40:30.807Z</time>
      </trkpt>
      <trkpt lat="44.37927" lon="5.16984">
        <ele>224</ele>
        <time>2022-02-27T10:40:31.806Z</time>
      </trkpt>
      <trkpt lat="44.37925" lon="5.16985">
        <ele>223</ele>
        <time>2022-02-27T10:40:32.806Z</time>
      </trkpt>
      <trkpt lat="44.37922" lon="5.16986">
        <ele>223</ele>
        <time>2022-02-27T10:40:33.807Z</time>
      </trkpt>
      <trkpt lat="44.3792" lon="5.16987">
        <ele>222</ele>
        <time>2022-02-27T10:40:34.806Z</time>
      </trkpt>
      <trkpt lat="44.37918" lon="5.16986">
        <ele>221</ele>
        <time>2022-02-27T10:40:35.806Z</time>
      </trkpt>
      <trkpt lat="44.37917" lon="5.16985">
        <ele>220</ele>
        <time>2022-02-27T10:40:36.807Z</time>
      </trkpt>
      <trkpt lat="44.37915" lon="5.16983">
        <ele>219</ele>
        <time>2022-02-27T10:40:37.806Z</time>
      </trkpt>
      <trkpt lat="44.37913" lon="5.16983">
        <ele>218</ele>
        <time>2022-02-27T10:40:38.806Z</time>
      </trkpt>
      <trkpt lat="44.37911" lon="5.16983">
        <ele>217</ele>
        <time>2022-02-27T10:40:39.807Z</time>
      </trkpt>
      <trkpt lat="44.37909" lon="5.16984">
        <ele>217</ele>
        <time>2022-02-27T10:40:40.806Z</time>
      </trkpt>
      <trkpt lat="44.37906" lon="5.16985">
        <ele>216</ele>
        <time>2022-02-27T10:40:41.806Z</time>
      </trkpt>
      <trkpt lat="44.37903" lon="5.16988">
        <ele>215</ele>
        <time>2022-02-27T10:40:42.806Z</time>
      </trkpt>
      <trkpt lat="44.37899" lon="5.1699">
        <ele>214</ele>
        <time>2022-02-27T10:40:43.807Z</time>
      </trkpt>
      <trkpt lat="44.37897" lon="5.16991">
        <ele>214</ele>
        <time>2022-02-27T10:40:44.806Z</time>
      </trkpt>
      <trkpt lat="44.37894" lon="5.16992">
        <ele>213</ele>
        <time>2022-02-27T10:40:45.806Z</time>
      </trkpt>
      <trkpt lat="44.37891" lon="5.16993">
        <ele>212</ele>
        <time>2022-02-27T10:40:46.806Z</time>
      </trkpt>
      <trkpt lat="44.37889" lon="5.16994">
        <ele>212</ele>
        <time>2022-02-27T10:40:47.806Z</time>
      </trkpt>
      <trkpt lat="44.37888" lon="5.16995">
        <ele>211</ele>
        <time>2022-02-27T10:40:48.806Z</time>
      </trkpt>
      <trkpt lat="44.37885" lon="5.16996">
        <ele>211</ele>
        <time>2022-02-27T10:40:49.806Z</time>
      </trkpt>
      <trkpt lat="44.37883" lon="5.16996">
        <ele>210</ele>
        <time>2022-02-27T10:40:50.806Z</time>
      </trkpt>
      <trkpt lat="44.37881" lon="5.16997">
        <ele>210</ele>
        <time>2022-02-27T10:40:51.807Z</time>
      </trkpt>
      <trkpt lat="44.37879" lon="5.16998">
        <ele>209</ele>
        <time>2022-02-27T10:40:52.806Z</time>
      </trkpt>
      <trkpt lat="44.37876" lon="5.16999">
        <ele>209</ele>
        <time>2022-02-27T10:40:53.806Z</time>
      </trkpt>
      <trkpt lat="44.37874" lon="5.17">
        <ele>208</ele>
        <time>2022-02-27T10:40:54.806Z</time>
      </trkpt>
      <trkpt lat="44.37872" lon="5.17001">
        <ele>207</ele>
        <time>2022-02-27T10:40:55.806Z</time>
      </trkpt>
      <trkpt lat="44.37869" lon="5.17002">
        <ele>207</ele>
        <time>2022-02-27T10:40:56.806Z</time>
      </trkpt>
      <trkpt lat="44.37867" lon="5.17003">
        <ele>206</ele>
        <time>2022-02-27T10:40:57.806Z</time>
      </trkpt>
      <trkpt lat="44.37864" lon="5.17004">
        <ele>206</ele>
        <time>2022-02-27T10:40:58.806Z</time>
      </trkpt>
      <trkpt lat="44.37862" lon="5.17006">
        <ele>206</ele>
        <time>2022-02-27T10:40:59.806Z</time>
      </trkpt>
      <trkpt lat="44.3786" lon="5.17007">
        <ele>205</ele>
        <time>2022-02-27T10:41:00.806Z</time>
      </trkpt>
      <trkpt lat="44.37858" lon="5.17009">
        <ele>204</ele>
        <time>2022-02-27T10:41:01.806Z</time>
      </trkpt>
      <trkpt lat="44.37856" lon="5.17011">
        <ele>204</ele>
        <time>2022-02-27T10:41:02.806Z</time>
      </trkpt>
      <trkpt lat="44.37854" lon="5.17013">
        <ele>203</ele>
        <time>2022-02-27T10:41:03.807Z</time>
      </trkpt>
      <trkpt lat="44.37852" lon="5.17015">
        <ele>202</ele>
        <time>2022-02-27T10:41:04.807Z</time>
      </trkpt>
      <trkpt lat="44.3785" lon="5.17016">
        <ele>202</ele>
        <time>2022-02-27T10:41:05.806Z</time>
      </trkpt>
      <trkpt lat="44.37848" lon="5.17018">
        <ele>201</ele>
        <time>2022-02-27T10:41:06.806Z</time>
      </trkpt>
      <trkpt lat="44.37846" lon="5.1702">
        <ele>201</ele>
        <time>2022-02-27T10:41:07.806Z</time>
      </trkpt>
      <trkpt lat="44.37844" lon="5.17021">
        <ele>200</ele>
        <time>2022-02-27T10:41:08.806Z</time>
      </trkpt>
      <trkpt lat="44.37842" lon="5.17022">
        <ele>200</ele>
        <time>2022-02-27T10:41:09.806Z</time>
      </trkpt>
      <trkpt lat="44.3784" lon="5.17023">
        <ele>200</ele>
        <time>2022-02-27T10:41:10.807Z</time>
      </trkpt>
      <trkpt lat="44.37837" lon="5.17025">
        <ele>199</ele>
        <time>2022-02-27T10:41:11.807Z</time>
      </trkpt>
      <trkpt lat="44.37834" lon="5.17027">
        <ele>199</ele>
        <time>2022-02-27T10:41:12.807Z</time>
      </trkpt>
      <trkpt lat="44.37831" lon="5.17029">
        <ele>199</ele>
        <time>2022-02-27T10:41:13.806Z</time>
      </trkpt>
      <trkpt lat="44.37829" lon="5.1703">
        <ele>198</ele>
        <time>2022-02-27T10:41:14.807Z</time>
      </trkpt>
      <trkpt lat="44.37826" lon="5.17032">
        <ele>198</ele>
        <time>2022-02-27T10:41:15.807Z</time>
      </trkpt>
      <trkpt lat="44.37824" lon="5.17034">
        <ele>198</ele>
        <time>2022-02-27T10:41:16.806Z</time>
      </trkpt>
      <trkpt lat="44.37821" lon="5.17039">
        <ele>197</ele>
        <time>2022-02-27T10:41:17.806Z</time>
      </trkpt>
      <trkpt lat="44.37819" lon="5.17042">
        <ele>197</ele>
        <time>2022-02-27T10:41:18.806Z</time>
      </trkpt>
      <trkpt lat="44.37816" lon="5.17045">
        <ele>197</ele>
        <time>2022-02-27T10:41:19.806Z</time>
      </trkpt>
      <trkpt lat="44.37813" lon="5.17048">
        <ele>197</ele>
        <time>2022-02-27T10:41:20.806Z</time>
      </trkpt>
      <trkpt lat="44.3781" lon="5.1705">
        <ele>196</ele>
        <time>2022-02-27T10:41:21.806Z</time>
      </trkpt>
      <trkpt lat="44.37808" lon="5.17053">
        <ele>196</ele>
        <time>2022-02-27T10:41:22.806Z</time>
      </trkpt>
      <trkpt lat="44.37805" lon="5.17054">
        <ele>195</ele>
        <time>2022-02-27T10:41:23.806Z</time>
      </trkpt>
      <trkpt lat="44.37802" lon="5.17056">
        <ele>195</ele>
        <time>2022-02-27T10:41:24.807Z</time>
      </trkpt>
      <trkpt lat="44.37799" lon="5.17057">
        <ele>194</ele>
        <time>2022-02-27T10:41:25.807Z</time>
      </trkpt>
      <trkpt lat="44.37797" lon="5.17058">
        <ele>194</ele>
        <time>2022-02-27T10:41:26.807Z</time>
      </trkpt>
      <trkpt lat="44.37794" lon="5.17058">
        <ele>193</ele>
        <time>2022-02-27T10:41:27.807Z</time>
      </trkpt>
      <trkpt lat="44.37792" lon="5.17059">
        <ele>193</ele>
        <time>2022-02-27T10:41:28.806Z</time>
      </trkpt>
      <trkpt lat="44.37789" lon="5.17059">
        <ele>193</ele>
        <time>2022-02-27T10:41:29.807Z</time>
      </trkpt>
      <trkpt lat="44.37786" lon="5.17059">
        <ele>192</ele>
        <time>2022-02-27T10:41:30.806Z</time>
      </trkpt>
      <trkpt lat="44.37784" lon="5.17058">
        <ele>192</ele>
        <time>2022-02-27T10:41:31.807Z</time>
      </trkpt>
      <trkpt lat="44.37781" lon="5.17057">
        <ele>192</ele>
        <time>2022-02-27T10:41:32.807Z</time>
      </trkpt>
      <trkpt lat="44.37779" lon="5.17056">
        <ele>191</ele>
        <time>2022-02-27T10:41:33.806Z</time>
      </trkpt>
      <trkpt lat="44.37776" lon="5.17055">
        <ele>191</ele>
        <time>2022-02-27T10:41:34.807Z</time>
      </trkpt>
      <trkpt lat="44.37774" lon="5.17054">
        <ele>191</ele>
        <time>2022-02-27T10:41:35.806Z</time>
      </trkpt>
      <trkpt lat="44.37771" lon="5.17053">
        <ele>190</ele>
        <time>2022-02-27T10:41:36.806Z</time>
      </trkpt>
      <trkpt lat="44.37768" lon="5.17053">
        <ele>190</ele>
        <time>2022-02-27T10:41:37.806Z</time>
      </trkpt>
      <trkpt lat="44.37764" lon="5.17051">
        <ele>189</ele>
        <time>2022-02-27T10:41:38.807Z</time>
      </trkpt>
      <trkpt lat="44.37762" lon="5.1705">
        <ele>189</ele>
        <time>2022-02-27T10:41:39.807Z</time>
      </trkpt>
      <trkpt lat="44.37757" lon="5.1705">
        <ele>188</ele>
        <time>2022-02-27T10:41:40.806Z</time>
      </trkpt>
      <trkpt lat="44.37753" lon="5.1705">
        <ele>188</ele>
        <time>2022-02-27T10:41:41.806Z</time>
      </trkpt>
      <trkpt lat="44.3775" lon="5.1705">
        <ele>188</ele>
        <time>2022-02-27T10:41:42.807Z</time>
      </trkpt>
      <trkpt lat="44.37747" lon="5.17051">
        <ele>187</ele>
        <time>2022-02-27T10:41:43.806Z</time>
      </trkpt>
      <trkpt lat="44.37743" lon="5.17053">
        <ele>187</ele>
        <time>2022-02-27T10:41:44.807Z</time>
      </trkpt>
      <trkpt lat="44.37741" lon="5.17054">
        <ele>187</ele>
        <time>2022-02-27T10:41:45.806Z</time>
      </trkpt>
      <trkpt lat="44.37739" lon="5.17056">
        <ele>186</ele>
        <time>2022-02-27T10:41:46.806Z</time>
      </trkpt>
      <trkpt lat="44.37737" lon="5.17058">
        <ele>186</ele>
        <time>2022-02-27T10:41:47.806Z</time>
      </trkpt>
      <trkpt lat="44.37735" lon="5.17061">
        <ele>186</ele>
        <time>2022-02-27T10:41:48.806Z</time>
      </trkpt>
      <trkpt lat="44.37733" lon="5.17063">
        <ele>185</ele>
        <time>2022-02-27T10:41:49.807Z</time>
      </trkpt>
      <trkpt lat="44.37731" lon="5.17065">
        <ele>185</ele>
        <time>2022-02-27T10:41:50.806Z</time>
      </trkpt>
      <trkpt lat="44.37729" lon="5.17066">
        <ele>184</ele>
        <time>2022-02-27T10:41:51.806Z</time>
      </trkpt>
      <trkpt lat="44.37727" lon="5.17068">
        <ele>184</ele>
        <time>2022-02-27T10:41:52.806Z</time>
      </trkpt>
      <trkpt lat="44.37723" lon="5.17068">
        <ele>184</ele>
        <time>2022-02-27T10:41:53.806Z</time>
      </trkpt>
      <trkpt lat="44.37721" lon="5.17069">
        <ele>183</ele>
        <time>2022-02-27T10:41:54.807Z</time>
      </trkpt>
      <trkpt lat="44.37718" lon="5.17068">
        <ele>183</ele>
        <time>2022-02-27T10:41:55.806Z</time>
      </trkpt>
      <trkpt lat="44.37716" lon="5.17067">
        <ele>183</ele>
        <time>2022-02-27T10:41:56.806Z</time>
      </trkpt>
      <trkpt lat="44.37713" lon="5.17065">
        <ele>183</ele>
        <time>2022-02-27T10:41:57.807Z</time>
      </trkpt>
      <trkpt lat="44.37711" lon="5.17064">
        <ele>182</ele>
        <time>2022-02-27T10:41:58.806Z</time>
      </trkpt>
      <trkpt lat="44.37709" lon="5.17063">
        <ele>182</ele>
        <time>2022-02-27T10:41:59.807Z</time>
      </trkpt>
      <trkpt lat="44.37707" lon="5.17063">
        <ele>182</ele>
        <time>2022-02-27T10:42:00.806Z</time>
      </trkpt>
      <trkpt lat="44.37705" lon="5.17063">
        <ele>181</ele>
        <time>2022-02-27T10:42:01.806Z</time>
      </trkpt>
      <trkpt lat="44.37703" lon="5.17064">
        <ele>181</ele>
        <time>2022-02-27T10:42:02.806Z</time>
      </trkpt>
      <trkpt lat="44.37701" lon="5.17066">
        <ele>181</ele>
        <time>2022-02-27T10:42:03.806Z</time>
      </trkpt>
      <trkpt lat="44.37699" lon="5.17067">
        <ele>181</ele>
        <time>2022-02-27T10:42:04.807Z</time>
      </trkpt>
      <trkpt lat="44.37697" lon="5.17069">
        <ele>181</ele>
        <time>2022-02-27T10:42:05.806Z</time>
      </trkpt>
      <trkpt lat="44.37695" lon="5.1707">
        <ele>181</ele>
        <time>2022-02-27T10:42:06.806Z</time>
      </trkpt>
      <trkpt lat="44.37694" lon="5.1707">
        <ele>181</ele>
        <time>2022-02-27T10:42:07.806Z</time>
      </trkpt>
      <trkpt lat="44.37692" lon="5.17072">
        <ele>181</ele>
        <time>2022-02-27T10:42:08.806Z</time>
      </trkpt>
      <trkpt lat="44.3769" lon="5.17073">
        <ele>181</ele>
        <time>2022-02-27T10:42:09.806Z</time>
      </trkpt>
      <trkpt lat="44.37688" lon="5.17074">
        <ele>182</ele>
        <time>2022-02-27T10:42:10.806Z</time>
      </trkpt>
      <trkpt lat="44.37686" lon="5.17076">
        <ele>182</ele>
        <time>2022-02-27T10:42:11.807Z</time>
      </trkpt>
      <trkpt lat="44.37683" lon="5.17078">
        <ele>182</ele>
        <time>2022-02-27T10:42:12.807Z</time>
      </trkpt>
      <trkpt lat="44.37681" lon="5.17079">
        <ele>182</ele>
        <time>2022-02-27T10:42:13.807Z</time>
      </trkpt>
      <trkpt lat="44.3768" lon="5.1708">
        <ele>182</ele>
        <time>2022-02-27T10:42:14.807Z</time>
      </trkpt>
      <trkpt lat="44.37678" lon="5.17081">
        <ele>182</ele>
        <time>2022-02-27T10:42:15.806Z</time>
      </trkpt>
      <trkpt lat="44.37676" lon="5.17082">
        <ele>182</ele>
        <time>2022-02-27T10:42:16.806Z</time>
      </trkpt>
      <trkpt lat="44.37675" lon="5.17083">
        <ele>182</ele>
        <time>2022-02-27T10:42:17.806Z</time>
      </trkpt>
      <trkpt lat="44.37673" lon="5.17085">
        <ele>182</ele>
        <time>2022-02-27T10:42:18.807Z</time>
      </trkpt>
      <trkpt lat="44.37671" lon="5.17085">
        <ele>182</ele>
        <time>2022-02-27T10:42:19.806Z</time>
      </trkpt>
      <trkpt lat="44.37669" lon="5.17086">
        <ele>182</ele>
        <time>2022-02-27T10:42:20.806Z</time>
      </trkpt>
      <trkpt lat="44.37666" lon="5.17086">
        <ele>182</ele>
        <time>2022-02-27T10:42:21.806Z</time>
      </trkpt>
      <trkpt lat="44.37663" lon="5.17087">
        <ele>182</ele>
        <time>2022-02-27T10:42:22.806Z</time>
      </trkpt>
      <trkpt lat="44.37661" lon="5.17088">
        <ele>182</ele>
        <time>2022-02-27T10:42:23.806Z</time>
      </trkpt>
      <trkpt lat="44.37659" lon="5.17088">
        <ele>182</ele>
        <time>2022-02-27T10:42:24.806Z</time>
      </trkpt>
      <trkpt lat="44.37656" lon="5.17089">
        <ele>182</ele>
        <time>2022-02-27T10:42:25.806Z</time>
      </trkpt>
      <trkpt lat="44.37654" lon="5.1709">
        <ele>182</ele>
        <time>2022-02-27T10:42:26.806Z</time>
      </trkpt>
      <trkpt lat="44.37652" lon="5.17091">
        <ele>182</ele>
        <time>2022-02-27T10:42:27.806Z</time>
      </trkpt>
      <trkpt lat="44.37649" lon="5.17092">
        <ele>182</ele>
        <time>2022-02-27T10:42:28.806Z</time>
      </trkpt>
      <trkpt lat="44.37648" lon="5.17094">
        <ele>182</ele>
        <time>2022-02-27T10:42:29.806Z</time>
      </trkpt>
      <trkpt lat="44.37646" lon="5.17095">
        <ele>182</ele>
        <time>2022-02-27T10:42:30.806Z</time>
      </trkpt>
      <trkpt lat="44.37644" lon="5.17097">
        <ele>182</ele>
        <time>2022-02-27T10:42:31.806Z</time>
      </trkpt>
      <trkpt lat="44.37642" lon="5.17098">
        <ele>182</ele>
        <time>2022-02-27T10:42:32.807Z</time>
      </trkpt>
      <trkpt lat="44.37639" lon="5.171">
        <ele>182</ele>
        <time>2022-02-27T10:42:33.806Z</time>
      </trkpt>
      <trkpt lat="44.37637" lon="5.17102">
        <ele>182</ele>
        <time>2022-02-27T10:42:34.807Z</time>
      </trkpt>
      <trkpt lat="44.37634" lon="5.17104">
        <ele>181</ele>
        <time>2022-02-27T10:42:35.806Z</time>
      </trkpt>
      <trkpt lat="44.37632" lon="5.17106">
        <ele>181</ele>
        <time>2022-02-27T10:42:36.806Z</time>
      </trkpt>
      <trkpt lat="44.3763" lon="5.17109">
        <ele>181</ele>
        <time>2022-02-27T10:42:37.806Z</time>
      </trkpt>
      <trkpt lat="44.37627" lon="5.17112">
        <ele>181</ele>
        <time>2022-02-27T10:42:38.806Z</time>
      </trkpt>
      <trkpt lat="44.37625" lon="5.17114">
        <ele>181</ele>
        <time>2022-02-27T10:42:39.806Z</time>
      </trkpt>
      <trkpt lat="44.37623" lon="5.17115">
        <ele>181</ele>
        <time>2022-02-27T10:42:40.807Z</time>
      </trkpt>
      <trkpt lat="44.3762" lon="5.17117">
        <ele>181</ele>
        <time>2022-02-27T10:42:41.806Z</time>
      </trkpt>
      <trkpt lat="44.37618" lon="5.17119">
        <ele>181</ele>
        <time>2022-02-27T10:42:42.807Z</time>
      </trkpt>
      <trkpt lat="44.37616" lon="5.17121">
        <ele>181</ele>
        <time>2022-02-27T10:42:43.806Z</time>
      </trkpt>
      <trkpt lat="44.37613" lon="5.17124">
        <ele>181</ele>
        <time>2022-02-27T10:42:44.806Z</time>
      </trkpt>
      <trkpt lat="44.37611" lon="5.17126">
        <ele>181</ele>
        <time>2022-02-27T10:42:45.806Z</time>
      </trkpt>
      <trkpt lat="44.37608" lon="5.17129">
        <ele>181</ele>
        <time>2022-02-27T10:42:46.806Z</time>
      </trkpt>
      <trkpt lat="44.37605" lon="5.1713">
        <ele>181</ele>
        <time>2022-02-27T10:42:47.807Z</time>
      </trkpt>
      <trkpt lat="44.37602" lon="5.17132">
        <ele>181</ele>
        <time>2022-02-27T10:42:48.807Z</time>
      </trkpt>
      <trkpt lat="44.376" lon="5.17133">
        <ele>181</ele>
        <time>2022-02-27T10:42:49.806Z</time>
      </trkpt>
      <trkpt lat="44.37597" lon="5.17132">
        <ele>181</ele>
        <time>2022-02-27T10:42:50.806Z</time>
      </trkpt>
      <trkpt lat="44.37594" lon="5.1713">
        <ele>181</ele>
        <time>2022-02-27T10:42:51.806Z</time>
      </trkpt>
      <trkpt lat="44.37592" lon="5.17128">
        <ele>181</ele>
        <time>2022-02-27T10:42:52.806Z</time>
      </trkpt>
      <trkpt lat="44.37591" lon="5.17125">
        <ele>181</ele>
        <time>2022-02-27T10:42:53.806Z</time>
      </trkpt>
      <trkpt lat="44.3759" lon="5.17122">
        <ele>181</ele>
        <time>2022-02-27T10:42:54.807Z</time>
      </trkpt>
      <trkpt lat="44.37589" lon="5.17118">
        <ele>181</ele>
        <time>2022-02-27T10:42:55.806Z</time>
      </trkpt>
      <trkpt lat="44.37588" lon="5.17115">
        <ele>181</ele>
        <time>2022-02-27T10:42:56.806Z</time>
      </trkpt>
      <trkpt lat="44.37587" lon="5.17112">
        <ele>180</ele>
        <time>2022-02-27T10:42:57.807Z</time>
      </trkpt>
      <trkpt lat="44.37586" lon="5.17109">
        <ele>180</ele>
        <time>2022-02-27T10:42:58.806Z</time>
      </trkpt>
      <trkpt lat="44.37584" lon="5.17106">
        <ele>180</ele>
        <time>2022-02-27T10:42:59.806Z</time>
      </trkpt>
      <trkpt lat="44.37582" lon="5.17102">
        <ele>180</ele>
        <time>2022-02-27T10:43:00.806Z</time>
      </trkpt>
      <trkpt lat="44.37581" lon="5.17099">
        <ele>180</ele>
        <time>2022-02-27T10:43:01.806Z</time>
      </trkpt>
      <trkpt lat="44.3758" lon="5.17095">
        <ele>180</ele>
        <time>2022-02-27T10:43:02.806Z</time>
      </trkpt>
      <trkpt lat="44.37579" lon="5.17092">
        <ele>180</ele>
        <time>2022-02-27T10:43:03.806Z</time>
      </trkpt>
      <trkpt lat="44.37578" lon="5.17088">
        <ele>179</ele>
        <time>2022-02-27T10:43:04.807Z</time>
      </trkpt>
      <trkpt lat="44.37576" lon="5.17085">
        <ele>179</ele>
        <time>2022-02-27T10:43:05.806Z</time>
      </trkpt>
      <trkpt lat="44.37574" lon="5.1708">
        <ele>179</ele>
        <time>2022-02-27T10:43:06.807Z</time>
      </trkpt>
      <trkpt lat="44.37573" lon="5.17076">
        <ele>179</ele>
        <time>2022-02-27T10:43:07.807Z</time>
      </trkpt>
      <trkpt lat="44.37571" lon="5.17074">
        <ele>179</ele>
        <time>2022-02-27T10:43:08.807Z</time>
      </trkpt>
      <trkpt lat="44.37569" lon="5.17071">
        <ele>179</ele>
        <time>2022-02-27T10:43:09.807Z</time>
      </trkpt>
      <trkpt lat="44.37567" lon="5.17069">
        <ele>178</ele>
        <time>2022-02-27T10:43:10.807Z</time>
      </trkpt>
      <trkpt lat="44.37565" lon="5.17068">
        <ele>178</ele>
        <time>2022-02-27T10:43:11.806Z</time>
      </trkpt>
      <trkpt lat="44.37563" lon="5.17068">
        <ele>178</ele>
        <time>2022-02-27T10:43:12.806Z</time>
      </trkpt>
      <trkpt lat="44.3756" lon="5.17068">
        <ele>178</ele>
        <time>2022-02-27T10:43:13.806Z</time>
      </trkpt>
      <trkpt lat="44.37558" lon="5.17068">
        <ele>178</ele>
        <time>2022-02-27T10:43:14.807Z</time>
      </trkpt>
      <trkpt lat="44.37556" lon="5.17069">
        <ele>178</ele>
        <time>2022-02-27T10:43:15.807Z</time>
      </trkpt>
      <trkpt lat="44.37554" lon="5.1707">
        <ele>177</ele>
        <time>2022-02-27T10:43:16.807Z</time>
      </trkpt>
      <trkpt lat="44.37552" lon="5.17072">
        <ele>177</ele>
        <time>2022-02-27T10:43:17.807Z</time>
      </trkpt>
      <trkpt lat="44.3755" lon="5.17074">
        <ele>177</ele>
        <time>2022-02-27T10:43:18.807Z</time>
      </trkpt>
      <trkpt lat="44.37548" lon="5.17076">
        <ele>177</ele>
        <time>2022-02-27T10:43:19.806Z</time>
      </trkpt>
      <trkpt lat="44.37547" lon="5.17078">
        <ele>176</ele>
        <time>2022-02-27T10:43:20.806Z</time>
      </trkpt>
      <trkpt lat="44.37545" lon="5.1708">
        <ele>176</ele>
        <time>2022-02-27T10:43:21.807Z</time>
      </trkpt>
      <trkpt lat="44.37544" lon="5.17082">
        <ele>176</ele>
        <time>2022-02-27T10:43:22.806Z</time>
      </trkpt>
      <trkpt lat="44.37543" lon="5.17085">
        <ele>176</ele>
        <time>2022-02-27T10:43:23.806Z</time>
      </trkpt>
      <trkpt lat="44.37542" lon="5.17088">
        <ele>175</ele>
        <time>2022-02-27T10:43:24.807Z</time>
      </trkpt>
      <trkpt lat="44.37541" lon="5.17091">
        <ele>175</ele>
        <time>2022-02-27T10:43:25.807Z</time>
      </trkpt>
      <trkpt lat="44.3754" lon="5.17094">
        <ele>175</ele>
        <time>2022-02-27T10:43:26.807Z</time>
      </trkpt>
      <trkpt lat="44.37539" lon="5.17098">
        <ele>175</ele>
        <time>2022-02-27T10:43:27.806Z</time>
      </trkpt>
      <trkpt lat="44.37538" lon="5.17101">
        <ele>174</ele>
        <time>2022-02-27T10:43:28.807Z</time>
      </trkpt>
      <trkpt lat="44.37537" lon="5.17105">
        <ele>174</ele>
        <time>2022-02-27T10:43:29.807Z</time>
      </trkpt>
      <trkpt lat="44.37536" lon="5.17108">
        <ele>174</ele>
        <time>2022-02-27T10:43:30.807Z</time>
      </trkpt>
      <trkpt lat="44.37535" lon="5.17112">
        <ele>174</ele>
        <time>2022-02-27T10:43:31.806Z</time>
      </trkpt>
      <trkpt lat="44.37533" lon="5.17116">
        <ele>174</ele>
        <time>2022-02-27T10:43:32.806Z</time>
      </trkpt>
      <trkpt lat="44.37532" lon="5.17119">
        <ele>174</ele>
        <time>2022-02-27T10:43:33.807Z</time>
      </trkpt>
      <trkpt lat="44.3753" lon="5.17122">
        <ele>174</ele>
        <time>2022-02-27T10:43:34.807Z</time>
      </trkpt>
      <trkpt lat="44.37529" lon="5.17126">
        <ele>173</ele>
        <time>2022-02-27T10:43:35.806Z</time>
      </trkpt>
      <trkpt lat="44.37527" lon="5.17129">
        <ele>173</ele>
        <time>2022-02-27T10:43:36.806Z</time>
      </trkpt>
      <trkpt lat="44.37526" lon="5.17132">
        <ele>173</ele>
        <time>2022-02-27T10:43:37.807Z</time>
      </trkpt>
      <trkpt lat="44.37524" lon="5.17136">
        <ele>173</ele>
        <time>2022-02-27T10:43:38.807Z</time>
      </trkpt>
      <trkpt lat="44.37523" lon="5.17139">
        <ele>173</ele>
        <time>2022-02-27T10:43:39.807Z</time>
      </trkpt>
      <trkpt lat="44.37521" lon="5.17142">
        <ele>173</ele>
        <time>2022-02-27T10:43:40.806Z</time>
      </trkpt>
      <trkpt lat="44.37519" lon="5.17145">
        <ele>173</ele>
        <time>2022-02-27T10:43:41.807Z</time>
      </trkpt>
      <trkpt lat="44.37517" lon="5.17148">
        <ele>173</ele>
        <time>2022-02-27T10:43:42.807Z</time>
      </trkpt>
      <trkpt lat="44.37516" lon="5.17151">
        <ele>173</ele>
        <time>2022-02-27T10:43:43.806Z</time>
      </trkpt>
      <trkpt lat="44.37514" lon="5.17154">
        <ele>173</ele>
        <time>2022-02-27T10:43:44.806Z</time>
      </trkpt>
      <trkpt lat="44.37512" lon="5.17157">
        <ele>173</ele>
        <time>2022-02-27T10:43:45.806Z</time>
      </trkpt>
      <trkpt lat="44.3751" lon="5.1716">
        <ele>173</ele>
        <time>2022-02-27T10:43:46.807Z</time>
      </trkpt>
      <trkpt lat="44.37508" lon="5.17163">
        <ele>173</ele>
        <time>2022-02-27T10:43:47.807Z</time>
      </trkpt>
      <trkpt lat="44.37505" lon="5.17166">
        <ele>173</ele>
        <time>2022-02-27T10:43:48.806Z</time>
      </trkpt>
      <trkpt lat="44.37503" lon="5.17169">
        <ele>173</ele>
        <time>2022-02-27T10:43:49.806Z</time>
      </trkpt>
      <trkpt lat="44.37501" lon="5.17171">
        <ele>173</ele>
        <time>2022-02-27T10:43:50.807Z</time>
      </trkpt>
      <trkpt lat="44.37499" lon="5.17174">
        <ele>173</ele>
        <time>2022-02-27T10:43:51.807Z</time>
      </trkpt>
      <trkpt lat="44.37497" lon="5.17177">
        <ele>173</ele>
        <time>2022-02-27T10:43:52.807Z</time>
      </trkpt>
      <trkpt lat="44.37495" lon="5.17181">
        <ele>173</ele>
        <time>2022-02-27T10:43:53.807Z</time>
      </trkpt>
      <trkpt lat="44.37492" lon="5.17184">
        <ele>173</ele>
        <time>2022-02-27T10:43:54.807Z</time>
      </trkpt>
      <trkpt lat="44.37489" lon="5.17186">
        <ele>173</ele>
        <time>2022-02-27T10:43:55.806Z</time>
      </trkpt>
      <trkpt lat="44.37487" lon="5.17189">
        <ele>173</ele>
        <time>2022-02-27T10:43:56.807Z</time>
      </trkpt>
      <trkpt lat="44.37484" lon="5.1719">
        <ele>173</ele>
        <time>2022-02-27T10:43:57.807Z</time>
      </trkpt>
      <trkpt lat="44.3748" lon="5.17191">
        <ele>172</ele>
        <time>2022-02-27T10:43:58.807Z</time>
      </trkpt>
      <trkpt lat="44.37477" lon="5.17191">
        <ele>172</ele>
        <time>2022-02-27T10:43:59.806Z</time>
      </trkpt>
      <trkpt lat="44.37473" lon="5.17191">
        <ele>172</ele>
        <time>2022-02-27T10:44:00.806Z</time>
      </trkpt>
      <trkpt lat="44.3747" lon="5.17189">
        <ele>172</ele>
        <time>2022-02-27T10:44:01.806Z</time>
      </trkpt>
      <trkpt lat="44.37467" lon="5.17187">
        <ele>172</ele>
        <time>2022-02-27T10:44:02.807Z</time>
      </trkpt>
      <trkpt lat="44.37465" lon="5.17184">
        <ele>172</ele>
        <time>2022-02-27T10:44:03.807Z</time>
      </trkpt>
      <trkpt lat="44.37463" lon="5.17181">
        <ele>172</ele>
        <time>2022-02-27T10:44:04.807Z</time>
      </trkpt>
      <trkpt lat="44.3746" lon="5.17178">
        <ele>172</ele>
        <time>2022-02-27T10:44:05.807Z</time>
      </trkpt>
      <trkpt lat="44.37458" lon="5.17175">
        <ele>172</ele>
        <time>2022-02-27T10:44:06.807Z</time>
      </trkpt>
      <trkpt lat="44.37456" lon="5.17171">
        <ele>172</ele>
        <time>2022-02-27T10:44:07.806Z</time>
      </trkpt>
      <trkpt lat="44.37455" lon="5.17168">
        <ele>172</ele>
        <time>2022-02-27T10:44:08.807Z</time>
      </trkpt>
      <trkpt lat="44.37453" lon="5.17164">
        <ele>172</ele>
        <time>2022-02-27T10:44:09.806Z</time>
      </trkpt>
      <trkpt lat="44.37451" lon="5.17161">
        <ele>172</ele>
        <time>2022-02-27T10:44:10.807Z</time>
      </trkpt>
      <trkpt lat="44.3745" lon="5.17158">
        <ele>172</ele>
        <time>2022-02-27T10:44:11.807Z</time>
      </trkpt>
      <trkpt lat="44.37449" lon="5.17155">
        <ele>172</ele>
        <time>2022-02-27T10:44:12.806Z</time>
      </trkpt>
      <trkpt lat="44.37448" lon="5.17152">
        <ele>172</ele>
        <time>2022-02-27T10:44:13.806Z</time>
      </trkpt>
      <trkpt lat="44.37447" lon="5.17149">
        <ele>172</ele>
        <time>2022-02-27T10:44:14.807Z</time>
      </trkpt>
      <trkpt lat="44.37446" lon="5.17146">
        <ele>172</ele>
        <time>2022-02-27T10:44:15.807Z</time>
      </trkpt>
      <trkpt lat="44.37445" lon="5.17144">
        <ele>172</ele>
        <time>2022-02-27T10:44:16.807Z</time>
      </trkpt>
      <trkpt lat="44.37444" lon="5.17141">
        <ele>172</ele>
        <time>2022-02-27T10:44:17.806Z</time>
      </trkpt>
      <trkpt lat="44.37443" lon="5.17138">
        <ele>172</ele>
        <time>2022-02-27T10:44:18.806Z</time>
      </trkpt>
      <trkpt lat="44.37443" lon="5.17135">
        <ele>172</ele>
        <time>2022-02-27T10:44:19.807Z</time>
      </trkpt>
      <trkpt lat="44.37442" lon="5.17132">
        <ele>172</ele>
        <time>2022-02-27T10:44:20.806Z</time>
      </trkpt>
      <trkpt lat="44.37441" lon="5.17129">
        <ele>172</ele>
        <time>2022-02-27T10:44:21.807Z</time>
      </trkpt>
      <trkpt lat="44.3744" lon="5.17125">
        <ele>172</ele>
        <time>2022-02-27T10:44:22.807Z</time>
      </trkpt>
      <trkpt lat="44.3744" lon="5.17122">
        <ele>172</ele>
        <time>2022-02-27T10:44:23.807Z</time>
      </trkpt>
      <trkpt lat="44.37439" lon="5.17119">
        <ele>172</ele>
        <time>2022-02-27T10:44:24.806Z</time>
      </trkpt>
      <trkpt lat="44.37437" lon="5.17116">
        <ele>172</ele>
        <time>2022-02-27T10:44:25.806Z</time>
      </trkpt>
      <trkpt lat="44.37436" lon="5.17113">
        <ele>172</ele>
        <time>2022-02-27T10:44:26.806Z</time>
      </trkpt>
      <trkpt lat="44.37434" lon="5.17109">
        <ele>173</ele>
        <time>2022-02-27T10:44:27.807Z</time>
      </trkpt>
      <trkpt lat="44.37433" lon="5.17105">
        <ele>173</ele>
        <time>2022-02-27T10:44:28.806Z</time>
      </trkpt>
      <trkpt lat="44.37431" lon="5.17103">
        <ele>173</ele>
        <time>2022-02-27T10:44:29.806Z</time>
      </trkpt>
      <trkpt lat="44.3743" lon="5.17101">
        <ele>173</ele>
        <time>2022-02-27T10:44:30.807Z</time>
      </trkpt>
      <trkpt lat="44.37428" lon="5.171">
        <ele>173</ele>
        <time>2022-02-27T10:44:31.807Z</time>
      </trkpt>
      <trkpt lat="44.37426" lon="5.17098">
        <ele>174</ele>
        <time>2022-02-27T10:44:32.807Z</time>
      </trkpt>
      <trkpt lat="44.37424" lon="5.17097">
        <ele>174</ele>
        <time>2022-02-27T10:44:33.807Z</time>
      </trkpt>
      <trkpt lat="44.37422" lon="5.17096">
        <ele>174</ele>
        <time>2022-02-27T10:44:34.807Z</time>
      </trkpt>
      <trkpt lat="44.3742" lon="5.17095">
        <ele>174</ele>
        <time>2022-02-27T10:44:35.807Z</time>
      </trkpt>
      <trkpt lat="44.37417" lon="5.17095">
        <ele>174</ele>
        <time>2022-02-27T10:44:36.807Z</time>
      </trkpt>
      <trkpt lat="44.37414" lon="5.17095">
        <ele>175</ele>
        <time>2022-02-27T10:44:37.807Z</time>
      </trkpt>
      <trkpt lat="44.37411" lon="5.17095">
        <ele>175</ele>
        <time>2022-02-27T10:44:38.806Z</time>
      </trkpt>
      <trkpt lat="44.37408" lon="5.17095">
        <ele>175</ele>
        <time>2022-02-27T10:44:39.807Z</time>
      </trkpt>
      <trkpt lat="44.37406" lon="5.17095">
        <ele>176</ele>
        <time>2022-02-27T10:44:40.807Z</time>
      </trkpt>
      <trkpt lat="44.37403" lon="5.17095">
        <ele>176</ele>
        <time>2022-02-27T10:44:41.806Z</time>
      </trkpt>
      <trkpt lat="44.374" lon="5.17094">
        <ele>176</ele>
        <time>2022-02-27T10:44:42.806Z</time>
      </trkpt>
      <trkpt lat="44.37398" lon="5.17093">
        <ele>177</ele>
        <time>2022-02-27T10:44:43.806Z</time>
      </trkpt>
      <trkpt lat="44.37396" lon="5.17092">
        <ele>177</ele>
        <time>2022-02-27T10:44:44.806Z</time>
      </trkpt>
      <trkpt lat="44.37394" lon="5.17091">
        <ele>177</ele>
        <time>2022-02-27T10:44:45.806Z</time>
      </trkpt>
      <trkpt lat="44.37392" lon="5.1709">
        <ele>177</ele>
        <time>2022-02-27T10:44:46.806Z</time>
      </trkpt>
      <trkpt lat="44.37389" lon="5.1709">
        <ele>177</ele>
        <time>2022-02-27T10:44:47.807Z</time>
      </trkpt>
      <trkpt lat="44.37387" lon="5.1709">
        <ele>177</ele>
        <time>2022-02-27T10:44:48.807Z</time>
      </trkpt>
      <trkpt lat="44.37384" lon="5.17091">
        <ele>177</ele>
        <time>2022-02-27T10:44:49.806Z</time>
      </trkpt>
      <trkpt lat="44.37382" lon="5.17091">
        <ele>177</ele>
        <time>2022-02-27T10:44:50.807Z</time>
      </trkpt>
      <trkpt lat="44.37379" lon="5.17091">
        <ele>177</ele>
        <time>2022-02-27T10:44:51.807Z</time>
      </trkpt>
      <trkpt lat="44.37377" lon="5.17091">
        <ele>177</ele>
        <time>2022-02-27T10:44:52.807Z</time>
      </trkpt>
      <trkpt lat="44.37374" lon="5.17091">
        <ele>177</ele>
        <time>2022-02-27T10:44:53.807Z</time>
      </trkpt>
      <trkpt lat="44.37372" lon="5.17091">
        <ele>177</ele>
        <time>2022-02-27T10:44:54.807Z</time>
      </trkpt>
      <trkpt lat="44.3737" lon="5.1709">
        <ele>177</ele>
        <time>2022-02-27T10:44:55.807Z</time>
      </trkpt>
      <trkpt lat="44.37368" lon="5.1709">
        <ele>177</ele>
        <time>2022-02-27T10:44:56.807Z</time>
      </trkpt>
      <trkpt lat="44.37365" lon="5.1709">
        <ele>177</ele>
        <time>2022-02-27T10:44:57.807Z</time>
      </trkpt>
      <trkpt lat="44.37363" lon="5.1709">
        <ele>177</ele>
        <time>2022-02-27T10:44:58.807Z</time>
      </trkpt>
      <trkpt lat="44.37361" lon="5.17091">
        <ele>177</ele>
        <time>2022-02-27T10:44:59.806Z</time>
      </trkpt>
      <trkpt lat="44.37358" lon="5.17091">
        <ele>177</ele>
        <time>2022-02-27T10:45:00.807Z</time>
      </trkpt>
      <trkpt lat="44.37356" lon="5.1709">
        <ele>177</ele>
        <time>2022-02-27T10:45:01.806Z</time>
      </trkpt>
      <trkpt lat="44.37354" lon="5.17089">
        <ele>177</ele>
        <time>2022-02-27T10:45:02.807Z</time>
      </trkpt>
      <trkpt lat="44.37351" lon="5.17088">
        <ele>177</ele>
        <time>2022-02-27T10:45:03.806Z</time>
      </trkpt>
      <trkpt lat="44.3735" lon="5.17085">
        <ele>177</ele>
        <time>2022-02-27T10:45:04.806Z</time>
      </trkpt>
      <trkpt lat="44.37348" lon="5.17082">
        <ele>177</ele>
        <time>2022-02-27T10:45:05.806Z</time>
      </trkpt>
      <trkpt lat="44.37347" lon="5.17078">
        <ele>176</ele>
        <time>2022-02-27T10:45:06.806Z</time>
      </trkpt>
      <trkpt lat="44.37347" lon="5.17074">
        <ele>176</ele>
        <time>2022-02-27T10:45:07.807Z</time>
      </trkpt>
      <trkpt lat="44.37347" lon="5.1707">
        <ele>176</ele>
        <time>2022-02-27T10:45:08.807Z</time>
      </trkpt>
      <trkpt lat="44.37347" lon="5.17065">
        <ele>176</ele>
        <time>2022-02-27T10:45:09.806Z</time>
      </trkpt>
      <trkpt lat="44.37347" lon="5.1706">
        <ele>176</ele>
        <time>2022-02-27T10:45:10.806Z</time>
      </trkpt>
      <trkpt lat="44.37348" lon="5.17056">
        <ele>176</ele>
        <time>2022-02-27T10:45:11.806Z</time>
      </trkpt>
      <trkpt lat="44.37348" lon="5.17051">
        <ele>175</ele>
        <time>2022-02-27T10:45:12.807Z</time>
      </trkpt>
      <trkpt lat="44.37349" lon="5.17047">
        <ele>175</ele>
        <time>2022-02-27T10:45:13.807Z</time>
      </trkpt>
      <trkpt lat="44.37349" lon="5.17042">
        <ele>175</ele>
        <time>2022-02-27T10:45:14.807Z</time>
      </trkpt>
      <trkpt lat="44.37349" lon="5.17038">
        <ele>174</ele>
        <time>2022-02-27T10:45:15.806Z</time>
      </trkpt>
      <trkpt lat="44.37349" lon="5.17034">
        <ele>174</ele>
        <time>2022-02-27T10:45:16.807Z</time>
      </trkpt>
      <trkpt lat="44.3735" lon="5.17029">
        <ele>174</ele>
        <time>2022-02-27T10:45:17.806Z</time>
      </trkpt>
      <trkpt lat="44.3735" lon="5.17025">
        <ele>173</ele>
        <time>2022-02-27T10:45:18.806Z</time>
      </trkpt>
      <trkpt lat="44.3735" lon="5.17022">
        <ele>173</ele>
        <time>2022-02-27T10:45:19.807Z</time>
      </trkpt>
      <trkpt lat="44.3735" lon="5.17018">
        <ele>173</ele>
        <time>2022-02-27T10:45:20.806Z</time>
      </trkpt>
      <trkpt lat="44.3735" lon="5.17014">
        <ele>173</ele>
        <time>2022-02-27T10:45:21.806Z</time>
      </trkpt>
      <trkpt lat="44.37349" lon="5.1701">
        <ele>173</ele>
        <time>2022-02-27T10:45:22.807Z</time>
      </trkpt>
      <trkpt lat="44.37349" lon="5.17006">
        <ele>173</ele>
        <time>2022-02-27T10:45:23.806Z</time>
      </trkpt>
      <trkpt lat="44.37349" lon="5.17002">
        <ele>173</ele>
        <time>2022-02-27T10:45:24.807Z</time>
      </trkpt>
      <trkpt lat="44.37349" lon="5.16998">
        <ele>173</ele>
        <time>2022-02-27T10:45:25.806Z</time>
      </trkpt>
      <trkpt lat="44.37348" lon="5.16994">
        <ele>174</ele>
        <time>2022-02-27T10:45:26.806Z</time>
      </trkpt>
      <trkpt lat="44.37348" lon="5.1699">
        <ele>174</ele>
        <time>2022-02-27T10:45:27.807Z</time>
      </trkpt>
      <trkpt lat="44.37348" lon="5.16987">
        <ele>174</ele>
        <time>2022-02-27T10:45:28.807Z</time>
      </trkpt>
      <trkpt lat="44.37347" lon="5.16983">
        <ele>174</ele>
        <time>2022-02-27T10:45:29.806Z</time>
      </trkpt>
      <trkpt lat="44.37346" lon="5.16979">
        <ele>174</ele>
        <time>2022-02-27T10:45:30.807Z</time>
      </trkpt>
      <trkpt lat="44.37346" lon="5.16975">
        <ele>175</ele>
        <time>2022-02-27T10:45:31.806Z</time>
      </trkpt>
      <trkpt lat="44.37345" lon="5.16971">
        <ele>175</ele>
        <time>2022-02-27T10:45:32.807Z</time>
      </trkpt>
      <trkpt lat="44.37345" lon="5.16968">
        <ele>175</ele>
        <time>2022-02-27T10:45:33.807Z</time>
      </trkpt>
      <trkpt lat="44.37344" lon="5.16965">
        <ele>175</ele>
        <time>2022-02-27T10:45:34.806Z</time>
      </trkpt>
      <trkpt lat="44.37343" lon="5.16961">
        <ele>175</ele>
        <time>2022-02-27T10:45:35.806Z</time>
      </trkpt>
      <trkpt lat="44.37342" lon="5.16957">
        <ele>175</ele>
        <time>2022-02-27T10:45:36.807Z</time>
      </trkpt>
      <trkpt lat="44.37341" lon="5.16954">
        <ele>175</ele>
        <time>2022-02-27T10:45:37.807Z</time>
      </trkpt>
      <trkpt lat="44.3734" lon="5.1695">
        <ele>176</ele>
        <time>2022-02-27T10:45:38.807Z</time>
      </trkpt>
      <trkpt lat="44.3734" lon="5.16947">
        <ele>176</ele>
        <time>2022-02-27T10:45:39.807Z</time>
      </trkpt>
      <trkpt lat="44.37339" lon="5.16944">
        <ele>176</ele>
        <time>2022-02-27T10:45:40.806Z</time>
      </trkpt>
      <trkpt lat="44.37339" lon="5.1694">
        <ele>176</ele>
        <time>2022-02-27T10:45:41.806Z</time>
      </trkpt>
      <trkpt lat="44.37338" lon="5.16937">
        <ele>176</ele>
        <time>2022-02-27T10:45:42.806Z</time>
      </trkpt>
      <trkpt lat="44.37337" lon="5.16934">
        <ele>177</ele>
        <time>2022-02-27T10:45:43.806Z</time>
      </trkpt>
      <trkpt lat="44.37337" lon="5.1693">
        <ele>177</ele>
        <time>2022-02-27T10:45:44.806Z</time>
      </trkpt>
      <trkpt lat="44.37336" lon="5.16926">
        <ele>177</ele>
        <time>2022-02-27T10:45:45.807Z</time>
      </trkpt>
      <trkpt lat="44.37335" lon="5.16922">
        <ele>178</ele>
        <time>2022-02-27T10:45:46.806Z</time>
      </trkpt>
      <trkpt lat="44.37335" lon="5.16918">
        <ele>178</ele>
        <time>2022-02-27T10:45:47.806Z</time>
      </trkpt>
      <trkpt lat="44.37334" lon="5.16914">
        <ele>179</ele>
        <time>2022-02-27T10:45:48.807Z</time>
      </trkpt>
      <trkpt lat="44.37334" lon="5.16909">
        <ele>179</ele>
        <time>2022-02-27T10:45:49.807Z</time>
      </trkpt>
      <trkpt lat="44.37334" lon="5.16904">
        <ele>179</ele>
        <time>2022-02-27T10:45:50.807Z</time>
      </trkpt>
      <trkpt lat="44.37333" lon="5.16899">
        <ele>180</ele>
        <time>2022-02-27T10:45:51.807Z</time>
      </trkpt>
      <trkpt lat="44.37332" lon="5.16895">
        <ele>180</ele>
        <time>2022-02-27T10:45:52.806Z</time>
      </trkpt>
      <trkpt lat="44.37331" lon="5.16892">
        <ele>181</ele>
        <time>2022-02-27T10:45:53.806Z</time>
      </trkpt>
      <trkpt lat="44.3733" lon="5.16888">
        <ele>181</ele>
        <time>2022-02-27T10:45:54.807Z</time>
      </trkpt>
      <trkpt lat="44.37329" lon="5.16885">
        <ele>181</ele>
        <time>2022-02-27T10:45:55.806Z</time>
      </trkpt>
      <trkpt lat="44.37328" lon="5.16882">
        <ele>181</ele>
        <time>2022-02-27T10:45:56.806Z</time>
      </trkpt>
      <trkpt lat="44.37327" lon="5.16878">
        <ele>182</ele>
        <time>2022-02-27T10:45:57.807Z</time>
      </trkpt>
      <trkpt lat="44.37326" lon="5.16875">
        <ele>182</ele>
        <time>2022-02-27T10:45:58.806Z</time>
      </trkpt>
      <trkpt lat="44.37325" lon="5.16872">
        <ele>182</ele>
        <time>2022-02-27T10:45:59.806Z</time>
      </trkpt>
      <trkpt lat="44.37324" lon="5.1687">
        <ele>182</ele>
        <time>2022-02-27T10:46:00.806Z</time>
      </trkpt>
      <trkpt lat="44.37323" lon="5.16866">
        <ele>183</ele>
        <time>2022-02-27T10:46:01.806Z</time>
      </trkpt>
      <trkpt lat="44.37321" lon="5.16863">
        <ele>183</ele>
        <time>2022-02-27T10:46:02.806Z</time>
      </trkpt>
      <trkpt lat="44.3732" lon="5.1686">
        <ele>183</ele>
        <time>2022-02-27T10:46:03.806Z</time>
      </trkpt>
      <trkpt lat="44.37318" lon="5.16857">
        <ele>184</ele>
        <time>2022-02-27T10:46:04.806Z</time>
      </trkpt>
      <trkpt lat="44.37317" lon="5.16854">
        <ele>184</ele>
        <time>2022-02-27T10:46:05.806Z</time>
      </trkpt>
      <trkpt lat="44.37315" lon="5.16852">
        <ele>184</ele>
        <time>2022-02-27T10:46:06.806Z</time>
      </trkpt>
      <trkpt lat="44.37314" lon="5.16849">
        <ele>185</ele>
        <time>2022-02-27T10:46:07.806Z</time>
      </trkpt>
      <trkpt lat="44.37312" lon="5.16846">
        <ele>185</ele>
        <time>2022-02-27T10:46:08.806Z</time>
      </trkpt>
      <trkpt lat="44.3731" lon="5.16843">
        <ele>185</ele>
        <time>2022-02-27T10:46:09.806Z</time>
      </trkpt>
      <trkpt lat="44.37309" lon="5.1684">
        <ele>185</ele>
        <time>2022-02-27T10:46:10.807Z</time>
      </trkpt>
      <trkpt lat="44.37307" lon="5.16838">
        <ele>186</ele>
        <time>2022-02-27T10:46:11.807Z</time>
      </trkpt>
      <trkpt lat="44.37305" lon="5.16836">
        <ele>186</ele>
        <time>2022-02-27T10:46:12.807Z</time>
      </trkpt>
      <trkpt lat="44.37303" lon="5.16834">
        <ele>186</ele>
        <time>2022-02-27T10:46:13.806Z</time>
      </trkpt>
      <trkpt lat="44.37302" lon="5.16831">
        <ele>186</ele>
        <time>2022-02-27T10:46:14.806Z</time>
      </trkpt>
      <trkpt lat="44.373" lon="5.16828">
        <ele>186</ele>
        <time>2022-02-27T10:46:15.807Z</time>
      </trkpt>
      <trkpt lat="44.37299" lon="5.16826">
        <ele>187</ele>
        <time>2022-02-27T10:46:16.807Z</time>
      </trkpt>
      <trkpt lat="44.37297" lon="5.16823">
        <ele>187</ele>
        <time>2022-02-27T10:46:17.806Z</time>
      </trkpt>
      <trkpt lat="44.37296" lon="5.16821">
        <ele>187</ele>
        <time>2022-02-27T10:46:18.807Z</time>
      </trkpt>
      <trkpt lat="44.37294" lon="5.16818">
        <ele>187</ele>
        <time>2022-02-27T10:46:19.807Z</time>
      </trkpt>
      <trkpt lat="44.37292" lon="5.16815">
        <ele>187</ele>
        <time>2022-02-27T10:46:20.807Z</time>
      </trkpt>
      <trkpt lat="44.37291" lon="5.16813">
        <ele>188</ele>
        <time>2022-02-27T10:46:21.807Z</time>
      </trkpt>
      <trkpt lat="44.37289" lon="5.16811">
        <ele>188</ele>
        <time>2022-02-27T10:46:22.806Z</time>
      </trkpt>
      <trkpt lat="44.37287" lon="5.16808">
        <ele>188</ele>
        <time>2022-02-27T10:46:23.806Z</time>
      </trkpt>
      <trkpt lat="44.37285" lon="5.16806">
        <ele>188</ele>
        <time>2022-02-27T10:46:24.806Z</time>
      </trkpt>
      <trkpt lat="44.37283" lon="5.16803">
        <ele>189</ele>
        <time>2022-02-27T10:46:25.807Z</time>
      </trkpt>
      <trkpt lat="44.37282" lon="5.16801">
        <ele>189</ele>
        <time>2022-02-27T10:46:26.807Z</time>
      </trkpt>
      <trkpt lat="44.3728" lon="5.16799">
        <ele>189</ele>
        <time>2022-02-27T10:46:27.807Z</time>
      </trkpt>
      <trkpt lat="44.37279" lon="5.16796">
        <ele>189</ele>
        <time>2022-02-27T10:46:28.806Z</time>
      </trkpt>
      <trkpt lat="44.37277" lon="5.16794">
        <ele>190</ele>
        <time>2022-02-27T10:46:29.806Z</time>
      </trkpt>
      <trkpt lat="44.37275" lon="5.16792">
        <ele>190</ele>
        <time>2022-02-27T10:46:30.807Z</time>
      </trkpt>
      <trkpt lat="44.37274" lon="5.1679">
        <ele>190</ele>
        <time>2022-02-27T10:46:31.807Z</time>
      </trkpt>
      <trkpt lat="44.37272" lon="5.16788">
        <ele>190</ele>
        <time>2022-02-27T10:46:32.807Z</time>
      </trkpt>
      <trkpt lat="44.3727" lon="5.16785">
        <ele>191</ele>
        <time>2022-02-27T10:46:33.806Z</time>
      </trkpt>
      <trkpt lat="44.37268" lon="5.16784">
        <ele>191</ele>
        <time>2022-02-27T10:46:34.807Z</time>
      </trkpt>
      <trkpt lat="44.37266" lon="5.16782">
        <ele>191</ele>
        <time>2022-02-27T10:46:35.806Z</time>
      </trkpt>
      <trkpt lat="44.37264" lon="5.16779">
        <ele>191</ele>
        <time>2022-02-27T10:46:36.806Z</time>
      </trkpt>
      <trkpt lat="44.37263" lon="5.16776">
        <ele>191</ele>
        <time>2022-02-27T10:46:37.807Z</time>
      </trkpt>
      <trkpt lat="44.37261" lon="5.16774">
        <ele>192</ele>
        <time>2022-02-27T10:46:38.807Z</time>
      </trkpt>
      <trkpt lat="44.3726" lon="5.16771">
        <ele>192</ele>
        <time>2022-02-27T10:46:39.807Z</time>
      </trkpt>
      <trkpt lat="44.37258" lon="5.16768">
        <ele>192</ele>
        <time>2022-02-27T10:46:40.807Z</time>
      </trkpt>
      <trkpt lat="44.37257" lon="5.16764">
        <ele>193</ele>
        <time>2022-02-27T10:46:41.806Z</time>
      </trkpt>
      <trkpt lat="44.37255" lon="5.16761">
        <ele>193</ele>
        <time>2022-02-27T10:46:42.806Z</time>
      </trkpt>
      <trkpt lat="44.37253" lon="5.16758">
        <ele>194</ele>
        <time>2022-02-27T10:46:43.807Z</time>
      </trkpt>
      <trkpt lat="44.37252" lon="5.16755">
        <ele>195</ele>
        <time>2022-02-27T10:46:44.806Z</time>
      </trkpt>
      <trkpt lat="44.3725" lon="5.16753">
        <ele>195</ele>
        <time>2022-02-27T10:46:45.807Z</time>
      </trkpt>
      <trkpt lat="44.37249" lon="5.1675">
        <ele>196</ele>
        <time>2022-02-27T10:46:46.806Z</time>
      </trkpt>
      <trkpt lat="44.37248" lon="5.16746">
        <ele>197</ele>
        <time>2022-02-27T10:46:47.807Z</time>
      </trkpt>
      <trkpt lat="44.37247" lon="5.16742">
        <ele>197</ele>
        <time>2022-02-27T10:46:48.807Z</time>
      </trkpt>
      <trkpt lat="44.37246" lon="5.16739">
        <ele>198</ele>
        <time>2022-02-27T10:46:49.806Z</time>
      </trkpt>
      <trkpt lat="44.37245" lon="5.16735">
        <ele>199</ele>
        <time>2022-02-27T10:46:50.807Z</time>
      </trkpt>
      <trkpt lat="44.37244" lon="5.16732">
        <ele>200</ele>
        <time>2022-02-27T10:46:51.806Z</time>
      </trkpt>
      <trkpt lat="44.37242" lon="5.16729">
        <ele>200</ele>
        <time>2022-02-27T10:46:52.807Z</time>
      </trkpt>
      <trkpt lat="44.37241" lon="5.16726">
        <ele>201</ele>
        <time>2022-02-27T10:46:53.807Z</time>
      </trkpt>
      <trkpt lat="44.37239" lon="5.16723">
        <ele>201</ele>
        <time>2022-02-27T10:46:54.806Z</time>
      </trkpt>
      <trkpt lat="44.37238" lon="5.16719">
        <ele>202</ele>
        <time>2022-02-27T10:46:55.807Z</time>
      </trkpt>
      <trkpt lat="44.37237" lon="5.16716">
        <ele>202</ele>
        <time>2022-02-27T10:46:56.807Z</time>
      </trkpt>
      <trkpt lat="44.37236" lon="5.16712">
        <ele>203</ele>
        <time>2022-02-27T10:46:57.806Z</time>
      </trkpt>
      <trkpt lat="44.37235" lon="5.16709">
        <ele>203</ele>
        <time>2022-02-27T10:46:58.806Z</time>
      </trkpt>
      <trkpt lat="44.37234" lon="5.16705">
        <ele>204</ele>
        <time>2022-02-27T10:46:59.807Z</time>
      </trkpt>
      <trkpt lat="44.37232" lon="5.16703">
        <ele>204</ele>
        <time>2022-02-27T10:47:00.806Z</time>
      </trkpt>
      <trkpt lat="44.3723" lon="5.167">
        <ele>204</ele>
        <time>2022-02-27T10:47:01.807Z</time>
      </trkpt>
      <trkpt lat="44.37229" lon="5.16697">
        <ele>204</ele>
        <time>2022-02-27T10:47:02.807Z</time>
      </trkpt>
      <trkpt lat="44.37228" lon="5.16693">
        <ele>204</ele>
        <time>2022-02-27T10:47:03.807Z</time>
      </trkpt>
      <trkpt lat="44.37227" lon="5.1669">
        <ele>205</ele>
        <time>2022-02-27T10:47:04.807Z</time>
      </trkpt>
      <trkpt lat="44.37226" lon="5.16687">
        <ele>205</ele>
        <time>2022-02-27T10:47:05.807Z</time>
      </trkpt>
      <trkpt lat="44.37225" lon="5.16685">
        <ele>205</ele>
        <time>2022-02-27T10:47:06.807Z</time>
      </trkpt>
      <trkpt lat="44.37224" lon="5.16682">
        <ele>205</ele>
        <time>2022-02-27T10:47:07.807Z</time>
      </trkpt>
      <trkpt lat="44.37224" lon="5.16679">
        <ele>205</ele>
        <time>2022-02-27T10:47:08.807Z</time>
      </trkpt>
      <trkpt lat="44.37223" lon="5.16675">
        <ele>206</ele>
        <time>2022-02-27T10:47:09.806Z</time>
      </trkpt>
      <trkpt lat="44.37222" lon="5.16672">
        <ele>207</ele>
        <time>2022-02-27T10:47:10.807Z</time>
      </trkpt>
      <trkpt lat="44.37222" lon="5.16669">
        <ele>208</ele>
        <time>2022-02-27T10:47:11.806Z</time>
      </trkpt>
      <trkpt lat="44.37221" lon="5.16665">
        <ele>208</ele>
        <time>2022-02-27T10:47:12.807Z</time>
      </trkpt>
      <trkpt lat="44.3722" lon="5.16662">
        <ele>209</ele>
        <time>2022-02-27T10:47:13.806Z</time>
      </trkpt>
      <trkpt lat="44.3722" lon="5.16658">
        <ele>210</ele>
        <time>2022-02-27T10:47:14.806Z</time>
      </trkpt>
      <trkpt lat="44.37219" lon="5.16655">
        <ele>211</ele>
        <time>2022-02-27T10:47:15.807Z</time>
      </trkpt>
      <trkpt lat="44.37219" lon="5.16651">
        <ele>212</ele>
        <time>2022-02-27T10:47:16.807Z</time>
      </trkpt>
      <trkpt lat="44.37219" lon="5.16647">
        <ele>213</ele>
        <time>2022-02-27T10:47:17.807Z</time>
      </trkpt>
      <trkpt lat="44.37218" lon="5.16643">
        <ele>214</ele>
        <time>2022-02-27T10:47:18.807Z</time>
      </trkpt>
      <trkpt lat="44.37218" lon="5.1664">
        <ele>215</ele>
        <time>2022-02-27T10:47:19.806Z</time>
      </trkpt>
      <trkpt lat="44.37218" lon="5.16637">
        <ele>216</ele>
        <time>2022-02-27T10:47:20.806Z</time>
      </trkpt>
      <trkpt lat="44.37218" lon="5.16633">
        <ele>217</ele>
        <time>2022-02-27T10:47:21.807Z</time>
      </trkpt>
      <trkpt lat="44.37218" lon="5.16629">
        <ele>218</ele>
        <time>2022-02-27T10:47:22.807Z</time>
      </trkpt>
      <trkpt lat="44.37218" lon="5.16625">
        <ele>219</ele>
        <time>2022-02-27T10:47:23.806Z</time>
      </trkpt>
      <trkpt lat="44.37218" lon="5.16622">
        <ele>220</ele>
        <time>2022-02-27T10:47:24.807Z</time>
      </trkpt>
      <trkpt lat="44.37218" lon="5.16618">
        <ele>221</ele>
        <time>2022-02-27T10:47:25.807Z</time>
      </trkpt>
      <trkpt lat="44.37218" lon="5.16614">
        <ele>223</ele>
        <time>2022-02-27T10:47:26.807Z</time>
      </trkpt>
      <trkpt lat="44.37219" lon="5.16611">
        <ele>224</ele>
        <time>2022-02-27T10:47:27.807Z</time>
      </trkpt>
      <trkpt lat="44.37219" lon="5.16607">
        <ele>225</ele>
        <time>2022-02-27T10:47:28.807Z</time>
      </trkpt>
      <trkpt lat="44.37219" lon="5.16603">
        <ele>227</ele>
        <time>2022-02-27T10:47:29.807Z</time>
      </trkpt>
      <trkpt lat="44.37219" lon="5.166">
        <ele>228</ele>
        <time>2022-02-27T10:47:30.806Z</time>
      </trkpt>
      <trkpt lat="44.37219" lon="5.16596">
        <ele>229</ele>
        <time>2022-02-27T10:47:31.806Z</time>
      </trkpt>
      <trkpt lat="44.3722" lon="5.16592">
        <ele>231</ele>
        <time>2022-02-27T10:47:32.807Z</time>
      </trkpt>
      <trkpt lat="44.3722" lon="5.16589">
        <ele>232</ele>
        <time>2022-02-27T10:47:33.807Z</time>
      </trkpt>
      <trkpt lat="44.3722" lon="5.16585">
        <ele>234</ele>
        <time>2022-02-27T10:47:34.806Z</time>
      </trkpt>
      <trkpt lat="44.37221" lon="5.16582">
        <ele>235</ele>
        <time>2022-02-27T10:47:35.806Z</time>
      </trkpt>
      <trkpt lat="44.37221" lon="5.16578">
        <ele>237</ele>
        <time>2022-02-27T10:47:36.807Z</time>
      </trkpt>
      <trkpt lat="44.37221" lon="5.16574">
        <ele>239</ele>
        <time>2022-02-27T10:47:37.807Z</time>
      </trkpt>
      <trkpt lat="44.37221" lon="5.16571">
        <ele>240</ele>
        <time>2022-02-27T10:47:38.806Z</time>
      </trkpt>
      <trkpt lat="44.37221" lon="5.16567">
        <ele>242</ele>
        <time>2022-02-27T10:47:39.807Z</time>
      </trkpt>
      <trkpt lat="44.3722" lon="5.16563">
        <ele>243</ele>
        <time>2022-02-27T10:47:40.806Z</time>
      </trkpt>
      <trkpt lat="44.3722" lon="5.1656">
        <ele>245</ele>
        <time>2022-02-27T10:47:41.807Z</time>
      </trkpt>
      <trkpt lat="44.37219" lon="5.16556">
        <ele>246</ele>
        <time>2022-02-27T10:47:42.807Z</time>
      </trkpt>
      <trkpt lat="44.37219" lon="5.16552">
        <ele>247</ele>
        <time>2022-02-27T10:47:43.806Z</time>
      </trkpt>
      <trkpt lat="44.37218" lon="5.16549">
        <ele>248</ele>
        <time>2022-02-27T10:47:44.806Z</time>
      </trkpt>
      <trkpt lat="44.37217" lon="5.16546">
        <ele>250</ele>
        <time>2022-02-27T10:47:45.807Z</time>
      </trkpt>
      <trkpt lat="44.37216" lon="5.16543">
        <ele>251</ele>
        <time>2022-02-27T10:47:46.806Z</time>
      </trkpt>
      <trkpt lat="44.37214" lon="5.1654">
        <ele>252</ele>
        <time>2022-02-27T10:47:47.806Z</time>
      </trkpt>
      <trkpt lat="44.37213" lon="5.16536">
        <ele>253</ele>
        <time>2022-02-27T10:47:48.806Z</time>
      </trkpt>
      <trkpt lat="44.37212" lon="5.16533">
        <ele>254</ele>
        <time>2022-02-27T10:47:49.807Z</time>
      </trkpt>
      <trkpt lat="44.37211" lon="5.1653">
        <ele>255</ele>
        <time>2022-02-27T10:47:50.806Z</time>
      </trkpt>
      <trkpt lat="44.3721" lon="5.16526">
        <ele>256</ele>
        <time>2022-02-27T10:47:51.807Z</time>
      </trkpt>
      <trkpt lat="44.37208" lon="5.16523">
        <ele>256</ele>
        <time>2022-02-27T10:47:52.807Z</time>
      </trkpt>
      <trkpt lat="44.37207" lon="5.1652">
        <ele>257</ele>
        <time>2022-02-27T10:47:53.807Z</time>
      </trkpt>
      <trkpt lat="44.37205" lon="5.16517">
        <ele>258</ele>
        <time>2022-02-27T10:47:54.807Z</time>
      </trkpt>
      <trkpt lat="44.37204" lon="5.16515">
        <ele>258</ele>
        <time>2022-02-27T10:47:55.807Z</time>
      </trkpt>
      <trkpt lat="44.37202" lon="5.16512">
        <ele>259</ele>
        <time>2022-02-27T10:47:56.807Z</time>
      </trkpt>
      <trkpt lat="44.372" lon="5.1651">
        <ele>259</ele>
        <time>2022-02-27T10:47:57.807Z</time>
      </trkpt>
      <trkpt lat="44.37198" lon="5.16508">
        <ele>260</ele>
        <time>2022-02-27T10:47:58.806Z</time>
      </trkpt>
      <trkpt lat="44.37196" lon="5.16505">
        <ele>260</ele>
        <time>2022-02-27T10:47:59.806Z</time>
      </trkpt>
      <trkpt lat="44.37195" lon="5.16502">
        <ele>261</ele>
        <time>2022-02-27T10:48:00.807Z</time>
      </trkpt>
      <trkpt lat="44.37193" lon="5.165">
        <ele>261</ele>
        <time>2022-02-27T10:48:01.806Z</time>
      </trkpt>
      <trkpt lat="44.37191" lon="5.16498">
        <ele>262</ele>
        <time>2022-02-27T10:48:02.806Z</time>
      </trkpt>
      <trkpt lat="44.37189" lon="5.16496">
        <ele>263</ele>
        <time>2022-02-27T10:48:03.806Z</time>
      </trkpt>
      <trkpt lat="44.37187" lon="5.16493">
        <ele>263</ele>
        <time>2022-02-27T10:48:04.807Z</time>
      </trkpt>
      <trkpt lat="44.37186" lon="5.16491">
        <ele>264</ele>
        <time>2022-02-27T10:48:05.807Z</time>
      </trkpt>
      <trkpt lat="44.37184" lon="5.1649">
        <ele>265</ele>
        <time>2022-02-27T10:48:06.806Z</time>
      </trkpt>
      <trkpt lat="44.37183" lon="5.16488">
        <ele>265</ele>
        <time>2022-02-27T10:48:07.807Z</time>
      </trkpt>
      <trkpt lat="44.37181" lon="5.16486">
        <ele>266</ele>
        <time>2022-02-27T10:48:08.807Z</time>
      </trkpt>
      <trkpt lat="44.37179" lon="5.16484">
        <ele>267</ele>
        <time>2022-02-27T10:48:09.807Z</time>
      </trkpt>
      <trkpt lat="44.37177" lon="5.16482">
        <ele>268</ele>
        <time>2022-02-27T10:48:10.807Z</time>
      </trkpt>
      <trkpt lat="44.37175" lon="5.1648">
        <ele>269</ele>
        <time>2022-02-27T10:48:11.807Z</time>
      </trkpt>
      <trkpt lat="44.37173" lon="5.16479">
        <ele>270</ele>
        <time>2022-02-27T10:48:12.807Z</time>
      </trkpt>
      <trkpt lat="44.37171" lon="5.16477">
        <ele>271</ele>
        <time>2022-02-27T10:48:13.807Z</time>
      </trkpt>
      <trkpt lat="44.37169" lon="5.16476">
        <ele>272</ele>
        <time>2022-02-27T10:48:14.806Z</time>
      </trkpt>
      <trkpt lat="44.37167" lon="5.16475">
        <ele>273</ele>
        <time>2022-02-27T10:48:15.807Z</time>
      </trkpt>
      <trkpt lat="44.37164" lon="5.16473">
        <ele>274</ele>
        <time>2022-02-27T10:48:16.806Z</time>
      </trkpt>
      <trkpt lat="44.37162" lon="5.16472">
        <ele>275</ele>
        <time>2022-02-27T10:48:17.807Z</time>
      </trkpt>
      <trkpt lat="44.3716" lon="5.1647">
        <ele>275</ele>
        <time>2022-02-27T10:48:18.806Z</time>
      </trkpt>
      <trkpt lat="44.37158" lon="5.16469">
        <ele>276</ele>
        <time>2022-02-27T10:48:19.806Z</time>
      </trkpt>
      <trkpt lat="44.37155" lon="5.16467">
        <ele>277</ele>
        <time>2022-02-27T10:48:20.806Z</time>
      </trkpt>
      <trkpt lat="44.37153" lon="5.16466">
        <ele>278</ele>
        <time>2022-02-27T10:48:21.806Z</time>
      </trkpt>
      <trkpt lat="44.37151" lon="5.16464">
        <ele>279</ele>
        <time>2022-02-27T10:48:22.806Z</time>
      </trkpt>
      <trkpt lat="44.37149" lon="5.16462">
        <ele>279</ele>
        <time>2022-02-27T10:48:23.807Z</time>
      </trkpt>
      <trkpt lat="44.37146" lon="5.1646">
        <ele>280</ele>
        <time>2022-02-27T10:48:24.806Z</time>
      </trkpt>
      <trkpt lat="44.37144" lon="5.16458">
        <ele>281</ele>
        <time>2022-02-27T10:48:25.807Z</time>
      </trkpt>
      <trkpt lat="44.37142" lon="5.16457">
        <ele>282</ele>
        <time>2022-02-27T10:48:26.807Z</time>
      </trkpt>
      <trkpt lat="44.3714" lon="5.16455">
        <ele>282</ele>
        <time>2022-02-27T10:48:27.807Z</time>
      </trkpt>
      <trkpt lat="44.37139" lon="5.16454">
        <ele>283</ele>
        <time>2022-02-27T10:48:28.807Z</time>
      </trkpt>
      <trkpt lat="44.37137" lon="5.16453">
        <ele>284</ele>
        <time>2022-02-27T10:48:29.806Z</time>
      </trkpt>
      <trkpt lat="44.37135" lon="5.16452">
        <ele>285</ele>
        <time>2022-02-27T10:48:30.807Z</time>
      </trkpt>
      <trkpt lat="44.37133" lon="5.1645">
        <ele>285</ele>
        <time>2022-02-27T10:48:31.807Z</time>
      </trkpt>
      <trkpt lat="44.37131" lon="5.1645">
        <ele>286</ele>
        <time>2022-02-27T10:48:32.807Z</time>
      </trkpt>
      <trkpt lat="44.37128" lon="5.16449">
        <ele>287</ele>
        <time>2022-02-27T10:48:33.806Z</time>
      </trkpt>
      <trkpt lat="44.37126" lon="5.16447">
        <ele>287</ele>
        <time>2022-02-27T10:48:34.806Z</time>
      </trkpt>
      <trkpt lat="44.37124" lon="5.16447">
        <ele>288</ele>
        <time>2022-02-27T10:48:35.806Z</time>
      </trkpt>
      <trkpt lat="44.37121" lon="5.16446">
        <ele>289</ele>
        <time>2022-02-27T10:48:36.807Z</time>
      </trkpt>
      <trkpt lat="44.37119" lon="5.16445">
        <ele>290</ele>
        <time>2022-02-27T10:48:37.806Z</time>
      </trkpt>
      <trkpt lat="44.37117" lon="5.16444">
        <ele>291</ele>
        <time>2022-02-27T10:48:38.806Z</time>
      </trkpt>
      <trkpt lat="44.37115" lon="5.16444">
        <ele>292</ele>
        <time>2022-02-27T10:48:39.806Z</time>
      </trkpt>
      <trkpt lat="44.37113" lon="5.16443">
        <ele>293</ele>
        <time>2022-02-27T10:48:40.807Z</time>
      </trkpt>
      <trkpt lat="44.37111" lon="5.16443">
        <ele>294</ele>
        <time>2022-02-27T10:48:41.806Z</time>
      </trkpt>
      <trkpt lat="44.37108" lon="5.16442">
        <ele>296</ele>
        <time>2022-02-27T10:48:42.807Z</time>
      </trkpt>
      <trkpt lat="44.37106" lon="5.16442">
        <ele>297</ele>
        <time>2022-02-27T10:48:43.807Z</time>
      </trkpt>
      <trkpt lat="44.37103" lon="5.16441">
        <ele>298</ele>
        <time>2022-02-27T10:48:44.807Z</time>
      </trkpt>
      <trkpt lat="44.37101" lon="5.1644">
        <ele>299</ele>
        <time>2022-02-27T10:48:45.807Z</time>
      </trkpt>
      <trkpt lat="44.37099" lon="5.16439">
        <ele>300</ele>
        <time>2022-02-27T10:48:46.807Z</time>
      </trkpt>
      <trkpt lat="44.37097" lon="5.16438">
        <ele>301</ele>
        <time>2022-02-27T10:48:47.806Z</time>
      </trkpt>
      <trkpt lat="44.37094" lon="5.16438">
        <ele>302</ele>
        <time>2022-02-27T10:48:48.806Z</time>
      </trkpt>
      <trkpt lat="44.37092" lon="5.16437">
        <ele>303</ele>
        <time>2022-02-27T10:48:49.807Z</time>
      </trkpt>
      <trkpt lat="44.3709" lon="5.16436">
        <ele>304</ele>
        <time>2022-02-27T10:48:50.807Z</time>
      </trkpt>
      <trkpt lat="44.37088" lon="5.16435">
        <ele>304</ele>
        <time>2022-02-27T10:48:51.806Z</time>
      </trkpt>
      <trkpt lat="44.37085" lon="5.16435">
        <ele>305</ele>
        <time>2022-02-27T10:48:52.807Z</time>
      </trkpt>
      <trkpt lat="44.37083" lon="5.16435">
        <ele>306</ele>
        <time>2022-02-27T10:48:53.807Z</time>
      </trkpt>
      <trkpt lat="44.3708" lon="5.16434">
        <ele>306</ele>
        <time>2022-02-27T10:48:54.807Z</time>
      </trkpt>
      <trkpt lat="44.37078" lon="5.16434">
        <ele>307</ele>
        <time>2022-02-27T10:48:55.807Z</time>
      </trkpt>
      <trkpt lat="44.37075" lon="5.16433">
        <ele>308</ele>
        <time>2022-02-27T10:48:56.807Z</time>
      </trkpt>
      <trkpt lat="44.37073" lon="5.16432">
        <ele>308</ele>
        <time>2022-02-27T10:48:57.807Z</time>
      </trkpt>
      <trkpt lat="44.37071" lon="5.16432">
        <ele>308</ele>
        <time>2022-02-27T10:48:58.807Z</time>
      </trkpt>
      <trkpt lat="44.37067" lon="5.16431">
        <ele>309</ele>
        <time>2022-02-27T10:48:59.806Z</time>
      </trkpt>
      <trkpt lat="44.37065" lon="5.16431">
        <ele>309</ele>
        <time>2022-02-27T10:49:00.807Z</time>
      </trkpt>
      <trkpt lat="44.37063" lon="5.1643">
        <ele>310</ele>
        <time>2022-02-27T10:49:01.807Z</time>
      </trkpt>
      <trkpt lat="44.3706" lon="5.16427">
        <ele>310</ele>
        <time>2022-02-27T10:49:02.807Z</time>
      </trkpt>
      <trkpt lat="44.37058" lon="5.16425">
        <ele>311</ele>
        <time>2022-02-27T10:49:03.807Z</time>
      </trkpt>
      <trkpt lat="44.37056" lon="5.16421">
        <ele>311</ele>
        <time>2022-02-27T10:49:04.807Z</time>
      </trkpt>
      <trkpt lat="44.37054" lon="5.16418">
        <ele>312</ele>
        <time>2022-02-27T10:49:05.806Z</time>
      </trkpt>
      <trkpt lat="44.37053" lon="5.16415">
        <ele>312</ele>
        <time>2022-02-27T10:49:06.807Z</time>
      </trkpt>
      <trkpt lat="44.37052" lon="5.16412">
        <ele>312</ele>
        <time>2022-02-27T10:49:07.806Z</time>
      </trkpt>
      <trkpt lat="44.3705" lon="5.16408">
        <ele>312</ele>
        <time>2022-02-27T10:49:08.807Z</time>
      </trkpt>
      <trkpt lat="44.37048" lon="5.16405">
        <ele>312</ele>
        <time>2022-02-27T10:49:09.807Z</time>
      </trkpt>
      <trkpt lat="44.37047" lon="5.16401">
        <ele>312</ele>
        <time>2022-02-27T10:49:10.807Z</time>
      </trkpt>
      <trkpt lat="44.37046" lon="5.16398">
        <ele>312</ele>
        <time>2022-02-27T10:49:11.806Z</time>
      </trkpt>
      <trkpt lat="44.37045" lon="5.16395">
        <ele>312</ele>
        <time>2022-02-27T10:49:12.807Z</time>
      </trkpt>
      <trkpt lat="44.37044" lon="5.16391">
        <ele>311</ele>
        <time>2022-02-27T10:49:13.807Z</time>
      </trkpt>
      <trkpt lat="44.37044" lon="5.16388">
        <ele>311</ele>
        <time>2022-02-27T10:49:14.807Z</time>
      </trkpt>
      <trkpt lat="44.37043" lon="5.16385">
        <ele>311</ele>
        <time>2022-02-27T10:49:15.807Z</time>
      </trkpt>
      <trkpt lat="44.37042" lon="5.16381">
        <ele>311</ele>
        <time>2022-02-27T10:49:16.807Z</time>
      </trkpt>
      <trkpt lat="44.37041" lon="5.16378">
        <ele>310</ele>
        <time>2022-02-27T10:49:17.806Z</time>
      </trkpt>
      <trkpt lat="44.3704" lon="5.16373">
        <ele>310</ele>
        <time>2022-02-27T10:49:18.807Z</time>
      </trkpt>
      <trkpt lat="44.37039" lon="5.1637">
        <ele>309</ele>
        <time>2022-02-27T10:49:19.807Z</time>
      </trkpt>
      <trkpt lat="44.37038" lon="5.16367">
        <ele>309</ele>
        <time>2022-02-27T10:49:20.807Z</time>
      </trkpt>
      <trkpt lat="44.37037" lon="5.16363">
        <ele>309</ele>
        <time>2022-02-27T10:49:21.807Z</time>
      </trkpt>
      <trkpt lat="44.37036" lon="5.16359">
        <ele>309</ele>
        <time>2022-02-27T10:49:22.806Z</time>
      </trkpt>
      <trkpt lat="44.37035" lon="5.16356">
        <ele>308</ele>
        <time>2022-02-27T10:49:23.806Z</time>
      </trkpt>
      <trkpt lat="44.37035" lon="5.16352">
        <ele>308</ele>
        <time>2022-02-27T10:49:24.806Z</time>
      </trkpt>
      <trkpt lat="44.37034" lon="5.16348">
        <ele>308</ele>
        <time>2022-02-27T10:49:25.807Z</time>
      </trkpt>
      <trkpt lat="44.37034" lon="5.16343">
        <ele>308</ele>
        <time>2022-02-27T10:49:26.807Z</time>
      </trkpt>
      <trkpt lat="44.37034" lon="5.1634">
        <ele>307</ele>
        <time>2022-02-27T10:49:27.806Z</time>
      </trkpt>
      <trkpt lat="44.37034" lon="5.16335">
        <ele>307</ele>
        <time>2022-02-27T10:49:28.807Z</time>
      </trkpt>
      <trkpt lat="44.37034" lon="5.16331">
        <ele>306</ele>
        <time>2022-02-27T10:49:29.807Z</time>
      </trkpt>
      <trkpt lat="44.37034" lon="5.16327">
        <ele>306</ele>
        <time>2022-02-27T10:49:30.807Z</time>
      </trkpt>
      <trkpt lat="44.37034" lon="5.16323">
        <ele>306</ele>
        <time>2022-02-27T10:49:31.806Z</time>
      </trkpt>
      <trkpt lat="44.37035" lon="5.16319">
        <ele>305</ele>
        <time>2022-02-27T10:49:32.806Z</time>
      </trkpt>
      <trkpt lat="44.37035" lon="5.16315">
        <ele>305</ele>
        <time>2022-02-27T10:49:33.807Z</time>
      </trkpt>
      <trkpt lat="44.37036" lon="5.16311">
        <ele>305</ele>
        <time>2022-02-27T10:49:34.806Z</time>
      </trkpt>
      <trkpt lat="44.37037" lon="5.16308">
        <ele>305</ele>
        <time>2022-02-27T10:49:35.807Z</time>
      </trkpt>
      <trkpt lat="44.37037" lon="5.16304">
        <ele>305</ele>
        <time>2022-02-27T10:49:36.806Z</time>
      </trkpt>
      <trkpt lat="44.37038" lon="5.163">
        <ele>304</ele>
        <time>2022-02-27T10:49:37.807Z</time>
      </trkpt>
      <trkpt lat="44.37039" lon="5.16296">
        <ele>304</ele>
        <time>2022-02-27T10:49:38.807Z</time>
      </trkpt>
      <trkpt lat="44.37039" lon="5.16292">
        <ele>304</ele>
        <time>2022-02-27T10:49:39.806Z</time>
      </trkpt>
      <trkpt lat="44.3704" lon="5.16288">
        <ele>303</ele>
        <time>2022-02-27T10:49:40.807Z</time>
      </trkpt>
      <trkpt lat="44.3704" lon="5.16284">
        <ele>303</ele>
        <time>2022-02-27T10:49:41.807Z</time>
      </trkpt>
      <trkpt lat="44.37041" lon="5.1628">
        <ele>303</ele>
        <time>2022-02-27T10:49:42.807Z</time>
      </trkpt>
      <trkpt lat="44.37042" lon="5.16276">
        <ele>303</ele>
        <time>2022-02-27T10:49:43.807Z</time>
      </trkpt>
      <trkpt lat="44.37042" lon="5.16273">
        <ele>303</ele>
        <time>2022-02-27T10:49:44.806Z</time>
      </trkpt>
      <trkpt lat="44.37043" lon="5.16269">
        <ele>303</ele>
        <time>2022-02-27T10:49:45.807Z</time>
      </trkpt>
      <trkpt lat="44.37044" lon="5.16265">
        <ele>303</ele>
        <time>2022-02-27T10:49:46.806Z</time>
      </trkpt>
      <trkpt lat="44.37045" lon="5.16262">
        <ele>303</ele>
        <time>2022-02-27T10:49:47.807Z</time>
      </trkpt>
      <trkpt lat="44.37045" lon="5.16258">
        <ele>303</ele>
        <time>2022-02-27T10:49:48.806Z</time>
      </trkpt>
      <trkpt lat="44.37046" lon="5.16254">
        <ele>302</ele>
        <time>2022-02-27T10:49:49.807Z</time>
      </trkpt>
      <trkpt lat="44.37047" lon="5.16251">
        <ele>302</ele>
        <time>2022-02-27T10:49:50.807Z</time>
      </trkpt>
      <trkpt lat="44.37048" lon="5.16247">
        <ele>302</ele>
        <time>2022-02-27T10:49:51.807Z</time>
      </trkpt>
      <trkpt lat="44.3705" lon="5.16243">
        <ele>302</ele>
        <time>2022-02-27T10:49:52.807Z</time>
      </trkpt>
      <trkpt lat="44.37051" lon="5.1624">
        <ele>301</ele>
        <time>2022-02-27T10:49:53.806Z</time>
      </trkpt>
      <trkpt lat="44.37052" lon="5.16236">
        <ele>301</ele>
        <time>2022-02-27T10:49:54.807Z</time>
      </trkpt>
      <trkpt lat="44.37053" lon="5.16232">
        <ele>301</ele>
        <time>2022-02-27T10:49:55.807Z</time>
      </trkpt>
      <trkpt lat="44.37054" lon="5.16229">
        <ele>301</ele>
        <time>2022-02-27T10:49:56.807Z</time>
      </trkpt>
      <trkpt lat="44.37055" lon="5.16226">
        <ele>300</ele>
        <time>2022-02-27T10:49:57.807Z</time>
      </trkpt>
      <trkpt lat="44.37056" lon="5.16223">
        <ele>300</ele>
        <time>2022-02-27T10:49:58.807Z</time>
      </trkpt>
      <trkpt lat="44.37058" lon="5.1622">
        <ele>300</ele>
        <time>2022-02-27T10:49:59.807Z</time>
      </trkpt>
      <trkpt lat="44.3706" lon="5.16216">
        <ele>300</ele>
        <time>2022-02-27T10:50:00.807Z</time>
      </trkpt>
      <trkpt lat="44.37061" lon="5.16212">
        <ele>300</ele>
        <time>2022-02-27T10:50:01.807Z</time>
      </trkpt>
      <trkpt lat="44.37063" lon="5.1621">
        <ele>300</ele>
        <time>2022-02-27T10:50:02.807Z</time>
      </trkpt>
      <trkpt lat="44.37064" lon="5.16206">
        <ele>299</ele>
        <time>2022-02-27T10:50:03.807Z</time>
      </trkpt>
      <trkpt lat="44.37065" lon="5.16204">
        <ele>299</ele>
        <time>2022-02-27T10:50:04.807Z</time>
      </trkpt>
      <trkpt lat="44.37066" lon="5.16202">
        <ele>299</ele>
        <time>2022-02-27T10:50:05.807Z</time>
      </trkpt>
      <trkpt lat="44.37066" lon="5.16201">
        <ele>299</ele>
        <time>2022-02-27T10:50:06.807Z</time>
      </trkpt>
      <trkpt lat="44.37066" lon="5.16198">
        <ele>299</ele>
        <time>2022-02-27T10:50:07.807Z</time>
      </trkpt>
      <trkpt lat="44.37067" lon="5.16195">
        <ele>299</ele>
        <time>2022-02-27T10:50:08.807Z</time>
      </trkpt>
      <trkpt lat="44.37067" lon="5.16193">
        <ele>300</ele>
        <time>2022-02-27T10:50:09.807Z</time>
      </trkpt>
      <trkpt lat="44.37067" lon="5.16191">
        <ele>300</ele>
        <time>2022-02-27T10:50:10.806Z</time>
      </trkpt>
      <trkpt lat="44.37068" lon="5.1619">
        <ele>300</ele>
        <time>2022-02-27T10:50:11.807Z</time>
      </trkpt>
      <trkpt lat="44.37069" lon="5.16187">
        <ele>300</ele>
        <time>2022-02-27T10:50:12.807Z</time>
      </trkpt>
      <trkpt lat="44.3707" lon="5.16184">
        <ele>300</ele>
        <time>2022-02-27T10:50:13.807Z</time>
      </trkpt>
      <trkpt lat="44.3707" lon="5.16182">
        <ele>300</ele>
        <time>2022-02-27T10:50:14.807Z</time>
      </trkpt>
      <trkpt lat="44.37071" lon="5.1618">
        <ele>300</ele>
        <time>2022-02-27T10:50:15.807Z</time>
      </trkpt>
      <trkpt lat="44.37072" lon="5.16178">
        <ele>300</ele>
        <time>2022-02-27T10:50:16.807Z</time>
      </trkpt>
      <trkpt lat="44.37073" lon="5.16175">
        <ele>301</ele>
        <time>2022-02-27T10:50:17.807Z</time>
      </trkpt>
      <trkpt lat="44.37073" lon="5.16172">
        <ele>301</ele>
        <time>2022-02-27T10:50:18.807Z</time>
      </trkpt>
      <trkpt lat="44.37074" lon="5.16169">
        <ele>301</ele>
        <time>2022-02-27T10:50:19.807Z</time>
      </trkpt>
      <trkpt lat="44.37075" lon="5.16167">
        <ele>301</ele>
        <time>2022-02-27T10:50:20.807Z</time>
      </trkpt>
      <trkpt lat="44.37077" lon="5.16164">
        <ele>302</ele>
        <time>2022-02-27T10:50:21.807Z</time>
      </trkpt>
      <trkpt lat="44.37079" lon="5.1616">
        <ele>302</ele>
        <time>2022-02-27T10:50:22.806Z</time>
      </trkpt>
      <trkpt lat="44.3708" lon="5.16157">
        <ele>302</ele>
        <time>2022-02-27T10:50:23.807Z</time>
      </trkpt>
      <trkpt lat="44.37082" lon="5.16154">
        <ele>302</ele>
        <time>2022-02-27T10:50:24.807Z</time>
      </trkpt>
      <trkpt lat="44.37084" lon="5.16151">
        <ele>303</ele>
        <time>2022-02-27T10:50:25.807Z</time>
      </trkpt>
      <trkpt lat="44.37086" lon="5.16147">
        <ele>303</ele>
        <time>2022-02-27T10:50:26.806Z</time>
      </trkpt>
      <trkpt lat="44.37088" lon="5.16143">
        <ele>303</ele>
        <time>2022-02-27T10:50:27.807Z</time>
      </trkpt>
      <trkpt lat="44.3709" lon="5.1614">
        <ele>303</ele>
        <time>2022-02-27T10:50:28.807Z</time>
      </trkpt>
      <trkpt lat="44.37092" lon="5.16137">
        <ele>303</ele>
        <time>2022-02-27T10:50:29.806Z</time>
      </trkpt>
      <trkpt lat="44.37095" lon="5.16133">
        <ele>303</ele>
        <time>2022-02-27T10:50:30.806Z</time>
      </trkpt>
      <trkpt lat="44.37098" lon="5.1613">
        <ele>303</ele>
        <time>2022-02-27T10:50:31.806Z</time>
      </trkpt>
      <trkpt lat="44.371" lon="5.16128">
        <ele>303</ele>
        <time>2022-02-27T10:50:32.807Z</time>
      </trkpt>
      <trkpt lat="44.37103" lon="5.16126">
        <ele>303</ele>
        <time>2022-02-27T10:50:33.807Z</time>
      </trkpt>
      <trkpt lat="44.37105" lon="5.16125">
        <ele>303</ele>
        <time>2022-02-27T10:50:34.807Z</time>
      </trkpt>
      <trkpt lat="44.37107" lon="5.16124">
        <ele>303</ele>
        <time>2022-02-27T10:50:35.807Z</time>
      </trkpt>
      <trkpt lat="44.37109" lon="5.16124">
        <ele>303</ele>
        <time>2022-02-27T10:50:36.806Z</time>
      </trkpt>
      <trkpt lat="44.3711" lon="5.16124">
        <ele>302</ele>
        <time>2022-02-27T10:50:37.806Z</time>
      </trkpt>
      <trkpt lat="44.37111" lon="5.16125">
        <ele>302</ele>
        <time>2022-02-27T10:50:38.806Z</time>
      </trkpt>
      <trkpt lat="44.37113" lon="5.16124">
        <ele>301</ele>
        <time>2022-02-27T10:50:39.806Z</time>
      </trkpt>
      <trkpt lat="44.37115" lon="5.16124">
        <ele>301</ele>
        <time>2022-02-27T10:50:40.807Z</time>
      </trkpt>
      <trkpt lat="44.37117" lon="5.16124">
        <ele>300</ele>
        <time>2022-02-27T10:50:41.807Z</time>
      </trkpt>
      <trkpt lat="44.37119" lon="5.16123">
        <ele>299</ele>
        <time>2022-02-27T10:50:42.807Z</time>
      </trkpt>
      <trkpt lat="44.37122" lon="5.16123">
        <ele>299</ele>
        <time>2022-02-27T10:50:43.807Z</time>
      </trkpt>
      <trkpt lat="44.37124" lon="5.16122">
        <ele>298</ele>
        <time>2022-02-27T10:50:44.807Z</time>
      </trkpt>
      <trkpt lat="44.37126" lon="5.16122">
        <ele>297</ele>
        <time>2022-02-27T10:50:45.807Z</time>
      </trkpt>
      <trkpt lat="44.37129" lon="5.16121">
        <ele>297</ele>
        <time>2022-02-27T10:50:46.806Z</time>
      </trkpt>
      <trkpt lat="44.37132" lon="5.1612">
        <ele>296</ele>
        <time>2022-02-27T10:50:47.807Z</time>
      </trkpt>
      <trkpt lat="44.37134" lon="5.16119">
        <ele>295</ele>
        <time>2022-02-27T10:50:48.806Z</time>
      </trkpt>
      <trkpt lat="44.37138" lon="5.16118">
        <ele>295</ele>
        <time>2022-02-27T10:50:49.807Z</time>
      </trkpt>
      <trkpt lat="44.3714" lon="5.16117">
        <ele>294</ele>
        <time>2022-02-27T10:50:50.807Z</time>
      </trkpt>
      <trkpt lat="44.37143" lon="5.16117">
        <ele>293</ele>
        <time>2022-02-27T10:50:51.806Z</time>
      </trkpt>
      <trkpt lat="44.37146" lon="5.16115">
        <ele>293</ele>
        <time>2022-02-27T10:50:52.807Z</time>
      </trkpt>
      <trkpt lat="44.37148" lon="5.16113">
        <ele>292</ele>
        <time>2022-02-27T10:50:53.807Z</time>
      </trkpt>
      <trkpt lat="44.37151" lon="5.16111">
        <ele>291</ele>
        <time>2022-02-27T10:50:54.807Z</time>
      </trkpt>
      <trkpt lat="44.37153" lon="5.16109">
        <ele>291</ele>
        <time>2022-02-27T10:50:55.806Z</time>
      </trkpt>
      <trkpt lat="44.37155" lon="5.16109">
        <ele>290</ele>
        <time>2022-02-27T10:50:56.806Z</time>
      </trkpt>
      <trkpt lat="44.37157" lon="5.16108">
        <ele>290</ele>
        <time>2022-02-27T10:50:57.807Z</time>
      </trkpt>
      <trkpt lat="44.37159" lon="5.16107">
        <ele>289</ele>
        <time>2022-02-27T10:50:58.806Z</time>
      </trkpt>
      <trkpt lat="44.3716" lon="5.16105">
        <ele>289</ele>
        <time>2022-02-27T10:50:59.807Z</time>
      </trkpt>
      <trkpt lat="44.37162" lon="5.16103">
        <ele>288</ele>
        <time>2022-02-27T10:51:00.807Z</time>
      </trkpt>
      <trkpt lat="44.37164" lon="5.16101">
        <ele>287</ele>
        <time>2022-02-27T10:51:01.807Z</time>
      </trkpt>
      <trkpt lat="44.37166" lon="5.16099">
        <ele>287</ele>
        <time>2022-02-27T10:51:02.806Z</time>
      </trkpt>
      <trkpt lat="44.37168" lon="5.16097">
        <ele>286</ele>
        <time>2022-02-27T10:51:03.807Z</time>
      </trkpt>
      <trkpt lat="44.3717" lon="5.16095">
        <ele>285</ele>
        <time>2022-02-27T10:51:04.807Z</time>
      </trkpt>
      <trkpt lat="44.37172" lon="5.16093">
        <ele>284</ele>
        <time>2022-02-27T10:51:05.806Z</time>
      </trkpt>
      <trkpt lat="44.37174" lon="5.1609">
        <ele>284</ele>
        <time>2022-02-27T10:51:06.807Z</time>
      </trkpt>
      <trkpt lat="44.37175" lon="5.16087">
        <ele>283</ele>
        <time>2022-02-27T10:51:07.807Z</time>
      </trkpt>
      <trkpt lat="44.37176" lon="5.16083">
        <ele>283</ele>
        <time>2022-02-27T10:51:08.807Z</time>
      </trkpt>
      <trkpt lat="44.37177" lon="5.16079">
        <ele>282</ele>
        <time>2022-02-27T10:51:09.806Z</time>
      </trkpt>
      <trkpt lat="44.37178" lon="5.16076">
        <ele>282</ele>
        <time>2022-02-27T10:51:10.806Z</time>
      </trkpt>
      <trkpt lat="44.37179" lon="5.16073">
        <ele>282</ele>
        <time>2022-02-27T10:51:11.807Z</time>
      </trkpt>
      <trkpt lat="44.3718" lon="5.1607">
        <ele>282</ele>
        <time>2022-02-27T10:51:12.807Z</time>
      </trkpt>
      <trkpt lat="44.3718" lon="5.16066">
        <ele>282</ele>
        <time>2022-02-27T10:51:13.807Z</time>
      </trkpt>
      <trkpt lat="44.37181" lon="5.16063">
        <ele>282</ele>
        <time>2022-02-27T10:51:14.806Z</time>
      </trkpt>
      <trkpt lat="44.37181" lon="5.16059">
        <ele>282</ele>
        <time>2022-02-27T10:51:15.807Z</time>
      </trkpt>
      <trkpt lat="44.37182" lon="5.16055">
        <ele>282</ele>
        <time>2022-02-27T10:51:16.807Z</time>
      </trkpt>
      <trkpt lat="44.37183" lon="5.16052">
        <ele>282</ele>
        <time>2022-02-27T10:51:17.807Z</time>
      </trkpt>
      <trkpt lat="44.37183" lon="5.16048">
        <ele>282</ele>
        <time>2022-02-27T10:51:18.807Z</time>
      </trkpt>
      <trkpt lat="44.37183" lon="5.16045">
        <ele>282</ele>
        <time>2022-02-27T10:51:19.806Z</time>
      </trkpt>
      <trkpt lat="44.37184" lon="5.16042">
        <ele>283</ele>
        <time>2022-02-27T10:51:20.807Z</time>
      </trkpt>
      <trkpt lat="44.37185" lon="5.16038">
        <ele>283</ele>
        <time>2022-02-27T10:51:21.806Z</time>
      </trkpt>
      <trkpt lat="44.37186" lon="5.16036">
        <ele>283</ele>
        <time>2022-02-27T10:51:22.807Z</time>
      </trkpt>
      <trkpt lat="44.37187" lon="5.16033">
        <ele>284</ele>
        <time>2022-02-27T10:51:23.806Z</time>
      </trkpt>
      <trkpt lat="44.37187" lon="5.1603">
        <ele>284</ele>
        <time>2022-02-27T10:51:24.807Z</time>
      </trkpt>
      <trkpt lat="44.37188" lon="5.16027">
        <ele>284</ele>
        <time>2022-02-27T10:51:25.807Z</time>
      </trkpt>
      <trkpt lat="44.37188" lon="5.16025">
        <ele>285</ele>
        <time>2022-02-27T10:51:26.807Z</time>
      </trkpt>
      <trkpt lat="44.37189" lon="5.16021">
        <ele>285</ele>
        <time>2022-02-27T10:51:27.806Z</time>
      </trkpt>
      <trkpt lat="44.37189" lon="5.16018">
        <ele>285</ele>
        <time>2022-02-27T10:51:28.806Z</time>
      </trkpt>
      <trkpt lat="44.37189" lon="5.16014">
        <ele>285</ele>
        <time>2022-02-27T10:51:29.806Z</time>
      </trkpt>
      <trkpt lat="44.37189" lon="5.1601">
        <ele>286</ele>
        <time>2022-02-27T10:51:30.807Z</time>
      </trkpt>
      <trkpt lat="44.37189" lon="5.16008">
        <ele>286</ele>
        <time>2022-02-27T10:51:31.807Z</time>
      </trkpt>
      <trkpt lat="44.37189" lon="5.16005">
        <ele>286</ele>
        <time>2022-02-27T10:51:32.807Z</time>
      </trkpt>
      <trkpt lat="44.37189" lon="5.16001">
        <ele>287</ele>
        <time>2022-02-27T10:51:33.807Z</time>
      </trkpt>
      <trkpt lat="44.37189" lon="5.15998">
        <ele>287</ele>
        <time>2022-02-27T10:51:34.806Z</time>
      </trkpt>
      <trkpt lat="44.37188" lon="5.15994">
        <ele>287</ele>
        <time>2022-02-27T10:51:35.807Z</time>
      </trkpt>
      <trkpt lat="44.37188" lon="5.15991">
        <ele>288</ele>
        <time>2022-02-27T10:51:36.807Z</time>
      </trkpt>
      <trkpt lat="44.37188" lon="5.15987">
        <ele>288</ele>
        <time>2022-02-27T10:51:37.806Z</time>
      </trkpt>
      <trkpt lat="44.37188" lon="5.15982">
        <ele>288</ele>
        <time>2022-02-27T10:51:38.806Z</time>
      </trkpt>
      <trkpt lat="44.37188" lon="5.15979">
        <ele>289</ele>
        <time>2022-02-27T10:51:39.807Z</time>
      </trkpt>
      <trkpt lat="44.37187" lon="5.15976">
        <ele>289</ele>
        <time>2022-02-27T10:51:40.807Z</time>
      </trkpt>
      <trkpt lat="44.37185" lon="5.15973">
        <ele>289</ele>
        <time>2022-02-27T10:51:41.807Z</time>
      </trkpt>
      <trkpt lat="44.37184" lon="5.1597">
        <ele>289</ele>
        <time>2022-02-27T10:51:42.806Z</time>
      </trkpt>
      <trkpt lat="44.37182" lon="5.15968">
        <ele>289</ele>
        <time>2022-02-27T10:51:43.807Z</time>
      </trkpt>
      <trkpt lat="44.37181" lon="5.15964">
        <ele>289</ele>
        <time>2022-02-27T10:51:44.806Z</time>
      </trkpt>
      <trkpt lat="44.3718" lon="5.15961">
        <ele>289</ele>
        <time>2022-02-27T10:51:45.806Z</time>
      </trkpt>
      <trkpt lat="44.37179" lon="5.15956">
        <ele>289</ele>
        <time>2022-02-27T10:51:46.806Z</time>
      </trkpt>
      <trkpt lat="44.37178" lon="5.15952">
        <ele>289</ele>
        <time>2022-02-27T10:51:47.807Z</time>
      </trkpt>
      <trkpt lat="44.37178" lon="5.15947">
        <ele>289</ele>
        <time>2022-02-27T10:51:48.807Z</time>
      </trkpt>
      <trkpt lat="44.37177" lon="5.15944">
        <ele>289</ele>
        <time>2022-02-27T10:51:49.807Z</time>
      </trkpt>
      <trkpt lat="44.37175" lon="5.15941">
        <ele>289</ele>
        <time>2022-02-27T10:51:50.807Z</time>
      </trkpt>
      <trkpt lat="44.37173" lon="5.15938">
        <ele>289</ele>
        <time>2022-02-27T10:51:51.807Z</time>
      </trkpt>
      <trkpt lat="44.3717" lon="5.15936">
        <ele>288</ele>
        <time>2022-02-27T10:51:52.807Z</time>
      </trkpt>
      <trkpt lat="44.37167" lon="5.15934">
        <ele>288</ele>
        <time>2022-02-27T10:51:53.806Z</time>
      </trkpt>
      <trkpt lat="44.37165" lon="5.15932">
        <ele>288</ele>
        <time>2022-02-27T10:51:54.807Z</time>
      </trkpt>
      <trkpt lat="44.37163" lon="5.15929">
        <ele>288</ele>
        <time>2022-02-27T10:51:55.807Z</time>
      </trkpt>
      <trkpt lat="44.37162" lon="5.15926">
        <ele>288</ele>
        <time>2022-02-27T10:51:56.807Z</time>
      </trkpt>
      <trkpt lat="44.3716" lon="5.15923">
        <ele>288</ele>
        <time>2022-02-27T10:51:57.807Z</time>
      </trkpt>
      <trkpt lat="44.37158" lon="5.15921">
        <ele>288</ele>
        <time>2022-02-27T10:51:58.806Z</time>
      </trkpt>
      <trkpt lat="44.37157" lon="5.15918">
        <ele>288</ele>
        <time>2022-02-27T10:51:59.806Z</time>
      </trkpt>
      <trkpt lat="44.37156" lon="5.15915">
        <ele>288</ele>
        <time>2022-02-27T10:52:00.807Z</time>
      </trkpt>
      <trkpt lat="44.37153" lon="5.15913">
        <ele>288</ele>
        <time>2022-02-27T10:52:01.806Z</time>
      </trkpt>
      <trkpt lat="44.37152" lon="5.15911">
        <ele>288</ele>
        <time>2022-02-27T10:52:02.807Z</time>
      </trkpt>
      <trkpt lat="44.3715" lon="5.15909">
        <ele>288</ele>
        <time>2022-02-27T10:52:03.806Z</time>
      </trkpt>
      <trkpt lat="44.37148" lon="5.15906">
        <ele>288</ele>
        <time>2022-02-27T10:52:04.806Z</time>
      </trkpt>
      <trkpt lat="44.37146" lon="5.15904">
        <ele>288</ele>
        <time>2022-02-27T10:52:05.807Z</time>
      </trkpt>
      <trkpt lat="44.37144" lon="5.15902">
        <ele>288</ele>
        <time>2022-02-27T10:52:06.807Z</time>
      </trkpt>
      <trkpt lat="44.37141" lon="5.159">
        <ele>288</ele>
        <time>2022-02-27T10:52:07.806Z</time>
      </trkpt>
      <trkpt lat="44.37138" lon="5.15898">
        <ele>288</ele>
        <time>2022-02-27T10:52:08.806Z</time>
      </trkpt>
      <trkpt lat="44.37135" lon="5.15897">
        <ele>288</ele>
        <time>2022-02-27T10:52:09.807Z</time>
      </trkpt>
      <trkpt lat="44.37132" lon="5.15895">
        <ele>288</ele>
        <time>2022-02-27T10:52:10.807Z</time>
      </trkpt>
      <trkpt lat="44.37131" lon="5.15891">
        <ele>288</ele>
        <time>2022-02-27T10:52:11.807Z</time>
      </trkpt>
      <trkpt lat="44.37129" lon="5.15889">
        <ele>288</ele>
        <time>2022-02-27T10:52:12.807Z</time>
      </trkpt>
      <trkpt lat="44.37127" lon="5.15886">
        <ele>288</ele>
        <time>2022-02-27T10:52:13.807Z</time>
      </trkpt>
      <trkpt lat="44.37127" lon="5.15882">
        <ele>288</ele>
        <time>2022-02-27T10:52:14.807Z</time>
      </trkpt>
      <trkpt lat="44.37127" lon="5.15878">
        <ele>288</ele>
        <time>2022-02-27T10:52:15.807Z</time>
      </trkpt>
      <trkpt lat="44.37126" lon="5.15874">
        <ele>288</ele>
        <time>2022-02-27T10:52:16.807Z</time>
      </trkpt>
      <trkpt lat="44.37125" lon="5.1587">
        <ele>288</ele>
        <time>2022-02-27T10:52:17.807Z</time>
      </trkpt>
      <trkpt lat="44.37124" lon="5.15866">
        <ele>288</ele>
        <time>2022-02-27T10:52:18.807Z</time>
      </trkpt>
      <trkpt lat="44.37123" lon="5.15861">
        <ele>288</ele>
        <time>2022-02-27T10:52:19.807Z</time>
      </trkpt>
      <trkpt lat="44.37122" lon="5.15857">
        <ele>288</ele>
        <time>2022-02-27T10:52:20.807Z</time>
      </trkpt>
      <trkpt lat="44.3712" lon="5.15855">
        <ele>288</ele>
        <time>2022-02-27T10:52:21.807Z</time>
      </trkpt>
      <trkpt lat="44.37119" lon="5.15851">
        <ele>288</ele>
        <time>2022-02-27T10:52:22.806Z</time>
      </trkpt>
      <trkpt lat="44.37118" lon="5.15848">
        <ele>288</ele>
        <time>2022-02-27T10:52:23.807Z</time>
      </trkpt>
      <trkpt lat="44.37117" lon="5.15844">
        <ele>288</ele>
        <time>2022-02-27T10:52:24.807Z</time>
      </trkpt>
      <trkpt lat="44.37116" lon="5.15841">
        <ele>288</ele>
        <time>2022-02-27T10:52:25.807Z</time>
      </trkpt>
      <trkpt lat="44.37117" lon="5.15833">
        <ele>288</ele>
        <time>2022-02-27T10:52:26.807Z</time>
      </trkpt>
      <trkpt lat="44.37117" lon="5.15829">
        <ele>287</ele>
        <time>2022-02-27T10:52:27.807Z</time>
      </trkpt>
      <trkpt lat="44.37116" lon="5.15824">
        <ele>287</ele>
        <time>2022-02-27T10:52:28.806Z</time>
      </trkpt>
      <trkpt lat="44.37114" lon="5.15823">
        <ele>287</ele>
        <time>2022-02-27T10:52:29.807Z</time>
      </trkpt>
      <trkpt lat="44.37114" lon="5.15817">
        <ele>287</ele>
        <time>2022-02-27T10:52:30.807Z</time>
      </trkpt>
      <trkpt lat="44.37113" lon="5.15814">
        <ele>287</ele>
        <time>2022-02-27T10:52:31.806Z</time>
      </trkpt>
      <trkpt lat="44.37113" lon="5.15809">
        <ele>287</ele>
        <time>2022-02-27T10:52:32.807Z</time>
      </trkpt>
      <trkpt lat="44.37113" lon="5.15804">
        <ele>287</ele>
        <time>2022-02-27T10:52:33.807Z</time>
      </trkpt>
      <trkpt lat="44.37112" lon="5.158">
        <ele>287</ele>
        <time>2022-02-27T10:52:34.807Z</time>
      </trkpt>
      <trkpt lat="44.37112" lon="5.15796">
        <ele>287</ele>
        <time>2022-02-27T10:52:35.807Z</time>
      </trkpt>
      <trkpt lat="44.37111" lon="5.1579">
        <ele>287</ele>
        <time>2022-02-27T10:52:36.807Z</time>
      </trkpt>
      <trkpt lat="44.3711" lon="5.15787">
        <ele>287</ele>
        <time>2022-02-27T10:52:37.806Z</time>
      </trkpt>
      <trkpt lat="44.3711" lon="5.15783">
        <ele>287</ele>
        <time>2022-02-27T10:52:38.807Z</time>
      </trkpt>
      <trkpt lat="44.37109" lon="5.1578">
        <ele>287</ele>
        <time>2022-02-27T10:52:39.807Z</time>
      </trkpt>
      <trkpt lat="44.37107" lon="5.15776">
        <ele>287</ele>
        <time>2022-02-27T10:52:40.807Z</time>
      </trkpt>
      <trkpt lat="44.37106" lon="5.15773">
        <ele>287</ele>
        <time>2022-02-27T10:52:41.807Z</time>
      </trkpt>
      <trkpt lat="44.37105" lon="5.15769">
        <ele>287</ele>
        <time>2022-02-27T10:52:42.807Z</time>
      </trkpt>
      <trkpt lat="44.37103" lon="5.15766">
        <ele>287</ele>
        <time>2022-02-27T10:52:43.807Z</time>
      </trkpt>
      <trkpt lat="44.37102" lon="5.15764">
        <ele>287</ele>
        <time>2022-02-27T10:52:44.807Z</time>
      </trkpt>
      <trkpt lat="44.371" lon="5.15761">
        <ele>287</ele>
        <time>2022-02-27T10:52:45.806Z</time>
      </trkpt>
      <trkpt lat="44.37099" lon="5.15757">
        <ele>287</ele>
        <time>2022-02-27T10:52:46.807Z</time>
      </trkpt>
      <trkpt lat="44.37098" lon="5.15755">
        <ele>287</ele>
        <time>2022-02-27T10:52:47.807Z</time>
      </trkpt>
      <trkpt lat="44.37097" lon="5.15751">
        <ele>286</ele>
        <time>2022-02-27T10:52:48.806Z</time>
      </trkpt>
      <trkpt lat="44.37096" lon="5.15748">
        <ele>286</ele>
        <time>2022-02-27T10:52:49.807Z</time>
      </trkpt>
      <trkpt lat="44.37096" lon="5.15744">
        <ele>286</ele>
        <time>2022-02-27T10:52:50.806Z</time>
      </trkpt>
      <trkpt lat="44.37096" lon="5.1574">
        <ele>286</ele>
        <time>2022-02-27T10:52:51.806Z</time>
      </trkpt>
      <trkpt lat="44.37096" lon="5.15735">
        <ele>286</ele>
        <time>2022-02-27T10:52:52.806Z</time>
      </trkpt>
      <trkpt lat="44.37095" lon="5.15732">
        <ele>286</ele>
        <time>2022-02-27T10:52:53.807Z</time>
      </trkpt>
      <trkpt lat="44.37094" lon="5.15728">
        <ele>286</ele>
        <time>2022-02-27T10:52:54.806Z</time>
      </trkpt>
      <trkpt lat="44.37093" lon="5.15725">
        <ele>286</ele>
        <time>2022-02-27T10:52:55.807Z</time>
      </trkpt>
      <trkpt lat="44.37092" lon="5.15722">
        <ele>286</ele>
        <time>2022-02-27T10:52:56.807Z</time>
      </trkpt>
      <trkpt lat="44.37091" lon="5.15719">
        <ele>286</ele>
        <time>2022-02-27T10:52:57.807Z</time>
      </trkpt>
      <trkpt lat="44.37088" lon="5.15716">
        <ele>286</ele>
        <time>2022-02-27T10:52:58.807Z</time>
      </trkpt>
      <trkpt lat="44.37087" lon="5.15714">
        <ele>286</ele>
        <time>2022-02-27T10:52:59.806Z</time>
      </trkpt>
      <trkpt lat="44.37086" lon="5.15711">
        <ele>286</ele>
        <time>2022-02-27T10:53:00.807Z</time>
      </trkpt>
      <trkpt lat="44.37085" lon="5.15708">
        <ele>286</ele>
        <time>2022-02-27T10:53:01.807Z</time>
      </trkpt>
      <trkpt lat="44.37084" lon="5.15705">
        <ele>286</ele>
        <time>2022-02-27T10:53:02.807Z</time>
      </trkpt>
      <trkpt lat="44.37083" lon="5.15701">
        <ele>287</ele>
        <time>2022-02-27T10:53:03.807Z</time>
      </trkpt>
      <trkpt lat="44.37083" lon="5.15698">
        <ele>287</ele>
        <time>2022-02-27T10:53:04.806Z</time>
      </trkpt>
      <trkpt lat="44.37082" lon="5.15695">
        <ele>287</ele>
        <time>2022-02-27T10:53:05.807Z</time>
      </trkpt>
      <trkpt lat="44.37081" lon="5.15692">
        <ele>287</ele>
        <time>2022-02-27T10:53:06.807Z</time>
      </trkpt>
      <trkpt lat="44.37081" lon="5.15688">
        <ele>287</ele>
        <time>2022-02-27T10:53:07.807Z</time>
      </trkpt>
      <trkpt lat="44.3708" lon="5.15685">
        <ele>287</ele>
        <time>2022-02-27T10:53:08.807Z</time>
      </trkpt>
      <trkpt lat="44.3708" lon="5.15681">
        <ele>286</ele>
        <time>2022-02-27T10:53:09.806Z</time>
      </trkpt>
      <trkpt lat="44.37079" lon="5.15677">
        <ele>286</ele>
        <time>2022-02-27T10:53:10.806Z</time>
      </trkpt>
      <trkpt lat="44.37079" lon="5.15673">
        <ele>286</ele>
        <time>2022-02-27T10:53:11.807Z</time>
      </trkpt>
      <trkpt lat="44.37078" lon="5.15669">
        <ele>286</ele>
        <time>2022-02-27T10:53:12.806Z</time>
      </trkpt>
      <trkpt lat="44.37078" lon="5.15666">
        <ele>286</ele>
        <time>2022-02-27T10:53:13.806Z</time>
      </trkpt>
      <trkpt lat="44.37078" lon="5.15662">
        <ele>286</ele>
        <time>2022-02-27T10:53:14.806Z</time>
      </trkpt>
      <trkpt lat="44.37076" lon="5.15659">
        <ele>286</ele>
        <time>2022-02-27T10:53:15.806Z</time>
      </trkpt>
      <trkpt lat="44.37075" lon="5.15657">
        <ele>286</ele>
        <time>2022-02-27T10:53:16.806Z</time>
      </trkpt>
      <trkpt lat="44.37074" lon="5.15654">
        <ele>286</ele>
        <time>2022-02-27T10:53:17.807Z</time>
      </trkpt>
      <trkpt lat="44.37073" lon="5.1565">
        <ele>286</ele>
        <time>2022-02-27T10:53:18.807Z</time>
      </trkpt>
      <trkpt lat="44.37072" lon="5.15647">
        <ele>286</ele>
        <time>2022-02-27T10:53:19.806Z</time>
      </trkpt>
      <trkpt lat="44.37071" lon="5.15644">
        <ele>286</ele>
        <time>2022-02-27T10:53:20.807Z</time>
      </trkpt>
      <trkpt lat="44.3707" lon="5.1564">
        <ele>286</ele>
        <time>2022-02-27T10:53:21.807Z</time>
      </trkpt>
      <trkpt lat="44.37069" lon="5.15637">
        <ele>286</ele>
        <time>2022-02-27T10:53:22.807Z</time>
      </trkpt>
      <trkpt lat="44.37068" lon="5.15634">
        <ele>286</ele>
        <time>2022-02-27T10:53:23.807Z</time>
      </trkpt>
      <trkpt lat="44.37067" lon="5.1563">
        <ele>286</ele>
        <time>2022-02-27T10:53:24.807Z</time>
      </trkpt>
      <trkpt lat="44.37066" lon="5.15628">
        <ele>286</ele>
        <time>2022-02-27T10:53:25.806Z</time>
      </trkpt>
      <trkpt lat="44.37064" lon="5.15624">
        <ele>286</ele>
        <time>2022-02-27T10:53:26.806Z</time>
      </trkpt>
      <trkpt lat="44.37063" lon="5.15621">
        <ele>286</ele>
        <time>2022-02-27T10:53:27.806Z</time>
      </trkpt>
      <trkpt lat="44.37062" lon="5.15618">
        <ele>286</ele>
        <time>2022-02-27T10:53:28.806Z</time>
      </trkpt>
      <trkpt lat="44.3706" lon="5.15615">
        <ele>286</ele>
        <time>2022-02-27T10:53:29.806Z</time>
      </trkpt>
      <trkpt lat="44.37059" lon="5.15612">
        <ele>286</ele>
        <time>2022-02-27T10:53:30.806Z</time>
      </trkpt>
      <trkpt lat="44.37058" lon="5.15609">
        <ele>286</ele>
        <time>2022-02-27T10:53:31.807Z</time>
      </trkpt>
      <trkpt lat="44.37056" lon="5.15606">
        <ele>286</ele>
        <time>2022-02-27T10:53:32.807Z</time>
      </trkpt>
      <trkpt lat="44.37054" lon="5.15604">
        <ele>286</ele>
        <time>2022-02-27T10:53:33.807Z</time>
      </trkpt>
      <trkpt lat="44.37052" lon="5.15601">
        <ele>286</ele>
        <time>2022-02-27T10:53:34.807Z</time>
      </trkpt>
      <trkpt lat="44.37051" lon="5.15598">
        <ele>286</ele>
        <time>2022-02-27T10:53:35.807Z</time>
      </trkpt>
      <trkpt lat="44.37049" lon="5.15594">
        <ele>286</ele>
        <time>2022-02-27T10:53:36.807Z</time>
      </trkpt>
      <trkpt lat="44.37048" lon="5.1559">
        <ele>286</ele>
        <time>2022-02-27T10:53:37.807Z</time>
      </trkpt>
      <trkpt lat="44.37046" lon="5.15587">
        <ele>286</ele>
        <time>2022-02-27T10:53:38.806Z</time>
      </trkpt>
      <trkpt lat="44.37045" lon="5.15583">
        <ele>286</ele>
        <time>2022-02-27T10:53:39.806Z</time>
      </trkpt>
      <trkpt lat="44.37045" lon="5.1558">
        <ele>286</ele>
        <time>2022-02-27T10:53:40.807Z</time>
      </trkpt>
      <trkpt lat="44.37044" lon="5.15577">
        <ele>286</ele>
        <time>2022-02-27T10:53:41.807Z</time>
      </trkpt>
      <trkpt lat="44.37044" lon="5.15574">
        <ele>286</ele>
        <time>2022-02-27T10:53:42.807Z</time>
      </trkpt>
      <trkpt lat="44.37044" lon="5.15571">
        <ele>286</ele>
        <time>2022-02-27T10:53:43.807Z</time>
      </trkpt>
      <trkpt lat="44.37044" lon="5.15566">
        <ele>285</ele>
        <time>2022-02-27T10:53:44.806Z</time>
      </trkpt>
      <trkpt lat="44.37044" lon="5.15562">
        <ele>285</ele>
        <time>2022-02-27T10:53:45.806Z</time>
      </trkpt>
      <trkpt lat="44.37044" lon="5.15559">
        <ele>285</ele>
        <time>2022-02-27T10:53:46.807Z</time>
      </trkpt>
      <trkpt lat="44.37045" lon="5.15555">
        <ele>285</ele>
        <time>2022-02-27T10:53:47.806Z</time>
      </trkpt>
      <trkpt lat="44.37045" lon="5.1555">
        <ele>285</ele>
        <time>2022-02-27T10:53:48.807Z</time>
      </trkpt>
      <trkpt lat="44.37046" lon="5.15547">
        <ele>285</ele>
        <time>2022-02-27T10:53:49.807Z</time>
      </trkpt>
      <trkpt lat="44.37046" lon="5.15542">
        <ele>285</ele>
        <time>2022-02-27T10:53:50.806Z</time>
      </trkpt>
      <trkpt lat="44.37046" lon="5.15538">
        <ele>285</ele>
        <time>2022-02-27T10:53:51.807Z</time>
      </trkpt>
      <trkpt lat="44.37046" lon="5.15534">
        <ele>285</ele>
        <time>2022-02-27T10:53:52.806Z</time>
      </trkpt>
      <trkpt lat="44.37046" lon="5.1553">
        <ele>285</ele>
        <time>2022-02-27T10:53:53.807Z</time>
      </trkpt>
      <trkpt lat="44.37046" lon="5.15526">
        <ele>285</ele>
        <time>2022-02-27T10:53:54.807Z</time>
      </trkpt>
      <trkpt lat="44.37046" lon="5.15521">
        <ele>285</ele>
        <time>2022-02-27T10:53:55.806Z</time>
      </trkpt>
      <trkpt lat="44.37046" lon="5.15516">
        <ele>285</ele>
        <time>2022-02-27T10:53:56.806Z</time>
      </trkpt>
      <trkpt lat="44.37046" lon="5.15513">
        <ele>285</ele>
        <time>2022-02-27T10:53:57.807Z</time>
      </trkpt>
      <trkpt lat="44.37046" lon="5.1551">
        <ele>285</ele>
        <time>2022-02-27T10:53:58.806Z</time>
      </trkpt>
      <trkpt lat="44.37046" lon="5.15506">
        <ele>285</ele>
        <time>2022-02-27T10:53:59.806Z</time>
      </trkpt>
      <trkpt lat="44.37046" lon="5.15503">
        <ele>285</ele>
        <time>2022-02-27T10:54:00.807Z</time>
      </trkpt>
      <trkpt lat="44.37046" lon="5.155">
        <ele>285</ele>
        <time>2022-02-27T10:54:01.807Z</time>
      </trkpt>
      <trkpt lat="44.37045" lon="5.15496">
        <ele>285</ele>
        <time>2022-02-27T10:54:02.807Z</time>
      </trkpt>
      <trkpt lat="44.37045" lon="5.15492">
        <ele>284</ele>
        <time>2022-02-27T10:54:03.806Z</time>
      </trkpt>
      <trkpt lat="44.37045" lon="5.15488">
        <ele>284</ele>
        <time>2022-02-27T10:54:04.806Z</time>
      </trkpt>
      <trkpt lat="44.37045" lon="5.15484">
        <ele>284</ele>
        <time>2022-02-27T10:54:05.807Z</time>
      </trkpt>
      <trkpt lat="44.37045" lon="5.15481">
        <ele>284</ele>
        <time>2022-02-27T10:54:06.806Z</time>
      </trkpt>
      <trkpt lat="44.37044" lon="5.15477">
        <ele>284</ele>
        <time>2022-02-27T10:54:07.806Z</time>
      </trkpt>
      <trkpt lat="44.37044" lon="5.15474">
        <ele>284</ele>
        <time>2022-02-27T10:54:08.806Z</time>
      </trkpt>
      <trkpt lat="44.37044" lon="5.1547">
        <ele>284</ele>
        <time>2022-02-27T10:54:09.806Z</time>
      </trkpt>
      <trkpt lat="44.37044" lon="5.15467">
        <ele>284</ele>
        <time>2022-02-27T10:54:10.807Z</time>
      </trkpt>
      <trkpt lat="44.37043" lon="5.15462">
        <ele>284</ele>
        <time>2022-02-27T10:54:11.807Z</time>
      </trkpt>
      <trkpt lat="44.37043" lon="5.15459">
        <ele>284</ele>
        <time>2022-02-27T10:54:12.807Z</time>
      </trkpt>
      <trkpt lat="44.37042" lon="5.15456">
        <ele>284</ele>
        <time>2022-02-27T10:54:13.807Z</time>
      </trkpt>
      <trkpt lat="44.37042" lon="5.15453">
        <ele>284</ele>
        <time>2022-02-27T10:54:14.807Z</time>
      </trkpt>
      <trkpt lat="44.37041" lon="5.15449">
        <ele>284</ele>
        <time>2022-02-27T10:54:15.807Z</time>
      </trkpt>
      <trkpt lat="44.3704" lon="5.15447">
        <ele>284</ele>
        <time>2022-02-27T10:54:16.807Z</time>
      </trkpt>
      <trkpt lat="44.37039" lon="5.15444">
        <ele>284</ele>
        <time>2022-02-27T10:54:17.807Z</time>
      </trkpt>
      <trkpt lat="44.37038" lon="5.15441">
        <ele>284</ele>
        <time>2022-02-27T10:54:18.807Z</time>
      </trkpt>
      <trkpt lat="44.37037" lon="5.15438">
        <ele>285</ele>
        <time>2022-02-27T10:54:19.807Z</time>
      </trkpt>
      <trkpt lat="44.37035" lon="5.15435">
        <ele>285</ele>
        <time>2022-02-27T10:54:20.807Z</time>
      </trkpt>
      <trkpt lat="44.37034" lon="5.15432">
        <ele>285</ele>
        <time>2022-02-27T10:54:21.807Z</time>
      </trkpt>
      <trkpt lat="44.37033" lon="5.1543">
        <ele>285</ele>
        <time>2022-02-27T10:54:22.806Z</time>
      </trkpt>
      <trkpt lat="44.37031" lon="5.15428">
        <ele>285</ele>
        <time>2022-02-27T10:54:23.807Z</time>
      </trkpt>
      <trkpt lat="44.37029" lon="5.15425">
        <ele>285</ele>
        <time>2022-02-27T10:54:24.806Z</time>
      </trkpt>
      <trkpt lat="44.37027" lon="5.15423">
        <ele>284</ele>
        <time>2022-02-27T10:54:25.807Z</time>
      </trkpt>
      <trkpt lat="44.37025" lon="5.1542">
        <ele>284</ele>
        <time>2022-02-27T10:54:26.806Z</time>
      </trkpt>
      <trkpt lat="44.37023" lon="5.15418">
        <ele>284</ele>
        <time>2022-02-27T10:54:27.806Z</time>
      </trkpt>
      <trkpt lat="44.37021" lon="5.15415">
        <ele>284</ele>
        <time>2022-02-27T10:54:28.806Z</time>
      </trkpt>
      <trkpt lat="44.37019" lon="5.15413">
        <ele>284</ele>
        <time>2022-02-27T10:54:29.806Z</time>
      </trkpt>
      <trkpt lat="44.37017" lon="5.15411">
        <ele>284</ele>
        <time>2022-02-27T10:54:30.807Z</time>
      </trkpt>
      <trkpt lat="44.37015" lon="5.15408">
        <ele>284</ele>
        <time>2022-02-27T10:54:31.807Z</time>
      </trkpt>
      <trkpt lat="44.37014" lon="5.15406">
        <ele>284</ele>
        <time>2022-02-27T10:54:32.807Z</time>
      </trkpt>
      <trkpt lat="44.37012" lon="5.15405">
        <ele>284</ele>
        <time>2022-02-27T10:54:33.806Z</time>
      </trkpt>
      <trkpt lat="44.3701" lon="5.15403">
        <ele>285</ele>
        <time>2022-02-27T10:54:34.807Z</time>
      </trkpt>
      <trkpt lat="44.37009" lon="5.15402">
        <ele>285</ele>
        <time>2022-02-27T10:54:35.807Z</time>
      </trkpt>
      <trkpt lat="44.37007" lon="5.154">
        <ele>285</ele>
        <time>2022-02-27T10:54:36.807Z</time>
      </trkpt>
      <trkpt lat="44.37005" lon="5.15399">
        <ele>285</ele>
        <time>2022-02-27T10:54:37.807Z</time>
      </trkpt>
      <trkpt lat="44.37003" lon="5.15396">
        <ele>285</ele>
        <time>2022-02-27T10:54:38.807Z</time>
      </trkpt>
      <trkpt lat="44.37" lon="5.15394">
        <ele>286</ele>
        <time>2022-02-27T10:54:39.806Z</time>
      </trkpt>
      <trkpt lat="44.36998" lon="5.15392">
        <ele>286</ele>
        <time>2022-02-27T10:54:40.806Z</time>
      </trkpt>
      <trkpt lat="44.36994" lon="5.15389">
        <ele>286</ele>
        <time>2022-02-27T10:54:41.807Z</time>
      </trkpt>
      <trkpt lat="44.36991" lon="5.15387">
        <ele>286</ele>
        <time>2022-02-27T10:54:42.807Z</time>
      </trkpt>
      <trkpt lat="44.36989" lon="5.15386">
        <ele>285</ele>
        <time>2022-02-27T10:54:43.806Z</time>
      </trkpt>
      <trkpt lat="44.36987" lon="5.15385">
        <ele>285</ele>
        <time>2022-02-27T10:54:44.806Z</time>
      </trkpt>
      <trkpt lat="44.36983" lon="5.15383">
        <ele>285</ele>
        <time>2022-02-27T10:54:45.806Z</time>
      </trkpt>
      <trkpt lat="44.36981" lon="5.15382">
        <ele>285</ele>
        <time>2022-02-27T10:54:46.807Z</time>
      </trkpt>
      <trkpt lat="44.36979" lon="5.15382">
        <ele>285</ele>
        <time>2022-02-27T10:54:47.807Z</time>
      </trkpt>
      <trkpt lat="44.36977" lon="5.15381">
        <ele>285</ele>
        <time>2022-02-27T10:54:48.807Z</time>
      </trkpt>
      <trkpt lat="44.36974" lon="5.1538">
        <ele>285</ele>
        <time>2022-02-27T10:54:49.807Z</time>
      </trkpt>
      <trkpt lat="44.36971" lon="5.1538">
        <ele>285</ele>
        <time>2022-02-27T10:54:50.807Z</time>
      </trkpt>
      <trkpt lat="44.36969" lon="5.15379">
        <ele>285</ele>
        <time>2022-02-27T10:54:51.806Z</time>
      </trkpt>
      <trkpt lat="44.36966" lon="5.15378">
        <ele>285</ele>
        <time>2022-02-27T10:54:52.807Z</time>
      </trkpt>
      <trkpt lat="44.36963" lon="5.15378">
        <ele>285</ele>
        <time>2022-02-27T10:54:53.807Z</time>
      </trkpt>
      <trkpt lat="44.3696" lon="5.15377">
        <ele>285</ele>
        <time>2022-02-27T10:54:54.806Z</time>
      </trkpt>
      <trkpt lat="44.36957" lon="5.15377">
        <ele>285</ele>
        <time>2022-02-27T10:54:55.807Z</time>
      </trkpt>
      <trkpt lat="44.36954" lon="5.15377">
        <ele>285</ele>
        <time>2022-02-27T10:54:56.807Z</time>
      </trkpt>
      <trkpt lat="44.36951" lon="5.15377">
        <ele>285</ele>
        <time>2022-02-27T10:54:57.807Z</time>
      </trkpt>
      <trkpt lat="44.36947" lon="5.15377">
        <ele>285</ele>
        <time>2022-02-27T10:54:58.807Z</time>
      </trkpt>
      <trkpt lat="44.36944" lon="5.15376">
        <ele>285</ele>
        <time>2022-02-27T10:54:59.807Z</time>
      </trkpt>
      <trkpt lat="44.36941" lon="5.15377">
        <ele>285</ele>
        <time>2022-02-27T10:55:00.806Z</time>
      </trkpt>
      <trkpt lat="44.36939" lon="5.15378">
        <ele>285</ele>
        <time>2022-02-27T10:55:01.807Z</time>
      </trkpt>
      <trkpt lat="44.36936" lon="5.15378">
        <ele>285</ele>
        <time>2022-02-27T10:55:02.807Z</time>
      </trkpt>
      <trkpt lat="44.36933" lon="5.15379">
        <ele>286</ele>
        <time>2022-02-27T10:55:03.807Z</time>
      </trkpt>
      <trkpt lat="44.36931" lon="5.15379">
        <ele>286</ele>
        <time>2022-02-27T10:55:04.807Z</time>
      </trkpt>
      <trkpt lat="44.36927" lon="5.15378">
        <ele>285</ele>
        <time>2022-02-27T10:55:05.806Z</time>
      </trkpt>
      <trkpt lat="44.36924" lon="5.15378">
        <ele>285</ele>
        <time>2022-02-27T10:55:06.807Z</time>
      </trkpt>
      <trkpt lat="44.36921" lon="5.15378">
        <ele>285</ele>
        <time>2022-02-27T10:55:07.807Z</time>
      </trkpt>
      <trkpt lat="44.3692" lon="5.15378">
        <ele>284</ele>
        <time>2022-02-27T10:55:08.806Z</time>
      </trkpt>
      <trkpt lat="44.36917" lon="5.1538">
        <ele>284</ele>
        <time>2022-02-27T10:55:09.807Z</time>
      </trkpt>
      <trkpt lat="44.36915" lon="5.15381">
        <ele>284</ele>
        <time>2022-02-27T10:55:10.806Z</time>
      </trkpt>
      <trkpt lat="44.36912" lon="5.15382">
        <ele>284</ele>
        <time>2022-02-27T10:55:11.806Z</time>
      </trkpt>
      <trkpt lat="44.36909" lon="5.15383">
        <ele>284</ele>
        <time>2022-02-27T10:55:12.806Z</time>
      </trkpt>
      <trkpt lat="44.36906" lon="5.15384">
        <ele>284</ele>
        <time>2022-02-27T10:55:13.806Z</time>
      </trkpt>
      <trkpt lat="44.36903" lon="5.15384">
        <ele>284</ele>
        <time>2022-02-27T10:55:14.806Z</time>
      </trkpt>
      <trkpt lat="44.369" lon="5.15385">
        <ele>285</ele>
        <time>2022-02-27T10:55:15.806Z</time>
      </trkpt>
      <trkpt lat="44.36898" lon="5.15385">
        <ele>285</ele>
        <time>2022-02-27T10:55:16.806Z</time>
      </trkpt>
      <trkpt lat="44.36895" lon="5.15385">
        <ele>285</ele>
        <time>2022-02-27T10:55:17.807Z</time>
      </trkpt>
      <trkpt lat="44.36892" lon="5.15386">
        <ele>285</ele>
        <time>2022-02-27T10:55:18.807Z</time>
      </trkpt>
      <trkpt lat="44.36889" lon="5.15386">
        <ele>285</ele>
        <time>2022-02-27T10:55:19.807Z</time>
      </trkpt>
      <trkpt lat="44.36886" lon="5.15387">
        <ele>286</ele>
        <time>2022-02-27T10:55:20.807Z</time>
      </trkpt>
      <trkpt lat="44.36883" lon="5.15388">
        <ele>286</ele>
        <time>2022-02-27T10:55:21.807Z</time>
      </trkpt>
      <trkpt lat="44.3688" lon="5.15388">
        <ele>287</ele>
        <time>2022-02-27T10:55:22.807Z</time>
      </trkpt>
      <trkpt lat="44.36877" lon="5.15388">
        <ele>287</ele>
        <time>2022-02-27T10:55:23.807Z</time>
      </trkpt>
      <trkpt lat="44.36874" lon="5.15388">
        <ele>287</ele>
        <time>2022-02-27T10:55:24.806Z</time>
      </trkpt>
      <trkpt lat="44.36872" lon="5.15387">
        <ele>287</ele>
        <time>2022-02-27T10:55:25.806Z</time>
      </trkpt>
      <trkpt lat="44.36869" lon="5.15387">
        <ele>287</ele>
        <time>2022-02-27T10:55:26.807Z</time>
      </trkpt>
      <trkpt lat="44.36866" lon="5.15387">
        <ele>286</ele>
        <time>2022-02-27T10:55:27.807Z</time>
      </trkpt>
      <trkpt lat="44.36864" lon="5.15386">
        <ele>286</ele>
        <time>2022-02-27T10:55:28.807Z</time>
      </trkpt>
      <trkpt lat="44.36861" lon="5.15386">
        <ele>286</ele>
        <time>2022-02-27T10:55:29.807Z</time>
      </trkpt>
      <trkpt lat="44.36859" lon="5.15385">
        <ele>285</ele>
        <time>2022-02-27T10:55:30.806Z</time>
      </trkpt>
      <trkpt lat="44.36856" lon="5.15386">
        <ele>284</ele>
        <time>2022-02-27T10:55:31.806Z</time>
      </trkpt>
      <trkpt lat="44.36852" lon="5.15387">
        <ele>284</ele>
        <time>2022-02-27T10:55:32.807Z</time>
      </trkpt>
      <trkpt lat="44.36849" lon="5.15387">
        <ele>284</ele>
        <time>2022-02-27T10:55:33.806Z</time>
      </trkpt>
      <trkpt lat="44.36846" lon="5.15387">
        <ele>283</ele>
        <time>2022-02-27T10:55:34.807Z</time>
      </trkpt>
      <trkpt lat="44.36843" lon="5.15386">
        <ele>283</ele>
        <time>2022-02-27T10:55:35.806Z</time>
      </trkpt>
      <trkpt lat="44.3684" lon="5.15385">
        <ele>283</ele>
        <time>2022-02-27T10:55:36.807Z</time>
      </trkpt>
      <trkpt lat="44.36838" lon="5.15384">
        <ele>283</ele>
        <time>2022-02-27T10:55:37.807Z</time>
      </trkpt>
      <trkpt lat="44.36835" lon="5.15384">
        <ele>282</ele>
        <time>2022-02-27T10:55:38.807Z</time>
      </trkpt>
      <trkpt lat="44.36832" lon="5.15385">
        <ele>282</ele>
        <time>2022-02-27T10:55:39.807Z</time>
      </trkpt>
      <trkpt lat="44.36828" lon="5.15386">
        <ele>282</ele>
        <time>2022-02-27T10:55:40.807Z</time>
      </trkpt>
      <trkpt lat="44.36826" lon="5.15387">
        <ele>282</ele>
        <time>2022-02-27T10:55:41.806Z</time>
      </trkpt>
      <trkpt lat="44.36823" lon="5.15386">
        <ele>282</ele>
        <time>2022-02-27T10:55:42.806Z</time>
      </trkpt>
      <trkpt lat="44.36821" lon="5.15385">
        <ele>281</ele>
        <time>2022-02-27T10:55:43.807Z</time>
      </trkpt>
      <trkpt lat="44.36818" lon="5.15385">
        <ele>281</ele>
        <time>2022-02-27T10:55:44.807Z</time>
      </trkpt>
      <trkpt lat="44.36815" lon="5.15385">
        <ele>280</ele>
        <time>2022-02-27T10:55:45.807Z</time>
      </trkpt>
      <trkpt lat="44.36813" lon="5.15385">
        <ele>280</ele>
        <time>2022-02-27T10:55:46.807Z</time>
      </trkpt>
      <trkpt lat="44.3681" lon="5.15386">
        <ele>279</ele>
        <time>2022-02-27T10:55:47.807Z</time>
      </trkpt>
      <trkpt lat="44.36808" lon="5.15386">
        <ele>279</ele>
        <time>2022-02-27T10:55:48.807Z</time>
      </trkpt>
      <trkpt lat="44.36805" lon="5.15388">
        <ele>278</ele>
        <time>2022-02-27T10:55:49.807Z</time>
      </trkpt>
      <trkpt lat="44.36802" lon="5.1539">
        <ele>278</ele>
        <time>2022-02-27T10:55:50.807Z</time>
      </trkpt>
      <trkpt lat="44.36799" lon="5.15391">
        <ele>278</ele>
        <time>2022-02-27T10:55:51.806Z</time>
      </trkpt>
      <trkpt lat="44.36797" lon="5.15392">
        <ele>278</ele>
        <time>2022-02-27T10:55:52.807Z</time>
      </trkpt>
      <trkpt lat="44.36794" lon="5.15394">
        <ele>278</ele>
        <time>2022-02-27T10:55:53.806Z</time>
      </trkpt>
      <trkpt lat="44.36792" lon="5.15394">
        <ele>278</ele>
        <time>2022-02-27T10:55:54.807Z</time>
      </trkpt>
      <trkpt lat="44.36789" lon="5.15395">
        <ele>278</ele>
        <time>2022-02-27T10:55:55.806Z</time>
      </trkpt>
      <trkpt lat="44.36787" lon="5.15396">
        <ele>277</ele>
        <time>2022-02-27T10:55:56.807Z</time>
      </trkpt>
      <trkpt lat="44.36783" lon="5.15398">
        <ele>277</ele>
        <time>2022-02-27T10:55:57.807Z</time>
      </trkpt>
      <trkpt lat="44.3678" lon="5.154">
        <ele>277</ele>
        <time>2022-02-27T10:55:58.807Z</time>
      </trkpt>
      <trkpt lat="44.36777" lon="5.15402">
        <ele>277</ele>
        <time>2022-02-27T10:55:59.807Z</time>
      </trkpt>
      <trkpt lat="44.36774" lon="5.15403">
        <ele>277</ele>
        <time>2022-02-27T10:56:00.807Z</time>
      </trkpt>
      <trkpt lat="44.36773" lon="5.15404">
        <ele>277</ele>
        <time>2022-02-27T10:56:01.807Z</time>
      </trkpt>
      <trkpt lat="44.3677" lon="5.15406">
        <ele>277</ele>
        <time>2022-02-27T10:56:02.807Z</time>
      </trkpt>
      <trkpt lat="44.36768" lon="5.15408">
        <ele>277</ele>
        <time>2022-02-27T10:56:03.807Z</time>
      </trkpt>
      <trkpt lat="44.36765" lon="5.1541">
        <ele>277</ele>
        <time>2022-02-27T10:56:04.807Z</time>
      </trkpt>
      <trkpt lat="44.36762" lon="5.15412">
        <ele>278</ele>
        <time>2022-02-27T10:56:05.807Z</time>
      </trkpt>
      <trkpt lat="44.3676" lon="5.15414">
        <ele>278</ele>
        <time>2022-02-27T10:56:06.806Z</time>
      </trkpt>
      <trkpt lat="44.36757" lon="5.15415">
        <ele>277</ele>
        <time>2022-02-27T10:56:07.806Z</time>
      </trkpt>
      <trkpt lat="44.36754" lon="5.15417">
        <ele>277</ele>
        <time>2022-02-27T10:56:08.806Z</time>
      </trkpt>
      <trkpt lat="44.36753" lon="5.15419">
        <ele>277</ele>
        <time>2022-02-27T10:56:09.806Z</time>
      </trkpt>
      <trkpt lat="44.36751" lon="5.15421">
        <ele>276</ele>
        <time>2022-02-27T10:56:10.807Z</time>
      </trkpt>
      <trkpt lat="44.36749" lon="5.15424">
        <ele>276</ele>
        <time>2022-02-27T10:56:11.807Z</time>
      </trkpt>
      <trkpt lat="44.36748" lon="5.15426">
        <ele>276</ele>
        <time>2022-02-27T10:56:12.807Z</time>
      </trkpt>
      <trkpt lat="44.36746" lon="5.15428">
        <ele>276</ele>
        <time>2022-02-27T10:56:13.807Z</time>
      </trkpt>
      <trkpt lat="44.36744" lon="5.1543">
        <ele>276</ele>
        <time>2022-02-27T10:56:14.807Z</time>
      </trkpt>
      <trkpt lat="44.36742" lon="5.15433">
        <ele>276</ele>
        <time>2022-02-27T10:56:15.806Z</time>
      </trkpt>
      <trkpt lat="44.3674" lon="5.15435">
        <ele>276</ele>
        <time>2022-02-27T10:56:16.807Z</time>
      </trkpt>
      <trkpt lat="44.36739" lon="5.15438">
        <ele>277</ele>
        <time>2022-02-27T10:56:17.806Z</time>
      </trkpt>
      <trkpt lat="44.36737" lon="5.1544">
        <ele>277</ele>
        <time>2022-02-27T10:56:18.806Z</time>
      </trkpt>
      <trkpt lat="44.36736" lon="5.15442">
        <ele>278</ele>
        <time>2022-02-27T10:56:19.806Z</time>
      </trkpt>
      <trkpt lat="44.36734" lon="5.15445">
        <ele>278</ele>
        <time>2022-02-27T10:56:20.807Z</time>
      </trkpt>
      <trkpt lat="44.36733" lon="5.15448">
        <ele>279</ele>
        <time>2022-02-27T10:56:21.806Z</time>
      </trkpt>
      <trkpt lat="44.36732" lon="5.15451">
        <ele>280</ele>
        <time>2022-02-27T10:56:22.807Z</time>
      </trkpt>
      <trkpt lat="44.3673" lon="5.15454">
        <ele>280</ele>
        <time>2022-02-27T10:56:23.807Z</time>
      </trkpt>
      <trkpt lat="44.36729" lon="5.15457">
        <ele>281</ele>
        <time>2022-02-27T10:56:24.807Z</time>
      </trkpt>
      <trkpt lat="44.36727" lon="5.1546">
        <ele>281</ele>
        <time>2022-02-27T10:56:25.807Z</time>
      </trkpt>
      <trkpt lat="44.36726" lon="5.15463">
        <ele>281</ele>
        <time>2022-02-27T10:56:26.807Z</time>
      </trkpt>
      <trkpt lat="44.36725" lon="5.15467">
        <ele>282</ele>
        <time>2022-02-27T10:56:27.807Z</time>
      </trkpt>
      <trkpt lat="44.36723" lon="5.1547">
        <ele>282</ele>
        <time>2022-02-27T10:56:28.807Z</time>
      </trkpt>
      <trkpt lat="44.36721" lon="5.15473">
        <ele>283</ele>
        <time>2022-02-27T10:56:29.807Z</time>
      </trkpt>
      <trkpt lat="44.36719" lon="5.15477">
        <ele>284</ele>
        <time>2022-02-27T10:56:30.807Z</time>
      </trkpt>
      <trkpt lat="44.36717" lon="5.15481">
        <ele>285</ele>
        <time>2022-02-27T10:56:31.807Z</time>
      </trkpt>
      <trkpt lat="44.36715" lon="5.15484">
        <ele>285</ele>
        <time>2022-02-27T10:56:32.806Z</time>
      </trkpt>
      <trkpt lat="44.36713" lon="5.15486">
        <ele>286</ele>
        <time>2022-02-27T10:56:33.807Z</time>
      </trkpt>
      <trkpt lat="44.36711" lon="5.15489">
        <ele>287</ele>
        <time>2022-02-27T10:56:34.807Z</time>
      </trkpt>
      <trkpt lat="44.36709" lon="5.15492">
        <ele>287</ele>
        <time>2022-02-27T10:56:35.807Z</time>
      </trkpt>
      <trkpt lat="44.36708" lon="5.15495">
        <ele>288</ele>
        <time>2022-02-27T10:56:36.807Z</time>
      </trkpt>
      <trkpt lat="44.36707" lon="5.15496">
        <ele>288</ele>
        <time>2022-02-27T10:56:37.807Z</time>
      </trkpt>
      <trkpt lat="44.36707" lon="5.15497">
        <ele>289</ele>
        <time>2022-02-27T10:56:38.807Z</time>
      </trkpt>
      <trkpt lat="44.36706" lon="5.15499">
        <ele>289</ele>
        <time>2022-02-27T10:56:39.807Z</time>
      </trkpt>
      <trkpt lat="44.36706" lon="5.15501">
        <ele>289</ele>
        <time>2022-02-27T10:56:40.807Z</time>
      </trkpt>
      <trkpt lat="44.36704" lon="5.15504">
        <ele>290</ele>
        <time>2022-02-27T10:56:41.806Z</time>
      </trkpt>
      <trkpt lat="44.36702" lon="5.15507">
        <ele>290</ele>
        <time>2022-02-27T10:56:42.806Z</time>
      </trkpt>
      <trkpt lat="44.367" lon="5.15511">
        <ele>290</ele>
        <time>2022-02-27T10:56:43.807Z</time>
      </trkpt>
      <trkpt lat="44.36697" lon="5.15515">
        <ele>290</ele>
        <time>2022-02-27T10:56:44.806Z</time>
      </trkpt>
      <trkpt lat="44.36695" lon="5.15519">
        <ele>290</ele>
        <time>2022-02-27T10:56:45.806Z</time>
      </trkpt>
      <trkpt lat="44.36693" lon="5.15524">
        <ele>290</ele>
        <time>2022-02-27T10:56:46.807Z</time>
      </trkpt>
      <trkpt lat="44.36692" lon="5.15527">
        <ele>290</ele>
        <time>2022-02-27T10:56:47.807Z</time>
      </trkpt>
      <trkpt lat="44.3669" lon="5.15531">
        <ele>291</ele>
        <time>2022-02-27T10:56:48.807Z</time>
      </trkpt>
      <trkpt lat="44.36689" lon="5.15535">
        <ele>291</ele>
        <time>2022-02-27T10:56:49.807Z</time>
      </trkpt>
      <trkpt lat="44.36688" lon="5.15538">
        <ele>291</ele>
        <time>2022-02-27T10:56:50.807Z</time>
      </trkpt>
      <trkpt lat="44.36687" lon="5.15543">
        <ele>291</ele>
        <time>2022-02-27T10:56:51.807Z</time>
      </trkpt>
      <trkpt lat="44.36686" lon="5.15546">
        <ele>290</ele>
        <time>2022-02-27T10:56:52.806Z</time>
      </trkpt>
      <trkpt lat="44.36684" lon="5.1555">
        <ele>290</ele>
        <time>2022-02-27T10:56:53.807Z</time>
      </trkpt>
      <trkpt lat="44.36683" lon="5.15554">
        <ele>290</ele>
        <time>2022-02-27T10:56:54.806Z</time>
      </trkpt>
      <trkpt lat="44.36682" lon="5.15558">
        <ele>290</ele>
        <time>2022-02-27T10:56:55.807Z</time>
      </trkpt>
      <trkpt lat="44.36681" lon="5.15561">
        <ele>290</ele>
        <time>2022-02-27T10:56:56.806Z</time>
      </trkpt>
      <trkpt lat="44.3668" lon="5.15563">
        <ele>289</ele>
        <time>2022-02-27T10:56:57.807Z</time>
      </trkpt>
      <trkpt lat="44.36679" lon="5.15566">
        <ele>289</ele>
        <time>2022-02-27T10:56:58.806Z</time>
      </trkpt>
      <trkpt lat="44.36676" lon="5.15582">
        <ele>285</ele>
        <time>2022-02-27T10:56:59.807Z</time>
      </trkpt>
      <trkpt lat="44.36675" lon="5.15581">
        <ele>284</ele>
        <time>2022-02-27T10:57:00.808Z</time>
      </trkpt>
      <trkpt lat="44.36675" lon="5.15581">
        <ele>283</ele>
        <time>2022-02-27T10:57:01.807Z</time>
      </trkpt>
      <trkpt lat="44.36673" lon="5.1558">
        <ele>282</ele>
        <time>2022-02-27T10:57:02.808Z</time>
      </trkpt>
      <trkpt lat="44.36672" lon="5.1558">
        <ele>281</ele>
        <time>2022-02-27T10:57:03.808Z</time>
      </trkpt>
      <trkpt lat="44.36669" lon="5.1558">
        <ele>281</ele>
        <time>2022-02-27T10:57:04.808Z</time>
      </trkpt>
      <trkpt lat="44.36668" lon="5.15581">
        <ele>281</ele>
        <time>2022-02-27T10:57:05.808Z</time>
      </trkpt>
      <trkpt lat="44.36666" lon="5.15582">
        <ele>280</ele>
        <time>2022-02-27T10:57:06.808Z</time>
      </trkpt>
      <trkpt lat="44.36664" lon="5.15583">
        <ele>280</ele>
        <time>2022-02-27T10:57:07.808Z</time>
      </trkpt>
      <trkpt lat="44.36662" lon="5.15583">
        <ele>280</ele>
        <time>2022-02-27T10:57:08.808Z</time>
      </trkpt>
      <trkpt lat="44.3666" lon="5.15584">
        <ele>280</ele>
        <time>2022-02-27T10:57:09.808Z</time>
      </trkpt>
      <trkpt lat="44.36658" lon="5.15585">
        <ele>280</ele>
        <time>2022-02-27T10:57:10.808Z</time>
      </trkpt>
      <trkpt lat="44.36656" lon="5.15585">
        <ele>280</ele>
        <time>2022-02-27T10:57:11.807Z</time>
      </trkpt>
      <trkpt lat="44.36654" lon="5.15586">
        <ele>280</ele>
        <time>2022-02-27T10:57:12.808Z</time>
      </trkpt>
      <trkpt lat="44.36652" lon="5.15587">
        <ele>280</ele>
        <time>2022-02-27T10:57:13.807Z</time>
      </trkpt>
      <trkpt lat="44.3665" lon="5.15589">
        <ele>280</ele>
        <time>2022-02-27T10:57:14.807Z</time>
      </trkpt>
      <trkpt lat="44.36648" lon="5.1559">
        <ele>280</ele>
        <time>2022-02-27T10:57:15.808Z</time>
      </trkpt>
      <trkpt lat="44.36645" lon="5.15591">
        <ele>280</ele>
        <time>2022-02-27T10:57:16.808Z</time>
      </trkpt>
      <trkpt lat="44.36642" lon="5.15592">
        <ele>280</ele>
        <time>2022-02-27T10:57:17.807Z</time>
      </trkpt>
      <trkpt lat="44.3664" lon="5.15593">
        <ele>280</ele>
        <time>2022-02-27T10:57:18.808Z</time>
      </trkpt>
      <trkpt lat="44.36637" lon="5.15595">
        <ele>280</ele>
        <time>2022-02-27T10:57:19.807Z</time>
      </trkpt>
      <trkpt lat="44.36635" lon="5.15596">
        <ele>280</ele>
        <time>2022-02-27T10:57:20.808Z</time>
      </trkpt>
      <trkpt lat="44.36633" lon="5.15597">
        <ele>280</ele>
        <time>2022-02-27T10:57:21.807Z</time>
      </trkpt>
      <trkpt lat="44.36631" lon="5.15598">
        <ele>281</ele>
        <time>2022-02-27T10:57:22.807Z</time>
      </trkpt>
      <trkpt lat="44.36629" lon="5.15599">
        <ele>281</ele>
        <time>2022-02-27T10:57:23.808Z</time>
      </trkpt>
      <trkpt lat="44.36627" lon="5.15599">
        <ele>281</ele>
        <time>2022-02-27T10:57:24.808Z</time>
      </trkpt>
      <trkpt lat="44.36625" lon="5.156">
        <ele>282</ele>
        <time>2022-02-27T10:57:25.808Z</time>
      </trkpt>
      <trkpt lat="44.36623" lon="5.156">
        <ele>282</ele>
        <time>2022-02-27T10:57:26.808Z</time>
      </trkpt>
      <trkpt lat="44.36621" lon="5.15601">
        <ele>282</ele>
        <time>2022-02-27T10:57:27.808Z</time>
      </trkpt>
      <trkpt lat="44.36619" lon="5.15602">
        <ele>283</ele>
        <time>2022-02-27T10:57:28.807Z</time>
      </trkpt>
      <trkpt lat="44.36617" lon="5.15603">
        <ele>283</ele>
        <time>2022-02-27T10:57:29.807Z</time>
      </trkpt>
      <trkpt lat="44.36614" lon="5.15605">
        <ele>284</ele>
        <time>2022-02-27T10:57:30.808Z</time>
      </trkpt>
      <trkpt lat="44.36612" lon="5.15606">
        <ele>284</ele>
        <time>2022-02-27T10:57:31.808Z</time>
      </trkpt>
      <trkpt lat="44.36609" lon="5.15607">
        <ele>284</ele>
        <time>2022-02-27T10:57:32.807Z</time>
      </trkpt>
      <trkpt lat="44.36607" lon="5.15607">
        <ele>285</ele>
        <time>2022-02-27T10:57:33.808Z</time>
      </trkpt>
      <trkpt lat="44.36605" lon="5.15608">
        <ele>285</ele>
        <time>2022-02-27T10:57:34.808Z</time>
      </trkpt>
      <trkpt lat="44.36602" lon="5.15608">
        <ele>285</ele>
        <time>2022-02-27T10:57:35.808Z</time>
      </trkpt>
      <trkpt lat="44.366" lon="5.15608">
        <ele>285</ele>
        <time>2022-02-27T10:57:36.808Z</time>
      </trkpt>
      <trkpt lat="44.36597" lon="5.15609">
        <ele>285</ele>
        <time>2022-02-27T10:57:37.808Z</time>
      </trkpt>
      <trkpt lat="44.36595" lon="5.1561">
        <ele>285</ele>
        <time>2022-02-27T10:57:38.808Z</time>
      </trkpt>
      <trkpt lat="44.36592" lon="5.15611">
        <ele>286</ele>
        <time>2022-02-27T10:57:39.808Z</time>
      </trkpt>
      <trkpt lat="44.3659" lon="5.15615">
        <ele>286</ele>
        <time>2022-02-27T10:57:40.808Z</time>
      </trkpt>
      <trkpt lat="44.36587" lon="5.15616">
        <ele>286</ele>
        <time>2022-02-27T10:57:41.808Z</time>
      </trkpt>
      <trkpt lat="44.36585" lon="5.15617">
        <ele>287</ele>
        <time>2022-02-27T10:57:42.808Z</time>
      </trkpt>
      <trkpt lat="44.36582" lon="5.15617">
        <ele>287</ele>
        <time>2022-02-27T10:57:43.808Z</time>
      </trkpt>
      <trkpt lat="44.3658" lon="5.15619">
        <ele>287</ele>
        <time>2022-02-27T10:57:44.808Z</time>
      </trkpt>
      <trkpt lat="44.36578" lon="5.15619">
        <ele>288</ele>
        <time>2022-02-27T10:57:45.807Z</time>
      </trkpt>
      <trkpt lat="44.36575" lon="5.15619">
        <ele>288</ele>
        <time>2022-02-27T10:57:46.807Z</time>
      </trkpt>
      <trkpt lat="44.36574" lon="5.15619">
        <ele>288</ele>
        <time>2022-02-27T10:57:47.808Z</time>
      </trkpt>
      <trkpt lat="44.36572" lon="5.15619">
        <ele>288</ele>
        <time>2022-02-27T10:57:48.807Z</time>
      </trkpt>
      <trkpt lat="44.3657" lon="5.15619">
        <ele>288</ele>
        <time>2022-02-27T10:57:49.808Z</time>
      </trkpt>
      <trkpt lat="44.36568" lon="5.15621">
        <ele>288</ele>
        <time>2022-02-27T10:57:50.808Z</time>
      </trkpt>
      <trkpt lat="44.36565" lon="5.15622">
        <ele>287</ele>
        <time>2022-02-27T10:57:51.807Z</time>
      </trkpt>
      <trkpt lat="44.36563" lon="5.15624">
        <ele>287</ele>
        <time>2022-02-27T10:57:52.808Z</time>
      </trkpt>
      <trkpt lat="44.3656" lon="5.15625">
        <ele>288</ele>
        <time>2022-02-27T10:57:53.808Z</time>
      </trkpt>
      <trkpt lat="44.36558" lon="5.15625">
        <ele>287</ele>
        <time>2022-02-27T10:57:54.808Z</time>
      </trkpt>
      <trkpt lat="44.36555" lon="5.15625">
        <ele>287</ele>
        <time>2022-02-27T10:57:55.808Z</time>
      </trkpt>
      <trkpt lat="44.36553" lon="5.15626">
        <ele>287</ele>
        <time>2022-02-27T10:57:56.807Z</time>
      </trkpt>
      <trkpt lat="44.3655" lon="5.15625">
        <ele>287</ele>
        <time>2022-02-27T10:57:57.808Z</time>
      </trkpt>
      <trkpt lat="44.36548" lon="5.15625">
        <ele>287</ele>
        <time>2022-02-27T10:57:58.808Z</time>
      </trkpt>
      <trkpt lat="44.36545" lon="5.15625">
        <ele>287</ele>
        <time>2022-02-27T10:57:59.808Z</time>
      </trkpt>
      <trkpt lat="44.36542" lon="5.15625">
        <ele>287</ele>
        <time>2022-02-27T10:58:00.808Z</time>
      </trkpt>
      <trkpt lat="44.3654" lon="5.15625">
        <ele>287</ele>
        <time>2022-02-27T10:58:01.808Z</time>
      </trkpt>
      <trkpt lat="44.36538" lon="5.15624">
        <ele>287</ele>
        <time>2022-02-27T10:58:02.807Z</time>
      </trkpt>
      <trkpt lat="44.36535" lon="5.15623">
        <ele>288</ele>
        <time>2022-02-27T10:58:03.808Z</time>
      </trkpt>
      <trkpt lat="44.36533" lon="5.15623">
        <ele>288</ele>
        <time>2022-02-27T10:58:04.808Z</time>
      </trkpt>
      <trkpt lat="44.3653" lon="5.15622">
        <ele>288</ele>
        <time>2022-02-27T10:58:05.808Z</time>
      </trkpt>
      <trkpt lat="44.36528" lon="5.15621">
        <ele>288</ele>
        <time>2022-02-27T10:58:06.808Z</time>
      </trkpt>
      <trkpt lat="44.36525" lon="5.1562">
        <ele>288</ele>
        <time>2022-02-27T10:58:07.807Z</time>
      </trkpt>
      <trkpt lat="44.36522" lon="5.15619">
        <ele>288</ele>
        <time>2022-02-27T10:58:08.807Z</time>
      </trkpt>
      <trkpt lat="44.3652" lon="5.15618">
        <ele>289</ele>
        <time>2022-02-27T10:58:09.808Z</time>
      </trkpt>
      <trkpt lat="44.36518" lon="5.15617">
        <ele>289</ele>
        <time>2022-02-27T10:58:10.808Z</time>
      </trkpt>
      <trkpt lat="44.36516" lon="5.15617">
        <ele>289</ele>
        <time>2022-02-27T10:58:11.807Z</time>
      </trkpt>
      <trkpt lat="44.36514" lon="5.15617">
        <ele>289</ele>
        <time>2022-02-27T10:58:12.808Z</time>
      </trkpt>
      <trkpt lat="44.36512" lon="5.15617">
        <ele>289</ele>
        <time>2022-02-27T10:58:13.807Z</time>
      </trkpt>
      <trkpt lat="44.3651" lon="5.15617">
        <ele>289</ele>
        <time>2022-02-27T10:58:14.808Z</time>
      </trkpt>
      <trkpt lat="44.36507" lon="5.15618">
        <ele>289</ele>
        <time>2022-02-27T10:58:15.808Z</time>
      </trkpt>
      <trkpt lat="44.36505" lon="5.15618">
        <ele>289</ele>
        <time>2022-02-27T10:58:16.808Z</time>
      </trkpt>
      <trkpt lat="44.36502" lon="5.15619">
        <ele>289</ele>
        <time>2022-02-27T10:58:17.808Z</time>
      </trkpt>
      <trkpt lat="44.36499" lon="5.15621">
        <ele>289</ele>
        <time>2022-02-27T10:58:18.808Z</time>
      </trkpt>
      <trkpt lat="44.36496" lon="5.15621">
        <ele>289</ele>
        <time>2022-02-27T10:58:19.807Z</time>
      </trkpt>
      <trkpt lat="44.36493" lon="5.15622">
        <ele>290</ele>
        <time>2022-02-27T10:58:20.808Z</time>
      </trkpt>
      <trkpt lat="44.36491" lon="5.15622">
        <ele>290</ele>
        <time>2022-02-27T10:58:21.808Z</time>
      </trkpt>
      <trkpt lat="44.36488" lon="5.15621">
        <ele>290</ele>
        <time>2022-02-27T10:58:22.808Z</time>
      </trkpt>
      <trkpt lat="44.36485" lon="5.15621">
        <ele>290</ele>
        <time>2022-02-27T10:58:23.808Z</time>
      </trkpt>
      <trkpt lat="44.36482" lon="5.1562">
        <ele>290</ele>
        <time>2022-02-27T10:58:24.808Z</time>
      </trkpt>
      <trkpt lat="44.36479" lon="5.15619">
        <ele>290</ele>
        <time>2022-02-27T10:58:25.808Z</time>
      </trkpt>
      <trkpt lat="44.36476" lon="5.15617">
        <ele>290</ele>
        <time>2022-02-27T10:58:26.808Z</time>
      </trkpt>
      <trkpt lat="44.36474" lon="5.15616">
        <ele>290</ele>
        <time>2022-02-27T10:58:27.807Z</time>
      </trkpt>
      <trkpt lat="44.36471" lon="5.15616">
        <ele>290</ele>
        <time>2022-02-27T10:58:28.808Z</time>
      </trkpt>
      <trkpt lat="44.36469" lon="5.15616">
        <ele>291</ele>
        <time>2022-02-27T10:58:29.808Z</time>
      </trkpt>
      <trkpt lat="44.36466" lon="5.15616">
        <ele>291</ele>
        <time>2022-02-27T10:58:30.808Z</time>
      </trkpt>
      <trkpt lat="44.36463" lon="5.15615">
        <ele>291</ele>
        <time>2022-02-27T10:58:31.808Z</time>
      </trkpt>
      <trkpt lat="44.36461" lon="5.15614">
        <ele>291</ele>
        <time>2022-02-27T10:58:32.808Z</time>
      </trkpt>
      <trkpt lat="44.36459" lon="5.15613">
        <ele>290</ele>
        <time>2022-02-27T10:58:33.808Z</time>
      </trkpt>
      <trkpt lat="44.36456" lon="5.15611">
        <ele>290</ele>
        <time>2022-02-27T10:58:34.808Z</time>
      </trkpt>
      <trkpt lat="44.36454" lon="5.1561">
        <ele>289</ele>
        <time>2022-02-27T10:58:35.808Z</time>
      </trkpt>
      <trkpt lat="44.36451" lon="5.15608">
        <ele>289</ele>
        <time>2022-02-27T10:58:36.807Z</time>
      </trkpt>
      <trkpt lat="44.36449" lon="5.15606">
        <ele>288</ele>
        <time>2022-02-27T10:58:37.808Z</time>
      </trkpt>
      <trkpt lat="44.36447" lon="5.15605">
        <ele>288</ele>
        <time>2022-02-27T10:58:38.808Z</time>
      </trkpt>
      <trkpt lat="44.36444" lon="5.15603">
        <ele>287</ele>
        <time>2022-02-27T10:58:39.808Z</time>
      </trkpt>
      <trkpt lat="44.36442" lon="5.15602">
        <ele>287</ele>
        <time>2022-02-27T10:58:40.808Z</time>
      </trkpt>
      <trkpt lat="44.3644" lon="5.156">
        <ele>286</ele>
        <time>2022-02-27T10:58:41.808Z</time>
      </trkpt>
      <trkpt lat="44.36438" lon="5.15598">
        <ele>286</ele>
        <time>2022-02-27T10:58:42.808Z</time>
      </trkpt>
      <trkpt lat="44.36436" lon="5.15597">
        <ele>285</ele>
        <time>2022-02-27T10:58:43.808Z</time>
      </trkpt>
      <trkpt lat="44.36434" lon="5.15595">
        <ele>284</ele>
        <time>2022-02-27T10:58:44.808Z</time>
      </trkpt>
      <trkpt lat="44.36431" lon="5.15594">
        <ele>284</ele>
        <time>2022-02-27T10:58:45.808Z</time>
      </trkpt>
      <trkpt lat="44.3643" lon="5.15592">
        <ele>283</ele>
        <time>2022-02-27T10:58:46.808Z</time>
      </trkpt>
      <trkpt lat="44.36427" lon="5.1559">
        <ele>282</ele>
        <time>2022-02-27T10:58:47.808Z</time>
      </trkpt>
      <trkpt lat="44.36425" lon="5.15589">
        <ele>281</ele>
        <time>2022-02-27T10:58:48.808Z</time>
      </trkpt>
      <trkpt lat="44.36423" lon="5.15588">
        <ele>281</ele>
        <time>2022-02-27T10:58:49.808Z</time>
      </trkpt>
      <trkpt lat="44.36421" lon="5.15586">
        <ele>280</ele>
        <time>2022-02-27T10:58:50.808Z</time>
      </trkpt>
      <trkpt lat="44.36418" lon="5.15584">
        <ele>280</ele>
        <time>2022-02-27T10:58:51.808Z</time>
      </trkpt>
      <trkpt lat="44.36415" lon="5.15582">
        <ele>280</ele>
        <time>2022-02-27T10:58:52.807Z</time>
      </trkpt>
      <trkpt lat="44.36412" lon="5.15581">
        <ele>279</ele>
        <time>2022-02-27T10:58:53.808Z</time>
      </trkpt>
      <trkpt lat="44.36408" lon="5.1558">
        <ele>279</ele>
        <time>2022-02-27T10:58:54.808Z</time>
      </trkpt>
      <trkpt lat="44.36405" lon="5.1558">
        <ele>278</ele>
        <time>2022-02-27T10:58:55.807Z</time>
      </trkpt>
      <trkpt lat="44.36402" lon="5.15579">
        <ele>278</ele>
        <time>2022-02-27T10:58:56.808Z</time>
      </trkpt>
      <trkpt lat="44.36399" lon="5.15577">
        <ele>278</ele>
        <time>2022-02-27T10:58:57.808Z</time>
      </trkpt>
      <trkpt lat="44.36396" lon="5.15574">
        <ele>279</ele>
        <time>2022-02-27T10:58:58.808Z</time>
      </trkpt>
      <trkpt lat="44.36394" lon="5.15571">
        <ele>279</ele>
        <time>2022-02-27T10:58:59.807Z</time>
      </trkpt>
      <trkpt lat="44.36392" lon="5.15569">
        <ele>279</ele>
        <time>2022-02-27T10:59:00.808Z</time>
      </trkpt>
      <trkpt lat="44.3639" lon="5.15566">
        <ele>279</ele>
        <time>2022-02-27T10:59:01.807Z</time>
      </trkpt>
      <trkpt lat="44.36388" lon="5.15563">
        <ele>280</ele>
        <time>2022-02-27T10:59:02.808Z</time>
      </trkpt>
      <trkpt lat="44.36386" lon="5.15561">
        <ele>280</ele>
        <time>2022-02-27T10:59:03.808Z</time>
      </trkpt>
      <trkpt lat="44.36384" lon="5.15559">
        <ele>280</ele>
        <time>2022-02-27T10:59:04.807Z</time>
      </trkpt>
      <trkpt lat="44.36382" lon="5.15557">
        <ele>280</ele>
        <time>2022-02-27T10:59:05.808Z</time>
      </trkpt>
      <trkpt lat="44.36379" lon="5.15555">
        <ele>279</ele>
        <time>2022-02-27T10:59:06.808Z</time>
      </trkpt>
      <trkpt lat="44.36377" lon="5.15553">
        <ele>279</ele>
        <time>2022-02-27T10:59:07.808Z</time>
      </trkpt>
      <trkpt lat="44.36374" lon="5.15551">
        <ele>279</ele>
        <time>2022-02-27T10:59:08.808Z</time>
      </trkpt>
      <trkpt lat="44.36371" lon="5.1555">
        <ele>279</ele>
        <time>2022-02-27T10:59:09.807Z</time>
      </trkpt>
      <trkpt lat="44.36368" lon="5.15547">
        <ele>280</ele>
        <time>2022-02-27T10:59:10.808Z</time>
      </trkpt>
      <trkpt lat="44.36365" lon="5.15545">
        <ele>280</ele>
        <time>2022-02-27T10:59:11.808Z</time>
      </trkpt>
      <trkpt lat="44.36363" lon="5.15545">
        <ele>279</ele>
        <time>2022-02-27T10:59:12.808Z</time>
      </trkpt>
      <trkpt lat="44.36361" lon="5.15543">
        <ele>279</ele>
        <time>2022-02-27T10:59:13.808Z</time>
      </trkpt>
      <trkpt lat="44.36359" lon="5.15541">
        <ele>279</ele>
        <time>2022-02-27T10:59:14.808Z</time>
      </trkpt>
      <trkpt lat="44.36358" lon="5.1554">
        <ele>279</ele>
        <time>2022-02-27T10:59:15.808Z</time>
      </trkpt>
      <trkpt lat="44.36355" lon="5.15538">
        <ele>279</ele>
        <time>2022-02-27T10:59:16.808Z</time>
      </trkpt>
      <trkpt lat="44.36354" lon="5.15534">
        <ele>279</ele>
        <time>2022-02-27T10:59:17.807Z</time>
      </trkpt>
      <trkpt lat="44.36353" lon="5.15531">
        <ele>280</ele>
        <time>2022-02-27T10:59:18.807Z</time>
      </trkpt>
      <trkpt lat="44.36352" lon="5.15528">
        <ele>280</ele>
        <time>2022-02-27T10:59:19.808Z</time>
      </trkpt>
      <trkpt lat="44.36351" lon="5.15523">
        <ele>280</ele>
        <time>2022-02-27T10:59:20.808Z</time>
      </trkpt>
      <trkpt lat="44.3635" lon="5.1552">
        <ele>280</ele>
        <time>2022-02-27T10:59:21.807Z</time>
      </trkpt>
      <trkpt lat="44.36349" lon="5.15516">
        <ele>280</ele>
        <time>2022-02-27T10:59:22.807Z</time>
      </trkpt>
      <trkpt lat="44.36348" lon="5.15512">
        <ele>280</ele>
        <time>2022-02-27T10:59:23.807Z</time>
      </trkpt>
      <trkpt lat="44.36347" lon="5.15509">
        <ele>280</ele>
        <time>2022-02-27T10:59:24.808Z</time>
      </trkpt>
      <trkpt lat="44.36346" lon="5.15506">
        <ele>280</ele>
        <time>2022-02-27T10:59:25.807Z</time>
      </trkpt>
      <trkpt lat="44.36345" lon="5.15502">
        <ele>280</ele>
        <time>2022-02-27T10:59:26.807Z</time>
      </trkpt>
      <trkpt lat="44.36343" lon="5.15498">
        <ele>280</ele>
        <time>2022-02-27T10:59:27.807Z</time>
      </trkpt>
      <trkpt lat="44.36342" lon="5.15495">
        <ele>280</ele>
        <time>2022-02-27T10:59:28.807Z</time>
      </trkpt>
      <trkpt lat="44.36341" lon="5.15492">
        <ele>280</ele>
        <time>2022-02-27T10:59:29.807Z</time>
      </trkpt>
      <trkpt lat="44.3634" lon="5.15488">
        <ele>280</ele>
        <time>2022-02-27T10:59:30.808Z</time>
      </trkpt>
      <trkpt lat="44.36338" lon="5.15484">
        <ele>280</ele>
        <time>2022-02-27T10:59:31.807Z</time>
      </trkpt>
      <trkpt lat="44.36336" lon="5.15481">
        <ele>280</ele>
        <time>2022-02-27T10:59:32.808Z</time>
      </trkpt>
      <trkpt lat="44.36335" lon="5.15478">
        <ele>280</ele>
        <time>2022-02-27T10:59:33.808Z</time>
      </trkpt>
      <trkpt lat="44.36334" lon="5.15475">
        <ele>279</ele>
        <time>2022-02-27T10:59:34.808Z</time>
      </trkpt>
      <trkpt lat="44.36333" lon="5.15472">
        <ele>279</ele>
        <time>2022-02-27T10:59:35.807Z</time>
      </trkpt>
      <trkpt lat="44.36332" lon="5.15468">
        <ele>279</ele>
        <time>2022-02-27T10:59:36.807Z</time>
      </trkpt>
      <trkpt lat="44.36331" lon="5.15465">
        <ele>279</ele>
        <time>2022-02-27T10:59:37.808Z</time>
      </trkpt>
      <trkpt lat="44.3633" lon="5.15461">
        <ele>278</ele>
        <time>2022-02-27T10:59:38.807Z</time>
      </trkpt>
      <trkpt lat="44.3633" lon="5.15458">
        <ele>278</ele>
        <time>2022-02-27T10:59:39.807Z</time>
      </trkpt>
      <trkpt lat="44.36329" lon="5.15455">
        <ele>278</ele>
        <time>2022-02-27T10:59:40.808Z</time>
      </trkpt>
      <trkpt lat="44.36328" lon="5.15451">
        <ele>278</ele>
        <time>2022-02-27T10:59:41.807Z</time>
      </trkpt>
      <trkpt lat="44.36328" lon="5.15448">
        <ele>278</ele>
        <time>2022-02-27T10:59:42.807Z</time>
      </trkpt>
      <trkpt lat="44.36327" lon="5.15444">
        <ele>278</ele>
        <time>2022-02-27T10:59:43.807Z</time>
      </trkpt>
      <trkpt lat="44.36327" lon="5.15441">
        <ele>278</ele>
        <time>2022-02-27T10:59:44.808Z</time>
      </trkpt>
      <trkpt lat="44.36327" lon="5.15437">
        <ele>279</ele>
        <time>2022-02-27T10:59:45.808Z</time>
      </trkpt>
      <trkpt lat="44.36327" lon="5.15434">
        <ele>279</ele>
        <time>2022-02-27T10:59:46.808Z</time>
      </trkpt>
      <trkpt lat="44.36327" lon="5.1543">
        <ele>278</ele>
        <time>2022-02-27T10:59:47.808Z</time>
      </trkpt>
      <trkpt lat="44.36328" lon="5.15427">
        <ele>278</ele>
        <time>2022-02-27T10:59:48.807Z</time>
      </trkpt>
      <trkpt lat="44.36328" lon="5.15424">
        <ele>278</ele>
        <time>2022-02-27T10:59:49.808Z</time>
      </trkpt>
      <trkpt lat="44.36328" lon="5.1542">
        <ele>278</ele>
        <time>2022-02-27T10:59:50.808Z</time>
      </trkpt>
      <trkpt lat="44.36328" lon="5.15417">
        <ele>278</ele>
        <time>2022-02-27T10:59:51.808Z</time>
      </trkpt>
      <trkpt lat="44.36328" lon="5.15413">
        <ele>278</ele>
        <time>2022-02-27T10:59:52.808Z</time>
      </trkpt>
      <trkpt lat="44.36328" lon="5.15409">
        <ele>277</ele>
        <time>2022-02-27T10:59:53.808Z</time>
      </trkpt>
      <trkpt lat="44.36328" lon="5.15404">
        <ele>277</ele>
        <time>2022-02-27T10:59:54.807Z</time>
      </trkpt>
      <trkpt lat="44.36327" lon="5.154">
        <ele>277</ele>
        <time>2022-02-27T10:59:55.807Z</time>
      </trkpt>
      <trkpt lat="44.36327" lon="5.15397">
        <ele>277</ele>
        <time>2022-02-27T10:59:56.807Z</time>
      </trkpt>
      <trkpt lat="44.36327" lon="5.15394">
        <ele>277</ele>
        <time>2022-02-27T10:59:57.808Z</time>
      </trkpt>
      <trkpt lat="44.36326" lon="5.1539">
        <ele>277</ele>
        <time>2022-02-27T10:59:58.808Z</time>
      </trkpt>
      <trkpt lat="44.36326" lon="5.15386">
        <ele>277</ele>
        <time>2022-02-27T10:59:59.808Z</time>
      </trkpt>
      <trkpt lat="44.36326" lon="5.15383">
        <ele>277</ele>
        <time>2022-02-27T11:00:00.808Z</time>
      </trkpt>
      <trkpt lat="44.36325" lon="5.15379">
        <ele>277</ele>
        <time>2022-02-27T11:00:01.808Z</time>
      </trkpt>
      <trkpt lat="44.36325" lon="5.15375">
        <ele>277</ele>
        <time>2022-02-27T11:00:02.808Z</time>
      </trkpt>
      <trkpt lat="44.36324" lon="5.15372">
        <ele>276</ele>
        <time>2022-02-27T11:00:03.807Z</time>
      </trkpt>
      <trkpt lat="44.36324" lon="5.15369">
        <ele>276</ele>
        <time>2022-02-27T11:00:04.808Z</time>
      </trkpt>
      <trkpt lat="44.36324" lon="5.15365">
        <ele>276</ele>
        <time>2022-02-27T11:00:05.808Z</time>
      </trkpt>
      <trkpt lat="44.36323" lon="5.15361">
        <ele>276</ele>
        <time>2022-02-27T11:00:06.807Z</time>
      </trkpt>
      <trkpt lat="44.36323" lon="5.15357">
        <ele>276</ele>
        <time>2022-02-27T11:00:07.807Z</time>
      </trkpt>
      <trkpt lat="44.36323" lon="5.15353">
        <ele>276</ele>
        <time>2022-02-27T11:00:08.807Z</time>
      </trkpt>
      <trkpt lat="44.36322" lon="5.1535">
        <ele>276</ele>
        <time>2022-02-27T11:00:09.808Z</time>
      </trkpt>
      <trkpt lat="44.36322" lon="5.15346">
        <ele>276</ele>
        <time>2022-02-27T11:00:10.808Z</time>
      </trkpt>
      <trkpt lat="44.36322" lon="5.15343">
        <ele>276</ele>
        <time>2022-02-27T11:00:11.808Z</time>
      </trkpt>
      <trkpt lat="44.36321" lon="5.15339">
        <ele>276</ele>
        <time>2022-02-27T11:00:12.807Z</time>
      </trkpt>
      <trkpt lat="44.3632" lon="5.15336">
        <ele>276</ele>
        <time>2022-02-27T11:00:13.808Z</time>
      </trkpt>
      <trkpt lat="44.3632" lon="5.15332">
        <ele>277</ele>
        <time>2022-02-27T11:00:14.808Z</time>
      </trkpt>
      <trkpt lat="44.36319" lon="5.15329">
        <ele>277</ele>
        <time>2022-02-27T11:00:15.808Z</time>
      </trkpt>
      <trkpt lat="44.36318" lon="5.15325">
        <ele>277</ele>
        <time>2022-02-27T11:00:16.807Z</time>
      </trkpt>
      <trkpt lat="44.36318" lon="5.15321">
        <ele>277</ele>
        <time>2022-02-27T11:00:17.807Z</time>
      </trkpt>
      <trkpt lat="44.36317" lon="5.15318">
        <ele>277</ele>
        <time>2022-02-27T11:00:18.808Z</time>
      </trkpt>
      <trkpt lat="44.36316" lon="5.15313">
        <ele>277</ele>
        <time>2022-02-27T11:00:19.808Z</time>
      </trkpt>
      <trkpt lat="44.36316" lon="5.1531">
        <ele>276</ele>
        <time>2022-02-27T11:00:20.808Z</time>
      </trkpt>
      <trkpt lat="44.36316" lon="5.15307">
        <ele>276</ele>
        <time>2022-02-27T11:00:21.808Z</time>
      </trkpt>
      <trkpt lat="44.36315" lon="5.15304">
        <ele>276</ele>
        <time>2022-02-27T11:00:22.808Z</time>
      </trkpt>
      <trkpt lat="44.36315" lon="5.15301">
        <ele>276</ele>
        <time>2022-02-27T11:00:23.808Z</time>
      </trkpt>
      <trkpt lat="44.36314" lon="5.15297">
        <ele>276</ele>
        <time>2022-02-27T11:00:24.808Z</time>
      </trkpt>
      <trkpt lat="44.36314" lon="5.15295">
        <ele>276</ele>
        <time>2022-02-27T11:00:25.808Z</time>
      </trkpt>
      <trkpt lat="44.36314" lon="5.15292">
        <ele>276</ele>
        <time>2022-02-27T11:00:26.808Z</time>
      </trkpt>
      <trkpt lat="44.36313" lon="5.15289">
        <ele>276</ele>
        <time>2022-02-27T11:00:27.808Z</time>
      </trkpt>
      <trkpt lat="44.36312" lon="5.15286">
        <ele>276</ele>
        <time>2022-02-27T11:00:28.808Z</time>
      </trkpt>
      <trkpt lat="44.36312" lon="5.15282">
        <ele>275</ele>
        <time>2022-02-27T11:00:29.808Z</time>
      </trkpt>
      <trkpt lat="44.36311" lon="5.15279">
        <ele>275</ele>
        <time>2022-02-27T11:00:30.808Z</time>
      </trkpt>
      <trkpt lat="44.3631" lon="5.15275">
        <ele>275</ele>
        <time>2022-02-27T11:00:31.808Z</time>
      </trkpt>
      <trkpt lat="44.36308" lon="5.1527">
        <ele>275</ele>
        <time>2022-02-27T11:00:32.808Z</time>
      </trkpt>
      <trkpt lat="44.36306" lon="5.15266">
        <ele>275</ele>
        <time>2022-02-27T11:00:33.808Z</time>
      </trkpt>
      <trkpt lat="44.36305" lon="5.15263">
        <ele>275</ele>
        <time>2022-02-27T11:00:34.808Z</time>
      </trkpt>
      <trkpt lat="44.36305" lon="5.15261">
        <ele>275</ele>
        <time>2022-02-27T11:00:35.807Z</time>
      </trkpt>
      <trkpt lat="44.36304" lon="5.15258">
        <ele>275</ele>
        <time>2022-02-27T11:00:36.808Z</time>
      </trkpt>
      <trkpt lat="44.36303" lon="5.15255">
        <ele>275</ele>
        <time>2022-02-27T11:00:37.808Z</time>
      </trkpt>
      <trkpt lat="44.36303" lon="5.15252">
        <ele>276</ele>
        <time>2022-02-27T11:00:38.808Z</time>
      </trkpt>
      <trkpt lat="44.36302" lon="5.15249">
        <ele>276</ele>
        <time>2022-02-27T11:00:39.808Z</time>
      </trkpt>
      <trkpt lat="44.36301" lon="5.15246">
        <ele>276</ele>
        <time>2022-02-27T11:00:40.807Z</time>
      </trkpt>
      <trkpt lat="44.363" lon="5.15243">
        <ele>276</ele>
        <time>2022-02-27T11:00:41.808Z</time>
      </trkpt>
      <trkpt lat="44.36299" lon="5.15241">
        <ele>276</ele>
        <time>2022-02-27T11:00:42.808Z</time>
      </trkpt>
      <trkpt lat="44.36297" lon="5.15238">
        <ele>276</ele>
        <time>2022-02-27T11:00:43.808Z</time>
      </trkpt>
      <trkpt lat="44.36296" lon="5.15237">
        <ele>277</ele>
        <time>2022-02-27T11:00:44.807Z</time>
      </trkpt>
      <trkpt lat="44.36294" lon="5.15235">
        <ele>277</ele>
        <time>2022-02-27T11:00:45.808Z</time>
      </trkpt>
      <trkpt lat="44.36292" lon="5.15233">
        <ele>278</ele>
        <time>2022-02-27T11:00:46.808Z</time>
      </trkpt>
      <trkpt lat="44.3629" lon="5.15231">
        <ele>279</ele>
        <time>2022-02-27T11:00:47.808Z</time>
      </trkpt>
      <trkpt lat="44.36288" lon="5.15229">
        <ele>280</ele>
        <time>2022-02-27T11:00:48.808Z</time>
      </trkpt>
      <trkpt lat="44.36286" lon="5.15228">
        <ele>281</ele>
        <time>2022-02-27T11:00:49.808Z</time>
      </trkpt>
      <trkpt lat="44.36284" lon="5.15226">
        <ele>281</ele>
        <time>2022-02-27T11:00:50.808Z</time>
      </trkpt>
      <trkpt lat="44.36282" lon="5.15225">
        <ele>282</ele>
        <time>2022-02-27T11:00:51.808Z</time>
      </trkpt>
      <trkpt lat="44.3628" lon="5.15224">
        <ele>282</ele>
        <time>2022-02-27T11:00:52.808Z</time>
      </trkpt>
      <trkpt lat="44.36278" lon="5.15223">
        <ele>283</ele>
        <time>2022-02-27T11:00:53.807Z</time>
      </trkpt>
      <trkpt lat="44.36275" lon="5.15222">
        <ele>283</ele>
        <time>2022-02-27T11:00:54.808Z</time>
      </trkpt>
      <trkpt lat="44.36272" lon="5.15222">
        <ele>284</ele>
        <time>2022-02-27T11:00:55.808Z</time>
      </trkpt>
      <trkpt lat="44.36269" lon="5.15222">
        <ele>284</ele>
        <time>2022-02-27T11:00:56.808Z</time>
      </trkpt>
      <trkpt lat="44.36266" lon="5.15221">
        <ele>285</ele>
        <time>2022-02-27T11:00:57.808Z</time>
      </trkpt>
      <trkpt lat="44.36264" lon="5.15219">
        <ele>285</ele>
        <time>2022-02-27T11:00:58.808Z</time>
      </trkpt>
      <trkpt lat="44.36262" lon="5.15218">
        <ele>285</ele>
        <time>2022-02-27T11:00:59.808Z</time>
      </trkpt>
      <trkpt lat="44.36259" lon="5.15216">
        <ele>285</ele>
        <time>2022-02-27T11:01:00.808Z</time>
      </trkpt>
      <trkpt lat="44.36257" lon="5.15215">
        <ele>285</ele>
        <time>2022-02-27T11:01:01.807Z</time>
      </trkpt>
      <trkpt lat="44.36256" lon="5.15213">
        <ele>286</ele>
        <time>2022-02-27T11:01:02.807Z</time>
      </trkpt>
      <trkpt lat="44.36254" lon="5.15212">
        <ele>286</ele>
        <time>2022-02-27T11:01:03.808Z</time>
      </trkpt>
      <trkpt lat="44.36251" lon="5.1521">
        <ele>286</ele>
        <time>2022-02-27T11:01:04.807Z</time>
      </trkpt>
      <trkpt lat="44.36249" lon="5.15208">
        <ele>286</ele>
        <time>2022-02-27T11:01:05.807Z</time>
      </trkpt>
      <trkpt lat="44.36247" lon="5.15207">
        <ele>286</ele>
        <time>2022-02-27T11:01:06.808Z</time>
      </trkpt>
      <trkpt lat="44.36245" lon="5.15205">
        <ele>286</ele>
        <time>2022-02-27T11:01:07.808Z</time>
      </trkpt>
      <trkpt lat="44.36242" lon="5.15204">
        <ele>286</ele>
        <time>2022-02-27T11:01:08.807Z</time>
      </trkpt>
      <trkpt lat="44.36241" lon="5.15201">
        <ele>286</ele>
        <time>2022-02-27T11:01:09.808Z</time>
      </trkpt>
      <trkpt lat="44.36239" lon="5.15199">
        <ele>285</ele>
        <time>2022-02-27T11:01:10.808Z</time>
      </trkpt>
      <trkpt lat="44.36237" lon="5.15197">
        <ele>285</ele>
        <time>2022-02-27T11:01:11.807Z</time>
      </trkpt>
      <trkpt lat="44.36235" lon="5.15195">
        <ele>285</ele>
        <time>2022-02-27T11:01:12.807Z</time>
      </trkpt>
      <trkpt lat="44.36233" lon="5.15193">
        <ele>285</ele>
        <time>2022-02-27T11:01:13.808Z</time>
      </trkpt>
      <trkpt lat="44.3623" lon="5.15192">
        <ele>285</ele>
        <time>2022-02-27T11:01:14.808Z</time>
      </trkpt>
      <trkpt lat="44.36228" lon="5.1519">
        <ele>285</ele>
        <time>2022-02-27T11:01:15.808Z</time>
      </trkpt>
      <trkpt lat="44.36226" lon="5.15188">
        <ele>286</ele>
        <time>2022-02-27T11:01:16.808Z</time>
      </trkpt>
      <trkpt lat="44.36224" lon="5.15187">
        <ele>286</ele>
        <time>2022-02-27T11:01:17.808Z</time>
      </trkpt>
      <trkpt lat="44.36222" lon="5.15185">
        <ele>286</ele>
        <time>2022-02-27T11:01:18.808Z</time>
      </trkpt>
      <trkpt lat="44.3622" lon="5.15184">
        <ele>286</ele>
        <time>2022-02-27T11:01:19.807Z</time>
      </trkpt>
      <trkpt lat="44.36217" lon="5.15184">
        <ele>286</ele>
        <time>2022-02-27T11:01:20.808Z</time>
      </trkpt>
      <trkpt lat="44.36215" lon="5.15183">
        <ele>287</ele>
        <time>2022-02-27T11:01:21.808Z</time>
      </trkpt>
      <trkpt lat="44.36212" lon="5.15183">
        <ele>287</ele>
        <time>2022-02-27T11:01:22.808Z</time>
      </trkpt>
      <trkpt lat="44.3621" lon="5.15182">
        <ele>287</ele>
        <time>2022-02-27T11:01:23.808Z</time>
      </trkpt>
      <trkpt lat="44.36207" lon="5.15181">
        <ele>287</ele>
        <time>2022-02-27T11:01:24.808Z</time>
      </trkpt>
      <trkpt lat="44.36205" lon="5.1518">
        <ele>287</ele>
        <time>2022-02-27T11:01:25.808Z</time>
      </trkpt>
      <trkpt lat="44.36202" lon="5.1518">
        <ele>287</ele>
        <time>2022-02-27T11:01:26.808Z</time>
      </trkpt>
      <trkpt lat="44.362" lon="5.1518">
        <ele>287</ele>
        <time>2022-02-27T11:01:27.808Z</time>
      </trkpt>
      <trkpt lat="44.36198" lon="5.15179">
        <ele>287</ele>
        <time>2022-02-27T11:01:28.808Z</time>
      </trkpt>
      <trkpt lat="44.36195" lon="5.1518">
        <ele>287</ele>
        <time>2022-02-27T11:01:29.808Z</time>
      </trkpt>
      <trkpt lat="44.36192" lon="5.1518">
        <ele>287</ele>
        <time>2022-02-27T11:01:30.808Z</time>
      </trkpt>
      <trkpt lat="44.3619" lon="5.1518">
        <ele>287</ele>
        <time>2022-02-27T11:01:31.808Z</time>
      </trkpt>
      <trkpt lat="44.36187" lon="5.15179">
        <ele>287</ele>
        <time>2022-02-27T11:01:32.808Z</time>
      </trkpt>
      <trkpt lat="44.36185" lon="5.15179">
        <ele>287</ele>
        <time>2022-02-27T11:01:33.808Z</time>
      </trkpt>
      <trkpt lat="44.36182" lon="5.1518">
        <ele>288</ele>
        <time>2022-02-27T11:01:34.807Z</time>
      </trkpt>
      <trkpt lat="44.3618" lon="5.1518">
        <ele>288</ele>
        <time>2022-02-27T11:01:35.807Z</time>
      </trkpt>
      <trkpt lat="44.36177" lon="5.1518">
        <ele>287</ele>
        <time>2022-02-27T11:01:36.807Z</time>
      </trkpt>
      <trkpt lat="44.36175" lon="5.1518">
        <ele>287</ele>
        <time>2022-02-27T11:01:37.808Z</time>
      </trkpt>
      <trkpt lat="44.36172" lon="5.1518">
        <ele>287</ele>
        <time>2022-02-27T11:01:38.808Z</time>
      </trkpt>
      <trkpt lat="44.36169" lon="5.1518">
        <ele>287</ele>
        <time>2022-02-27T11:01:39.808Z</time>
      </trkpt>
      <trkpt lat="44.36167" lon="5.15181">
        <ele>287</ele>
        <time>2022-02-27T11:01:40.808Z</time>
      </trkpt>
      <trkpt lat="44.36164" lon="5.15181">
        <ele>287</ele>
        <time>2022-02-27T11:01:41.808Z</time>
      </trkpt>
      <trkpt lat="44.36162" lon="5.15182">
        <ele>287</ele>
        <time>2022-02-27T11:01:42.808Z</time>
      </trkpt>
      <trkpt lat="44.36159" lon="5.15182">
        <ele>287</ele>
        <time>2022-02-27T11:01:43.807Z</time>
      </trkpt>
      <trkpt lat="44.36157" lon="5.15181">
        <ele>287</ele>
        <time>2022-02-27T11:01:44.807Z</time>
      </trkpt>
      <trkpt lat="44.36154" lon="5.15181">
        <ele>287</ele>
        <time>2022-02-27T11:01:45.808Z</time>
      </trkpt>
      <trkpt lat="44.36152" lon="5.15181">
        <ele>287</ele>
        <time>2022-02-27T11:01:46.808Z</time>
      </trkpt>
      <trkpt lat="44.3615" lon="5.1518">
        <ele>287</ele>
        <time>2022-02-27T11:01:47.807Z</time>
      </trkpt>
      <trkpt lat="44.36147" lon="5.1518">
        <ele>287</ele>
        <time>2022-02-27T11:01:48.807Z</time>
      </trkpt>
      <trkpt lat="44.36144" lon="5.1518">
        <ele>287</ele>
        <time>2022-02-27T11:01:49.808Z</time>
      </trkpt>
      <trkpt lat="44.36142" lon="5.1518">
        <ele>287</ele>
        <time>2022-02-27T11:01:50.808Z</time>
      </trkpt>
      <trkpt lat="44.36139" lon="5.1518">
        <ele>288</ele>
        <time>2022-02-27T11:01:51.807Z</time>
      </trkpt>
      <trkpt lat="44.36136" lon="5.1518">
        <ele>288</ele>
        <time>2022-02-27T11:01:52.808Z</time>
      </trkpt>
      <trkpt lat="44.36134" lon="5.1518">
        <ele>288</ele>
        <time>2022-02-27T11:01:53.808Z</time>
      </trkpt>
      <trkpt lat="44.36131" lon="5.15181">
        <ele>288</ele>
        <time>2022-02-27T11:01:54.808Z</time>
      </trkpt>
      <trkpt lat="44.36127" lon="5.15181">
        <ele>288</ele>
        <time>2022-02-27T11:01:55.808Z</time>
      </trkpt>
      <trkpt lat="44.36124" lon="5.15181">
        <ele>288</ele>
        <time>2022-02-27T11:01:56.808Z</time>
      </trkpt>
      <trkpt lat="44.36122" lon="5.1518">
        <ele>288</ele>
        <time>2022-02-27T11:01:57.808Z</time>
      </trkpt>
      <trkpt lat="44.3612" lon="5.15179">
        <ele>287</ele>
        <time>2022-02-27T11:01:58.807Z</time>
      </trkpt>
      <trkpt lat="44.36117" lon="5.15179">
        <ele>288</ele>
        <time>2022-02-27T11:01:59.807Z</time>
      </trkpt>
      <trkpt lat="44.36114" lon="5.15178">
        <ele>288</ele>
        <time>2022-02-27T11:02:00.808Z</time>
      </trkpt>
      <trkpt lat="44.36112" lon="5.15178">
        <ele>288</ele>
        <time>2022-02-27T11:02:01.807Z</time>
      </trkpt>
      <trkpt lat="44.36109" lon="5.15178">
        <ele>288</ele>
        <time>2022-02-27T11:02:02.808Z</time>
      </trkpt>
      <trkpt lat="44.36107" lon="5.15178">
        <ele>288</ele>
        <time>2022-02-27T11:02:03.808Z</time>
      </trkpt>
      <trkpt lat="44.36104" lon="5.15177">
        <ele>288</ele>
        <time>2022-02-27T11:02:04.807Z</time>
      </trkpt>
      <trkpt lat="44.36101" lon="5.15177">
        <ele>288</ele>
        <time>2022-02-27T11:02:05.808Z</time>
      </trkpt>
      <trkpt lat="44.36099" lon="5.15176">
        <ele>288</ele>
        <time>2022-02-27T11:02:06.808Z</time>
      </trkpt>
      <trkpt lat="44.36097" lon="5.15175">
        <ele>288</ele>
        <time>2022-02-27T11:02:07.808Z</time>
      </trkpt>
      <trkpt lat="44.36094" lon="5.15175">
        <ele>288</ele>
        <time>2022-02-27T11:02:08.807Z</time>
      </trkpt>
      <trkpt lat="44.36091" lon="5.15174">
        <ele>289</ele>
        <time>2022-02-27T11:02:09.807Z</time>
      </trkpt>
      <trkpt lat="44.36089" lon="5.15173">
        <ele>289</ele>
        <time>2022-02-27T11:02:10.808Z</time>
      </trkpt>
      <trkpt lat="44.36086" lon="5.15172">
        <ele>289</ele>
        <time>2022-02-27T11:02:11.808Z</time>
      </trkpt>
      <trkpt lat="44.36084" lon="5.15171">
        <ele>288</ele>
        <time>2022-02-27T11:02:12.808Z</time>
      </trkpt>
      <trkpt lat="44.36081" lon="5.1517">
        <ele>288</ele>
        <time>2022-02-27T11:02:13.808Z</time>
      </trkpt>
      <trkpt lat="44.36078" lon="5.15169">
        <ele>289</ele>
        <time>2022-02-27T11:02:14.808Z</time>
      </trkpt>
      <trkpt lat="44.36076" lon="5.15168">
        <ele>289</ele>
        <time>2022-02-27T11:02:15.808Z</time>
      </trkpt>
      <trkpt lat="44.36073" lon="5.15167">
        <ele>289</ele>
        <time>2022-02-27T11:02:16.808Z</time>
      </trkpt>
      <trkpt lat="44.36071" lon="5.15166">
        <ele>289</ele>
        <time>2022-02-27T11:02:17.808Z</time>
      </trkpt>
      <trkpt lat="44.36068" lon="5.15164">
        <ele>289</ele>
        <time>2022-02-27T11:02:18.808Z</time>
      </trkpt>
      <trkpt lat="44.36066" lon="5.15163">
        <ele>289</ele>
        <time>2022-02-27T11:02:19.808Z</time>
      </trkpt>
      <trkpt lat="44.36064" lon="5.15161">
        <ele>288</ele>
        <time>2022-02-27T11:02:20.808Z</time>
      </trkpt>
      <trkpt lat="44.36062" lon="5.1516">
        <ele>288</ele>
        <time>2022-02-27T11:02:21.808Z</time>
      </trkpt>
      <trkpt lat="44.36059" lon="5.15158">
        <ele>288</ele>
        <time>2022-02-27T11:02:22.807Z</time>
      </trkpt>
      <trkpt lat="44.36057" lon="5.15156">
        <ele>287</ele>
        <time>2022-02-27T11:02:23.808Z</time>
      </trkpt>
      <trkpt lat="44.36054" lon="5.15155">
        <ele>287</ele>
        <time>2022-02-27T11:02:24.808Z</time>
      </trkpt>
      <trkpt lat="44.36052" lon="5.15153">
        <ele>287</ele>
        <time>2022-02-27T11:02:25.808Z</time>
      </trkpt>
      <trkpt lat="44.3605" lon="5.15152">
        <ele>287</ele>
        <time>2022-02-27T11:02:26.807Z</time>
      </trkpt>
      <trkpt lat="44.36048" lon="5.1515">
        <ele>287</ele>
        <time>2022-02-27T11:02:27.807Z</time>
      </trkpt>
      <trkpt lat="44.36047" lon="5.15147">
        <ele>288</ele>
        <time>2022-02-27T11:02:28.807Z</time>
      </trkpt>
      <trkpt lat="44.36045" lon="5.15145">
        <ele>288</ele>
        <time>2022-02-27T11:02:29.807Z</time>
      </trkpt>
      <trkpt lat="44.36043" lon="5.15143">
        <ele>289</ele>
        <time>2022-02-27T11:02:30.807Z</time>
      </trkpt>
      <trkpt lat="44.3604" lon="5.15141">
        <ele>289</ele>
        <time>2022-02-27T11:02:31.808Z</time>
      </trkpt>
      <trkpt lat="44.36038" lon="5.1514">
        <ele>289</ele>
        <time>2022-02-27T11:02:32.807Z</time>
      </trkpt>
      <trkpt lat="44.36036" lon="5.15138">
        <ele>289</ele>
        <time>2022-02-27T11:02:33.808Z</time>
      </trkpt>
      <trkpt lat="44.36034" lon="5.15136">
        <ele>289</ele>
        <time>2022-02-27T11:02:34.808Z</time>
      </trkpt>
      <trkpt lat="44.36032" lon="5.15134">
        <ele>290</ele>
        <time>2022-02-27T11:02:35.808Z</time>
      </trkpt>
      <trkpt lat="44.3603" lon="5.15132">
        <ele>290</ele>
        <time>2022-02-27T11:02:36.808Z</time>
      </trkpt>
      <trkpt lat="44.36028" lon="5.1513">
        <ele>290</ele>
        <time>2022-02-27T11:02:37.808Z</time>
      </trkpt>
      <trkpt lat="44.36026" lon="5.15128">
        <ele>290</ele>
        <time>2022-02-27T11:02:38.808Z</time>
      </trkpt>
      <trkpt lat="44.36024" lon="5.15126">
        <ele>290</ele>
        <time>2022-02-27T11:02:39.807Z</time>
      </trkpt>
      <trkpt lat="44.36022" lon="5.15125">
        <ele>290</ele>
        <time>2022-02-27T11:02:40.808Z</time>
      </trkpt>
      <trkpt lat="44.36019" lon="5.15122">
        <ele>290</ele>
        <time>2022-02-27T11:02:41.808Z</time>
      </trkpt>
      <trkpt lat="44.36017" lon="5.15121">
        <ele>289</ele>
        <time>2022-02-27T11:02:42.808Z</time>
      </trkpt>
      <trkpt lat="44.36015" lon="5.1512">
        <ele>289</ele>
        <time>2022-02-27T11:02:43.807Z</time>
      </trkpt>
      <trkpt lat="44.36013" lon="5.15118">
        <ele>289</ele>
        <time>2022-02-27T11:02:44.807Z</time>
      </trkpt>
      <trkpt lat="44.36011" lon="5.15117">
        <ele>290</ele>
        <time>2022-02-27T11:02:45.808Z</time>
      </trkpt>
      <trkpt lat="44.36009" lon="5.15116">
        <ele>290</ele>
        <time>2022-02-27T11:02:46.807Z</time>
      </trkpt>
      <trkpt lat="44.36007" lon="5.15114">
        <ele>290</ele>
        <time>2022-02-27T11:02:47.808Z</time>
      </trkpt>
      <trkpt lat="44.36005" lon="5.15113">
        <ele>289</ele>
        <time>2022-02-27T11:02:48.808Z</time>
      </trkpt>
      <trkpt lat="44.36003" lon="5.15111">
        <ele>289</ele>
        <time>2022-02-27T11:02:49.808Z</time>
      </trkpt>
      <trkpt lat="44.36" lon="5.1511">
        <ele>289</ele>
        <time>2022-02-27T11:02:50.808Z</time>
      </trkpt>
      <trkpt lat="44.35998" lon="5.15108">
        <ele>289</ele>
        <time>2022-02-27T11:02:51.808Z</time>
      </trkpt>
      <trkpt lat="44.35996" lon="5.15106">
        <ele>289</ele>
        <time>2022-02-27T11:02:52.808Z</time>
      </trkpt>
      <trkpt lat="44.35994" lon="5.15104">
        <ele>289</ele>
        <time>2022-02-27T11:02:53.808Z</time>
      </trkpt>
      <trkpt lat="44.35992" lon="5.15103">
        <ele>289</ele>
        <time>2022-02-27T11:02:54.807Z</time>
      </trkpt>
      <trkpt lat="44.3599" lon="5.15101">
        <ele>289</ele>
        <time>2022-02-27T11:02:55.808Z</time>
      </trkpt>
      <trkpt lat="44.35988" lon="5.151">
        <ele>290</ele>
        <time>2022-02-27T11:02:56.808Z</time>
      </trkpt>
      <trkpt lat="44.35986" lon="5.15098">
        <ele>290</ele>
        <time>2022-02-27T11:02:57.807Z</time>
      </trkpt>
      <trkpt lat="44.35984" lon="5.15096">
        <ele>290</ele>
        <time>2022-02-27T11:02:58.808Z</time>
      </trkpt>
      <trkpt lat="44.35981" lon="5.15095">
        <ele>291</ele>
        <time>2022-02-27T11:02:59.808Z</time>
      </trkpt>
      <trkpt lat="44.35979" lon="5.15093">
        <ele>291</ele>
        <time>2022-02-27T11:03:00.808Z</time>
      </trkpt>
      <trkpt lat="44.35978" lon="5.15092">
        <ele>291</ele>
        <time>2022-02-27T11:03:01.807Z</time>
      </trkpt>
      <trkpt lat="44.35976" lon="5.1509">
        <ele>291</ele>
        <time>2022-02-27T11:03:02.808Z</time>
      </trkpt>
      <trkpt lat="44.35974" lon="5.15088">
        <ele>290</ele>
        <time>2022-02-27T11:03:03.808Z</time>
      </trkpt>
      <trkpt lat="44.35973" lon="5.15086">
        <ele>290</ele>
        <time>2022-02-27T11:03:04.808Z</time>
      </trkpt>
      <trkpt lat="44.35972" lon="5.15084">
        <ele>289</ele>
        <time>2022-02-27T11:03:05.808Z</time>
      </trkpt>
      <trkpt lat="44.3597" lon="5.15082">
        <ele>289</ele>
        <time>2022-02-27T11:03:06.808Z</time>
      </trkpt>
      <trkpt lat="44.35968" lon="5.15081">
        <ele>289</ele>
        <time>2022-02-27T11:03:07.807Z</time>
      </trkpt>
      <trkpt lat="44.35967" lon="5.15079">
        <ele>289</ele>
        <time>2022-02-27T11:03:08.808Z</time>
      </trkpt>
      <trkpt lat="44.35965" lon="5.15075">
        <ele>289</ele>
        <time>2022-02-27T11:03:09.807Z</time>
      </trkpt>
      <trkpt lat="44.35962" lon="5.15074">
        <ele>289</ele>
        <time>2022-02-27T11:03:10.808Z</time>
      </trkpt>
      <trkpt lat="44.3596" lon="5.15072">
        <ele>289</ele>
        <time>2022-02-27T11:03:11.808Z</time>
      </trkpt>
      <trkpt lat="44.35958" lon="5.1507">
        <ele>289</ele>
        <time>2022-02-27T11:03:12.808Z</time>
      </trkpt>
      <trkpt lat="44.35957" lon="5.15068">
        <ele>289</ele>
        <time>2022-02-27T11:03:13.808Z</time>
      </trkpt>
      <trkpt lat="44.35956" lon="5.15066">
        <ele>289</ele>
        <time>2022-02-27T11:03:14.807Z</time>
      </trkpt>
      <trkpt lat="44.35954" lon="5.15064">
        <ele>289</ele>
        <time>2022-02-27T11:03:15.808Z</time>
      </trkpt>
      <trkpt lat="44.35953" lon="5.15061">
        <ele>289</ele>
        <time>2022-02-27T11:03:16.807Z</time>
      </trkpt>
      <trkpt lat="44.35952" lon="5.15059">
        <ele>289</ele>
        <time>2022-02-27T11:03:17.807Z</time>
      </trkpt>
      <trkpt lat="44.3595" lon="5.15057">
        <ele>289</ele>
        <time>2022-02-27T11:03:18.807Z</time>
      </trkpt>
      <trkpt lat="44.35948" lon="5.15055">
        <ele>290</ele>
        <time>2022-02-27T11:03:19.808Z</time>
      </trkpt>
      <trkpt lat="44.35946" lon="5.15053">
        <ele>290</ele>
        <time>2022-02-27T11:03:20.808Z</time>
      </trkpt>
      <trkpt lat="44.35945" lon="5.1505">
        <ele>290</ele>
        <time>2022-02-27T11:03:21.807Z</time>
      </trkpt>
      <trkpt lat="44.35944" lon="5.15046">
        <ele>290</ele>
        <time>2022-02-27T11:03:22.807Z</time>
      </trkpt>
      <trkpt lat="44.35944" lon="5.15043">
        <ele>289</ele>
        <time>2022-02-27T11:03:23.807Z</time>
      </trkpt>
      <trkpt lat="44.35943" lon="5.1504">
        <ele>289</ele>
        <time>2022-02-27T11:03:24.808Z</time>
      </trkpt>
      <trkpt lat="44.35943" lon="5.15037">
        <ele>289</ele>
        <time>2022-02-27T11:03:25.808Z</time>
      </trkpt>
      <trkpt lat="44.35943" lon="5.15033">
        <ele>289</ele>
        <time>2022-02-27T11:03:26.808Z</time>
      </trkpt>
      <trkpt lat="44.35942" lon="5.1503">
        <ele>289</ele>
        <time>2022-02-27T11:03:27.807Z</time>
      </trkpt>
      <trkpt lat="44.35942" lon="5.15027">
        <ele>288</ele>
        <time>2022-02-27T11:03:28.808Z</time>
      </trkpt>
      <trkpt lat="44.35942" lon="5.15024">
        <ele>288</ele>
        <time>2022-02-27T11:03:29.808Z</time>
      </trkpt>
      <trkpt lat="44.35942" lon="5.1502">
        <ele>289</ele>
        <time>2022-02-27T11:03:30.808Z</time>
      </trkpt>
      <trkpt lat="44.35941" lon="5.15017">
        <ele>289</ele>
        <time>2022-02-27T11:03:31.808Z</time>
      </trkpt>
      <trkpt lat="44.3594" lon="5.15014">
        <ele>289</ele>
        <time>2022-02-27T11:03:32.808Z</time>
      </trkpt>
      <trkpt lat="44.35938" lon="5.15011">
        <ele>289</ele>
        <time>2022-02-27T11:03:33.807Z</time>
      </trkpt>
      <trkpt lat="44.35937" lon="5.15008">
        <ele>289</ele>
        <time>2022-02-27T11:03:34.807Z</time>
      </trkpt>
      <trkpt lat="44.35935" lon="5.15006">
        <ele>289</ele>
        <time>2022-02-27T11:03:35.808Z</time>
      </trkpt>
      <trkpt lat="44.35933" lon="5.15004">
        <ele>289</ele>
        <time>2022-02-27T11:03:36.808Z</time>
      </trkpt>
      <trkpt lat="44.35932" lon="5.15001">
        <ele>290</ele>
        <time>2022-02-27T11:03:37.808Z</time>
      </trkpt>
      <trkpt lat="44.35931" lon="5.14998">
        <ele>290</ele>
        <time>2022-02-27T11:03:38.807Z</time>
      </trkpt>
      <trkpt lat="44.3593" lon="5.14996">
        <ele>291</ele>
        <time>2022-02-27T11:03:39.808Z</time>
      </trkpt>
      <trkpt lat="44.35928" lon="5.14994">
        <ele>291</ele>
        <time>2022-02-27T11:03:40.807Z</time>
      </trkpt>
      <trkpt lat="44.35926" lon="5.14992">
        <ele>292</ele>
        <time>2022-02-27T11:03:41.808Z</time>
      </trkpt>
      <trkpt lat="44.35924" lon="5.14991">
        <ele>292</ele>
        <time>2022-02-27T11:03:42.808Z</time>
      </trkpt>
      <trkpt lat="44.35922" lon="5.14988">
        <ele>293</ele>
        <time>2022-02-27T11:03:43.808Z</time>
      </trkpt>
      <trkpt lat="44.3592" lon="5.14986">
        <ele>293</ele>
        <time>2022-02-27T11:03:44.808Z</time>
      </trkpt>
      <trkpt lat="44.35919" lon="5.14983">
        <ele>293</ele>
        <time>2022-02-27T11:03:45.808Z</time>
      </trkpt>
      <trkpt lat="44.35918" lon="5.1498">
        <ele>293</ele>
        <time>2022-02-27T11:03:46.807Z</time>
      </trkpt>
      <trkpt lat="44.35918" lon="5.14977">
        <ele>293</ele>
        <time>2022-02-27T11:03:47.807Z</time>
      </trkpt>
      <trkpt lat="44.35916" lon="5.14974">
        <ele>292</ele>
        <time>2022-02-27T11:03:48.808Z</time>
      </trkpt>
      <trkpt lat="44.35916" lon="5.14971">
        <ele>292</ele>
        <time>2022-02-27T11:03:49.807Z</time>
      </trkpt>
      <trkpt lat="44.35915" lon="5.14968">
        <ele>292</ele>
        <time>2022-02-27T11:03:50.807Z</time>
      </trkpt>
      <trkpt lat="44.35914" lon="5.14965">
        <ele>292</ele>
        <time>2022-02-27T11:03:51.807Z</time>
      </trkpt>
      <trkpt lat="44.35913" lon="5.14962">
        <ele>293</ele>
        <time>2022-02-27T11:03:52.808Z</time>
      </trkpt>
      <trkpt lat="44.35912" lon="5.14959">
        <ele>293</ele>
        <time>2022-02-27T11:03:53.808Z</time>
      </trkpt>
      <trkpt lat="44.35912" lon="5.14955">
        <ele>293</ele>
        <time>2022-02-27T11:03:54.808Z</time>
      </trkpt>
      <trkpt lat="44.35911" lon="5.14951">
        <ele>293</ele>
        <time>2022-02-27T11:03:55.808Z</time>
      </trkpt>
      <trkpt lat="44.3591" lon="5.14947">
        <ele>292</ele>
        <time>2022-02-27T11:03:56.808Z</time>
      </trkpt>
      <trkpt lat="44.35908" lon="5.14944">
        <ele>292</ele>
        <time>2022-02-27T11:03:57.808Z</time>
      </trkpt>
      <trkpt lat="44.35907" lon="5.14941">
        <ele>291</ele>
        <time>2022-02-27T11:03:58.808Z</time>
      </trkpt>
      <trkpt lat="44.35905" lon="5.14938">
        <ele>291</ele>
        <time>2022-02-27T11:03:59.808Z</time>
      </trkpt>
      <trkpt lat="44.35905" lon="5.14935">
        <ele>291</ele>
        <time>2022-02-27T11:04:00.808Z</time>
      </trkpt>
      <trkpt lat="44.35904" lon="5.14931">
        <ele>291</ele>
        <time>2022-02-27T11:04:01.807Z</time>
      </trkpt>
      <trkpt lat="44.35903" lon="5.14927">
        <ele>290</ele>
        <time>2022-02-27T11:04:02.807Z</time>
      </trkpt>
      <trkpt lat="44.35902" lon="5.14923">
        <ele>290</ele>
        <time>2022-02-27T11:04:03.808Z</time>
      </trkpt>
      <trkpt lat="44.35901" lon="5.1492">
        <ele>290</ele>
        <time>2022-02-27T11:04:04.808Z</time>
      </trkpt>
      <trkpt lat="44.359" lon="5.14917">
        <ele>291</ele>
        <time>2022-02-27T11:04:05.808Z</time>
      </trkpt>
      <trkpt lat="44.35898" lon="5.14914">
        <ele>291</ele>
        <time>2022-02-27T11:04:06.807Z</time>
      </trkpt>
      <trkpt lat="44.35897" lon="5.14911">
        <ele>290</ele>
        <time>2022-02-27T11:04:07.807Z</time>
      </trkpt>
      <trkpt lat="44.35896" lon="5.14907">
        <ele>290</ele>
        <time>2022-02-27T11:04:08.808Z</time>
      </trkpt>
      <trkpt lat="44.35895" lon="5.14903">
        <ele>290</ele>
        <time>2022-02-27T11:04:09.807Z</time>
      </trkpt>
      <trkpt lat="44.35895" lon="5.14899">
        <ele>290</ele>
        <time>2022-02-27T11:04:10.808Z</time>
      </trkpt>
      <trkpt lat="44.35896" lon="5.14895">
        <ele>290</ele>
        <time>2022-02-27T11:04:11.807Z</time>
      </trkpt>
      <trkpt lat="44.35896" lon="5.1489">
        <ele>290</ele>
        <time>2022-02-27T11:04:12.807Z</time>
      </trkpt>
      <trkpt lat="44.35896" lon="5.14886">
        <ele>291</ele>
        <time>2022-02-27T11:04:13.807Z</time>
      </trkpt>
      <trkpt lat="44.35897" lon="5.14882">
        <ele>291</ele>
        <time>2022-02-27T11:04:14.808Z</time>
      </trkpt>
      <trkpt lat="44.35899" lon="5.14878">
        <ele>292</ele>
        <time>2022-02-27T11:04:15.807Z</time>
      </trkpt>
      <trkpt lat="44.359" lon="5.14873">
        <ele>292</ele>
        <time>2022-02-27T11:04:16.807Z</time>
      </trkpt>
      <trkpt lat="44.35901" lon="5.1487">
        <ele>292</ele>
        <time>2022-02-27T11:04:17.808Z</time>
      </trkpt>
      <trkpt lat="44.35902" lon="5.14867">
        <ele>292</ele>
        <time>2022-02-27T11:04:18.808Z</time>
      </trkpt>
      <trkpt lat="44.35902" lon="5.14864">
        <ele>292</ele>
        <time>2022-02-27T11:04:19.808Z</time>
      </trkpt>
      <trkpt lat="44.35903" lon="5.1486">
        <ele>293</ele>
        <time>2022-02-27T11:04:20.807Z</time>
      </trkpt>
      <trkpt lat="44.35904" lon="5.14857">
        <ele>293</ele>
        <time>2022-02-27T11:04:21.808Z</time>
      </trkpt>
      <trkpt lat="44.35905" lon="5.14854">
        <ele>293</ele>
        <time>2022-02-27T11:04:22.808Z</time>
      </trkpt>
      <trkpt lat="44.35907" lon="5.1485">
        <ele>293</ele>
        <time>2022-02-27T11:04:23.808Z</time>
      </trkpt>
      <trkpt lat="44.35908" lon="5.14846">
        <ele>293</ele>
        <time>2022-02-27T11:04:24.808Z</time>
      </trkpt>
      <trkpt lat="44.35909" lon="5.14842">
        <ele>293</ele>
        <time>2022-02-27T11:04:25.808Z</time>
      </trkpt>
      <trkpt lat="44.3591" lon="5.14839">
        <ele>292</ele>
        <time>2022-02-27T11:04:26.808Z</time>
      </trkpt>
      <trkpt lat="44.3591" lon="5.14835">
        <ele>292</ele>
        <time>2022-02-27T11:04:27.807Z</time>
      </trkpt>
      <trkpt lat="44.35911" lon="5.14832">
        <ele>291</ele>
        <time>2022-02-27T11:04:28.807Z</time>
      </trkpt>
      <trkpt lat="44.35912" lon="5.14829">
        <ele>291</ele>
        <time>2022-02-27T11:04:29.807Z</time>
      </trkpt>
      <trkpt lat="44.35913" lon="5.14826">
        <ele>291</ele>
        <time>2022-02-27T11:04:30.808Z</time>
      </trkpt>
      <trkpt lat="44.35914" lon="5.14822">
        <ele>290</ele>
        <time>2022-02-27T11:04:31.808Z</time>
      </trkpt>
      <trkpt lat="44.35915" lon="5.14818">
        <ele>290</ele>
        <time>2022-02-27T11:04:32.807Z</time>
      </trkpt>
      <trkpt lat="44.35916" lon="5.14815">
        <ele>289</ele>
        <time>2022-02-27T11:04:33.807Z</time>
      </trkpt>
      <trkpt lat="44.35916" lon="5.14812">
        <ele>289</ele>
        <time>2022-02-27T11:04:34.807Z</time>
      </trkpt>
      <trkpt lat="44.35917" lon="5.14809">
        <ele>288</ele>
        <time>2022-02-27T11:04:35.808Z</time>
      </trkpt>
      <trkpt lat="44.35918" lon="5.14806">
        <ele>288</ele>
        <time>2022-02-27T11:04:36.807Z</time>
      </trkpt>
      <trkpt lat="44.35918" lon="5.14802">
        <ele>287</ele>
        <time>2022-02-27T11:04:37.808Z</time>
      </trkpt>
      <trkpt lat="44.35919" lon="5.14798">
        <ele>287</ele>
        <time>2022-02-27T11:04:38.807Z</time>
      </trkpt>
      <trkpt lat="44.35919" lon="5.14795">
        <ele>287</ele>
        <time>2022-02-27T11:04:39.808Z</time>
      </trkpt>
      <trkpt lat="44.3592" lon="5.1479">
        <ele>287</ele>
        <time>2022-02-27T11:04:40.808Z</time>
      </trkpt>
      <trkpt lat="44.35919" lon="5.14786">
        <ele>286</ele>
        <time>2022-02-27T11:04:41.807Z</time>
      </trkpt>
      <trkpt lat="44.35918" lon="5.14782">
        <ele>286</ele>
        <time>2022-02-27T11:04:42.808Z</time>
      </trkpt>
      <trkpt lat="44.35919" lon="5.14778">
        <ele>285</ele>
        <time>2022-02-27T11:04:43.807Z</time>
      </trkpt>
      <trkpt lat="44.35919" lon="5.14773">
        <ele>285</ele>
        <time>2022-02-27T11:04:44.807Z</time>
      </trkpt>
      <trkpt lat="44.35919" lon="5.1477">
        <ele>286</ele>
        <time>2022-02-27T11:04:45.808Z</time>
      </trkpt>
      <trkpt lat="44.35919" lon="5.14766">
        <ele>286</ele>
        <time>2022-02-27T11:04:46.808Z</time>
      </trkpt>
      <trkpt lat="44.35918" lon="5.14762">
        <ele>286</ele>
        <time>2022-02-27T11:04:47.808Z</time>
      </trkpt>
      <trkpt lat="44.35917" lon="5.14759">
        <ele>286</ele>
        <time>2022-02-27T11:04:48.808Z</time>
      </trkpt>
      <trkpt lat="44.35917" lon="5.14755">
        <ele>286</ele>
        <time>2022-02-27T11:04:49.807Z</time>
      </trkpt>
      <trkpt lat="44.35917" lon="5.14751">
        <ele>286</ele>
        <time>2022-02-27T11:04:50.807Z</time>
      </trkpt>
      <trkpt lat="44.35916" lon="5.14748">
        <ele>286</ele>
        <time>2022-02-27T11:04:51.808Z</time>
      </trkpt>
      <trkpt lat="44.35916" lon="5.14744">
        <ele>286</ele>
        <time>2022-02-27T11:04:52.808Z</time>
      </trkpt>
      <trkpt lat="44.35916" lon="5.1474">
        <ele>286</ele>
        <time>2022-02-27T11:04:53.807Z</time>
      </trkpt>
      <trkpt lat="44.35916" lon="5.14737">
        <ele>286</ele>
        <time>2022-02-27T11:04:54.808Z</time>
      </trkpt>
      <trkpt lat="44.35915" lon="5.14733">
        <ele>287</ele>
        <time>2022-02-27T11:04:55.808Z</time>
      </trkpt>
      <trkpt lat="44.35915" lon="5.14731">
        <ele>287</ele>
        <time>2022-02-27T11:04:56.807Z</time>
      </trkpt>
      <trkpt lat="44.35914" lon="5.14727">
        <ele>287</ele>
        <time>2022-02-27T11:04:57.807Z</time>
      </trkpt>
      <trkpt lat="44.35915" lon="5.14723">
        <ele>287</ele>
        <time>2022-02-27T11:04:58.808Z</time>
      </trkpt>
      <trkpt lat="44.35916" lon="5.14719">
        <ele>287</ele>
        <time>2022-02-27T11:04:59.808Z</time>
      </trkpt>
      <trkpt lat="44.35917" lon="5.14714">
        <ele>287</ele>
        <time>2022-02-27T11:05:00.808Z</time>
      </trkpt>
      <trkpt lat="44.35919" lon="5.14709">
        <ele>287</ele>
        <time>2022-02-27T11:05:01.808Z</time>
      </trkpt>
      <trkpt lat="44.3592" lon="5.14705">
        <ele>286</ele>
        <time>2022-02-27T11:05:02.808Z</time>
      </trkpt>
      <trkpt lat="44.35921" lon="5.14701">
        <ele>286</ele>
        <time>2022-02-27T11:05:03.808Z</time>
      </trkpt>
      <trkpt lat="44.35921" lon="5.14696">
        <ele>286</ele>
        <time>2022-02-27T11:05:04.808Z</time>
      </trkpt>
      <trkpt lat="44.35922" lon="5.14692">
        <ele>286</ele>
        <time>2022-02-27T11:05:05.807Z</time>
      </trkpt>
      <trkpt lat="44.35922" lon="5.14688">
        <ele>286</ele>
        <time>2022-02-27T11:05:06.808Z</time>
      </trkpt>
      <trkpt lat="44.35922" lon="5.14686">
        <ele>285</ele>
        <time>2022-02-27T11:05:07.808Z</time>
      </trkpt>
      <trkpt lat="44.35922" lon="5.14681">
        <ele>285</ele>
        <time>2022-02-27T11:05:08.807Z</time>
      </trkpt>
      <trkpt lat="44.35921" lon="5.14678">
        <ele>285</ele>
        <time>2022-02-27T11:05:09.807Z</time>
      </trkpt>
      <trkpt lat="44.3592" lon="5.14675">
        <ele>284</ele>
        <time>2022-02-27T11:05:10.808Z</time>
      </trkpt>
      <trkpt lat="44.35917" lon="5.14673">
        <ele>283</ele>
        <time>2022-02-27T11:05:11.808Z</time>
      </trkpt>
      <trkpt lat="44.35915" lon="5.1467">
        <ele>283</ele>
        <time>2022-02-27T11:05:12.808Z</time>
      </trkpt>
      <trkpt lat="44.35913" lon="5.14666">
        <ele>283</ele>
        <time>2022-02-27T11:05:13.807Z</time>
      </trkpt>
      <trkpt lat="44.35913" lon="5.14663">
        <ele>282</ele>
        <time>2022-02-27T11:05:14.808Z</time>
      </trkpt>
      <trkpt lat="44.35913" lon="5.14659">
        <ele>282</ele>
        <time>2022-02-27T11:05:15.807Z</time>
      </trkpt>
      <trkpt lat="44.35913" lon="5.14655">
        <ele>281</ele>
        <time>2022-02-27T11:05:16.808Z</time>
      </trkpt>
      <trkpt lat="44.35912" lon="5.14651">
        <ele>281</ele>
        <time>2022-02-27T11:05:17.807Z</time>
      </trkpt>
      <trkpt lat="44.35911" lon="5.14648">
        <ele>280</ele>
        <time>2022-02-27T11:05:18.808Z</time>
      </trkpt>
      <trkpt lat="44.3591" lon="5.14644">
        <ele>280</ele>
        <time>2022-02-27T11:05:19.807Z</time>
      </trkpt>
      <trkpt lat="44.35909" lon="5.14641">
        <ele>280</ele>
        <time>2022-02-27T11:05:20.808Z</time>
      </trkpt>
      <trkpt lat="44.35908" lon="5.14637">
        <ele>280</ele>
        <time>2022-02-27T11:05:21.807Z</time>
      </trkpt>
      <trkpt lat="44.35907" lon="5.14634">
        <ele>280</ele>
        <time>2022-02-27T11:05:22.807Z</time>
      </trkpt>
      <trkpt lat="44.35907" lon="5.14631">
        <ele>279</ele>
        <time>2022-02-27T11:05:23.807Z</time>
      </trkpt>
      <trkpt lat="44.35906" lon="5.14627">
        <ele>279</ele>
        <time>2022-02-27T11:05:24.808Z</time>
      </trkpt>
      <trkpt lat="44.35906" lon="5.14624">
        <ele>279</ele>
        <time>2022-02-27T11:05:25.808Z</time>
      </trkpt>
      <trkpt lat="44.35906" lon="5.14621">
        <ele>278</ele>
        <time>2022-02-27T11:05:26.808Z</time>
      </trkpt>
      <trkpt lat="44.35905" lon="5.14618">
        <ele>278</ele>
        <time>2022-02-27T11:05:27.807Z</time>
      </trkpt>
      <trkpt lat="44.35905" lon="5.14615">
        <ele>278</ele>
        <time>2022-02-27T11:05:28.808Z</time>
      </trkpt>
      <trkpt lat="44.35905" lon="5.14611">
        <ele>278</ele>
        <time>2022-02-27T11:05:29.808Z</time>
      </trkpt>
      <trkpt lat="44.35906" lon="5.14608">
        <ele>278</ele>
        <time>2022-02-27T11:05:30.808Z</time>
      </trkpt>
      <trkpt lat="44.35906" lon="5.14606">
        <ele>278</ele>
        <time>2022-02-27T11:05:31.807Z</time>
      </trkpt>
      <trkpt lat="44.35907" lon="5.14602">
        <ele>278</ele>
        <time>2022-02-27T11:05:32.808Z</time>
      </trkpt>
      <trkpt lat="44.35907" lon="5.14599">
        <ele>278</ele>
        <time>2022-02-27T11:05:33.807Z</time>
      </trkpt>
      <trkpt lat="44.35907" lon="5.14596">
        <ele>279</ele>
        <time>2022-02-27T11:05:34.808Z</time>
      </trkpt>
      <trkpt lat="44.35908" lon="5.14593">
        <ele>279</ele>
        <time>2022-02-27T11:05:35.808Z</time>
      </trkpt>
      <trkpt lat="44.35909" lon="5.14589">
        <ele>279</ele>
        <time>2022-02-27T11:05:36.808Z</time>
      </trkpt>
      <trkpt lat="44.3591" lon="5.14585">
        <ele>280</ele>
        <time>2022-02-27T11:05:37.807Z</time>
      </trkpt>
      <trkpt lat="44.35911" lon="5.14583">
        <ele>280</ele>
        <time>2022-02-27T11:05:38.808Z</time>
      </trkpt>
      <trkpt lat="44.35912" lon="5.14579">
        <ele>280</ele>
        <time>2022-02-27T11:05:39.808Z</time>
      </trkpt>
      <trkpt lat="44.35913" lon="5.14575">
        <ele>281</ele>
        <time>2022-02-27T11:05:40.807Z</time>
      </trkpt>
      <trkpt lat="44.35915" lon="5.14572">
        <ele>281</ele>
        <time>2022-02-27T11:05:41.807Z</time>
      </trkpt>
      <trkpt lat="44.35916" lon="5.1457">
        <ele>281</ele>
        <time>2022-02-27T11:05:42.808Z</time>
      </trkpt>
      <trkpt lat="44.35918" lon="5.14567">
        <ele>281</ele>
        <time>2022-02-27T11:05:43.808Z</time>
      </trkpt>
      <trkpt lat="44.3592" lon="5.14565">
        <ele>282</ele>
        <time>2022-02-27T11:05:44.808Z</time>
      </trkpt>
      <trkpt lat="44.35921" lon="5.14563">
        <ele>282</ele>
        <time>2022-02-27T11:05:45.808Z</time>
      </trkpt>
      <trkpt lat="44.35922" lon="5.14561">
        <ele>282</ele>
        <time>2022-02-27T11:05:46.808Z</time>
      </trkpt>
      <trkpt lat="44.35923" lon="5.14558">
        <ele>283</ele>
        <time>2022-02-27T11:05:47.808Z</time>
      </trkpt>
      <trkpt lat="44.35924" lon="5.14555">
        <ele>283</ele>
        <time>2022-02-27T11:05:48.808Z</time>
      </trkpt>
      <trkpt lat="44.35925" lon="5.1455">
        <ele>283</ele>
        <time>2022-02-27T11:05:49.808Z</time>
      </trkpt>
      <trkpt lat="44.35923" lon="5.14548">
        <ele>284</ele>
        <time>2022-02-27T11:05:50.808Z</time>
      </trkpt>
      <trkpt lat="44.35922" lon="5.14546">
        <ele>284</ele>
        <time>2022-02-27T11:05:51.807Z</time>
      </trkpt>
      <trkpt lat="44.35922" lon="5.14543">
        <ele>285</ele>
        <time>2022-02-27T11:05:52.808Z</time>
      </trkpt>
      <trkpt lat="44.35922" lon="5.1454">
        <ele>285</ele>
        <time>2022-02-27T11:05:53.808Z</time>
      </trkpt>
      <trkpt lat="44.35923" lon="5.14536">
        <ele>286</ele>
        <time>2022-02-27T11:05:54.808Z</time>
      </trkpt>
      <trkpt lat="44.35924" lon="5.14534">
        <ele>286</ele>
        <time>2022-02-27T11:05:55.808Z</time>
      </trkpt>
      <trkpt lat="44.35924" lon="5.1453">
        <ele>287</ele>
        <time>2022-02-27T11:05:56.807Z</time>
      </trkpt>
      <trkpt lat="44.35924" lon="5.14527">
        <ele>288</ele>
        <time>2022-02-27T11:05:57.808Z</time>
      </trkpt>
      <trkpt lat="44.35923" lon="5.14527">
        <ele>288</ele>
        <time>2022-02-27T11:05:58.808Z</time>
      </trkpt>
      <trkpt lat="44.35923" lon="5.14526">
        <ele>289</ele>
        <time>2022-02-27T11:05:59.808Z</time>
      </trkpt>
      <trkpt lat="44.35925" lon="5.14525">
        <ele>289</ele>
        <time>2022-02-27T11:06:00.808Z</time>
      </trkpt>
      <trkpt lat="44.35926" lon="5.14523">
        <ele>288</ele>
        <time>2022-02-27T11:06:01.808Z</time>
      </trkpt>
      <trkpt lat="44.35928" lon="5.14521">
        <ele>288</ele>
        <time>2022-02-27T11:06:02.807Z</time>
      </trkpt>
      <trkpt lat="44.35929" lon="5.14518">
        <ele>288</ele>
        <time>2022-02-27T11:06:03.807Z</time>
      </trkpt>
      <trkpt lat="44.3593" lon="5.14515">
        <ele>287</ele>
        <time>2022-02-27T11:06:04.808Z</time>
      </trkpt>
      <trkpt lat="44.3593" lon="5.14511">
        <ele>287</ele>
        <time>2022-02-27T11:06:05.808Z</time>
      </trkpt>
      <trkpt lat="44.3593" lon="5.14507">
        <ele>286</ele>
        <time>2022-02-27T11:06:06.808Z</time>
      </trkpt>
      <trkpt lat="44.3593" lon="5.14503">
        <ele>286</ele>
        <time>2022-02-27T11:06:07.807Z</time>
      </trkpt>
      <trkpt lat="44.3593" lon="5.145">
        <ele>285</ele>
        <time>2022-02-27T11:06:08.808Z</time>
      </trkpt>
      <trkpt lat="44.3593" lon="5.14496">
        <ele>285</ele>
        <time>2022-02-27T11:06:09.808Z</time>
      </trkpt>
      <trkpt lat="44.3593" lon="5.14492">
        <ele>285</ele>
        <time>2022-02-27T11:06:10.808Z</time>
      </trkpt>
      <trkpt lat="44.35931" lon="5.14488">
        <ele>284</ele>
        <time>2022-02-27T11:06:11.808Z</time>
      </trkpt>
      <trkpt lat="44.35932" lon="5.14484">
        <ele>284</ele>
        <time>2022-02-27T11:06:12.807Z</time>
      </trkpt>
      <trkpt lat="44.35933" lon="5.14478">
        <ele>284</ele>
        <time>2022-02-27T11:06:13.808Z</time>
      </trkpt>
      <trkpt lat="44.35934" lon="5.14475">
        <ele>283</ele>
        <time>2022-02-27T11:06:14.808Z</time>
      </trkpt>
      <trkpt lat="44.35935" lon="5.14471">
        <ele>282</ele>
        <time>2022-02-27T11:06:15.808Z</time>
      </trkpt>
      <trkpt lat="44.35936" lon="5.14467">
        <ele>282</ele>
        <time>2022-02-27T11:06:16.808Z</time>
      </trkpt>
      <trkpt lat="44.35936" lon="5.14463">
        <ele>282</ele>
        <time>2022-02-27T11:06:17.807Z</time>
      </trkpt>
      <trkpt lat="44.35936" lon="5.1446">
        <ele>282</ele>
        <time>2022-02-27T11:06:18.808Z</time>
      </trkpt>
      <trkpt lat="44.35935" lon="5.14456">
        <ele>282</ele>
        <time>2022-02-27T11:06:19.808Z</time>
      </trkpt>
      <trkpt lat="44.35934" lon="5.14453">
        <ele>282</ele>
        <time>2022-02-27T11:06:20.808Z</time>
      </trkpt>
      <trkpt lat="44.35934" lon="5.14449">
        <ele>282</ele>
        <time>2022-02-27T11:06:21.808Z</time>
      </trkpt>
      <trkpt lat="44.35934" lon="5.14446">
        <ele>282</ele>
        <time>2022-02-27T11:06:22.807Z</time>
      </trkpt>
      <trkpt lat="44.35934" lon="5.14443">
        <ele>282</ele>
        <time>2022-02-27T11:06:23.808Z</time>
      </trkpt>
      <trkpt lat="44.35934" lon="5.1444">
        <ele>283</ele>
        <time>2022-02-27T11:06:24.807Z</time>
      </trkpt>
      <trkpt lat="44.35934" lon="5.14437">
        <ele>283</ele>
        <time>2022-02-27T11:06:25.808Z</time>
      </trkpt>
      <trkpt lat="44.35934" lon="5.14436">
        <ele>283</ele>
        <time>2022-02-27T11:06:26.808Z</time>
      </trkpt>
      <trkpt lat="44.35934" lon="5.14434">
        <ele>284</ele>
        <time>2022-02-27T11:06:27.808Z</time>
      </trkpt>
      <trkpt lat="44.35934" lon="5.14431">
        <ele>284</ele>
        <time>2022-02-27T11:06:28.808Z</time>
      </trkpt>
      <trkpt lat="44.35934" lon="5.14429">
        <ele>285</ele>
        <time>2022-02-27T11:06:29.808Z</time>
      </trkpt>
      <trkpt lat="44.35934" lon="5.14426">
        <ele>286</ele>
        <time>2022-02-27T11:06:30.808Z</time>
      </trkpt>
      <trkpt lat="44.35934" lon="5.14424">
        <ele>286</ele>
        <time>2022-02-27T11:06:31.808Z</time>
      </trkpt>
      <trkpt lat="44.35934" lon="5.14421">
        <ele>287</ele>
        <time>2022-02-27T11:06:32.808Z</time>
      </trkpt>
      <trkpt lat="44.35933" lon="5.14419">
        <ele>288</ele>
        <time>2022-02-27T11:06:33.808Z</time>
      </trkpt>
      <trkpt lat="44.35933" lon="5.14417">
        <ele>288</ele>
        <time>2022-02-27T11:06:34.808Z</time>
      </trkpt>
      <trkpt lat="44.35932" lon="5.14414">
        <ele>289</ele>
        <time>2022-02-27T11:06:35.807Z</time>
      </trkpt>
      <trkpt lat="44.35919" lon="5.14369">
        <ele>288</ele>
        <time>2022-02-27T11:06:47.808Z</time>
      </trkpt>
      <trkpt lat="44.35915" lon="5.14367">
        <ele>288</ele>
        <time>2022-02-27T11:06:48.808Z</time>
      </trkpt>
      <trkpt lat="44.35911" lon="5.14365">
        <ele>287</ele>
        <time>2022-02-27T11:06:49.808Z</time>
      </trkpt>
      <trkpt lat="44.35909" lon="5.14365">
        <ele>287</ele>
        <time>2022-02-27T11:06:50.808Z</time>
      </trkpt>
      <trkpt lat="44.35908" lon="5.14364">
        <ele>286</ele>
        <time>2022-02-27T11:06:51.807Z</time>
      </trkpt>
      <trkpt lat="44.35908" lon="5.14361">
        <ele>286</ele>
        <time>2022-02-27T11:06:52.808Z</time>
      </trkpt>
      <trkpt lat="44.35907" lon="5.14359">
        <ele>285</ele>
        <time>2022-02-27T11:06:53.808Z</time>
      </trkpt>
      <trkpt lat="44.35906" lon="5.14355">
        <ele>285</ele>
        <time>2022-02-27T11:06:54.808Z</time>
      </trkpt>
      <trkpt lat="44.35905" lon="5.14353">
        <ele>284</ele>
        <time>2022-02-27T11:06:55.808Z</time>
      </trkpt>
      <trkpt lat="44.35902" lon="5.14352">
        <ele>284</ele>
        <time>2022-02-27T11:06:56.808Z</time>
      </trkpt>
      <trkpt lat="44.35899" lon="5.14352">
        <ele>284</ele>
        <time>2022-02-27T11:06:57.807Z</time>
      </trkpt>
      <trkpt lat="44.35898" lon="5.14349">
        <ele>284</ele>
        <time>2022-02-27T11:06:58.808Z</time>
      </trkpt>
      <trkpt lat="44.35896" lon="5.14347">
        <ele>284</ele>
        <time>2022-02-27T11:06:59.808Z</time>
      </trkpt>
      <trkpt lat="44.35897" lon="5.14345">
        <ele>284</ele>
        <time>2022-02-27T11:07:00.807Z</time>
      </trkpt>
      <trkpt lat="44.35897" lon="5.14341">
        <ele>284</ele>
        <time>2022-02-27T11:07:01.807Z</time>
      </trkpt>
      <trkpt lat="44.35895" lon="5.14339">
        <ele>284</ele>
        <time>2022-02-27T11:07:02.807Z</time>
      </trkpt>
      <trkpt lat="44.35893" lon="5.14336">
        <ele>284</ele>
        <time>2022-02-27T11:07:03.808Z</time>
      </trkpt>
      <trkpt lat="44.35892" lon="5.14334">
        <ele>284</ele>
        <time>2022-02-27T11:07:04.807Z</time>
      </trkpt>
      <trkpt lat="44.35889" lon="5.14332">
        <ele>285</ele>
        <time>2022-02-27T11:07:05.807Z</time>
      </trkpt>
      <trkpt lat="44.35889" lon="5.14328">
        <ele>285</ele>
        <time>2022-02-27T11:07:06.808Z</time>
      </trkpt>
      <trkpt lat="44.35887" lon="5.14325">
        <ele>285</ele>
        <time>2022-02-27T11:07:07.807Z</time>
      </trkpt>
      <trkpt lat="44.35885" lon="5.14323">
        <ele>286</ele>
        <time>2022-02-27T11:07:08.808Z</time>
      </trkpt>
      <trkpt lat="44.35884" lon="5.1432">
        <ele>286</ele>
        <time>2022-02-27T11:07:09.808Z</time>
      </trkpt>
      <trkpt lat="44.35883" lon="5.14318">
        <ele>286</ele>
        <time>2022-02-27T11:07:10.807Z</time>
      </trkpt>
      <trkpt lat="44.35881" lon="5.14315">
        <ele>286</ele>
        <time>2022-02-27T11:07:11.807Z</time>
      </trkpt>
      <trkpt lat="44.3588" lon="5.1431">
        <ele>286</ele>
        <time>2022-02-27T11:07:12.807Z</time>
      </trkpt>
      <trkpt lat="44.35879" lon="5.14306">
        <ele>286</ele>
        <time>2022-02-27T11:07:13.808Z</time>
      </trkpt>
      <trkpt lat="44.35878" lon="5.14303">
        <ele>286</ele>
        <time>2022-02-27T11:07:14.807Z</time>
      </trkpt>
      <trkpt lat="44.35876" lon="5.14299">
        <ele>285</ele>
        <time>2022-02-27T11:07:15.808Z</time>
      </trkpt>
      <trkpt lat="44.35875" lon="5.14296">
        <ele>285</ele>
        <time>2022-02-27T11:07:16.808Z</time>
      </trkpt>
      <trkpt lat="44.35874" lon="5.14292">
        <ele>284</ele>
        <time>2022-02-27T11:07:17.808Z</time>
      </trkpt>
      <trkpt lat="44.35872" lon="5.1429">
        <ele>284</ele>
        <time>2022-02-27T11:07:18.808Z</time>
      </trkpt>
      <trkpt lat="44.3587" lon="5.14287">
        <ele>284</ele>
        <time>2022-02-27T11:07:19.808Z</time>
      </trkpt>
      <trkpt lat="44.35868" lon="5.14284">
        <ele>283</ele>
        <time>2022-02-27T11:07:20.808Z</time>
      </trkpt>
      <trkpt lat="44.35866" lon="5.14281">
        <ele>283</ele>
        <time>2022-02-27T11:07:21.807Z</time>
      </trkpt>
      <trkpt lat="44.35864" lon="5.14278">
        <ele>283</ele>
        <time>2022-02-27T11:07:22.807Z</time>
      </trkpt>
      <trkpt lat="44.35862" lon="5.14275">
        <ele>283</ele>
        <time>2022-02-27T11:07:23.808Z</time>
      </trkpt>
      <trkpt lat="44.3586" lon="5.14272">
        <ele>283</ele>
        <time>2022-02-27T11:07:24.808Z</time>
      </trkpt>
      <trkpt lat="44.35858" lon="5.1427">
        <ele>283</ele>
        <time>2022-02-27T11:07:25.808Z</time>
      </trkpt>
      <trkpt lat="44.35857" lon="5.14266">
        <ele>282</ele>
        <time>2022-02-27T11:07:26.808Z</time>
      </trkpt>
      <trkpt lat="44.35855" lon="5.14262">
        <ele>282</ele>
        <time>2022-02-27T11:07:27.808Z</time>
      </trkpt>
      <trkpt lat="44.35854" lon="5.14259">
        <ele>282</ele>
        <time>2022-02-27T11:07:28.808Z</time>
      </trkpt>
      <trkpt lat="44.35853" lon="5.14257">
        <ele>282</ele>
        <time>2022-02-27T11:07:29.808Z</time>
      </trkpt>
      <trkpt lat="44.35851" lon="5.14253">
        <ele>282</ele>
        <time>2022-02-27T11:07:30.808Z</time>
      </trkpt>
      <trkpt lat="44.35849" lon="5.1425">
        <ele>283</ele>
        <time>2022-02-27T11:07:31.808Z</time>
      </trkpt>
      <trkpt lat="44.35847" lon="5.14247">
        <ele>283</ele>
        <time>2022-02-27T11:07:32.808Z</time>
      </trkpt>
      <trkpt lat="44.35846" lon="5.14244">
        <ele>283</ele>
        <time>2022-02-27T11:07:33.808Z</time>
      </trkpt>
      <trkpt lat="44.35844" lon="5.14242">
        <ele>283</ele>
        <time>2022-02-27T11:07:34.808Z</time>
      </trkpt>
      <trkpt lat="44.35842" lon="5.14239">
        <ele>283</ele>
        <time>2022-02-27T11:07:35.808Z</time>
      </trkpt>
      <trkpt lat="44.35839" lon="5.14237">
        <ele>283</ele>
        <time>2022-02-27T11:07:36.807Z</time>
      </trkpt>
      <trkpt lat="44.35837" lon="5.14235">
        <ele>284</ele>
        <time>2022-02-27T11:07:37.808Z</time>
      </trkpt>
      <trkpt lat="44.35835" lon="5.14232">
        <ele>284</ele>
        <time>2022-02-27T11:07:38.808Z</time>
      </trkpt>
      <trkpt lat="44.35834" lon="5.14229">
        <ele>284</ele>
        <time>2022-02-27T11:07:39.808Z</time>
      </trkpt>
      <trkpt lat="44.35832" lon="5.14226">
        <ele>285</ele>
        <time>2022-02-27T11:07:40.808Z</time>
      </trkpt>
      <trkpt lat="44.35831" lon="5.14223">
        <ele>285</ele>
        <time>2022-02-27T11:07:41.808Z</time>
      </trkpt>
      <trkpt lat="44.35829" lon="5.1422">
        <ele>285</ele>
        <time>2022-02-27T11:07:42.808Z</time>
      </trkpt>
      <trkpt lat="44.35827" lon="5.14218">
        <ele>285</ele>
        <time>2022-02-27T11:07:43.808Z</time>
      </trkpt>
      <trkpt lat="44.35825" lon="5.14216">
        <ele>285</ele>
        <time>2022-02-27T11:07:44.808Z</time>
      </trkpt>
      <trkpt lat="44.35823" lon="5.14214">
        <ele>285</ele>
        <time>2022-02-27T11:07:45.808Z</time>
      </trkpt>
      <trkpt lat="44.35822" lon="5.14212">
        <ele>285</ele>
        <time>2022-02-27T11:07:46.808Z</time>
      </trkpt>
      <trkpt lat="44.3582" lon="5.1421">
        <ele>285</ele>
        <time>2022-02-27T11:07:47.807Z</time>
      </trkpt>
      <trkpt lat="44.35819" lon="5.14207">
        <ele>285</ele>
        <time>2022-02-27T11:07:48.808Z</time>
      </trkpt>
      <trkpt lat="44.35816" lon="5.14205">
        <ele>285</ele>
        <time>2022-02-27T11:07:49.808Z</time>
      </trkpt>
      <trkpt lat="44.35814" lon="5.14204">
        <ele>285</ele>
        <time>2022-02-27T11:07:50.807Z</time>
      </trkpt>
      <trkpt lat="44.35812" lon="5.14203">
        <ele>285</ele>
        <time>2022-02-27T11:07:51.807Z</time>
      </trkpt>
      <trkpt lat="44.35809" lon="5.14203">
        <ele>285</ele>
        <time>2022-02-27T11:07:52.808Z</time>
      </trkpt>
      <trkpt lat="44.35807" lon="5.14202">
        <ele>285</ele>
        <time>2022-02-27T11:07:53.807Z</time>
      </trkpt>
      <trkpt lat="44.35804" lon="5.142">
        <ele>285</ele>
        <time>2022-02-27T11:07:54.808Z</time>
      </trkpt>
      <trkpt lat="44.35802" lon="5.14196">
        <ele>285</ele>
        <time>2022-02-27T11:07:55.807Z</time>
      </trkpt>
      <trkpt lat="44.358" lon="5.14193">
        <ele>285</ele>
        <time>2022-02-27T11:07:56.807Z</time>
      </trkpt>
      <trkpt lat="44.35798" lon="5.1419">
        <ele>285</ele>
        <time>2022-02-27T11:07:57.808Z</time>
      </trkpt>
      <trkpt lat="44.35797" lon="5.14187">
        <ele>285</ele>
        <time>2022-02-27T11:07:58.808Z</time>
      </trkpt>
      <trkpt lat="44.35797" lon="5.14184">
        <ele>284</ele>
        <time>2022-02-27T11:07:59.808Z</time>
      </trkpt>
      <trkpt lat="44.35798" lon="5.14182">
        <ele>284</ele>
        <time>2022-02-27T11:08:00.808Z</time>
      </trkpt>
      <trkpt lat="44.35799" lon="5.14181">
        <ele>284</ele>
        <time>2022-02-27T11:08:01.808Z</time>
      </trkpt>
      <trkpt lat="44.35801" lon="5.14178">
        <ele>283</ele>
        <time>2022-02-27T11:08:02.807Z</time>
      </trkpt>
      <trkpt lat="44.35802" lon="5.14176">
        <ele>283</ele>
        <time>2022-02-27T11:08:03.807Z</time>
      </trkpt>
      <trkpt lat="44.35804" lon="5.14173">
        <ele>283</ele>
        <time>2022-02-27T11:08:04.808Z</time>
      </trkpt>
      <trkpt lat="44.35806" lon="5.14171">
        <ele>283</ele>
        <time>2022-02-27T11:08:05.808Z</time>
      </trkpt>
      <trkpt lat="44.35807" lon="5.14168">
        <ele>282</ele>
        <time>2022-02-27T11:08:06.808Z</time>
      </trkpt>
      <trkpt lat="44.35809" lon="5.14165">
        <ele>282</ele>
        <time>2022-02-27T11:08:07.807Z</time>
      </trkpt>
      <trkpt lat="44.3581" lon="5.14162">
        <ele>281</ele>
        <time>2022-02-27T11:08:08.808Z</time>
      </trkpt>
      <trkpt lat="44.35812" lon="5.14159">
        <ele>281</ele>
        <time>2022-02-27T11:08:09.808Z</time>
      </trkpt>
      <trkpt lat="44.35814" lon="5.14157">
        <ele>280</ele>
        <time>2022-02-27T11:08:10.808Z</time>
      </trkpt>
      <trkpt lat="44.35816" lon="5.14154">
        <ele>280</ele>
        <time>2022-02-27T11:08:11.808Z</time>
      </trkpt>
      <trkpt lat="44.35818" lon="5.14151">
        <ele>279</ele>
        <time>2022-02-27T11:08:12.807Z</time>
      </trkpt>
      <trkpt lat="44.3582" lon="5.14149">
        <ele>278</ele>
        <time>2022-02-27T11:08:13.808Z</time>
      </trkpt>
      <trkpt lat="44.35823" lon="5.14146">
        <ele>278</ele>
        <time>2022-02-27T11:08:14.808Z</time>
      </trkpt>
      <trkpt lat="44.35825" lon="5.14143">
        <ele>277</ele>
        <time>2022-02-27T11:08:15.808Z</time>
      </trkpt>
      <trkpt lat="44.35827" lon="5.1414">
        <ele>277</ele>
        <time>2022-02-27T11:08:16.808Z</time>
      </trkpt>
      <trkpt lat="44.35829" lon="5.14137">
        <ele>276</ele>
        <time>2022-02-27T11:08:17.808Z</time>
      </trkpt>
      <trkpt lat="44.3583" lon="5.14134">
        <ele>276</ele>
        <time>2022-02-27T11:08:18.808Z</time>
      </trkpt>
      <trkpt lat="44.35832" lon="5.14131">
        <ele>276</ele>
        <time>2022-02-27T11:08:19.808Z</time>
      </trkpt>
      <trkpt lat="44.35835" lon="5.14128">
        <ele>276</ele>
        <time>2022-02-27T11:08:20.808Z</time>
      </trkpt>
      <trkpt lat="44.35837" lon="5.14125">
        <ele>276</ele>
        <time>2022-02-27T11:08:21.808Z</time>
      </trkpt>
      <trkpt lat="44.35839" lon="5.14123">
        <ele>275</ele>
        <time>2022-02-27T11:08:22.808Z</time>
      </trkpt>
      <trkpt lat="44.35841" lon="5.14121">
        <ele>275</ele>
        <time>2022-02-27T11:08:23.808Z</time>
      </trkpt>
      <trkpt lat="44.35843" lon="5.14117">
        <ele>275</ele>
        <time>2022-02-27T11:08:24.808Z</time>
      </trkpt>
      <trkpt lat="44.35845" lon="5.14115">
        <ele>274</ele>
        <time>2022-02-27T11:08:25.808Z</time>
      </trkpt>
      <trkpt lat="44.35847" lon="5.14112">
        <ele>274</ele>
        <time>2022-02-27T11:08:26.807Z</time>
      </trkpt>
      <trkpt lat="44.35848" lon="5.14109">
        <ele>274</ele>
        <time>2022-02-27T11:08:27.807Z</time>
      </trkpt>
      <trkpt lat="44.35848" lon="5.14106">
        <ele>274</ele>
        <time>2022-02-27T11:08:28.808Z</time>
      </trkpt>
      <trkpt lat="44.35849" lon="5.14102">
        <ele>275</ele>
        <time>2022-02-27T11:08:29.807Z</time>
      </trkpt>
      <trkpt lat="44.35849" lon="5.14098">
        <ele>275</ele>
        <time>2022-02-27T11:08:30.807Z</time>
      </trkpt>
      <trkpt lat="44.3585" lon="5.14095">
        <ele>275</ele>
        <time>2022-02-27T11:08:31.808Z</time>
      </trkpt>
      <trkpt lat="44.35852" lon="5.14092">
        <ele>276</ele>
        <time>2022-02-27T11:08:32.808Z</time>
      </trkpt>
      <trkpt lat="44.35854" lon="5.14089">
        <ele>275</ele>
        <time>2022-02-27T11:08:33.807Z</time>
      </trkpt>
      <trkpt lat="44.35856" lon="5.14087">
        <ele>275</ele>
        <time>2022-02-27T11:08:34.808Z</time>
      </trkpt>
      <trkpt lat="44.35857" lon="5.14085">
        <ele>275</ele>
        <time>2022-02-27T11:08:35.808Z</time>
      </trkpt>
      <trkpt lat="44.35859" lon="5.14083">
        <ele>275</ele>
        <time>2022-02-27T11:08:36.807Z</time>
      </trkpt>
      <trkpt lat="44.35861" lon="5.14081">
        <ele>275</ele>
        <time>2022-02-27T11:08:37.807Z</time>
      </trkpt>
      <trkpt lat="44.35863" lon="5.14079">
        <ele>275</ele>
        <time>2022-02-27T11:08:38.808Z</time>
      </trkpt>
      <trkpt lat="44.35864" lon="5.14078">
        <ele>275</ele>
        <time>2022-02-27T11:08:39.808Z</time>
      </trkpt>
      <trkpt lat="44.35865" lon="5.14076">
        <ele>275</ele>
        <time>2022-02-27T11:08:40.808Z</time>
      </trkpt>
      <trkpt lat="44.35866" lon="5.14074">
        <ele>275</ele>
        <time>2022-02-27T11:08:41.808Z</time>
      </trkpt>
      <trkpt lat="44.35865" lon="5.14071">
        <ele>276</ele>
        <time>2022-02-27T11:08:42.808Z</time>
      </trkpt>
      <trkpt lat="44.35864" lon="5.14068">
        <ele>276</ele>
        <time>2022-02-27T11:08:43.808Z</time>
      </trkpt>
      <trkpt lat="44.35864" lon="5.14065">
        <ele>276</ele>
        <time>2022-02-27T11:08:44.808Z</time>
      </trkpt>
      <trkpt lat="44.35863" lon="5.14061">
        <ele>276</ele>
        <time>2022-02-27T11:08:45.808Z</time>
      </trkpt>
      <trkpt lat="44.35864" lon="5.14057">
        <ele>275</ele>
        <time>2022-02-27T11:08:46.808Z</time>
      </trkpt>
      <trkpt lat="44.35865" lon="5.14054">
        <ele>275</ele>
        <time>2022-02-27T11:08:47.808Z</time>
      </trkpt>
      <trkpt lat="44.35864" lon="5.14051">
        <ele>276</ele>
        <time>2022-02-27T11:08:48.808Z</time>
      </trkpt>
      <trkpt lat="44.35864" lon="5.14048">
        <ele>276</ele>
        <time>2022-02-27T11:08:49.807Z</time>
      </trkpt>
      <trkpt lat="44.35863" lon="5.14046">
        <ele>276</ele>
        <time>2022-02-27T11:08:50.807Z</time>
      </trkpt>
      <trkpt lat="44.35861" lon="5.14043">
        <ele>276</ele>
        <time>2022-02-27T11:08:51.807Z</time>
      </trkpt>
      <trkpt lat="44.3586" lon="5.14039">
        <ele>275</ele>
        <time>2022-02-27T11:08:52.807Z</time>
      </trkpt>
      <trkpt lat="44.3586" lon="5.14036">
        <ele>275</ele>
        <time>2022-02-27T11:08:53.808Z</time>
      </trkpt>
      <trkpt lat="44.35861" lon="5.14034">
        <ele>275</ele>
        <time>2022-02-27T11:08:54.808Z</time>
      </trkpt>
      <trkpt lat="44.35861" lon="5.14034">
        <ele>275</ele>
        <time>2022-02-27T11:08:55.808Z</time>
      </trkpt>
      <trkpt lat="44.35862" lon="5.14033">
        <ele>275</ele>
        <time>2022-02-27T11:08:56.808Z</time>
      </trkpt>
      <trkpt lat="44.35863" lon="5.14033">
        <ele>275</ele>
        <time>2022-02-27T11:08:57.808Z</time>
      </trkpt>
      <trkpt lat="44.35865" lon="5.14033">
        <ele>275</ele>
        <time>2022-02-27T11:08:58.808Z</time>
      </trkpt>
      <trkpt lat="44.35865" lon="5.14033">
        <ele>275</ele>
        <time>2022-02-27T11:08:59.807Z</time>
      </trkpt>
      <trkpt lat="44.35866" lon="5.14033">
        <ele>275</ele>
        <time>2022-02-27T11:09:00.808Z</time>
      </trkpt>
      <trkpt lat="44.35867" lon="5.14033">
        <ele>274</ele>
        <time>2022-02-27T11:09:01.808Z</time>
      </trkpt>
      <trkpt lat="44.35877" lon="5.14024">
        <ele>269</ele>
        <time>2022-02-27T11:09:02.807Z</time>
      </trkpt>
      <trkpt lat="44.35877" lon="5.14024">
        <ele>269</ele>
        <time>2022-02-27T11:09:03.808Z</time>
      </trkpt>
      <trkpt lat="44.35877" lon="5.14024">
        <ele>269</ele>
        <time>2022-02-27T11:09:04.807Z</time>
      </trkpt>
      <trkpt lat="44.35876" lon="5.14022">
        <ele>269</ele>
        <time>2022-02-27T11:09:05.807Z</time>
      </trkpt>
      <trkpt lat="44.35875" lon="5.1402">
        <ele>269</ele>
        <time>2022-02-27T11:09:06.807Z</time>
      </trkpt>
      <trkpt lat="44.35875" lon="5.14018">
        <ele>268</ele>
        <time>2022-02-27T11:09:07.808Z</time>
      </trkpt>
      <trkpt lat="44.35873" lon="5.14015">
        <ele>268</ele>
        <time>2022-02-27T11:09:08.808Z</time>
      </trkpt>
      <trkpt lat="44.35873" lon="5.14013">
        <ele>268</ele>
        <time>2022-02-27T11:09:09.808Z</time>
      </trkpt>
      <trkpt lat="44.35872" lon="5.14011">
        <ele>268</ele>
        <time>2022-02-27T11:09:10.807Z</time>
      </trkpt>
      <trkpt lat="44.35872" lon="5.14009">
        <ele>267</ele>
        <time>2022-02-27T11:09:11.807Z</time>
      </trkpt>
      <trkpt lat="44.35871" lon="5.14007">
        <ele>267</ele>
        <time>2022-02-27T11:09:12.807Z</time>
      </trkpt>
      <trkpt lat="44.35871" lon="5.14005">
        <ele>268</ele>
        <time>2022-02-27T11:09:13.808Z</time>
      </trkpt>
      <trkpt lat="44.35871" lon="5.14003">
        <ele>268</ele>
        <time>2022-02-27T11:09:14.808Z</time>
      </trkpt>
      <trkpt lat="44.3587" lon="5.14002">
        <ele>268</ele>
        <time>2022-02-27T11:09:15.807Z</time>
      </trkpt>
      <trkpt lat="44.3587" lon="5.14">
        <ele>268</ele>
        <time>2022-02-27T11:09:16.807Z</time>
      </trkpt>
      <trkpt lat="44.3587" lon="5.13999">
        <ele>268</ele>
        <time>2022-02-27T11:09:17.807Z</time>
      </trkpt>
      <trkpt lat="44.3587" lon="5.13998">
        <ele>268</ele>
        <time>2022-02-27T11:09:18.808Z</time>
      </trkpt>
      <trkpt lat="44.35869" lon="5.13996">
        <ele>268</ele>
        <time>2022-02-27T11:09:19.808Z</time>
      </trkpt>
      <trkpt lat="44.35869" lon="5.13995">
        <ele>268</ele>
        <time>2022-02-27T11:09:20.808Z</time>
      </trkpt>
      <trkpt lat="44.35869" lon="5.13993">
        <ele>268</ele>
        <time>2022-02-27T11:09:21.808Z</time>
      </trkpt>
      <trkpt lat="44.35869" lon="5.13991">
        <ele>268</ele>
        <time>2022-02-27T11:09:22.808Z</time>
      </trkpt>
      <trkpt lat="44.35869" lon="5.13989">
        <ele>268</ele>
        <time>2022-02-27T11:09:23.808Z</time>
      </trkpt>
      <trkpt lat="44.35869" lon="5.13987">
        <ele>268</ele>
        <time>2022-02-27T11:09:24.808Z</time>
      </trkpt>
      <trkpt lat="44.35868" lon="5.13985">
        <ele>268</ele>
        <time>2022-02-27T11:09:25.808Z</time>
      </trkpt>
      <trkpt lat="44.35868" lon="5.13984">
        <ele>268</ele>
        <time>2022-02-27T11:09:26.807Z</time>
      </trkpt>
      <trkpt lat="44.35867" lon="5.13983">
        <ele>268</ele>
        <time>2022-02-27T11:09:27.808Z</time>
      </trkpt>
      <trkpt lat="44.35867" lon="5.13983">
        <ele>268</ele>
        <time>2022-02-27T11:09:28.808Z</time>
      </trkpt>
      <trkpt lat="44.35865" lon="5.13983">
        <ele>267</ele>
        <time>2022-02-27T11:09:29.807Z</time>
      </trkpt>
      <trkpt lat="44.35864" lon="5.13983">
        <ele>267</ele>
        <time>2022-02-27T11:09:30.807Z</time>
      </trkpt>
      <trkpt lat="44.35863" lon="5.13983">
        <ele>267</ele>
        <time>2022-02-27T11:09:31.807Z</time>
      </trkpt>
      <trkpt lat="44.35861" lon="5.13984">
        <ele>267</ele>
        <time>2022-02-27T11:09:32.808Z</time>
      </trkpt>
      <trkpt lat="44.35858" lon="5.13985">
        <ele>267</ele>
        <time>2022-02-27T11:09:33.808Z</time>
      </trkpt>
      <trkpt lat="44.35856" lon="5.13986">
        <ele>267</ele>
        <time>2022-02-27T11:09:34.807Z</time>
      </trkpt>
      <trkpt lat="44.35853" lon="5.13987">
        <ele>267</ele>
        <time>2022-02-27T11:09:35.808Z</time>
      </trkpt>
      <trkpt lat="44.35851" lon="5.13988">
        <ele>267</ele>
        <time>2022-02-27T11:09:36.808Z</time>
      </trkpt>
      <trkpt lat="44.35849" lon="5.13989">
        <ele>267</ele>
        <time>2022-02-27T11:09:37.808Z</time>
      </trkpt>
      <trkpt lat="44.35846" lon="5.13991">
        <ele>267</ele>
        <time>2022-02-27T11:09:38.807Z</time>
      </trkpt>
      <trkpt lat="44.35844" lon="5.13992">
        <ele>267</ele>
        <time>2022-02-27T11:09:39.808Z</time>
      </trkpt>
      <trkpt lat="44.35843" lon="5.13994">
        <ele>267</ele>
        <time>2022-02-27T11:09:40.807Z</time>
      </trkpt>
      <trkpt lat="44.35843" lon="5.13997">
        <ele>266</ele>
        <time>2022-02-27T11:09:41.807Z</time>
      </trkpt>
      <trkpt lat="44.35844" lon="5.13999">
        <ele>266</ele>
        <time>2022-02-27T11:09:42.808Z</time>
      </trkpt>
      <trkpt lat="44.35845" lon="5.14">
        <ele>266</ele>
        <time>2022-02-27T11:09:43.808Z</time>
      </trkpt>
      <trkpt lat="44.35846" lon="5.14003">
        <ele>266</ele>
        <time>2022-02-27T11:09:44.808Z</time>
      </trkpt>
      <trkpt lat="44.35847" lon="5.14005">
        <ele>265</ele>
        <time>2022-02-27T11:09:45.808Z</time>
      </trkpt>
      <trkpt lat="44.35849" lon="5.14008">
        <ele>265</ele>
        <time>2022-02-27T11:09:46.808Z</time>
      </trkpt>
      <trkpt lat="44.3585" lon="5.14011">
        <ele>265</ele>
        <time>2022-02-27T11:09:47.808Z</time>
      </trkpt>
      <trkpt lat="44.35851" lon="5.14014">
        <ele>265</ele>
        <time>2022-02-27T11:09:48.807Z</time>
      </trkpt>
      <trkpt lat="44.35852" lon="5.14017">
        <ele>265</ele>
        <time>2022-02-27T11:09:49.807Z</time>
      </trkpt>
      <trkpt lat="44.35854" lon="5.1402">
        <ele>265</ele>
        <time>2022-02-27T11:09:50.808Z</time>
      </trkpt>
      <trkpt lat="44.35856" lon="5.14024">
        <ele>264</ele>
        <time>2022-02-27T11:09:51.808Z</time>
      </trkpt>
      <trkpt lat="44.35857" lon="5.14027">
        <ele>264</ele>
        <time>2022-02-27T11:09:52.808Z</time>
      </trkpt>
      <trkpt lat="44.35858" lon="5.1403">
        <ele>264</ele>
        <time>2022-02-27T11:09:53.807Z</time>
      </trkpt>
      <trkpt lat="44.3586" lon="5.14032">
        <ele>264</ele>
        <time>2022-02-27T11:09:54.807Z</time>
      </trkpt>
      <trkpt lat="44.35862" lon="5.14035">
        <ele>263</ele>
        <time>2022-02-27T11:09:55.807Z</time>
      </trkpt>
      <trkpt lat="44.35863" lon="5.14037">
        <ele>263</ele>
        <time>2022-02-27T11:09:56.808Z</time>
      </trkpt>
      <trkpt lat="44.35864" lon="5.14038">
        <ele>263</ele>
        <time>2022-02-27T11:09:57.808Z</time>
      </trkpt>
      <trkpt lat="44.35866" lon="5.14041">
        <ele>263</ele>
        <time>2022-02-27T11:09:58.808Z</time>
      </trkpt>
      <trkpt lat="44.35867" lon="5.14043">
        <ele>263</ele>
        <time>2022-02-27T11:09:59.807Z</time>
      </trkpt>
      <trkpt lat="44.35868" lon="5.14046">
        <ele>263</ele>
        <time>2022-02-27T11:10:00.808Z</time>
      </trkpt>
      <trkpt lat="44.35867" lon="5.14049">
        <ele>264</ele>
        <time>2022-02-27T11:10:01.808Z</time>
      </trkpt>
      <trkpt lat="44.35867" lon="5.14052">
        <ele>264</ele>
        <time>2022-02-27T11:10:02.808Z</time>
      </trkpt>
      <trkpt lat="44.35867" lon="5.14056">
        <ele>265</ele>
        <time>2022-02-27T11:10:03.808Z</time>
      </trkpt>
      <trkpt lat="44.35867" lon="5.1406">
        <ele>265</ele>
        <time>2022-02-27T11:10:04.807Z</time>
      </trkpt>
      <trkpt lat="44.35868" lon="5.14063">
        <ele>266</ele>
        <time>2022-02-27T11:10:05.808Z</time>
      </trkpt>
      <trkpt lat="44.35868" lon="5.14066">
        <ele>266</ele>
        <time>2022-02-27T11:10:06.807Z</time>
      </trkpt>
      <trkpt lat="44.35869" lon="5.14069">
        <ele>267</ele>
        <time>2022-02-27T11:10:07.808Z</time>
      </trkpt>
      <trkpt lat="44.35871" lon="5.1407">
        <ele>267</ele>
        <time>2022-02-27T11:10:08.808Z</time>
      </trkpt>
      <trkpt lat="44.35873" lon="5.14071">
        <ele>268</ele>
        <time>2022-02-27T11:10:09.808Z</time>
      </trkpt>
      <trkpt lat="44.35873" lon="5.14071">
        <ele>268</ele>
        <time>2022-02-27T11:10:10.808Z</time>
      </trkpt>
      <trkpt lat="44.35874" lon="5.14071">
        <ele>269</ele>
        <time>2022-02-27T11:10:11.808Z</time>
      </trkpt>
      <trkpt lat="44.35874" lon="5.14073">
        <ele>269</ele>
        <time>2022-02-27T11:10:12.808Z</time>
      </trkpt>
      <trkpt lat="44.35875" lon="5.14075">
        <ele>270</ele>
        <time>2022-02-27T11:10:13.807Z</time>
      </trkpt>
      <trkpt lat="44.35875" lon="5.14078">
        <ele>271</ele>
        <time>2022-02-27T11:10:14.808Z</time>
      </trkpt>
      <trkpt lat="44.35876" lon="5.14082">
        <ele>271</ele>
        <time>2022-02-27T11:10:15.808Z</time>
      </trkpt>
      <trkpt lat="44.35875" lon="5.14085">
        <ele>272</ele>
        <time>2022-02-27T11:10:16.807Z</time>
      </trkpt>
      <trkpt lat="44.35874" lon="5.14088">
        <ele>272</ele>
        <time>2022-02-27T11:10:17.808Z</time>
      </trkpt>
      <trkpt lat="44.35873" lon="5.1409">
        <ele>272</ele>
        <time>2022-02-27T11:10:18.808Z</time>
      </trkpt>
      <trkpt lat="44.35872" lon="5.14092">
        <ele>272</ele>
        <time>2022-02-27T11:10:19.808Z</time>
      </trkpt>
      <trkpt lat="44.3587" lon="5.14095">
        <ele>272</ele>
        <time>2022-02-27T11:10:20.807Z</time>
      </trkpt>
      <trkpt lat="44.35868" lon="5.14097">
        <ele>272</ele>
        <time>2022-02-27T11:10:21.807Z</time>
      </trkpt>
      <trkpt lat="44.35866" lon="5.141">
        <ele>272</ele>
        <time>2022-02-27T11:10:22.807Z</time>
      </trkpt>
      <trkpt lat="44.35864" lon="5.14102">
        <ele>272</ele>
        <time>2022-02-27T11:10:23.808Z</time>
      </trkpt>
      <trkpt lat="44.35862" lon="5.14104">
        <ele>273</ele>
        <time>2022-02-27T11:10:24.807Z</time>
      </trkpt>
      <trkpt lat="44.3586" lon="5.14106">
        <ele>273</ele>
        <time>2022-02-27T11:10:25.807Z</time>
      </trkpt>
      <trkpt lat="44.35858" lon="5.14108">
        <ele>273</ele>
        <time>2022-02-27T11:10:26.808Z</time>
      </trkpt>
      <trkpt lat="44.35856" lon="5.14109">
        <ele>273</ele>
        <time>2022-02-27T11:10:27.808Z</time>
      </trkpt>
      <trkpt lat="44.35855" lon="5.14111">
        <ele>273</ele>
        <time>2022-02-27T11:10:28.808Z</time>
      </trkpt>
      <trkpt lat="44.35853" lon="5.14113">
        <ele>273</ele>
        <time>2022-02-27T11:10:29.807Z</time>
      </trkpt>
      <trkpt lat="44.35851" lon="5.14115">
        <ele>273</ele>
        <time>2022-02-27T11:10:30.807Z</time>
      </trkpt>
      <trkpt lat="44.35849" lon="5.14117">
        <ele>273</ele>
        <time>2022-02-27T11:10:31.808Z</time>
      </trkpt>
      <trkpt lat="44.35847" lon="5.14119">
        <ele>273</ele>
        <time>2022-02-27T11:10:32.808Z</time>
      </trkpt>
      <trkpt lat="44.35846" lon="5.14121">
        <ele>273</ele>
        <time>2022-02-27T11:10:33.808Z</time>
      </trkpt>
      <trkpt lat="44.35844" lon="5.14123">
        <ele>273</ele>
        <time>2022-02-27T11:10:34.807Z</time>
      </trkpt>
      <trkpt lat="44.35842" lon="5.14125">
        <ele>273</ele>
        <time>2022-02-27T11:10:35.808Z</time>
      </trkpt>
      <trkpt lat="44.3584" lon="5.14126">
        <ele>273</ele>
        <time>2022-02-27T11:10:36.808Z</time>
      </trkpt>
      <trkpt lat="44.35838" lon="5.14129">
        <ele>273</ele>
        <time>2022-02-27T11:10:37.808Z</time>
      </trkpt>
      <trkpt lat="44.35836" lon="5.14131">
        <ele>272</ele>
        <time>2022-02-27T11:10:38.807Z</time>
      </trkpt>
      <trkpt lat="44.35834" lon="5.14133">
        <ele>272</ele>
        <time>2022-02-27T11:10:39.807Z</time>
      </trkpt>
      <trkpt lat="44.35833" lon="5.14135">
        <ele>272</ele>
        <time>2022-02-27T11:10:40.807Z</time>
      </trkpt>
      <trkpt lat="44.35831" lon="5.14137">
        <ele>272</ele>
        <time>2022-02-27T11:10:41.808Z</time>
      </trkpt>
      <trkpt lat="44.35829" lon="5.14139">
        <ele>272</ele>
        <time>2022-02-27T11:10:42.808Z</time>
      </trkpt>
      <trkpt lat="44.35827" lon="5.14141">
        <ele>272</ele>
        <time>2022-02-27T11:10:43.808Z</time>
      </trkpt>
      <trkpt lat="44.35825" lon="5.14143">
        <ele>272</ele>
        <time>2022-02-27T11:10:44.808Z</time>
      </trkpt>
      <trkpt lat="44.35823" lon="5.14145">
        <ele>272</ele>
        <time>2022-02-27T11:10:45.808Z</time>
      </trkpt>
      <trkpt lat="44.35821" lon="5.14147">
        <ele>272</ele>
        <time>2022-02-27T11:10:46.808Z</time>
      </trkpt>
      <trkpt lat="44.35819" lon="5.14149">
        <ele>272</ele>
        <time>2022-02-27T11:10:47.808Z</time>
      </trkpt>
      <trkpt lat="44.35817" lon="5.1415">
        <ele>273</ele>
        <time>2022-02-27T11:10:48.808Z</time>
      </trkpt>
      <trkpt lat="44.35814" lon="5.14152">
        <ele>273</ele>
        <time>2022-02-27T11:10:49.807Z</time>
      </trkpt>
      <trkpt lat="44.35813" lon="5.14155">
        <ele>273</ele>
        <time>2022-02-27T11:10:50.807Z</time>
      </trkpt>
      <trkpt lat="44.35811" lon="5.14157">
        <ele>274</ele>
        <time>2022-02-27T11:10:51.808Z</time>
      </trkpt>
      <trkpt lat="44.35809" lon="5.14159">
        <ele>274</ele>
        <time>2022-02-27T11:10:52.808Z</time>
      </trkpt>
      <trkpt lat="44.35807" lon="5.14161">
        <ele>275</ele>
        <time>2022-02-27T11:10:53.807Z</time>
      </trkpt>
      <trkpt lat="44.35805" lon="5.14163">
        <ele>275</ele>
        <time>2022-02-27T11:10:54.807Z</time>
      </trkpt>
      <trkpt lat="44.35803" lon="5.14165">
        <ele>275</ele>
        <time>2022-02-27T11:10:55.808Z</time>
      </trkpt>
      <trkpt lat="44.35802" lon="5.14168">
        <ele>275</ele>
        <time>2022-02-27T11:10:56.808Z</time>
      </trkpt>
      <trkpt lat="44.35801" lon="5.1417">
        <ele>275</ele>
        <time>2022-02-27T11:10:57.808Z</time>
      </trkpt>
      <trkpt lat="44.35801" lon="5.14173">
        <ele>275</ele>
        <time>2022-02-27T11:10:58.808Z</time>
      </trkpt>
      <trkpt lat="44.35802" lon="5.14175">
        <ele>274</ele>
        <time>2022-02-27T11:10:59.808Z</time>
      </trkpt>
      <trkpt lat="44.35803" lon="5.14178">
        <ele>274</ele>
        <time>2022-02-27T11:11:00.808Z</time>
      </trkpt>
      <trkpt lat="44.35805" lon="5.14179">
        <ele>274</ele>
        <time>2022-02-27T11:11:01.807Z</time>
      </trkpt>
      <trkpt lat="44.35806" lon="5.14181">
        <ele>274</ele>
        <time>2022-02-27T11:11:02.807Z</time>
      </trkpt>
      <trkpt lat="44.3581" lon="5.14183">
        <ele>274</ele>
        <time>2022-02-27T11:11:03.808Z</time>
      </trkpt>
      <trkpt lat="44.35812" lon="5.14186">
        <ele>274</ele>
        <time>2022-02-27T11:11:04.808Z</time>
      </trkpt>
      <trkpt lat="44.35813" lon="5.14188">
        <ele>275</ele>
        <time>2022-02-27T11:11:05.807Z</time>
      </trkpt>
      <trkpt lat="44.35815" lon="5.14191">
        <ele>275</ele>
        <time>2022-02-27T11:11:06.808Z</time>
      </trkpt>
      <trkpt lat="44.35816" lon="5.14193">
        <ele>274</ele>
        <time>2022-02-27T11:11:07.807Z</time>
      </trkpt>
      <trkpt lat="44.35818" lon="5.14195">
        <ele>274</ele>
        <time>2022-02-27T11:11:08.808Z</time>
      </trkpt>
      <trkpt lat="44.3582" lon="5.14198">
        <ele>274</ele>
        <time>2022-02-27T11:11:09.808Z</time>
      </trkpt>
      <trkpt lat="44.35822" lon="5.142">
        <ele>274</ele>
        <time>2022-02-27T11:11:10.807Z</time>
      </trkpt>
      <trkpt lat="44.35824" lon="5.14202">
        <ele>274</ele>
        <time>2022-02-27T11:11:11.807Z</time>
      </trkpt>
      <trkpt lat="44.35826" lon="5.14205">
        <ele>274</ele>
        <time>2022-02-27T11:11:12.807Z</time>
      </trkpt>
      <trkpt lat="44.35828" lon="5.14207">
        <ele>274</ele>
        <time>2022-02-27T11:11:13.807Z</time>
      </trkpt>
      <trkpt lat="44.3583" lon="5.14209">
        <ele>274</ele>
        <time>2022-02-27T11:11:14.808Z</time>
      </trkpt>
      <trkpt lat="44.35832" lon="5.14211">
        <ele>275</ele>
        <time>2022-02-27T11:11:15.808Z</time>
      </trkpt>
      <trkpt lat="44.35834" lon="5.14213">
        <ele>275</ele>
        <time>2022-02-27T11:11:16.808Z</time>
      </trkpt>
      <trkpt lat="44.35835" lon="5.14216">
        <ele>275</ele>
        <time>2022-02-27T11:11:17.807Z</time>
      </trkpt>
      <trkpt lat="44.35837" lon="5.14218">
        <ele>274</ele>
        <time>2022-02-27T11:11:18.808Z</time>
      </trkpt>
      <trkpt lat="44.35839" lon="5.1422">
        <ele>274</ele>
        <time>2022-02-27T11:11:19.808Z</time>
      </trkpt>
      <trkpt lat="44.3584" lon="5.14222">
        <ele>275</ele>
        <time>2022-02-27T11:11:20.808Z</time>
      </trkpt>
      <trkpt lat="44.35841" lon="5.14224">
        <ele>275</ele>
        <time>2022-02-27T11:11:21.808Z</time>
      </trkpt>
      <trkpt lat="44.35843" lon="5.14226">
        <ele>275</ele>
        <time>2022-02-27T11:11:22.808Z</time>
      </trkpt>
      <trkpt lat="44.35844" lon="5.14229">
        <ele>275</ele>
        <time>2022-02-27T11:11:23.808Z</time>
      </trkpt>
      <trkpt lat="44.35845" lon="5.14231">
        <ele>275</ele>
        <time>2022-02-27T11:11:24.808Z</time>
      </trkpt>
      <trkpt lat="44.35847" lon="5.14234">
        <ele>275</ele>
        <time>2022-02-27T11:11:25.808Z</time>
      </trkpt>
      <trkpt lat="44.35849" lon="5.14236">
        <ele>275</ele>
        <time>2022-02-27T11:11:26.808Z</time>
      </trkpt>
      <trkpt lat="44.35851" lon="5.14238">
        <ele>276</ele>
        <time>2022-02-27T11:11:27.808Z</time>
      </trkpt>
      <trkpt lat="44.35853" lon="5.14241">
        <ele>276</ele>
        <time>2022-02-27T11:11:28.808Z</time>
      </trkpt>
      <trkpt lat="44.35855" lon="5.14243">
        <ele>277</ele>
        <time>2022-02-27T11:11:29.807Z</time>
      </trkpt>
      <trkpt lat="44.35856" lon="5.14245">
        <ele>277</ele>
        <time>2022-02-27T11:11:30.807Z</time>
      </trkpt>
      <trkpt lat="44.35858" lon="5.14248">
        <ele>277</ele>
        <time>2022-02-27T11:11:31.808Z</time>
      </trkpt>
      <trkpt lat="44.35859" lon="5.1425">
        <ele>277</ele>
        <time>2022-02-27T11:11:32.808Z</time>
      </trkpt>
      <trkpt lat="44.3586" lon="5.14253">
        <ele>277</ele>
        <time>2022-02-27T11:11:33.808Z</time>
      </trkpt>
      <trkpt lat="44.35861" lon="5.14255">
        <ele>276</ele>
        <time>2022-02-27T11:11:34.807Z</time>
      </trkpt>
      <trkpt lat="44.35862" lon="5.14258">
        <ele>276</ele>
        <time>2022-02-27T11:11:35.808Z</time>
      </trkpt>
      <trkpt lat="44.35863" lon="5.14261">
        <ele>275</ele>
        <time>2022-02-27T11:11:36.808Z</time>
      </trkpt>
      <trkpt lat="44.35865" lon="5.14263">
        <ele>275</ele>
        <time>2022-02-27T11:11:37.808Z</time>
      </trkpt>
      <trkpt lat="44.35866" lon="5.14266">
        <ele>275</ele>
        <time>2022-02-27T11:11:38.808Z</time>
      </trkpt>
      <trkpt lat="44.35868" lon="5.14268">
        <ele>275</ele>
        <time>2022-02-27T11:11:39.808Z</time>
      </trkpt>
      <trkpt lat="44.35869" lon="5.1427">
        <ele>275</ele>
        <time>2022-02-27T11:11:40.808Z</time>
      </trkpt>
      <trkpt lat="44.35871" lon="5.14272">
        <ele>276</ele>
        <time>2022-02-27T11:11:41.808Z</time>
      </trkpt>
      <trkpt lat="44.35873" lon="5.14274">
        <ele>276</ele>
        <time>2022-02-27T11:11:42.807Z</time>
      </trkpt>
      <trkpt lat="44.35875" lon="5.14276">
        <ele>276</ele>
        <time>2022-02-27T11:11:43.808Z</time>
      </trkpt>
      <trkpt lat="44.35877" lon="5.14279">
        <ele>276</ele>
        <time>2022-02-27T11:11:44.807Z</time>
      </trkpt>
      <trkpt lat="44.35879" lon="5.14281">
        <ele>277</ele>
        <time>2022-02-27T11:11:45.808Z</time>
      </trkpt>
      <trkpt lat="44.35881" lon="5.14283">
        <ele>277</ele>
        <time>2022-02-27T11:11:46.808Z</time>
      </trkpt>
      <trkpt lat="44.35883" lon="5.14286">
        <ele>277</ele>
        <time>2022-02-27T11:11:47.808Z</time>
      </trkpt>
      <trkpt lat="44.35885" lon="5.14288">
        <ele>277</ele>
        <time>2022-02-27T11:11:48.808Z</time>
      </trkpt>
      <trkpt lat="44.35888" lon="5.14291">
        <ele>278</ele>
        <time>2022-02-27T11:11:49.808Z</time>
      </trkpt>
      <trkpt lat="44.3589" lon="5.14294">
        <ele>278</ele>
        <time>2022-02-27T11:11:50.808Z</time>
      </trkpt>
      <trkpt lat="44.35892" lon="5.14296">
        <ele>279</ele>
        <time>2022-02-27T11:11:51.808Z</time>
      </trkpt>
      <trkpt lat="44.35894" lon="5.14298">
        <ele>279</ele>
        <time>2022-02-27T11:11:52.808Z</time>
      </trkpt>
      <trkpt lat="44.35896" lon="5.14301">
        <ele>279</ele>
        <time>2022-02-27T11:11:53.807Z</time>
      </trkpt>
      <trkpt lat="44.35897" lon="5.14304">
        <ele>279</ele>
        <time>2022-02-27T11:11:54.808Z</time>
      </trkpt>
      <trkpt lat="44.35899" lon="5.14307">
        <ele>279</ele>
        <time>2022-02-27T11:11:55.808Z</time>
      </trkpt>
      <trkpt lat="44.35901" lon="5.14309">
        <ele>280</ele>
        <time>2022-02-27T11:11:56.808Z</time>
      </trkpt>
      <trkpt lat="44.35903" lon="5.14312">
        <ele>280</ele>
        <time>2022-02-27T11:11:57.808Z</time>
      </trkpt>
      <trkpt lat="44.35904" lon="5.14315">
        <ele>280</ele>
        <time>2022-02-27T11:11:58.808Z</time>
      </trkpt>
      <trkpt lat="44.35905" lon="5.14318">
        <ele>280</ele>
        <time>2022-02-27T11:11:59.807Z</time>
      </trkpt>
      <trkpt lat="44.35906" lon="5.1432">
        <ele>280</ele>
        <time>2022-02-27T11:12:00.808Z</time>
      </trkpt>
      <trkpt lat="44.35908" lon="5.14322">
        <ele>280</ele>
        <time>2022-02-27T11:12:01.808Z</time>
      </trkpt>
      <trkpt lat="44.35909" lon="5.14325">
        <ele>279</ele>
        <time>2022-02-27T11:12:02.808Z</time>
      </trkpt>
      <trkpt lat="44.35911" lon="5.14327">
        <ele>279</ele>
        <time>2022-02-27T11:12:03.808Z</time>
      </trkpt>
      <trkpt lat="44.35913" lon="5.14329">
        <ele>279</ele>
        <time>2022-02-27T11:12:04.808Z</time>
      </trkpt>
      <trkpt lat="44.35914" lon="5.14332">
        <ele>279</ele>
        <time>2022-02-27T11:12:05.808Z</time>
      </trkpt>
      <trkpt lat="44.35916" lon="5.14334">
        <ele>279</ele>
        <time>2022-02-27T11:12:06.807Z</time>
      </trkpt>
      <trkpt lat="44.35918" lon="5.14336">
        <ele>279</ele>
        <time>2022-02-27T11:12:07.808Z</time>
      </trkpt>
      <trkpt lat="44.3592" lon="5.14339">
        <ele>279</ele>
        <time>2022-02-27T11:12:08.807Z</time>
      </trkpt>
      <trkpt lat="44.35921" lon="5.14342">
        <ele>279</ele>
        <time>2022-02-27T11:12:09.808Z</time>
      </trkpt>
      <trkpt lat="44.35922" lon="5.14345">
        <ele>279</ele>
        <time>2022-02-27T11:12:10.808Z</time>
      </trkpt>
      <trkpt lat="44.35923" lon="5.14348">
        <ele>279</ele>
        <time>2022-02-27T11:12:11.808Z</time>
      </trkpt>
      <trkpt lat="44.35925" lon="5.14351">
        <ele>279</ele>
        <time>2022-02-27T11:12:12.807Z</time>
      </trkpt>
      <trkpt lat="44.35925" lon="5.14355">
        <ele>279</ele>
        <time>2022-02-27T11:12:13.808Z</time>
      </trkpt>
      <trkpt lat="44.35926" lon="5.14358">
        <ele>279</ele>
        <time>2022-02-27T11:12:14.807Z</time>
      </trkpt>
      <trkpt lat="44.35928" lon="5.1436">
        <ele>279</ele>
        <time>2022-02-27T11:12:15.807Z</time>
      </trkpt>
      <trkpt lat="44.35929" lon="5.14363">
        <ele>279</ele>
        <time>2022-02-27T11:12:16.807Z</time>
      </trkpt>
      <trkpt lat="44.35931" lon="5.14366">
        <ele>278</ele>
        <time>2022-02-27T11:12:17.808Z</time>
      </trkpt>
      <trkpt lat="44.35933" lon="5.14368">
        <ele>278</ele>
        <time>2022-02-27T11:12:18.807Z</time>
      </trkpt>
      <trkpt lat="44.35936" lon="5.1437">
        <ele>278</ele>
        <time>2022-02-27T11:12:19.807Z</time>
      </trkpt>
      <trkpt lat="44.35938" lon="5.14373">
        <ele>278</ele>
        <time>2022-02-27T11:12:20.808Z</time>
      </trkpt>
      <trkpt lat="44.3594" lon="5.14375">
        <ele>278</ele>
        <time>2022-02-27T11:12:21.807Z</time>
      </trkpt>
      <trkpt lat="44.35942" lon="5.14377">
        <ele>278</ele>
        <time>2022-02-27T11:12:22.808Z</time>
      </trkpt>
      <trkpt lat="44.35944" lon="5.14379">
        <ele>278</ele>
        <time>2022-02-27T11:12:23.808Z</time>
      </trkpt>
      <trkpt lat="44.35946" lon="5.14381">
        <ele>278</ele>
        <time>2022-02-27T11:12:24.807Z</time>
      </trkpt>
      <trkpt lat="44.35948" lon="5.14383">
        <ele>278</ele>
        <time>2022-02-27T11:12:25.807Z</time>
      </trkpt>
      <trkpt lat="44.3595" lon="5.14384">
        <ele>278</ele>
        <time>2022-02-27T11:12:26.808Z</time>
      </trkpt>
      <trkpt lat="44.35952" lon="5.14386">
        <ele>278</ele>
        <time>2022-02-27T11:12:27.808Z</time>
      </trkpt>
      <trkpt lat="44.35954" lon="5.14388">
        <ele>279</ele>
        <time>2022-02-27T11:12:28.807Z</time>
      </trkpt>
      <trkpt lat="44.35955" lon="5.1439">
        <ele>279</ele>
        <time>2022-02-27T11:12:29.808Z</time>
      </trkpt>
      <trkpt lat="44.35957" lon="5.14391">
        <ele>280</ele>
        <time>2022-02-27T11:12:30.808Z</time>
      </trkpt>
      <trkpt lat="44.35959" lon="5.14393">
        <ele>280</ele>
        <time>2022-02-27T11:12:31.808Z</time>
      </trkpt>
      <trkpt lat="44.3596" lon="5.14395">
        <ele>280</ele>
        <time>2022-02-27T11:12:32.808Z</time>
      </trkpt>
      <trkpt lat="44.35961" lon="5.14398">
        <ele>280</ele>
        <time>2022-02-27T11:12:33.808Z</time>
      </trkpt>
      <trkpt lat="44.35962" lon="5.14401">
        <ele>280</ele>
        <time>2022-02-27T11:12:34.807Z</time>
      </trkpt>
      <trkpt lat="44.35962" lon="5.14405">
        <ele>279</ele>
        <time>2022-02-27T11:12:35.807Z</time>
      </trkpt>
      <trkpt lat="44.35961" lon="5.14409">
        <ele>279</ele>
        <time>2022-02-27T11:12:36.807Z</time>
      </trkpt>
      <trkpt lat="44.35961" lon="5.14412">
        <ele>278</ele>
        <time>2022-02-27T11:12:37.808Z</time>
      </trkpt>
      <trkpt lat="44.35961" lon="5.14416">
        <ele>278</ele>
        <time>2022-02-27T11:12:38.808Z</time>
      </trkpt>
      <trkpt lat="44.35959" lon="5.1442">
        <ele>277</ele>
        <time>2022-02-27T11:12:39.808Z</time>
      </trkpt>
      <trkpt lat="44.35957" lon="5.14424">
        <ele>277</ele>
        <time>2022-02-27T11:12:40.807Z</time>
      </trkpt>
      <trkpt lat="44.35956" lon="5.14427">
        <ele>276</ele>
        <time>2022-02-27T11:12:41.808Z</time>
      </trkpt>
      <trkpt lat="44.35955" lon="5.14431">
        <ele>275</ele>
        <time>2022-02-27T11:12:42.808Z</time>
      </trkpt>
      <trkpt lat="44.35955" lon="5.14435">
        <ele>275</ele>
        <time>2022-02-27T11:12:43.807Z</time>
      </trkpt>
      <trkpt lat="44.35954" lon="5.14439">
        <ele>275</ele>
        <time>2022-02-27T11:12:44.807Z</time>
      </trkpt>
      <trkpt lat="44.35954" lon="5.14443">
        <ele>274</ele>
        <time>2022-02-27T11:12:45.808Z</time>
      </trkpt>
      <trkpt lat="44.35953" lon="5.14447">
        <ele>274</ele>
        <time>2022-02-27T11:12:46.807Z</time>
      </trkpt>
      <trkpt lat="44.35953" lon="5.14451">
        <ele>274</ele>
        <time>2022-02-27T11:12:47.808Z</time>
      </trkpt>
      <trkpt lat="44.35953" lon="5.14455">
        <ele>273</ele>
        <time>2022-02-27T11:12:48.808Z</time>
      </trkpt>
      <trkpt lat="44.35953" lon="5.14459">
        <ele>273</ele>
        <time>2022-02-27T11:12:49.808Z</time>
      </trkpt>
      <trkpt lat="44.35953" lon="5.14463">
        <ele>273</ele>
        <time>2022-02-27T11:12:50.808Z</time>
      </trkpt>
      <trkpt lat="44.35953" lon="5.14466">
        <ele>272</ele>
        <time>2022-02-27T11:12:51.807Z</time>
      </trkpt>
      <trkpt lat="44.35953" lon="5.1447">
        <ele>272</ele>
        <time>2022-02-27T11:12:52.808Z</time>
      </trkpt>
      <trkpt lat="44.35954" lon="5.14474">
        <ele>272</ele>
        <time>2022-02-27T11:12:53.808Z</time>
      </trkpt>
      <trkpt lat="44.35954" lon="5.14478">
        <ele>272</ele>
        <time>2022-02-27T11:12:54.808Z</time>
      </trkpt>
      <trkpt lat="44.35955" lon="5.14481">
        <ele>272</ele>
        <time>2022-02-27T11:12:55.808Z</time>
      </trkpt>
      <trkpt lat="44.35956" lon="5.14485">
        <ele>272</ele>
        <time>2022-02-27T11:12:56.807Z</time>
      </trkpt>
      <trkpt lat="44.35956" lon="5.14489">
        <ele>271</ele>
        <time>2022-02-27T11:12:57.807Z</time>
      </trkpt>
      <trkpt lat="44.35956" lon="5.14493">
        <ele>271</ele>
        <time>2022-02-27T11:12:58.808Z</time>
      </trkpt>
      <trkpt lat="44.35957" lon="5.14496">
        <ele>271</ele>
        <time>2022-02-27T11:12:59.808Z</time>
      </trkpt>
      <trkpt lat="44.35957" lon="5.145">
        <ele>271</ele>
        <time>2022-02-27T11:13:00.808Z</time>
      </trkpt>
      <trkpt lat="44.35958" lon="5.14503">
        <ele>271</ele>
        <time>2022-02-27T11:13:01.808Z</time>
      </trkpt>
      <trkpt lat="44.35958" lon="5.14507">
        <ele>271</ele>
        <time>2022-02-27T11:13:02.807Z</time>
      </trkpt>
      <trkpt lat="44.35958" lon="5.1451">
        <ele>271</ele>
        <time>2022-02-27T11:13:03.808Z</time>
      </trkpt>
      <trkpt lat="44.35958" lon="5.14514">
        <ele>271</ele>
        <time>2022-02-27T11:13:04.808Z</time>
      </trkpt>
      <trkpt lat="44.35957" lon="5.14517">
        <ele>271</ele>
        <time>2022-02-27T11:13:05.808Z</time>
      </trkpt>
      <trkpt lat="44.35957" lon="5.1452">
        <ele>271</ele>
        <time>2022-02-27T11:13:06.808Z</time>
      </trkpt>
      <trkpt lat="44.35955" lon="5.14523">
        <ele>271</ele>
        <time>2022-02-27T11:13:07.808Z</time>
      </trkpt>
      <trkpt lat="44.35953" lon="5.14526">
        <ele>271</ele>
        <time>2022-02-27T11:13:08.808Z</time>
      </trkpt>
      <trkpt lat="44.35951" lon="5.14528">
        <ele>271</ele>
        <time>2022-02-27T11:13:09.808Z</time>
      </trkpt>
      <trkpt lat="44.35948" lon="5.1453">
        <ele>271</ele>
        <time>2022-02-27T11:13:10.808Z</time>
      </trkpt>
      <trkpt lat="44.35944" lon="5.1453">
        <ele>271</ele>
        <time>2022-02-27T11:13:11.807Z</time>
      </trkpt>
      <trkpt lat="44.35942" lon="5.14531">
        <ele>272</ele>
        <time>2022-02-27T11:13:12.808Z</time>
      </trkpt>
      <trkpt lat="44.3594" lon="5.14531">
        <ele>272</ele>
        <time>2022-02-27T11:13:13.807Z</time>
      </trkpt>
      <trkpt lat="44.35937" lon="5.14531">
        <ele>273</ele>
        <time>2022-02-27T11:13:14.808Z</time>
      </trkpt>
      <trkpt lat="44.35935" lon="5.14531">
        <ele>274</ele>
        <time>2022-02-27T11:13:15.808Z</time>
      </trkpt>
      <trkpt lat="44.35934" lon="5.14531">
        <ele>275</ele>
        <time>2022-02-27T11:13:16.808Z</time>
      </trkpt>
      <trkpt lat="44.35931" lon="5.1453">
        <ele>275</ele>
        <time>2022-02-27T11:13:17.808Z</time>
      </trkpt>
      <trkpt lat="44.35932" lon="5.14527">
        <ele>275</ele>
        <time>2022-02-27T11:13:18.807Z</time>
      </trkpt>
      <trkpt lat="44.35932" lon="5.14524">
        <ele>275</ele>
        <time>2022-02-27T11:13:19.808Z</time>
      </trkpt>
      <trkpt lat="44.35932" lon="5.14523">
        <ele>275</ele>
        <time>2022-02-27T11:13:20.807Z</time>
      </trkpt>
      <trkpt lat="44.35931" lon="5.14521">
        <ele>275</ele>
        <time>2022-02-27T11:13:21.808Z</time>
      </trkpt>
      <trkpt lat="44.3593" lon="5.1452">
        <ele>275</ele>
        <time>2022-02-27T11:13:22.808Z</time>
      </trkpt>
      <trkpt lat="44.35928" lon="5.1452">
        <ele>275</ele>
        <time>2022-02-27T11:13:23.807Z</time>
      </trkpt>
      <trkpt lat="44.35926" lon="5.14519">
        <ele>275</ele>
        <time>2022-02-27T11:13:24.808Z</time>
      </trkpt>
      <trkpt lat="44.35923" lon="5.14519">
        <ele>275</ele>
        <time>2022-02-27T11:13:25.807Z</time>
      </trkpt>
      <trkpt lat="44.35923" lon="5.1452">
        <ele>275</ele>
        <time>2022-02-27T11:13:26.807Z</time>
      </trkpt>
      <trkpt lat="44.35922" lon="5.14522">
        <ele>275</ele>
        <time>2022-02-27T11:13:27.808Z</time>
      </trkpt>
      <trkpt lat="44.35921" lon="5.14524">
        <ele>275</ele>
        <time>2022-02-27T11:13:28.808Z</time>
      </trkpt>
      <trkpt lat="44.3592" lon="5.14527">
        <ele>275</ele>
        <time>2022-02-27T11:13:29.807Z</time>
      </trkpt>
      <trkpt lat="44.35919" lon="5.1453">
        <ele>275</ele>
        <time>2022-02-27T11:13:30.808Z</time>
      </trkpt>
      <trkpt lat="44.35918" lon="5.14533">
        <ele>275</ele>
        <time>2022-02-27T11:13:31.808Z</time>
      </trkpt>
      <trkpt lat="44.35918" lon="5.14535">
        <ele>276</ele>
        <time>2022-02-27T11:13:32.808Z</time>
      </trkpt>
      <trkpt lat="44.35918" lon="5.14538">
        <ele>276</ele>
        <time>2022-02-27T11:13:33.808Z</time>
      </trkpt>
      <trkpt lat="44.35918" lon="5.1454">
        <ele>276</ele>
        <time>2022-02-27T11:13:34.808Z</time>
      </trkpt>
      <trkpt lat="44.35918" lon="5.14544">
        <ele>276</ele>
        <time>2022-02-27T11:13:35.807Z</time>
      </trkpt>
      <trkpt lat="44.35918" lon="5.14547">
        <ele>276</ele>
        <time>2022-02-27T11:13:36.808Z</time>
      </trkpt>
      <trkpt lat="44.35918" lon="5.14551">
        <ele>277</ele>
        <time>2022-02-27T11:13:37.808Z</time>
      </trkpt>
      <trkpt lat="44.35917" lon="5.14555">
        <ele>277</ele>
        <time>2022-02-27T11:13:38.807Z</time>
      </trkpt>
      <trkpt lat="44.35917" lon="5.14558">
        <ele>277</ele>
        <time>2022-02-27T11:13:39.808Z</time>
      </trkpt>
      <trkpt lat="44.35915" lon="5.14561">
        <ele>277</ele>
        <time>2022-02-27T11:13:40.808Z</time>
      </trkpt>
      <trkpt lat="44.35914" lon="5.14564">
        <ele>277</ele>
        <time>2022-02-27T11:13:41.808Z</time>
      </trkpt>
      <trkpt lat="44.35912" lon="5.14566">
        <ele>277</ele>
        <time>2022-02-27T11:13:42.807Z</time>
      </trkpt>
      <trkpt lat="44.3591" lon="5.14568">
        <ele>277</ele>
        <time>2022-02-27T11:13:43.807Z</time>
      </trkpt>
      <trkpt lat="44.35908" lon="5.1457">
        <ele>277</ele>
        <time>2022-02-27T11:13:44.808Z</time>
      </trkpt>
      <trkpt lat="44.35906" lon="5.14572">
        <ele>278</ele>
        <time>2022-02-27T11:13:45.807Z</time>
      </trkpt>
      <trkpt lat="44.35904" lon="5.14574">
        <ele>278</ele>
        <time>2022-02-27T11:13:46.808Z</time>
      </trkpt>
      <trkpt lat="44.35902" lon="5.14576">
        <ele>278</ele>
        <time>2022-02-27T11:13:47.808Z</time>
      </trkpt>
      <trkpt lat="44.359" lon="5.14579">
        <ele>279</ele>
        <time>2022-02-27T11:13:48.808Z</time>
      </trkpt>
      <trkpt lat="44.35899" lon="5.14582">
        <ele>279</ele>
        <time>2022-02-27T11:13:49.808Z</time>
      </trkpt>
      <trkpt lat="44.35898" lon="5.14585">
        <ele>279</ele>
        <time>2022-02-27T11:13:50.808Z</time>
      </trkpt>
      <trkpt lat="44.35898" lon="5.14588">
        <ele>279</ele>
        <time>2022-02-27T11:13:51.808Z</time>
      </trkpt>
      <trkpt lat="44.35898" lon="5.14591">
        <ele>280</ele>
        <time>2022-02-27T11:13:52.808Z</time>
      </trkpt>
      <trkpt lat="44.35898" lon="5.14595">
        <ele>280</ele>
        <time>2022-02-27T11:13:53.807Z</time>
      </trkpt>
      <trkpt lat="44.35897" lon="5.14598">
        <ele>280</ele>
        <time>2022-02-27T11:13:54.808Z</time>
      </trkpt>
      <trkpt lat="44.35897" lon="5.14601">
        <ele>280</ele>
        <time>2022-02-27T11:13:55.808Z</time>
      </trkpt>
      <trkpt lat="44.35896" lon="5.14604">
        <ele>279</ele>
        <time>2022-02-27T11:13:56.808Z</time>
      </trkpt>
      <trkpt lat="44.35895" lon="5.14608">
        <ele>278</ele>
        <time>2022-02-27T11:13:57.808Z</time>
      </trkpt>
      <trkpt lat="44.35894" lon="5.14612">
        <ele>278</ele>
        <time>2022-02-27T11:13:58.808Z</time>
      </trkpt>
      <trkpt lat="44.35893" lon="5.14615">
        <ele>277</ele>
        <time>2022-02-27T11:13:59.807Z</time>
      </trkpt>
      <trkpt lat="44.35893" lon="5.14618">
        <ele>277</ele>
        <time>2022-02-27T11:14:00.808Z</time>
      </trkpt>
      <trkpt lat="44.35894" lon="5.14621">
        <ele>277</ele>
        <time>2022-02-27T11:14:01.807Z</time>
      </trkpt>
      <trkpt lat="44.35894" lon="5.14624">
        <ele>276</ele>
        <time>2022-02-27T11:14:02.808Z</time>
      </trkpt>
      <trkpt lat="44.35896" lon="5.14627">
        <ele>275</ele>
        <time>2022-02-27T11:14:03.807Z</time>
      </trkpt>
      <trkpt lat="44.35896" lon="5.14631">
        <ele>275</ele>
        <time>2022-02-27T11:14:04.808Z</time>
      </trkpt>
      <trkpt lat="44.35896" lon="5.14634">
        <ele>274</ele>
        <time>2022-02-27T11:14:05.808Z</time>
      </trkpt>
      <trkpt lat="44.35897" lon="5.14638">
        <ele>273</ele>
        <time>2022-02-27T11:14:06.808Z</time>
      </trkpt>
      <trkpt lat="44.35897" lon="5.14641">
        <ele>273</ele>
        <time>2022-02-27T11:14:07.807Z</time>
      </trkpt>
      <trkpt lat="44.35897" lon="5.14644">
        <ele>273</ele>
        <time>2022-02-27T11:14:08.807Z</time>
      </trkpt>
      <trkpt lat="44.35898" lon="5.14646">
        <ele>273</ele>
        <time>2022-02-27T11:14:09.808Z</time>
      </trkpt>
      <trkpt lat="44.35898" lon="5.14649">
        <ele>273</ele>
        <time>2022-02-27T11:14:10.808Z</time>
      </trkpt>
      <trkpt lat="44.35898" lon="5.14651">
        <ele>272</ele>
        <time>2022-02-27T11:14:11.808Z</time>
      </trkpt>
      <trkpt lat="44.35898" lon="5.14654">
        <ele>272</ele>
        <time>2022-02-27T11:14:12.808Z</time>
      </trkpt>
      <trkpt lat="44.35899" lon="5.14656">
        <ele>272</ele>
        <time>2022-02-27T11:14:13.808Z</time>
      </trkpt>
      <trkpt lat="44.359" lon="5.14659">
        <ele>272</ele>
        <time>2022-02-27T11:14:14.808Z</time>
      </trkpt>
      <trkpt lat="44.359" lon="5.14662">
        <ele>273</ele>
        <time>2022-02-27T11:14:15.807Z</time>
      </trkpt>
      <trkpt lat="44.35902" lon="5.14664">
        <ele>273</ele>
        <time>2022-02-27T11:14:16.808Z</time>
      </trkpt>
      <trkpt lat="44.35903" lon="5.14668">
        <ele>273</ele>
        <time>2022-02-27T11:14:17.808Z</time>
      </trkpt>
      <trkpt lat="44.35904" lon="5.14671">
        <ele>273</ele>
        <time>2022-02-27T11:14:18.808Z</time>
      </trkpt>
      <trkpt lat="44.35905" lon="5.14674">
        <ele>274</ele>
        <time>2022-02-27T11:14:19.808Z</time>
      </trkpt>
      <trkpt lat="44.35907" lon="5.14677">
        <ele>275</ele>
        <time>2022-02-27T11:14:20.808Z</time>
      </trkpt>
      <trkpt lat="44.35908" lon="5.14681">
        <ele>275</ele>
        <time>2022-02-27T11:14:21.808Z</time>
      </trkpt>
      <trkpt lat="44.35909" lon="5.14684">
        <ele>276</ele>
        <time>2022-02-27T11:14:22.807Z</time>
      </trkpt>
      <trkpt lat="44.35909" lon="5.14687">
        <ele>276</ele>
        <time>2022-02-27T11:14:23.808Z</time>
      </trkpt>
      <trkpt lat="44.35909" lon="5.14691">
        <ele>277</ele>
        <time>2022-02-27T11:14:24.808Z</time>
      </trkpt>
      <trkpt lat="44.35909" lon="5.14694">
        <ele>277</ele>
        <time>2022-02-27T11:14:25.808Z</time>
      </trkpt>
      <trkpt lat="44.35909" lon="5.14696">
        <ele>277</ele>
        <time>2022-02-27T11:14:26.808Z</time>
      </trkpt>
      <trkpt lat="44.3591" lon="5.14699">
        <ele>277</ele>
        <time>2022-02-27T11:14:27.808Z</time>
      </trkpt>
      <trkpt lat="44.3591" lon="5.14702">
        <ele>277</ele>
        <time>2022-02-27T11:14:28.807Z</time>
      </trkpt>
      <trkpt lat="44.3591" lon="5.14705">
        <ele>278</ele>
        <time>2022-02-27T11:14:29.808Z</time>
      </trkpt>
      <trkpt lat="44.35911" lon="5.14708">
        <ele>278</ele>
        <time>2022-02-27T11:14:30.807Z</time>
      </trkpt>
      <trkpt lat="44.35911" lon="5.14712">
        <ele>278</ele>
        <time>2022-02-27T11:14:31.807Z</time>
      </trkpt>
      <trkpt lat="44.35912" lon="5.14715">
        <ele>278</ele>
        <time>2022-02-27T11:14:32.808Z</time>
      </trkpt>
      <trkpt lat="44.35913" lon="5.14718">
        <ele>279</ele>
        <time>2022-02-27T11:14:33.808Z</time>
      </trkpt>
      <trkpt lat="44.35914" lon="5.14721">
        <ele>279</ele>
        <time>2022-02-27T11:14:34.808Z</time>
      </trkpt>
      <trkpt lat="44.35915" lon="5.14724">
        <ele>279</ele>
        <time>2022-02-27T11:14:35.808Z</time>
      </trkpt>
      <trkpt lat="44.35916" lon="5.14728">
        <ele>280</ele>
        <time>2022-02-27T11:14:36.807Z</time>
      </trkpt>
      <trkpt lat="44.35917" lon="5.1473">
        <ele>280</ele>
        <time>2022-02-27T11:14:37.808Z</time>
      </trkpt>
      <trkpt lat="44.35917" lon="5.14734">
        <ele>280</ele>
        <time>2022-02-27T11:14:38.807Z</time>
      </trkpt>
      <trkpt lat="44.35917" lon="5.14737">
        <ele>280</ele>
        <time>2022-02-27T11:14:39.807Z</time>
      </trkpt>
      <trkpt lat="44.35917" lon="5.1474">
        <ele>281</ele>
        <time>2022-02-27T11:14:40.807Z</time>
      </trkpt>
      <trkpt lat="44.35916" lon="5.14742">
        <ele>280</ele>
        <time>2022-02-27T11:14:41.808Z</time>
      </trkpt>
      <trkpt lat="44.35914" lon="5.14745">
        <ele>280</ele>
        <time>2022-02-27T11:14:42.807Z</time>
      </trkpt>
      <trkpt lat="44.35913" lon="5.14748">
        <ele>280</ele>
        <time>2022-02-27T11:14:43.808Z</time>
      </trkpt>
      <trkpt lat="44.35913" lon="5.14752">
        <ele>280</ele>
        <time>2022-02-27T11:14:44.807Z</time>
      </trkpt>
      <trkpt lat="44.35912" lon="5.14755">
        <ele>280</ele>
        <time>2022-02-27T11:14:45.808Z</time>
      </trkpt>
      <trkpt lat="44.35913" lon="5.14758">
        <ele>280</ele>
        <time>2022-02-27T11:14:46.807Z</time>
      </trkpt>
      <trkpt lat="44.35913" lon="5.14762">
        <ele>280</ele>
        <time>2022-02-27T11:14:47.808Z</time>
      </trkpt>
      <trkpt lat="44.35914" lon="5.14765">
        <ele>280</ele>
        <time>2022-02-27T11:14:48.808Z</time>
      </trkpt>
      <trkpt lat="44.35915" lon="5.14768">
        <ele>280</ele>
        <time>2022-02-27T11:14:49.807Z</time>
      </trkpt>
      <trkpt lat="44.35916" lon="5.14771">
        <ele>280</ele>
        <time>2022-02-27T11:14:50.808Z</time>
      </trkpt>
      <trkpt lat="44.35916" lon="5.14775">
        <ele>280</ele>
        <time>2022-02-27T11:14:51.807Z</time>
      </trkpt>
      <trkpt lat="44.35916" lon="5.14778">
        <ele>279</ele>
        <time>2022-02-27T11:14:52.808Z</time>
      </trkpt>
      <trkpt lat="44.35917" lon="5.14782">
        <ele>279</ele>
        <time>2022-02-27T11:14:53.807Z</time>
      </trkpt>
      <trkpt lat="44.35916" lon="5.14785">
        <ele>279</ele>
        <time>2022-02-27T11:14:54.808Z</time>
      </trkpt>
      <trkpt lat="44.35916" lon="5.14789">
        <ele>278</ele>
        <time>2022-02-27T11:14:55.808Z</time>
      </trkpt>
      <trkpt lat="44.35916" lon="5.14793">
        <ele>278</ele>
        <time>2022-02-27T11:14:56.808Z</time>
      </trkpt>
      <trkpt lat="44.35915" lon="5.14796">
        <ele>278</ele>
        <time>2022-02-27T11:14:57.807Z</time>
      </trkpt>
      <trkpt lat="44.35915" lon="5.14799">
        <ele>278</ele>
        <time>2022-02-27T11:14:58.808Z</time>
      </trkpt>
      <trkpt lat="44.35914" lon="5.14803">
        <ele>278</ele>
        <time>2022-02-27T11:14:59.807Z</time>
      </trkpt>
      <trkpt lat="44.35913" lon="5.14806">
        <ele>278</ele>
        <time>2022-02-27T11:15:00.808Z</time>
      </trkpt>
      <trkpt lat="44.35912" lon="5.14809">
        <ele>278</ele>
        <time>2022-02-27T11:15:01.807Z</time>
      </trkpt>
      <trkpt lat="44.3591" lon="5.14811">
        <ele>278</ele>
        <time>2022-02-27T11:15:02.808Z</time>
      </trkpt>
      <trkpt lat="44.35909" lon="5.14814">
        <ele>278</ele>
        <time>2022-02-27T11:15:03.808Z</time>
      </trkpt>
      <trkpt lat="44.35908" lon="5.14817">
        <ele>278</ele>
        <time>2022-02-27T11:15:04.808Z</time>
      </trkpt>
      <trkpt lat="44.35906" lon="5.1482">
        <ele>278</ele>
        <time>2022-02-27T11:15:05.808Z</time>
      </trkpt>
      <trkpt lat="44.35905" lon="5.14822">
        <ele>278</ele>
        <time>2022-02-27T11:15:06.808Z</time>
      </trkpt>
      <trkpt lat="44.35903" lon="5.14825">
        <ele>279</ele>
        <time>2022-02-27T11:15:07.808Z</time>
      </trkpt>
      <trkpt lat="44.35902" lon="5.14827">
        <ele>279</ele>
        <time>2022-02-27T11:15:08.808Z</time>
      </trkpt>
      <trkpt lat="44.359" lon="5.1483">
        <ele>279</ele>
        <time>2022-02-27T11:15:09.808Z</time>
      </trkpt>
      <trkpt lat="44.35899" lon="5.14832">
        <ele>279</ele>
        <time>2022-02-27T11:15:10.808Z</time>
      </trkpt>
      <trkpt lat="44.35898" lon="5.14835">
        <ele>279</ele>
        <time>2022-02-27T11:15:11.808Z</time>
      </trkpt>
      <trkpt lat="44.35897" lon="5.14838">
        <ele>280</ele>
        <time>2022-02-27T11:15:12.808Z</time>
      </trkpt>
      <trkpt lat="44.35896" lon="5.14841">
        <ele>280</ele>
        <time>2022-02-27T11:15:13.808Z</time>
      </trkpt>
      <trkpt lat="44.35895" lon="5.14844">
        <ele>280</ele>
        <time>2022-02-27T11:15:14.808Z</time>
      </trkpt>
      <trkpt lat="44.35894" lon="5.14846">
        <ele>280</ele>
        <time>2022-02-27T11:15:15.808Z</time>
      </trkpt>
      <trkpt lat="44.35893" lon="5.1485">
        <ele>280</ele>
        <time>2022-02-27T11:15:16.808Z</time>
      </trkpt>
      <trkpt lat="44.35892" lon="5.14853">
        <ele>280</ele>
        <time>2022-02-27T11:15:17.807Z</time>
      </trkpt>
      <trkpt lat="44.35892" lon="5.14856">
        <ele>279</ele>
        <time>2022-02-27T11:15:18.807Z</time>
      </trkpt>
      <trkpt lat="44.35891" lon="5.14859">
        <ele>279</ele>
        <time>2022-02-27T11:15:19.808Z</time>
      </trkpt>
      <trkpt lat="44.3589" lon="5.14861">
        <ele>279</ele>
        <time>2022-02-27T11:15:20.807Z</time>
      </trkpt>
      <trkpt lat="44.3589" lon="5.14864">
        <ele>279</ele>
        <time>2022-02-27T11:15:21.808Z</time>
      </trkpt>
      <trkpt lat="44.3589" lon="5.14867">
        <ele>279</ele>
        <time>2022-02-27T11:15:22.808Z</time>
      </trkpt>
      <trkpt lat="44.3589" lon="5.14871">
        <ele>279</ele>
        <time>2022-02-27T11:15:23.808Z</time>
      </trkpt>
      <trkpt lat="44.3589" lon="5.14874">
        <ele>279</ele>
        <time>2022-02-27T11:15:24.807Z</time>
      </trkpt>
      <trkpt lat="44.35891" lon="5.14877">
        <ele>280</ele>
        <time>2022-02-27T11:15:25.808Z</time>
      </trkpt>
      <trkpt lat="44.35892" lon="5.1488">
        <ele>280</ele>
        <time>2022-02-27T11:15:26.807Z</time>
      </trkpt>
      <trkpt lat="44.35892" lon="5.14884">
        <ele>280</ele>
        <time>2022-02-27T11:15:27.808Z</time>
      </trkpt>
      <trkpt lat="44.35892" lon="5.14887">
        <ele>280</ele>
        <time>2022-02-27T11:15:28.808Z</time>
      </trkpt>
      <trkpt lat="44.35892" lon="5.14891">
        <ele>280</ele>
        <time>2022-02-27T11:15:29.807Z</time>
      </trkpt>
      <trkpt lat="44.35892" lon="5.14894">
        <ele>280</ele>
        <time>2022-02-27T11:15:30.808Z</time>
      </trkpt>
      <trkpt lat="44.35892" lon="5.14897">
        <ele>279</ele>
        <time>2022-02-27T11:15:31.807Z</time>
      </trkpt>
      <trkpt lat="44.35891" lon="5.149">
        <ele>279</ele>
        <time>2022-02-27T11:15:32.807Z</time>
      </trkpt>
      <trkpt lat="44.35892" lon="5.14903">
        <ele>278</ele>
        <time>2022-02-27T11:15:33.808Z</time>
      </trkpt>
      <trkpt lat="44.35894" lon="5.14905">
        <ele>277</ele>
        <time>2022-02-27T11:15:34.808Z</time>
      </trkpt>
      <trkpt lat="44.35895" lon="5.14908">
        <ele>277</ele>
        <time>2022-02-27T11:15:35.807Z</time>
      </trkpt>
      <trkpt lat="44.35896" lon="5.1491">
        <ele>277</ele>
        <time>2022-02-27T11:15:36.807Z</time>
      </trkpt>
      <trkpt lat="44.35897" lon="5.14914">
        <ele>276</ele>
        <time>2022-02-27T11:15:37.808Z</time>
      </trkpt>
      <trkpt lat="44.35898" lon="5.14917">
        <ele>276</ele>
        <time>2022-02-27T11:15:38.807Z</time>
      </trkpt>
      <trkpt lat="44.35898" lon="5.14919">
        <ele>276</ele>
        <time>2022-02-27T11:15:39.807Z</time>
      </trkpt>
      <trkpt lat="44.35898" lon="5.14922">
        <ele>276</ele>
        <time>2022-02-27T11:15:40.808Z</time>
      </trkpt>
      <trkpt lat="44.35899" lon="5.14926">
        <ele>276</ele>
        <time>2022-02-27T11:15:41.808Z</time>
      </trkpt>
      <trkpt lat="44.35899" lon="5.14929">
        <ele>276</ele>
        <time>2022-02-27T11:15:42.808Z</time>
      </trkpt>
      <trkpt lat="44.359" lon="5.14932">
        <ele>276</ele>
        <time>2022-02-27T11:15:43.808Z</time>
      </trkpt>
      <trkpt lat="44.359" lon="5.14935">
        <ele>276</ele>
        <time>2022-02-27T11:15:44.807Z</time>
      </trkpt>
      <trkpt lat="44.35901" lon="5.14938">
        <ele>277</ele>
        <time>2022-02-27T11:15:45.808Z</time>
      </trkpt>
      <trkpt lat="44.35901" lon="5.1494">
        <ele>277</ele>
        <time>2022-02-27T11:15:46.808Z</time>
      </trkpt>
      <trkpt lat="44.35901" lon="5.14943">
        <ele>277</ele>
        <time>2022-02-27T11:15:47.808Z</time>
      </trkpt>
      <trkpt lat="44.35902" lon="5.14945">
        <ele>278</ele>
        <time>2022-02-27T11:15:48.808Z</time>
      </trkpt>
      <trkpt lat="44.35902" lon="5.14947">
        <ele>278</ele>
        <time>2022-02-27T11:15:49.808Z</time>
      </trkpt>
      <trkpt lat="44.35903" lon="5.14949">
        <ele>279</ele>
        <time>2022-02-27T11:15:50.807Z</time>
      </trkpt>
      <trkpt lat="44.35904" lon="5.14952">
        <ele>279</ele>
        <time>2022-02-27T11:15:51.808Z</time>
      </trkpt>
      <trkpt lat="44.35904" lon="5.14954">
        <ele>280</ele>
        <time>2022-02-27T11:15:52.808Z</time>
      </trkpt>
      <trkpt lat="44.35904" lon="5.14957">
        <ele>280</ele>
        <time>2022-02-27T11:15:53.807Z</time>
      </trkpt>
      <trkpt lat="44.35905" lon="5.1496">
        <ele>281</ele>
        <time>2022-02-27T11:15:54.808Z</time>
      </trkpt>
      <trkpt lat="44.35905" lon="5.14963">
        <ele>281</ele>
        <time>2022-02-27T11:15:55.807Z</time>
      </trkpt>
      <trkpt lat="44.35906" lon="5.14966">
        <ele>282</ele>
        <time>2022-02-27T11:15:56.808Z</time>
      </trkpt>
      <trkpt lat="44.35907" lon="5.14968">
        <ele>282</ele>
        <time>2022-02-27T11:15:57.808Z</time>
      </trkpt>
      <trkpt lat="44.35909" lon="5.14971">
        <ele>283</ele>
        <time>2022-02-27T11:15:58.808Z</time>
      </trkpt>
      <trkpt lat="44.3591" lon="5.14974">
        <ele>283</ele>
        <time>2022-02-27T11:15:59.807Z</time>
      </trkpt>
      <trkpt lat="44.35911" lon="5.14977">
        <ele>283</ele>
        <time>2022-02-27T11:16:00.808Z</time>
      </trkpt>
      <trkpt lat="44.35912" lon="5.1498">
        <ele>283</ele>
        <time>2022-02-27T11:16:01.808Z</time>
      </trkpt>
      <trkpt lat="44.35912" lon="5.14982">
        <ele>283</ele>
        <time>2022-02-27T11:16:02.808Z</time>
      </trkpt>
      <trkpt lat="44.35913" lon="5.14985">
        <ele>283</ele>
        <time>2022-02-27T11:16:03.808Z</time>
      </trkpt>
      <trkpt lat="44.35914" lon="5.14988">
        <ele>283</ele>
        <time>2022-02-27T11:16:04.808Z</time>
      </trkpt>
      <trkpt lat="44.35915" lon="5.14991">
        <ele>283</ele>
        <time>2022-02-27T11:16:05.808Z</time>
      </trkpt>
      <trkpt lat="44.35917" lon="5.14993">
        <ele>283</ele>
        <time>2022-02-27T11:16:06.808Z</time>
      </trkpt>
      <trkpt lat="44.35918" lon="5.14996">
        <ele>283</ele>
        <time>2022-02-27T11:16:07.808Z</time>
      </trkpt>
      <trkpt lat="44.35921" lon="5.15">
        <ele>284</ele>
        <time>2022-02-27T11:16:08.808Z</time>
      </trkpt>
      <trkpt lat="44.35923" lon="5.15002">
        <ele>284</ele>
        <time>2022-02-27T11:16:09.807Z</time>
      </trkpt>
      <trkpt lat="44.35926" lon="5.15005">
        <ele>285</ele>
        <time>2022-02-27T11:16:10.808Z</time>
      </trkpt>
      <trkpt lat="44.35928" lon="5.15007">
        <ele>285</ele>
        <time>2022-02-27T11:16:11.807Z</time>
      </trkpt>
      <trkpt lat="44.3593" lon="5.1501">
        <ele>286</ele>
        <time>2022-02-27T11:16:12.808Z</time>
      </trkpt>
      <trkpt lat="44.35932" lon="5.15012">
        <ele>286</ele>
        <time>2022-02-27T11:16:13.807Z</time>
      </trkpt>
      <trkpt lat="44.35934" lon="5.15015">
        <ele>287</ele>
        <time>2022-02-27T11:16:14.808Z</time>
      </trkpt>
      <trkpt lat="44.35935" lon="5.15018">
        <ele>287</ele>
        <time>2022-02-27T11:16:15.808Z</time>
      </trkpt>
      <trkpt lat="44.35937" lon="5.15021">
        <ele>287</ele>
        <time>2022-02-27T11:16:16.808Z</time>
      </trkpt>
      <trkpt lat="44.35938" lon="5.15023">
        <ele>287</ele>
        <time>2022-02-27T11:16:17.808Z</time>
      </trkpt>
      <trkpt lat="44.35939" lon="5.15026">
        <ele>287</ele>
        <time>2022-02-27T11:16:18.808Z</time>
      </trkpt>
      <trkpt lat="44.3594" lon="5.15029">
        <ele>287</ele>
        <time>2022-02-27T11:16:19.808Z</time>
      </trkpt>
      <trkpt lat="44.35941" lon="5.15033">
        <ele>286</ele>
        <time>2022-02-27T11:16:20.807Z</time>
      </trkpt>
      <trkpt lat="44.35943" lon="5.15036">
        <ele>286</ele>
        <time>2022-02-27T11:16:21.808Z</time>
      </trkpt>
      <trkpt lat="44.35945" lon="5.15039">
        <ele>286</ele>
        <time>2022-02-27T11:16:22.808Z</time>
      </trkpt>
      <trkpt lat="44.35946" lon="5.15043">
        <ele>285</ele>
        <time>2022-02-27T11:16:23.808Z</time>
      </trkpt>
      <trkpt lat="44.35948" lon="5.15045">
        <ele>285</ele>
        <time>2022-02-27T11:16:24.808Z</time>
      </trkpt>
      <trkpt lat="44.3595" lon="5.15048">
        <ele>285</ele>
        <time>2022-02-27T11:16:25.808Z</time>
      </trkpt>
      <trkpt lat="44.35951" lon="5.15051">
        <ele>285</ele>
        <time>2022-02-27T11:16:26.807Z</time>
      </trkpt>
      <trkpt lat="44.35953" lon="5.15054">
        <ele>285</ele>
        <time>2022-02-27T11:16:27.808Z</time>
      </trkpt>
      <trkpt lat="44.35955" lon="5.15056">
        <ele>284</ele>
        <time>2022-02-27T11:16:28.807Z</time>
      </trkpt>
      <trkpt lat="44.35956" lon="5.15058">
        <ele>284</ele>
        <time>2022-02-27T11:16:29.808Z</time>
      </trkpt>
      <trkpt lat="44.35958" lon="5.15061">
        <ele>283</ele>
        <time>2022-02-27T11:16:30.808Z</time>
      </trkpt>
      <trkpt lat="44.3596" lon="5.15063">
        <ele>283</ele>
        <time>2022-02-27T11:16:31.808Z</time>
      </trkpt>
      <trkpt lat="44.35963" lon="5.15065">
        <ele>283</ele>
        <time>2022-02-27T11:16:32.808Z</time>
      </trkpt>
      <trkpt lat="44.35964" lon="5.15067">
        <ele>283</ele>
        <time>2022-02-27T11:16:33.807Z</time>
      </trkpt>
      <trkpt lat="44.35967" lon="5.1507">
        <ele>283</ele>
        <time>2022-02-27T11:16:34.808Z</time>
      </trkpt>
      <trkpt lat="44.35969" lon="5.15072">
        <ele>283</ele>
        <time>2022-02-27T11:16:35.808Z</time>
      </trkpt>
      <trkpt lat="44.35972" lon="5.15074">
        <ele>283</ele>
        <time>2022-02-27T11:16:36.807Z</time>
      </trkpt>
      <trkpt lat="44.35973" lon="5.15076">
        <ele>283</ele>
        <time>2022-02-27T11:16:37.808Z</time>
      </trkpt>
      <trkpt lat="44.35976" lon="5.15079">
        <ele>283</ele>
        <time>2022-02-27T11:16:38.808Z</time>
      </trkpt>
      <trkpt lat="44.35978" lon="5.15081">
        <ele>283</ele>
        <time>2022-02-27T11:16:39.807Z</time>
      </trkpt>
      <trkpt lat="44.3598" lon="5.15083">
        <ele>283</ele>
        <time>2022-02-27T11:16:40.807Z</time>
      </trkpt>
      <trkpt lat="44.35981" lon="5.15084">
        <ele>282</ele>
        <time>2022-02-27T11:16:41.808Z</time>
      </trkpt>
      <trkpt lat="44.35984" lon="5.15086">
        <ele>282</ele>
        <time>2022-02-27T11:16:42.808Z</time>
      </trkpt>
      <trkpt lat="44.35987" lon="5.15089">
        <ele>282</ele>
        <time>2022-02-27T11:16:43.808Z</time>
      </trkpt>
      <trkpt lat="44.35989" lon="5.15091">
        <ele>281</ele>
        <time>2022-02-27T11:16:44.808Z</time>
      </trkpt>
      <trkpt lat="44.35991" lon="5.15093">
        <ele>281</ele>
        <time>2022-02-27T11:16:45.808Z</time>
      </trkpt>
      <trkpt lat="44.35993" lon="5.15094">
        <ele>280</ele>
        <time>2022-02-27T11:16:46.808Z</time>
      </trkpt>
      <trkpt lat="44.35995" lon="5.15096">
        <ele>280</ele>
        <time>2022-02-27T11:16:47.808Z</time>
      </trkpt>
      <trkpt lat="44.35997" lon="5.15097">
        <ele>280</ele>
        <time>2022-02-27T11:16:48.808Z</time>
      </trkpt>
      <trkpt lat="44.36" lon="5.15099">
        <ele>280</ele>
        <time>2022-02-27T11:16:49.807Z</time>
      </trkpt>
      <trkpt lat="44.36001" lon="5.151">
        <ele>280</ele>
        <time>2022-02-27T11:16:50.808Z</time>
      </trkpt>
      <trkpt lat="44.36004" lon="5.15102">
        <ele>280</ele>
        <time>2022-02-27T11:16:51.808Z</time>
      </trkpt>
      <trkpt lat="44.36006" lon="5.15103">
        <ele>281</ele>
        <time>2022-02-27T11:16:52.808Z</time>
      </trkpt>
      <trkpt lat="44.36009" lon="5.15105">
        <ele>281</ele>
        <time>2022-02-27T11:16:53.808Z</time>
      </trkpt>
      <trkpt lat="44.36011" lon="5.15107">
        <ele>281</ele>
        <time>2022-02-27T11:16:54.808Z</time>
      </trkpt>
      <trkpt lat="44.36013" lon="5.15109">
        <ele>281</ele>
        <time>2022-02-27T11:16:55.807Z</time>
      </trkpt>
      <trkpt lat="44.36015" lon="5.15111">
        <ele>281</ele>
        <time>2022-02-27T11:16:56.808Z</time>
      </trkpt>
      <trkpt lat="44.36017" lon="5.15112">
        <ele>281</ele>
        <time>2022-02-27T11:16:57.808Z</time>
      </trkpt>
      <trkpt lat="44.3602" lon="5.15114">
        <ele>281</ele>
        <time>2022-02-27T11:16:58.807Z</time>
      </trkpt>
      <trkpt lat="44.36022" lon="5.15115">
        <ele>281</ele>
        <time>2022-02-27T11:16:59.808Z</time>
      </trkpt>
      <trkpt lat="44.36024" lon="5.15116">
        <ele>281</ele>
        <time>2022-02-27T11:17:00.808Z</time>
      </trkpt>
      <trkpt lat="44.36026" lon="5.15117">
        <ele>281</ele>
        <time>2022-02-27T11:17:01.808Z</time>
      </trkpt>
      <trkpt lat="44.36027" lon="5.15118">
        <ele>280</ele>
        <time>2022-02-27T11:17:02.808Z</time>
      </trkpt>
      <trkpt lat="44.36029" lon="5.15119">
        <ele>280</ele>
        <time>2022-02-27T11:17:03.807Z</time>
      </trkpt>
      <trkpt lat="44.36031" lon="5.15121">
        <ele>280</ele>
        <time>2022-02-27T11:17:04.808Z</time>
      </trkpt>
      <trkpt lat="44.36033" lon="5.15124">
        <ele>280</ele>
        <time>2022-02-27T11:17:05.807Z</time>
      </trkpt>
      <trkpt lat="44.36035" lon="5.15126">
        <ele>280</ele>
        <time>2022-02-27T11:17:06.807Z</time>
      </trkpt>
      <trkpt lat="44.36037" lon="5.15128">
        <ele>280</ele>
        <time>2022-02-27T11:17:07.807Z</time>
      </trkpt>
      <trkpt lat="44.36039" lon="5.15131">
        <ele>280</ele>
        <time>2022-02-27T11:17:08.808Z</time>
      </trkpt>
      <trkpt lat="44.36041" lon="5.15133">
        <ele>280</ele>
        <time>2022-02-27T11:17:09.808Z</time>
      </trkpt>
      <trkpt lat="44.36043" lon="5.15135">
        <ele>280</ele>
        <time>2022-02-27T11:17:10.808Z</time>
      </trkpt>
      <trkpt lat="44.36046" lon="5.15137">
        <ele>280</ele>
        <time>2022-02-27T11:17:11.807Z</time>
      </trkpt>
      <trkpt lat="44.36048" lon="5.15139">
        <ele>280</ele>
        <time>2022-02-27T11:17:12.808Z</time>
      </trkpt>
      <trkpt lat="44.3605" lon="5.15141">
        <ele>280</ele>
        <time>2022-02-27T11:17:13.808Z</time>
      </trkpt>
      <trkpt lat="44.36052" lon="5.15143">
        <ele>280</ele>
        <time>2022-02-27T11:17:14.807Z</time>
      </trkpt>
      <trkpt lat="44.36054" lon="5.15145">
        <ele>280</ele>
        <time>2022-02-27T11:17:15.808Z</time>
      </trkpt>
      <trkpt lat="44.36057" lon="5.15147">
        <ele>281</ele>
        <time>2022-02-27T11:17:16.808Z</time>
      </trkpt>
      <trkpt lat="44.36059" lon="5.15149">
        <ele>281</ele>
        <time>2022-02-27T11:17:17.808Z</time>
      </trkpt>
      <trkpt lat="44.36061" lon="5.15151">
        <ele>281</ele>
        <time>2022-02-27T11:17:18.807Z</time>
      </trkpt>
      <trkpt lat="44.36063" lon="5.15152">
        <ele>281</ele>
        <time>2022-02-27T11:17:19.808Z</time>
      </trkpt>
      <trkpt lat="44.36066" lon="5.15153">
        <ele>281</ele>
        <time>2022-02-27T11:17:20.808Z</time>
      </trkpt>
      <trkpt lat="44.36068" lon="5.15154">
        <ele>281</ele>
        <time>2022-02-27T11:17:21.808Z</time>
      </trkpt>
      <trkpt lat="44.3607" lon="5.15156">
        <ele>281</ele>
        <time>2022-02-27T11:17:22.807Z</time>
      </trkpt>
      <trkpt lat="44.36073" lon="5.15157">
        <ele>281</ele>
        <time>2022-02-27T11:17:23.807Z</time>
      </trkpt>
      <trkpt lat="44.36075" lon="5.15158">
        <ele>281</ele>
        <time>2022-02-27T11:17:24.808Z</time>
      </trkpt>
      <trkpt lat="44.36078" lon="5.15159">
        <ele>281</ele>
        <time>2022-02-27T11:17:25.808Z</time>
      </trkpt>
      <trkpt lat="44.3608" lon="5.15161">
        <ele>281</ele>
        <time>2022-02-27T11:17:26.808Z</time>
      </trkpt>
      <trkpt lat="44.36083" lon="5.15162">
        <ele>281</ele>
        <time>2022-02-27T11:17:27.808Z</time>
      </trkpt>
      <trkpt lat="44.36086" lon="5.15163">
        <ele>281</ele>
        <time>2022-02-27T11:17:28.808Z</time>
      </trkpt>
      <trkpt lat="44.36088" lon="5.15164">
        <ele>281</ele>
        <time>2022-02-27T11:17:29.808Z</time>
      </trkpt>
      <trkpt lat="44.36091" lon="5.15166">
        <ele>281</ele>
        <time>2022-02-27T11:17:30.808Z</time>
      </trkpt>
      <trkpt lat="44.36093" lon="5.15167">
        <ele>281</ele>
        <time>2022-02-27T11:17:31.808Z</time>
      </trkpt>
      <trkpt lat="44.36096" lon="5.15168">
        <ele>281</ele>
        <time>2022-02-27T11:17:32.808Z</time>
      </trkpt>
      <trkpt lat="44.36098" lon="5.15168">
        <ele>281</ele>
        <time>2022-02-27T11:17:33.808Z</time>
      </trkpt>
      <trkpt lat="44.36101" lon="5.15169">
        <ele>281</ele>
        <time>2022-02-27T11:17:34.807Z</time>
      </trkpt>
      <trkpt lat="44.36104" lon="5.1517">
        <ele>281</ele>
        <time>2022-02-27T11:17:35.807Z</time>
      </trkpt>
      <trkpt lat="44.36106" lon="5.1517">
        <ele>281</ele>
        <time>2022-02-27T11:17:36.808Z</time>
      </trkpt>
      <trkpt lat="44.36109" lon="5.15171">
        <ele>282</ele>
        <time>2022-02-27T11:17:37.808Z</time>
      </trkpt>
      <trkpt lat="44.36111" lon="5.15172">
        <ele>282</ele>
        <time>2022-02-27T11:17:38.808Z</time>
      </trkpt>
      <trkpt lat="44.36114" lon="5.15172">
        <ele>282</ele>
        <time>2022-02-27T11:17:39.808Z</time>
      </trkpt>
      <trkpt lat="44.36116" lon="5.15172">
        <ele>283</ele>
        <time>2022-02-27T11:17:40.807Z</time>
      </trkpt>
      <trkpt lat="44.36119" lon="5.15172">
        <ele>284</ele>
        <time>2022-02-27T11:17:41.808Z</time>
      </trkpt>
      <trkpt lat="44.36122" lon="5.15172">
        <ele>285</ele>
        <time>2022-02-27T11:17:42.808Z</time>
      </trkpt>
      <trkpt lat="44.36124" lon="5.15173">
        <ele>285</ele>
        <time>2022-02-27T11:17:43.807Z</time>
      </trkpt>
      <trkpt lat="44.36127" lon="5.15173">
        <ele>286</ele>
        <time>2022-02-27T11:17:44.808Z</time>
      </trkpt>
      <trkpt lat="44.3613" lon="5.15172">
        <ele>286</ele>
        <time>2022-02-27T11:17:45.808Z</time>
      </trkpt>
      <trkpt lat="44.36133" lon="5.15172">
        <ele>287</ele>
        <time>2022-02-27T11:17:46.808Z</time>
      </trkpt>
      <trkpt lat="44.36135" lon="5.15172">
        <ele>288</ele>
        <time>2022-02-27T11:17:47.808Z</time>
      </trkpt>
      <trkpt lat="44.36138" lon="5.15173">
        <ele>288</ele>
        <time>2022-02-27T11:17:48.808Z</time>
      </trkpt>
      <trkpt lat="44.3614" lon="5.15172">
        <ele>288</ele>
        <time>2022-02-27T11:17:49.808Z</time>
      </trkpt>
      <trkpt lat="44.36143" lon="5.15172">
        <ele>288</ele>
        <time>2022-02-27T11:17:50.808Z</time>
      </trkpt>
      <trkpt lat="44.36145" lon="5.15172">
        <ele>287</ele>
        <time>2022-02-27T11:17:51.808Z</time>
      </trkpt>
      <trkpt lat="44.36147" lon="5.15172">
        <ele>287</ele>
        <time>2022-02-27T11:17:52.807Z</time>
      </trkpt>
      <trkpt lat="44.3615" lon="5.15173">
        <ele>286</ele>
        <time>2022-02-27T11:17:53.808Z</time>
      </trkpt>
      <trkpt lat="44.36152" lon="5.15173">
        <ele>286</ele>
        <time>2022-02-27T11:17:54.807Z</time>
      </trkpt>
      <trkpt lat="44.36154" lon="5.15173">
        <ele>285</ele>
        <time>2022-02-27T11:17:55.808Z</time>
      </trkpt>
      <trkpt lat="44.36157" lon="5.15173">
        <ele>285</ele>
        <time>2022-02-27T11:17:56.807Z</time>
      </trkpt>
      <trkpt lat="44.36159" lon="5.15173">
        <ele>285</ele>
        <time>2022-02-27T11:17:57.808Z</time>
      </trkpt>
      <trkpt lat="44.36162" lon="5.15173">
        <ele>285</ele>
        <time>2022-02-27T11:17:58.808Z</time>
      </trkpt>
      <trkpt lat="44.36164" lon="5.15173">
        <ele>285</ele>
        <time>2022-02-27T11:17:59.807Z</time>
      </trkpt>
      <trkpt lat="44.36167" lon="5.15173">
        <ele>285</ele>
        <time>2022-02-27T11:18:00.807Z</time>
      </trkpt>
      <trkpt lat="44.36169" lon="5.15173">
        <ele>285</ele>
        <time>2022-02-27T11:18:01.807Z</time>
      </trkpt>
      <trkpt lat="44.36171" lon="5.15173">
        <ele>285</ele>
        <time>2022-02-27T11:18:02.807Z</time>
      </trkpt>
      <trkpt lat="44.36174" lon="5.15174">
        <ele>285</ele>
        <time>2022-02-27T11:18:03.808Z</time>
      </trkpt>
      <trkpt lat="44.36177" lon="5.15173">
        <ele>285</ele>
        <time>2022-02-27T11:18:04.807Z</time>
      </trkpt>
      <trkpt lat="44.36179" lon="5.15173">
        <ele>284</ele>
        <time>2022-02-27T11:18:05.808Z</time>
      </trkpt>
      <trkpt lat="44.36182" lon="5.15173">
        <ele>284</ele>
        <time>2022-02-27T11:18:06.808Z</time>
      </trkpt>
      <trkpt lat="44.36184" lon="5.15174">
        <ele>283</ele>
        <time>2022-02-27T11:18:07.808Z</time>
      </trkpt>
      <trkpt lat="44.36186" lon="5.15174">
        <ele>283</ele>
        <time>2022-02-27T11:18:08.808Z</time>
      </trkpt>
      <trkpt lat="44.36188" lon="5.15174">
        <ele>283</ele>
        <time>2022-02-27T11:18:09.807Z</time>
      </trkpt>
      <trkpt lat="44.36191" lon="5.15174">
        <ele>282</ele>
        <time>2022-02-27T11:18:10.808Z</time>
      </trkpt>
      <trkpt lat="44.36193" lon="5.15174">
        <ele>282</ele>
        <time>2022-02-27T11:18:11.807Z</time>
      </trkpt>
      <trkpt lat="44.36196" lon="5.15174">
        <ele>281</ele>
        <time>2022-02-27T11:18:12.808Z</time>
      </trkpt>
      <trkpt lat="44.36198" lon="5.15174">
        <ele>280</ele>
        <time>2022-02-27T11:18:13.808Z</time>
      </trkpt>
      <trkpt lat="44.36201" lon="5.15174">
        <ele>280</ele>
        <time>2022-02-27T11:18:14.808Z</time>
      </trkpt>
      <trkpt lat="44.36203" lon="5.15174">
        <ele>280</ele>
        <time>2022-02-27T11:18:15.808Z</time>
      </trkpt>
      <trkpt lat="44.36206" lon="5.15173">
        <ele>280</ele>
        <time>2022-02-27T11:18:16.808Z</time>
      </trkpt>
      <trkpt lat="44.36209" lon="5.15173">
        <ele>280</ele>
        <time>2022-02-27T11:18:17.808Z</time>
      </trkpt>
      <trkpt lat="44.36211" lon="5.15174">
        <ele>281</ele>
        <time>2022-02-27T11:18:18.808Z</time>
      </trkpt>
      <trkpt lat="44.36214" lon="5.15174">
        <ele>281</ele>
        <time>2022-02-27T11:18:19.808Z</time>
      </trkpt>
      <trkpt lat="44.36216" lon="5.15174">
        <ele>281</ele>
        <time>2022-02-27T11:18:20.807Z</time>
      </trkpt>
      <trkpt lat="44.36219" lon="5.15174">
        <ele>282</ele>
        <time>2022-02-27T11:18:21.808Z</time>
      </trkpt>
      <trkpt lat="44.36221" lon="5.15175">
        <ele>282</ele>
        <time>2022-02-27T11:18:22.808Z</time>
      </trkpt>
      <trkpt lat="44.36224" lon="5.15176">
        <ele>282</ele>
        <time>2022-02-27T11:18:23.808Z</time>
      </trkpt>
      <trkpt lat="44.36226" lon="5.15177">
        <ele>283</ele>
        <time>2022-02-27T11:18:24.807Z</time>
      </trkpt>
      <trkpt lat="44.36229" lon="5.15178">
        <ele>283</ele>
        <time>2022-02-27T11:18:25.807Z</time>
      </trkpt>
      <trkpt lat="44.36231" lon="5.15179">
        <ele>283</ele>
        <time>2022-02-27T11:18:26.808Z</time>
      </trkpt>
      <trkpt lat="44.36233" lon="5.1518">
        <ele>283</ele>
        <time>2022-02-27T11:18:27.808Z</time>
      </trkpt>
      <trkpt lat="44.36236" lon="5.15182">
        <ele>283</ele>
        <time>2022-02-27T11:18:28.808Z</time>
      </trkpt>
      <trkpt lat="44.36238" lon="5.15184">
        <ele>282</ele>
        <time>2022-02-27T11:18:29.808Z</time>
      </trkpt>
      <trkpt lat="44.3624" lon="5.15185">
        <ele>282</ele>
        <time>2022-02-27T11:18:30.807Z</time>
      </trkpt>
      <trkpt lat="44.36242" lon="5.15187">
        <ele>282</ele>
        <time>2022-02-27T11:18:31.808Z</time>
      </trkpt>
      <trkpt lat="44.36244" lon="5.15189">
        <ele>282</ele>
        <time>2022-02-27T11:18:32.808Z</time>
      </trkpt>
      <trkpt lat="44.36246" lon="5.15191">
        <ele>282</ele>
        <time>2022-02-27T11:18:33.808Z</time>
      </trkpt>
      <trkpt lat="44.36248" lon="5.15193">
        <ele>281</ele>
        <time>2022-02-27T11:18:34.808Z</time>
      </trkpt>
      <trkpt lat="44.3625" lon="5.15196">
        <ele>281</ele>
        <time>2022-02-27T11:18:35.808Z</time>
      </trkpt>
      <trkpt lat="44.36252" lon="5.15198">
        <ele>281</ele>
        <time>2022-02-27T11:18:36.807Z</time>
      </trkpt>
      <trkpt lat="44.36254" lon="5.152">
        <ele>281</ele>
        <time>2022-02-27T11:18:37.808Z</time>
      </trkpt>
      <trkpt lat="44.36256" lon="5.15201">
        <ele>281</ele>
        <time>2022-02-27T11:18:38.808Z</time>
      </trkpt>
      <trkpt lat="44.36258" lon="5.15203">
        <ele>281</ele>
        <time>2022-02-27T11:18:39.807Z</time>
      </trkpt>
      <trkpt lat="44.3626" lon="5.15204">
        <ele>281</ele>
        <time>2022-02-27T11:18:40.807Z</time>
      </trkpt>
      <trkpt lat="44.36262" lon="5.15205">
        <ele>282</ele>
        <time>2022-02-27T11:18:41.807Z</time>
      </trkpt>
      <trkpt lat="44.36264" lon="5.15207">
        <ele>282</ele>
        <time>2022-02-27T11:18:42.807Z</time>
      </trkpt>
      <trkpt lat="44.36265" lon="5.15208">
        <ele>282</ele>
        <time>2022-02-27T11:18:43.807Z</time>
      </trkpt>
      <trkpt lat="44.36267" lon="5.1521">
        <ele>281</ele>
        <time>2022-02-27T11:18:44.808Z</time>
      </trkpt>
      <trkpt lat="44.3627" lon="5.15211">
        <ele>281</ele>
        <time>2022-02-27T11:18:45.808Z</time>
      </trkpt>
      <trkpt lat="44.36272" lon="5.15212">
        <ele>281</ele>
        <time>2022-02-27T11:18:46.808Z</time>
      </trkpt>
      <trkpt lat="44.36274" lon="5.15214">
        <ele>281</ele>
        <time>2022-02-27T11:18:47.808Z</time>
      </trkpt>
      <trkpt lat="44.36277" lon="5.15215">
        <ele>281</ele>
        <time>2022-02-27T11:18:48.807Z</time>
      </trkpt>
      <trkpt lat="44.36279" lon="5.15216">
        <ele>281</ele>
        <time>2022-02-27T11:18:49.807Z</time>
      </trkpt>
      <trkpt lat="44.36281" lon="5.15217">
        <ele>281</ele>
        <time>2022-02-27T11:18:50.808Z</time>
      </trkpt>
      <trkpt lat="44.36283" lon="5.15218">
        <ele>281</ele>
        <time>2022-02-27T11:18:51.808Z</time>
      </trkpt>
      <trkpt lat="44.36286" lon="5.1522">
        <ele>281</ele>
        <time>2022-02-27T11:18:52.808Z</time>
      </trkpt>
      <trkpt lat="44.36288" lon="5.1522">
        <ele>282</ele>
        <time>2022-02-27T11:18:53.808Z</time>
      </trkpt>
      <trkpt lat="44.3629" lon="5.15221">
        <ele>282</ele>
        <time>2022-02-27T11:18:54.808Z</time>
      </trkpt>
      <trkpt lat="44.36292" lon="5.15223">
        <ele>281</ele>
        <time>2022-02-27T11:18:55.808Z</time>
      </trkpt>
      <trkpt lat="44.36295" lon="5.15224">
        <ele>281</ele>
        <time>2022-02-27T11:18:56.808Z</time>
      </trkpt>
      <trkpt lat="44.36296" lon="5.15225">
        <ele>281</ele>
        <time>2022-02-27T11:18:57.808Z</time>
      </trkpt>
      <trkpt lat="44.36298" lon="5.15227">
        <ele>281</ele>
        <time>2022-02-27T11:18:58.808Z</time>
      </trkpt>
      <trkpt lat="44.363" lon="5.15229">
        <ele>280</ele>
        <time>2022-02-27T11:18:59.808Z</time>
      </trkpt>
      <trkpt lat="44.36302" lon="5.15232">
        <ele>280</ele>
        <time>2022-02-27T11:19:00.808Z</time>
      </trkpt>
      <trkpt lat="44.36304" lon="5.15235">
        <ele>280</ele>
        <time>2022-02-27T11:19:01.807Z</time>
      </trkpt>
      <trkpt lat="44.36306" lon="5.15238">
        <ele>279</ele>
        <time>2022-02-27T11:19:02.807Z</time>
      </trkpt>
      <trkpt lat="44.36307" lon="5.15241">
        <ele>279</ele>
        <time>2022-02-27T11:19:03.807Z</time>
      </trkpt>
      <trkpt lat="44.36308" lon="5.15244">
        <ele>279</ele>
        <time>2022-02-27T11:19:04.808Z</time>
      </trkpt>
      <trkpt lat="44.36309" lon="5.15248">
        <ele>278</ele>
        <time>2022-02-27T11:19:05.808Z</time>
      </trkpt>
      <trkpt lat="44.3631" lon="5.15251">
        <ele>278</ele>
        <time>2022-02-27T11:19:06.807Z</time>
      </trkpt>
      <trkpt lat="44.36311" lon="5.15255">
        <ele>278</ele>
        <time>2022-02-27T11:19:07.807Z</time>
      </trkpt>
      <trkpt lat="44.36311" lon="5.15259">
        <ele>278</ele>
        <time>2022-02-27T11:19:08.808Z</time>
      </trkpt>
      <trkpt lat="44.36312" lon="5.15263">
        <ele>278</ele>
        <time>2022-02-27T11:19:09.808Z</time>
      </trkpt>
      <trkpt lat="44.36313" lon="5.15266">
        <ele>277</ele>
        <time>2022-02-27T11:19:10.808Z</time>
      </trkpt>
      <trkpt lat="44.36313" lon="5.1527">
        <ele>277</ele>
        <time>2022-02-27T11:19:11.807Z</time>
      </trkpt>
      <trkpt lat="44.36315" lon="5.15273">
        <ele>277</ele>
        <time>2022-02-27T11:19:12.807Z</time>
      </trkpt>
      <trkpt lat="44.36316" lon="5.15277">
        <ele>276</ele>
        <time>2022-02-27T11:19:13.808Z</time>
      </trkpt>
      <trkpt lat="44.36317" lon="5.1528">
        <ele>276</ele>
        <time>2022-02-27T11:19:14.807Z</time>
      </trkpt>
      <trkpt lat="44.36317" lon="5.15284">
        <ele>276</ele>
        <time>2022-02-27T11:19:15.807Z</time>
      </trkpt>
      <trkpt lat="44.36317" lon="5.15288">
        <ele>276</ele>
        <time>2022-02-27T11:19:16.807Z</time>
      </trkpt>
      <trkpt lat="44.36318" lon="5.15292">
        <ele>276</ele>
        <time>2022-02-27T11:19:17.807Z</time>
      </trkpt>
      <trkpt lat="44.36318" lon="5.15296">
        <ele>276</ele>
        <time>2022-02-27T11:19:18.807Z</time>
      </trkpt>
      <trkpt lat="44.36318" lon="5.153">
        <ele>276</ele>
        <time>2022-02-27T11:19:19.808Z</time>
      </trkpt>
      <trkpt lat="44.36318" lon="5.15303">
        <ele>275</ele>
        <time>2022-02-27T11:19:20.808Z</time>
      </trkpt>
      <trkpt lat="44.36318" lon="5.15307">
        <ele>275</ele>
        <time>2022-02-27T11:19:21.808Z</time>
      </trkpt>
      <trkpt lat="44.36318" lon="5.1531">
        <ele>274</ele>
        <time>2022-02-27T11:19:22.807Z</time>
      </trkpt>
      <trkpt lat="44.36319" lon="5.15313">
        <ele>274</ele>
        <time>2022-02-27T11:19:23.808Z</time>
      </trkpt>
      <trkpt lat="44.36319" lon="5.15317">
        <ele>274</ele>
        <time>2022-02-27T11:19:24.807Z</time>
      </trkpt>
      <trkpt lat="44.3632" lon="5.1532">
        <ele>274</ele>
        <time>2022-02-27T11:19:25.808Z</time>
      </trkpt>
      <trkpt lat="44.36321" lon="5.15323">
        <ele>274</ele>
        <time>2022-02-27T11:19:26.808Z</time>
      </trkpt>
      <trkpt lat="44.36322" lon="5.15326">
        <ele>274</ele>
        <time>2022-02-27T11:19:27.808Z</time>
      </trkpt>
      <trkpt lat="44.36322" lon="5.15329">
        <ele>275</ele>
        <time>2022-02-27T11:19:28.808Z</time>
      </trkpt>
      <trkpt lat="44.36322" lon="5.15333">
        <ele>276</ele>
        <time>2022-02-27T11:19:29.807Z</time>
      </trkpt>
      <trkpt lat="44.36323" lon="5.15336">
        <ele>276</ele>
        <time>2022-02-27T11:19:30.807Z</time>
      </trkpt>
      <trkpt lat="44.36323" lon="5.1534">
        <ele>276</ele>
        <time>2022-02-27T11:19:31.807Z</time>
      </trkpt>
      <trkpt lat="44.36323" lon="5.15343">
        <ele>276</ele>
        <time>2022-02-27T11:19:32.807Z</time>
      </trkpt>
      <trkpt lat="44.36323" lon="5.15347">
        <ele>276</ele>
        <time>2022-02-27T11:19:33.807Z</time>
      </trkpt>
      <trkpt lat="44.36324" lon="5.1535">
        <ele>276</ele>
        <time>2022-02-27T11:19:34.807Z</time>
      </trkpt>
      <trkpt lat="44.36325" lon="5.15353">
        <ele>276</ele>
        <time>2022-02-27T11:19:35.808Z</time>
      </trkpt>
      <trkpt lat="44.36326" lon="5.15356">
        <ele>276</ele>
        <time>2022-02-27T11:19:36.808Z</time>
      </trkpt>
      <trkpt lat="44.36326" lon="5.1536">
        <ele>276</ele>
        <time>2022-02-27T11:19:37.807Z</time>
      </trkpt>
      <trkpt lat="44.36327" lon="5.15364">
        <ele>276</ele>
        <time>2022-02-27T11:19:38.807Z</time>
      </trkpt>
      <trkpt lat="44.36328" lon="5.15368">
        <ele>276</ele>
        <time>2022-02-27T11:19:39.807Z</time>
      </trkpt>
      <trkpt lat="44.36328" lon="5.15371">
        <ele>276</ele>
        <time>2022-02-27T11:19:40.807Z</time>
      </trkpt>
      <trkpt lat="44.36329" lon="5.15375">
        <ele>276</ele>
        <time>2022-02-27T11:19:41.807Z</time>
      </trkpt>
      <trkpt lat="44.3633" lon="5.15378">
        <ele>276</ele>
        <time>2022-02-27T11:19:42.807Z</time>
      </trkpt>
      <trkpt lat="44.3633" lon="5.15382">
        <ele>277</ele>
        <time>2022-02-27T11:19:43.807Z</time>
      </trkpt>
      <trkpt lat="44.36331" lon="5.15385">
        <ele>277</ele>
        <time>2022-02-27T11:19:44.807Z</time>
      </trkpt>
      <trkpt lat="44.36333" lon="5.15388">
        <ele>277</ele>
        <time>2022-02-27T11:19:45.807Z</time>
      </trkpt>
      <trkpt lat="44.36334" lon="5.15392">
        <ele>278</ele>
        <time>2022-02-27T11:19:46.807Z</time>
      </trkpt>
      <trkpt lat="44.36334" lon="5.15397">
        <ele>278</ele>
        <time>2022-02-27T11:19:47.808Z</time>
      </trkpt>
      <trkpt lat="44.36334" lon="5.154">
        <ele>278</ele>
        <time>2022-02-27T11:19:48.808Z</time>
      </trkpt>
      <trkpt lat="44.36334" lon="5.15404">
        <ele>279</ele>
        <time>2022-02-27T11:19:49.808Z</time>
      </trkpt>
      <trkpt lat="44.36334" lon="5.15408">
        <ele>278</ele>
        <time>2022-02-27T11:19:50.808Z</time>
      </trkpt>
      <trkpt lat="44.36333" lon="5.15411">
        <ele>278</ele>
        <time>2022-02-27T11:19:51.808Z</time>
      </trkpt>
      <trkpt lat="44.36332" lon="5.15416">
        <ele>278</ele>
        <time>2022-02-27T11:19:52.807Z</time>
      </trkpt>
      <trkpt lat="44.36332" lon="5.15419">
        <ele>278</ele>
        <time>2022-02-27T11:19:53.808Z</time>
      </trkpt>
      <trkpt lat="44.36332" lon="5.15422">
        <ele>279</ele>
        <time>2022-02-27T11:19:54.808Z</time>
      </trkpt>
      <trkpt lat="44.36331" lon="5.15426">
        <ele>279</ele>
        <time>2022-02-27T11:19:55.807Z</time>
      </trkpt>
      <trkpt lat="44.36331" lon="5.15429">
        <ele>279</ele>
        <time>2022-02-27T11:19:56.808Z</time>
      </trkpt>
      <trkpt lat="44.36331" lon="5.15433">
        <ele>279</ele>
        <time>2022-02-27T11:19:57.808Z</time>
      </trkpt>
      <trkpt lat="44.3633" lon="5.15436">
        <ele>280</ele>
        <time>2022-02-27T11:19:58.808Z</time>
      </trkpt>
      <trkpt lat="44.3633" lon="5.15439">
        <ele>280</ele>
        <time>2022-02-27T11:19:59.807Z</time>
      </trkpt>
      <trkpt lat="44.3633" lon="5.15442">
        <ele>280</ele>
        <time>2022-02-27T11:20:00.808Z</time>
      </trkpt>
      <trkpt lat="44.36331" lon="5.15445">
        <ele>280</ele>
        <time>2022-02-27T11:20:01.807Z</time>
      </trkpt>
      <trkpt lat="44.36331" lon="5.15448">
        <ele>280</ele>
        <time>2022-02-27T11:20:02.807Z</time>
      </trkpt>
      <trkpt lat="44.36331" lon="5.1545">
        <ele>280</ele>
        <time>2022-02-27T11:20:03.807Z</time>
      </trkpt>
      <trkpt lat="44.36331" lon="5.15453">
        <ele>280</ele>
        <time>2022-02-27T11:20:04.807Z</time>
      </trkpt>
      <trkpt lat="44.36331" lon="5.15456">
        <ele>280</ele>
        <time>2022-02-27T11:20:05.807Z</time>
      </trkpt>
      <trkpt lat="44.36331" lon="5.15459">
        <ele>280</ele>
        <time>2022-02-27T11:20:06.807Z</time>
      </trkpt>
      <trkpt lat="44.36333" lon="5.15462">
        <ele>280</ele>
        <time>2022-02-27T11:20:07.807Z</time>
      </trkpt>
      <trkpt lat="44.36334" lon="5.15464">
        <ele>280</ele>
        <time>2022-02-27T11:20:08.807Z</time>
      </trkpt>
      <trkpt lat="44.36335" lon="5.15467">
        <ele>280</ele>
        <time>2022-02-27T11:20:09.807Z</time>
      </trkpt>
      <trkpt lat="44.36336" lon="5.1547">
        <ele>280</ele>
        <time>2022-02-27T11:20:10.808Z</time>
      </trkpt>
      <trkpt lat="44.36337" lon="5.15473">
        <ele>280</ele>
        <time>2022-02-27T11:20:11.808Z</time>
      </trkpt>
      <trkpt lat="44.36338" lon="5.15476">
        <ele>280</ele>
        <time>2022-02-27T11:20:12.808Z</time>
      </trkpt>
      <trkpt lat="44.3634" lon="5.15478">
        <ele>280</ele>
        <time>2022-02-27T11:20:13.807Z</time>
      </trkpt>
      <trkpt lat="44.36342" lon="5.15481">
        <ele>281</ele>
        <time>2022-02-27T11:20:14.808Z</time>
      </trkpt>
      <trkpt lat="44.36343" lon="5.15482">
        <ele>281</ele>
        <time>2022-02-27T11:20:15.807Z</time>
      </trkpt>
      <trkpt lat="44.36345" lon="5.15484">
        <ele>281</ele>
        <time>2022-02-27T11:20:16.808Z</time>
      </trkpt>
      <trkpt lat="44.36345" lon="5.15487">
        <ele>281</ele>
        <time>2022-02-27T11:20:17.807Z</time>
      </trkpt>
      <trkpt lat="44.36346" lon="5.1549">
        <ele>281</ele>
        <time>2022-02-27T11:20:18.808Z</time>
      </trkpt>
      <trkpt lat="44.36347" lon="5.15493">
        <ele>281</ele>
        <time>2022-02-27T11:20:19.807Z</time>
      </trkpt>
      <trkpt lat="44.36347" lon="5.15496">
        <ele>281</ele>
        <time>2022-02-27T11:20:20.807Z</time>
      </trkpt>
      <trkpt lat="44.36348" lon="5.15498">
        <ele>281</ele>
        <time>2022-02-27T11:20:21.807Z</time>
      </trkpt>
      <trkpt lat="44.36348" lon="5.15501">
        <ele>281</ele>
        <time>2022-02-27T11:20:22.808Z</time>
      </trkpt>
      <trkpt lat="44.36349" lon="5.15504">
        <ele>280</ele>
        <time>2022-02-27T11:20:23.808Z</time>
      </trkpt>
      <trkpt lat="44.36349" lon="5.15508">
        <ele>280</ele>
        <time>2022-02-27T11:20:24.808Z</time>
      </trkpt>
      <trkpt lat="44.3635" lon="5.15511">
        <ele>280</ele>
        <time>2022-02-27T11:20:25.807Z</time>
      </trkpt>
      <trkpt lat="44.3635" lon="5.15514">
        <ele>279</ele>
        <time>2022-02-27T11:20:26.808Z</time>
      </trkpt>
      <trkpt lat="44.3635" lon="5.15517">
        <ele>278</ele>
        <time>2022-02-27T11:20:27.808Z</time>
      </trkpt>
      <trkpt lat="44.36351" lon="5.1552">
        <ele>278</ele>
        <time>2022-02-27T11:20:28.807Z</time>
      </trkpt>
      <trkpt lat="44.36353" lon="5.15523">
        <ele>277</ele>
        <time>2022-02-27T11:20:29.807Z</time>
      </trkpt>
      <trkpt lat="44.36356" lon="5.15526">
        <ele>277</ele>
        <time>2022-02-27T11:20:30.807Z</time>
      </trkpt>
      <trkpt lat="44.36357" lon="5.15528">
        <ele>277</ele>
        <time>2022-02-27T11:20:31.807Z</time>
      </trkpt>
      <trkpt lat="44.3636" lon="5.1553">
        <ele>278</ele>
        <time>2022-02-27T11:20:32.807Z</time>
      </trkpt>
      <trkpt lat="44.36362" lon="5.15532">
        <ele>279</ele>
        <time>2022-02-27T11:20:33.808Z</time>
      </trkpt>
      <trkpt lat="44.36365" lon="5.15533">
        <ele>280</ele>
        <time>2022-02-27T11:20:34.807Z</time>
      </trkpt>
      <trkpt lat="44.36367" lon="5.15533">
        <ele>281</ele>
        <time>2022-02-27T11:20:35.807Z</time>
      </trkpt>
      <trkpt lat="44.36369" lon="5.15535">
        <ele>281</ele>
        <time>2022-02-27T11:20:36.808Z</time>
      </trkpt>
      <trkpt lat="44.36371" lon="5.15536">
        <ele>282</ele>
        <time>2022-02-27T11:20:37.808Z</time>
      </trkpt>
      <trkpt lat="44.36374" lon="5.15536">
        <ele>282</ele>
        <time>2022-02-27T11:20:38.807Z</time>
      </trkpt>
      <trkpt lat="44.36376" lon="5.15537">
        <ele>282</ele>
        <time>2022-02-27T11:20:39.807Z</time>
      </trkpt>
      <trkpt lat="44.36378" lon="5.15538">
        <ele>283</ele>
        <time>2022-02-27T11:20:40.807Z</time>
      </trkpt>
      <trkpt lat="44.3638" lon="5.1554">
        <ele>283</ele>
        <time>2022-02-27T11:20:41.808Z</time>
      </trkpt>
      <trkpt lat="44.36382" lon="5.15541">
        <ele>283</ele>
        <time>2022-02-27T11:20:42.807Z</time>
      </trkpt>
      <trkpt lat="44.36384" lon="5.15543">
        <ele>283</ele>
        <time>2022-02-27T11:20:43.808Z</time>
      </trkpt>
      <trkpt lat="44.36386" lon="5.15544">
        <ele>283</ele>
        <time>2022-02-27T11:20:44.807Z</time>
      </trkpt>
      <trkpt lat="44.36388" lon="5.15546">
        <ele>284</ele>
        <time>2022-02-27T11:20:45.808Z</time>
      </trkpt>
      <trkpt lat="44.3639" lon="5.15549">
        <ele>284</ele>
        <time>2022-02-27T11:20:46.807Z</time>
      </trkpt>
      <trkpt lat="44.36391" lon="5.15551">
        <ele>284</ele>
        <time>2022-02-27T11:20:47.807Z</time>
      </trkpt>
      <trkpt lat="44.36393" lon="5.15553">
        <ele>284</ele>
        <time>2022-02-27T11:20:48.807Z</time>
      </trkpt>
      <trkpt lat="44.36394" lon="5.15555">
        <ele>284</ele>
        <time>2022-02-27T11:20:49.807Z</time>
      </trkpt>
      <trkpt lat="44.36395" lon="5.15557">
        <ele>284</ele>
        <time>2022-02-27T11:20:50.808Z</time>
      </trkpt>
      <trkpt lat="44.36397" lon="5.1556">
        <ele>284</ele>
        <time>2022-02-27T11:20:51.808Z</time>
      </trkpt>
      <trkpt lat="44.36399" lon="5.15563">
        <ele>284</ele>
        <time>2022-02-27T11:20:52.807Z</time>
      </trkpt>
      <trkpt lat="44.364" lon="5.15565">
        <ele>283</ele>
        <time>2022-02-27T11:20:53.807Z</time>
      </trkpt>
      <trkpt lat="44.36402" lon="5.15567">
        <ele>283</ele>
        <time>2022-02-27T11:20:54.807Z</time>
      </trkpt>
      <trkpt lat="44.36403" lon="5.15568">
        <ele>283</ele>
        <time>2022-02-27T11:20:55.807Z</time>
      </trkpt>
      <trkpt lat="44.36405" lon="5.1557">
        <ele>283</ele>
        <time>2022-02-27T11:20:56.808Z</time>
      </trkpt>
      <trkpt lat="44.36408" lon="5.15571">
        <ele>283</ele>
        <time>2022-02-27T11:20:57.807Z</time>
      </trkpt>
      <trkpt lat="44.3641" lon="5.15572">
        <ele>283</ele>
        <time>2022-02-27T11:20:58.808Z</time>
      </trkpt>
      <trkpt lat="44.36412" lon="5.15572">
        <ele>283</ele>
        <time>2022-02-27T11:20:59.807Z</time>
      </trkpt>
      <trkpt lat="44.36414" lon="5.15573">
        <ele>283</ele>
        <time>2022-02-27T11:21:00.808Z</time>
      </trkpt>
      <trkpt lat="44.36416" lon="5.15574">
        <ele>282</ele>
        <time>2022-02-27T11:21:01.807Z</time>
      </trkpt>
      <trkpt lat="44.36419" lon="5.15575">
        <ele>282</ele>
        <time>2022-02-27T11:21:02.807Z</time>
      </trkpt>
      <trkpt lat="44.36421" lon="5.15576">
        <ele>282</ele>
        <time>2022-02-27T11:21:03.807Z</time>
      </trkpt>
      <trkpt lat="44.36423" lon="5.15578">
        <ele>282</ele>
        <time>2022-02-27T11:21:04.807Z</time>
      </trkpt>
      <trkpt lat="44.36425" lon="5.1558">
        <ele>281</ele>
        <time>2022-02-27T11:21:05.807Z</time>
      </trkpt>
      <trkpt lat="44.36428" lon="5.15581">
        <ele>281</ele>
        <time>2022-02-27T11:21:06.807Z</time>
      </trkpt>
      <trkpt lat="44.36429" lon="5.15582">
        <ele>281</ele>
        <time>2022-02-27T11:21:07.807Z</time>
      </trkpt>
      <trkpt lat="44.36431" lon="5.15584">
        <ele>282</ele>
        <time>2022-02-27T11:21:08.807Z</time>
      </trkpt>
      <trkpt lat="44.36434" lon="5.15585">
        <ele>282</ele>
        <time>2022-02-27T11:21:09.807Z</time>
      </trkpt>
      <trkpt lat="44.36436" lon="5.15587">
        <ele>281</ele>
        <time>2022-02-27T11:21:10.808Z</time>
      </trkpt>
      <trkpt lat="44.36438" lon="5.15589">
        <ele>281</ele>
        <time>2022-02-27T11:21:11.807Z</time>
      </trkpt>
      <trkpt lat="44.3644" lon="5.1559">
        <ele>281</ele>
        <time>2022-02-27T11:21:12.808Z</time>
      </trkpt>
      <trkpt lat="44.36442" lon="5.15592">
        <ele>281</ele>
        <time>2022-02-27T11:21:13.808Z</time>
      </trkpt>
      <trkpt lat="44.36445" lon="5.15593">
        <ele>280</ele>
        <time>2022-02-27T11:21:14.807Z</time>
      </trkpt>
      <trkpt lat="44.36447" lon="5.15594">
        <ele>280</ele>
        <time>2022-02-27T11:21:15.807Z</time>
      </trkpt>
      <trkpt lat="44.36449" lon="5.15595">
        <ele>280</ele>
        <time>2022-02-27T11:21:16.807Z</time>
      </trkpt>
      <trkpt lat="44.36451" lon="5.15596">
        <ele>279</ele>
        <time>2022-02-27T11:21:17.807Z</time>
      </trkpt>
      <trkpt lat="44.36453" lon="5.15598">
        <ele>280</ele>
        <time>2022-02-27T11:21:18.807Z</time>
      </trkpt>
      <trkpt lat="44.36455" lon="5.15599">
        <ele>280</ele>
        <time>2022-02-27T11:21:19.807Z</time>
      </trkpt>
      <trkpt lat="44.36458" lon="5.156">
        <ele>280</ele>
        <time>2022-02-27T11:21:20.807Z</time>
      </trkpt>
      <trkpt lat="44.3646" lon="5.15601">
        <ele>280</ele>
        <time>2022-02-27T11:21:21.807Z</time>
      </trkpt>
      <trkpt lat="44.36462" lon="5.15603">
        <ele>280</ele>
        <time>2022-02-27T11:21:22.807Z</time>
      </trkpt>
      <trkpt lat="44.36464" lon="5.15604">
        <ele>280</ele>
        <time>2022-02-27T11:21:23.807Z</time>
      </trkpt>
      <trkpt lat="44.36466" lon="5.15605">
        <ele>280</ele>
        <time>2022-02-27T11:21:24.807Z</time>
      </trkpt>
      <trkpt lat="44.36469" lon="5.15606">
        <ele>280</ele>
        <time>2022-02-27T11:21:25.807Z</time>
      </trkpt>
      <trkpt lat="44.36471" lon="5.15607">
        <ele>280</ele>
        <time>2022-02-27T11:21:26.808Z</time>
      </trkpt>
      <trkpt lat="44.36472" lon="5.15608">
        <ele>280</ele>
        <time>2022-02-27T11:21:27.808Z</time>
      </trkpt>
      <trkpt lat="44.36475" lon="5.15608">
        <ele>280</ele>
        <time>2022-02-27T11:21:28.808Z</time>
      </trkpt>
      <trkpt lat="44.36477" lon="5.15609">
        <ele>281</ele>
        <time>2022-02-27T11:21:29.808Z</time>
      </trkpt>
      <trkpt lat="44.36479" lon="5.15609">
        <ele>282</ele>
        <time>2022-02-27T11:21:30.807Z</time>
      </trkpt>
      <trkpt lat="44.36481" lon="5.15609">
        <ele>282</ele>
        <time>2022-02-27T11:21:31.808Z</time>
      </trkpt>
      <trkpt lat="44.36483" lon="5.15609">
        <ele>283</ele>
        <time>2022-02-27T11:21:32.808Z</time>
      </trkpt>
      <trkpt lat="44.36486" lon="5.1561">
        <ele>283</ele>
        <time>2022-02-27T11:21:33.808Z</time>
      </trkpt>
      <trkpt lat="44.36488" lon="5.1561">
        <ele>283</ele>
        <time>2022-02-27T11:21:34.807Z</time>
      </trkpt>
      <trkpt lat="44.3649" lon="5.1561">
        <ele>283</ele>
        <time>2022-02-27T11:21:35.807Z</time>
      </trkpt>
      <trkpt lat="44.36492" lon="5.1561">
        <ele>283</ele>
        <time>2022-02-27T11:21:36.808Z</time>
      </trkpt>
      <trkpt lat="44.36495" lon="5.1561">
        <ele>283</ele>
        <time>2022-02-27T11:21:37.808Z</time>
      </trkpt>
      <trkpt lat="44.36498" lon="5.1561">
        <ele>283</ele>
        <time>2022-02-27T11:21:38.808Z</time>
      </trkpt>
      <trkpt lat="44.365" lon="5.1561">
        <ele>283</ele>
        <time>2022-02-27T11:21:39.808Z</time>
      </trkpt>
      <trkpt lat="44.36502" lon="5.1561">
        <ele>282</ele>
        <time>2022-02-27T11:21:40.808Z</time>
      </trkpt>
      <trkpt lat="44.36504" lon="5.1561">
        <ele>282</ele>
        <time>2022-02-27T11:21:41.808Z</time>
      </trkpt>
      <trkpt lat="44.36506" lon="5.1561">
        <ele>282</ele>
        <time>2022-02-27T11:21:42.807Z</time>
      </trkpt>
      <trkpt lat="44.36509" lon="5.1561">
        <ele>283</ele>
        <time>2022-02-27T11:21:43.808Z</time>
      </trkpt>
      <trkpt lat="44.36511" lon="5.15609">
        <ele>283</ele>
        <time>2022-02-27T11:21:44.808Z</time>
      </trkpt>
      <trkpt lat="44.36513" lon="5.15609">
        <ele>284</ele>
        <time>2022-02-27T11:21:45.808Z</time>
      </trkpt>
      <trkpt lat="44.36516" lon="5.15608">
        <ele>284</ele>
        <time>2022-02-27T11:21:46.808Z</time>
      </trkpt>
      <trkpt lat="44.36518" lon="5.15608">
        <ele>285</ele>
        <time>2022-02-27T11:21:47.808Z</time>
      </trkpt>
      <trkpt lat="44.36521" lon="5.15608">
        <ele>285</ele>
        <time>2022-02-27T11:21:48.808Z</time>
      </trkpt>
      <trkpt lat="44.36523" lon="5.15608">
        <ele>286</ele>
        <time>2022-02-27T11:21:49.808Z</time>
      </trkpt>
      <trkpt lat="44.36525" lon="5.15608">
        <ele>286</ele>
        <time>2022-02-27T11:21:50.808Z</time>
      </trkpt>
      <trkpt lat="44.36528" lon="5.15607">
        <ele>285</ele>
        <time>2022-02-27T11:21:51.808Z</time>
      </trkpt>
      <trkpt lat="44.3653" lon="5.15608">
        <ele>285</ele>
        <time>2022-02-27T11:21:52.808Z</time>
      </trkpt>
      <trkpt lat="44.36533" lon="5.15608">
        <ele>285</ele>
        <time>2022-02-27T11:21:53.808Z</time>
      </trkpt>
      <trkpt lat="44.36535" lon="5.15609">
        <ele>285</ele>
        <time>2022-02-27T11:21:54.807Z</time>
      </trkpt>
      <trkpt lat="44.36537" lon="5.15609">
        <ele>285</ele>
        <time>2022-02-27T11:21:55.808Z</time>
      </trkpt>
      <trkpt lat="44.3654" lon="5.15609">
        <ele>285</ele>
        <time>2022-02-27T11:21:56.808Z</time>
      </trkpt>
      <trkpt lat="44.36542" lon="5.1561">
        <ele>285</ele>
        <time>2022-02-27T11:21:57.808Z</time>
      </trkpt>
      <trkpt lat="44.36544" lon="5.1561">
        <ele>286</ele>
        <time>2022-02-27T11:21:58.808Z</time>
      </trkpt>
      <trkpt lat="44.36547" lon="5.1561">
        <ele>285</ele>
        <time>2022-02-27T11:21:59.808Z</time>
      </trkpt>
      <trkpt lat="44.36549" lon="5.15611">
        <ele>285</ele>
        <time>2022-02-27T11:22:00.808Z</time>
      </trkpt>
      <trkpt lat="44.36551" lon="5.15611">
        <ele>285</ele>
        <time>2022-02-27T11:22:01.808Z</time>
      </trkpt>
      <trkpt lat="44.36554" lon="5.15611">
        <ele>285</ele>
        <time>2022-02-27T11:22:02.807Z</time>
      </trkpt>
      <trkpt lat="44.36556" lon="5.15611">
        <ele>285</ele>
        <time>2022-02-27T11:22:03.807Z</time>
      </trkpt>
      <trkpt lat="44.36559" lon="5.15611">
        <ele>285</ele>
        <time>2022-02-27T11:22:04.808Z</time>
      </trkpt>
      <trkpt lat="44.36561" lon="5.15611">
        <ele>285</ele>
        <time>2022-02-27T11:22:05.808Z</time>
      </trkpt>
      <trkpt lat="44.36563" lon="5.15611">
        <ele>285</ele>
        <time>2022-02-27T11:22:06.808Z</time>
      </trkpt>
      <trkpt lat="44.36566" lon="5.15611">
        <ele>285</ele>
        <time>2022-02-27T11:22:07.808Z</time>
      </trkpt>
      <trkpt lat="44.36568" lon="5.15611">
        <ele>285</ele>
        <time>2022-02-27T11:22:08.808Z</time>
      </trkpt>
      <trkpt lat="44.3657" lon="5.15611">
        <ele>285</ele>
        <time>2022-02-27T11:22:09.807Z</time>
      </trkpt>
      <trkpt lat="44.36572" lon="5.15611">
        <ele>284</ele>
        <time>2022-02-27T11:22:10.808Z</time>
      </trkpt>
      <trkpt lat="44.36575" lon="5.15611">
        <ele>283</ele>
        <time>2022-02-27T11:22:11.808Z</time>
      </trkpt>
      <trkpt lat="44.36577" lon="5.1561">
        <ele>283</ele>
        <time>2022-02-27T11:22:12.808Z</time>
      </trkpt>
      <trkpt lat="44.3658" lon="5.15609">
        <ele>282</ele>
        <time>2022-02-27T11:22:13.808Z</time>
      </trkpt>
      <trkpt lat="44.36582" lon="5.15609">
        <ele>282</ele>
        <time>2022-02-27T11:22:14.807Z</time>
      </trkpt>
      <trkpt lat="44.36585" lon="5.15608">
        <ele>282</ele>
        <time>2022-02-27T11:22:15.808Z</time>
      </trkpt>
      <trkpt lat="44.36587" lon="5.15608">
        <ele>282</ele>
        <time>2022-02-27T11:22:16.808Z</time>
      </trkpt>
      <trkpt lat="44.3659" lon="5.15607">
        <ele>281</ele>
        <time>2022-02-27T11:22:17.808Z</time>
      </trkpt>
      <trkpt lat="44.36593" lon="5.15606">
        <ele>282</ele>
        <time>2022-02-27T11:22:18.808Z</time>
      </trkpt>
      <trkpt lat="44.36595" lon="5.15606">
        <ele>281</ele>
        <time>2022-02-27T11:22:19.808Z</time>
      </trkpt>
      <trkpt lat="44.36597" lon="5.15605">
        <ele>280</ele>
        <time>2022-02-27T11:22:20.808Z</time>
      </trkpt>
      <trkpt lat="44.36599" lon="5.15604">
        <ele>280</ele>
        <time>2022-02-27T11:22:21.808Z</time>
      </trkpt>
      <trkpt lat="44.36602" lon="5.15604">
        <ele>279</ele>
        <time>2022-02-27T11:22:22.807Z</time>
      </trkpt>
      <trkpt lat="44.36604" lon="5.15603">
        <ele>278</ele>
        <time>2022-02-27T11:22:23.808Z</time>
      </trkpt>
      <trkpt lat="44.36607" lon="5.15602">
        <ele>278</ele>
        <time>2022-02-27T11:22:24.808Z</time>
      </trkpt>
      <trkpt lat="44.36609" lon="5.15601">
        <ele>277</ele>
        <time>2022-02-27T11:22:25.808Z</time>
      </trkpt>
      <trkpt lat="44.36612" lon="5.156">
        <ele>277</ele>
        <time>2022-02-27T11:22:26.807Z</time>
      </trkpt>
      <trkpt lat="44.36613" lon="5.156">
        <ele>276</ele>
        <time>2022-02-27T11:22:27.808Z</time>
      </trkpt>
      <trkpt lat="44.36615" lon="5.15599">
        <ele>276</ele>
        <time>2022-02-27T11:22:28.808Z</time>
      </trkpt>
      <trkpt lat="44.36617" lon="5.15598">
        <ele>276</ele>
        <time>2022-02-27T11:22:29.808Z</time>
      </trkpt>
      <trkpt lat="44.3662" lon="5.15597">
        <ele>276</ele>
        <time>2022-02-27T11:22:30.808Z</time>
      </trkpt>
      <trkpt lat="44.36622" lon="5.15596">
        <ele>276</ele>
        <time>2022-02-27T11:22:31.808Z</time>
      </trkpt>
      <trkpt lat="44.36624" lon="5.15595">
        <ele>276</ele>
        <time>2022-02-27T11:22:32.808Z</time>
      </trkpt>
      <trkpt lat="44.36627" lon="5.15594">
        <ele>276</ele>
        <time>2022-02-27T11:22:33.808Z</time>
      </trkpt>
      <trkpt lat="44.36629" lon="5.15594">
        <ele>276</ele>
        <time>2022-02-27T11:22:34.807Z</time>
      </trkpt>
      <trkpt lat="44.36632" lon="5.15593">
        <ele>275</ele>
        <time>2022-02-27T11:22:35.808Z</time>
      </trkpt>
      <trkpt lat="44.36634" lon="5.15591">
        <ele>275</ele>
        <time>2022-02-27T11:22:36.807Z</time>
      </trkpt>
      <trkpt lat="44.36637" lon="5.1559">
        <ele>275</ele>
        <time>2022-02-27T11:22:37.808Z</time>
      </trkpt>
      <trkpt lat="44.36639" lon="5.15589">
        <ele>275</ele>
        <time>2022-02-27T11:22:38.808Z</time>
      </trkpt>
      <trkpt lat="44.36642" lon="5.15588">
        <ele>276</ele>
        <time>2022-02-27T11:22:39.808Z</time>
      </trkpt>
      <trkpt lat="44.36644" lon="5.15587">
        <ele>276</ele>
        <time>2022-02-27T11:22:40.808Z</time>
      </trkpt>
      <trkpt lat="44.36647" lon="5.15586">
        <ele>276</ele>
        <time>2022-02-27T11:22:41.808Z</time>
      </trkpt>
      <trkpt lat="44.36649" lon="5.15585">
        <ele>276</ele>
        <time>2022-02-27T11:22:42.808Z</time>
      </trkpt>
      <trkpt lat="44.36651" lon="5.15584">
        <ele>276</ele>
        <time>2022-02-27T11:22:43.808Z</time>
      </trkpt>
      <trkpt lat="44.36654" lon="5.15583">
        <ele>276</ele>
        <time>2022-02-27T11:22:44.808Z</time>
      </trkpt>
      <trkpt lat="44.36656" lon="5.15581">
        <ele>276</ele>
        <time>2022-02-27T11:22:45.808Z</time>
      </trkpt>
      <trkpt lat="44.36659" lon="5.1558">
        <ele>277</ele>
        <time>2022-02-27T11:22:46.808Z</time>
      </trkpt>
      <trkpt lat="44.36661" lon="5.15578">
        <ele>277</ele>
        <time>2022-02-27T11:22:47.808Z</time>
      </trkpt>
      <trkpt lat="44.36664" lon="5.15577">
        <ele>277</ele>
        <time>2022-02-27T11:22:48.808Z</time>
      </trkpt>
      <trkpt lat="44.36666" lon="5.15576">
        <ele>277</ele>
        <time>2022-02-27T11:22:49.808Z</time>
      </trkpt>
      <trkpt lat="44.36669" lon="5.15574">
        <ele>277</ele>
        <time>2022-02-27T11:22:50.808Z</time>
      </trkpt>
      <trkpt lat="44.36671" lon="5.15573">
        <ele>276</ele>
        <time>2022-02-27T11:22:51.808Z</time>
      </trkpt>
      <trkpt lat="44.36673" lon="5.15572">
        <ele>276</ele>
        <time>2022-02-27T11:22:52.808Z</time>
      </trkpt>
      <trkpt lat="44.36676" lon="5.1557">
        <ele>275</ele>
        <time>2022-02-27T11:22:53.807Z</time>
      </trkpt>
      <trkpt lat="44.36678" lon="5.15567">
        <ele>274</ele>
        <time>2022-02-27T11:22:54.808Z</time>
      </trkpt>
      <trkpt lat="44.36679" lon="5.15565">
        <ele>273</ele>
        <time>2022-02-27T11:22:55.807Z</time>
      </trkpt>
      <trkpt lat="44.36681" lon="5.15563">
        <ele>272</ele>
        <time>2022-02-27T11:22:56.808Z</time>
      </trkpt>
      <trkpt lat="44.36682" lon="5.1556">
        <ele>271</ele>
        <time>2022-02-27T11:22:57.808Z</time>
      </trkpt>
      <trkpt lat="44.36684" lon="5.15557">
        <ele>271</ele>
        <time>2022-02-27T11:22:58.808Z</time>
      </trkpt>
      <trkpt lat="44.36685" lon="5.15554">
        <ele>270</ele>
        <time>2022-02-27T11:22:59.808Z</time>
      </trkpt>
      <trkpt lat="44.36686" lon="5.15551">
        <ele>270</ele>
        <time>2022-02-27T11:23:00.808Z</time>
      </trkpt>
      <trkpt lat="44.36687" lon="5.15548">
        <ele>270</ele>
        <time>2022-02-27T11:23:01.808Z</time>
      </trkpt>
      <trkpt lat="44.36688" lon="5.15545">
        <ele>270</ele>
        <time>2022-02-27T11:23:02.808Z</time>
      </trkpt>
      <trkpt lat="44.36689" lon="5.15542">
        <ele>270</ele>
        <time>2022-02-27T11:23:03.808Z</time>
      </trkpt>
      <trkpt lat="44.36689" lon="5.15538">
        <ele>270</ele>
        <time>2022-02-27T11:23:04.807Z</time>
      </trkpt>
      <trkpt lat="44.36689" lon="5.15535">
        <ele>271</ele>
        <time>2022-02-27T11:23:05.807Z</time>
      </trkpt>
      <trkpt lat="44.3669" lon="5.15532">
        <ele>271</ele>
        <time>2022-02-27T11:23:06.808Z</time>
      </trkpt>
      <trkpt lat="44.3669" lon="5.15528">
        <ele>272</ele>
        <time>2022-02-27T11:23:07.808Z</time>
      </trkpt>
      <trkpt lat="44.36691" lon="5.15525">
        <ele>273</ele>
        <time>2022-02-27T11:23:08.807Z</time>
      </trkpt>
      <trkpt lat="44.36691" lon="5.15521">
        <ele>274</ele>
        <time>2022-02-27T11:23:09.808Z</time>
      </trkpt>
      <trkpt lat="44.36692" lon="5.15518">
        <ele>274</ele>
        <time>2022-02-27T11:23:10.808Z</time>
      </trkpt>
      <trkpt lat="44.36693" lon="5.15516">
        <ele>274</ele>
        <time>2022-02-27T11:23:11.808Z</time>
      </trkpt>
      <trkpt lat="44.36694" lon="5.15513">
        <ele>274</ele>
        <time>2022-02-27T11:23:12.808Z</time>
      </trkpt>
      <trkpt lat="44.36696" lon="5.15509">
        <ele>274</ele>
        <time>2022-02-27T11:23:13.808Z</time>
      </trkpt>
      <trkpt lat="44.36697" lon="5.15506">
        <ele>273</ele>
        <time>2022-02-27T11:23:14.808Z</time>
      </trkpt>
      <trkpt lat="44.36698" lon="5.15504">
        <ele>273</ele>
        <time>2022-02-27T11:23:15.808Z</time>
      </trkpt>
      <trkpt lat="44.36699" lon="5.15501">
        <ele>273</ele>
        <time>2022-02-27T11:23:16.807Z</time>
      </trkpt>
      <trkpt lat="44.36701" lon="5.15499">
        <ele>273</ele>
        <time>2022-02-27T11:23:17.808Z</time>
      </trkpt>
      <trkpt lat="44.36702" lon="5.15496">
        <ele>273</ele>
        <time>2022-02-27T11:23:18.808Z</time>
      </trkpt>
      <trkpt lat="44.36704" lon="5.15494">
        <ele>273</ele>
        <time>2022-02-27T11:23:19.807Z</time>
      </trkpt>
      <trkpt lat="44.36705" lon="5.15491">
        <ele>273</ele>
        <time>2022-02-27T11:23:20.808Z</time>
      </trkpt>
      <trkpt lat="44.36707" lon="5.15489">
        <ele>274</ele>
        <time>2022-02-27T11:23:21.808Z</time>
      </trkpt>
      <trkpt lat="44.36708" lon="5.15486">
        <ele>274</ele>
        <time>2022-02-27T11:23:22.808Z</time>
      </trkpt>
      <trkpt lat="44.3671" lon="5.15484">
        <ele>274</ele>
        <time>2022-02-27T11:23:23.807Z</time>
      </trkpt>
      <trkpt lat="44.36712" lon="5.15481">
        <ele>274</ele>
        <time>2022-02-27T11:23:24.807Z</time>
      </trkpt>
      <trkpt lat="44.36713" lon="5.15478">
        <ele>274</ele>
        <time>2022-02-27T11:23:25.808Z</time>
      </trkpt>
      <trkpt lat="44.36715" lon="5.15476">
        <ele>275</ele>
        <time>2022-02-27T11:23:26.808Z</time>
      </trkpt>
      <trkpt lat="44.36716" lon="5.15473">
        <ele>275</ele>
        <time>2022-02-27T11:23:27.807Z</time>
      </trkpt>
      <trkpt lat="44.36718" lon="5.15471">
        <ele>275</ele>
        <time>2022-02-27T11:23:28.808Z</time>
      </trkpt>
      <trkpt lat="44.36719" lon="5.15469">
        <ele>275</ele>
        <time>2022-02-27T11:23:29.807Z</time>
      </trkpt>
      <trkpt lat="44.36721" lon="5.15466">
        <ele>275</ele>
        <time>2022-02-27T11:23:30.808Z</time>
      </trkpt>
      <trkpt lat="44.36722" lon="5.15464">
        <ele>275</ele>
        <time>2022-02-27T11:23:31.808Z</time>
      </trkpt>
      <trkpt lat="44.36724" lon="5.1546">
        <ele>275</ele>
        <time>2022-02-27T11:23:32.808Z</time>
      </trkpt>
      <trkpt lat="44.36726" lon="5.15458">
        <ele>274</ele>
        <time>2022-02-27T11:23:33.808Z</time>
      </trkpt>
      <trkpt lat="44.36728" lon="5.15456">
        <ele>274</ele>
        <time>2022-02-27T11:23:34.808Z</time>
      </trkpt>
      <trkpt lat="44.36729" lon="5.15454">
        <ele>274</ele>
        <time>2022-02-27T11:23:35.807Z</time>
      </trkpt>
      <trkpt lat="44.36731" lon="5.15452">
        <ele>274</ele>
        <time>2022-02-27T11:23:36.808Z</time>
      </trkpt>
      <trkpt lat="44.36733" lon="5.15449">
        <ele>273</ele>
        <time>2022-02-27T11:23:37.808Z</time>
      </trkpt>
      <trkpt lat="44.36734" lon="5.15448">
        <ele>273</ele>
        <time>2022-02-27T11:23:38.808Z</time>
      </trkpt>
      <trkpt lat="44.36735" lon="5.15446">
        <ele>273</ele>
        <time>2022-02-27T11:23:39.808Z</time>
      </trkpt>
      <trkpt lat="44.36737" lon="5.15443">
        <ele>273</ele>
        <time>2022-02-27T11:23:40.807Z</time>
      </trkpt>
      <trkpt lat="44.36738" lon="5.1544">
        <ele>273</ele>
        <time>2022-02-27T11:23:41.808Z</time>
      </trkpt>
      <trkpt lat="44.3674" lon="5.15438">
        <ele>272</ele>
        <time>2022-02-27T11:23:42.808Z</time>
      </trkpt>
      <trkpt lat="44.36741" lon="5.15435">
        <ele>272</ele>
        <time>2022-02-27T11:23:43.808Z</time>
      </trkpt>
      <trkpt lat="44.36743" lon="5.15432">
        <ele>272</ele>
        <time>2022-02-27T11:23:44.808Z</time>
      </trkpt>
      <trkpt lat="44.36744" lon="5.1543">
        <ele>272</ele>
        <time>2022-02-27T11:23:45.808Z</time>
      </trkpt>
      <trkpt lat="44.36746" lon="5.15427">
        <ele>272</ele>
        <time>2022-02-27T11:23:46.807Z</time>
      </trkpt>
      <trkpt lat="44.36748" lon="5.15424">
        <ele>272</ele>
        <time>2022-02-27T11:23:47.808Z</time>
      </trkpt>
      <trkpt lat="44.36749" lon="5.15422">
        <ele>273</ele>
        <time>2022-02-27T11:23:48.808Z</time>
      </trkpt>
      <trkpt lat="44.36751" lon="5.1542">
        <ele>273</ele>
        <time>2022-02-27T11:23:49.808Z</time>
      </trkpt>
      <trkpt lat="44.36753" lon="5.15418">
        <ele>274</ele>
        <time>2022-02-27T11:23:50.808Z</time>
      </trkpt>
      <trkpt lat="44.36755" lon="5.15415">
        <ele>274</ele>
        <time>2022-02-27T11:23:51.807Z</time>
      </trkpt>
      <trkpt lat="44.36757" lon="5.15413">
        <ele>274</ele>
        <time>2022-02-27T11:23:52.808Z</time>
      </trkpt>
      <trkpt lat="44.36758" lon="5.15411">
        <ele>274</ele>
        <time>2022-02-27T11:23:53.808Z</time>
      </trkpt>
      <trkpt lat="44.3676" lon="5.15409">
        <ele>275</ele>
        <time>2022-02-27T11:23:54.808Z</time>
      </trkpt>
      <trkpt lat="44.36762" lon="5.15407">
        <ele>275</ele>
        <time>2022-02-27T11:23:55.808Z</time>
      </trkpt>
      <trkpt lat="44.36764" lon="5.15405">
        <ele>275</ele>
        <time>2022-02-27T11:23:56.808Z</time>
      </trkpt>
      <trkpt lat="44.36766" lon="5.15403">
        <ele>276</ele>
        <time>2022-02-27T11:23:57.808Z</time>
      </trkpt>
      <trkpt lat="44.36768" lon="5.15401">
        <ele>276</ele>
        <time>2022-02-27T11:23:58.808Z</time>
      </trkpt>
      <trkpt lat="44.3677" lon="5.154">
        <ele>276</ele>
        <time>2022-02-27T11:23:59.808Z</time>
      </trkpt>
      <trkpt lat="44.36771" lon="5.15398">
        <ele>276</ele>
        <time>2022-02-27T11:24:00.808Z</time>
      </trkpt>
      <trkpt lat="44.36773" lon="5.15396">
        <ele>276</ele>
        <time>2022-02-27T11:24:01.808Z</time>
      </trkpt>
      <trkpt lat="44.36775" lon="5.15395">
        <ele>275</ele>
        <time>2022-02-27T11:24:02.807Z</time>
      </trkpt>
      <trkpt lat="44.36777" lon="5.15394">
        <ele>274</ele>
        <time>2022-02-27T11:24:03.808Z</time>
      </trkpt>
      <trkpt lat="44.36779" lon="5.15393">
        <ele>273</ele>
        <time>2022-02-27T11:24:04.808Z</time>
      </trkpt>
      <trkpt lat="44.36781" lon="5.15392">
        <ele>273</ele>
        <time>2022-02-27T11:24:05.808Z</time>
      </trkpt>
      <trkpt lat="44.36783" lon="5.1539">
        <ele>272</ele>
        <time>2022-02-27T11:24:06.807Z</time>
      </trkpt>
      <trkpt lat="44.36785" lon="5.15389">
        <ele>272</ele>
        <time>2022-02-27T11:24:07.808Z</time>
      </trkpt>
      <trkpt lat="44.36787" lon="5.15388">
        <ele>272</ele>
        <time>2022-02-27T11:24:08.808Z</time>
      </trkpt>
      <trkpt lat="44.3679" lon="5.15387">
        <ele>273</ele>
        <time>2022-02-27T11:24:09.807Z</time>
      </trkpt>
      <trkpt lat="44.36792" lon="5.15386">
        <ele>273</ele>
        <time>2022-02-27T11:24:10.808Z</time>
      </trkpt>
      <trkpt lat="44.36794" lon="5.15385">
        <ele>273</ele>
        <time>2022-02-27T11:24:11.808Z</time>
      </trkpt>
      <trkpt lat="44.36796" lon="5.15384">
        <ele>273</ele>
        <time>2022-02-27T11:24:12.808Z</time>
      </trkpt>
      <trkpt lat="44.36798" lon="5.15383">
        <ele>273</ele>
        <time>2022-02-27T11:24:13.808Z</time>
      </trkpt>
      <trkpt lat="44.368" lon="5.15383">
        <ele>273</ele>
        <time>2022-02-27T11:24:14.808Z</time>
      </trkpt>
      <trkpt lat="44.36802" lon="5.15381">
        <ele>274</ele>
        <time>2022-02-27T11:24:15.808Z</time>
      </trkpt>
      <trkpt lat="44.36804" lon="5.1538">
        <ele>274</ele>
        <time>2022-02-27T11:24:16.808Z</time>
      </trkpt>
      <trkpt lat="44.36806" lon="5.1538">
        <ele>275</ele>
        <time>2022-02-27T11:24:17.808Z</time>
      </trkpt>
      <trkpt lat="44.36808" lon="5.15379">
        <ele>275</ele>
        <time>2022-02-27T11:24:18.808Z</time>
      </trkpt>
      <trkpt lat="44.3681" lon="5.15378">
        <ele>275</ele>
        <time>2022-02-27T11:24:19.808Z</time>
      </trkpt>
      <trkpt lat="44.36812" lon="5.15377">
        <ele>276</ele>
        <time>2022-02-27T11:24:20.808Z</time>
      </trkpt>
      <trkpt lat="44.36814" lon="5.15376">
        <ele>276</ele>
        <time>2022-02-27T11:24:21.808Z</time>
      </trkpt>
      <trkpt lat="44.36816" lon="5.15376">
        <ele>277</ele>
        <time>2022-02-27T11:24:22.808Z</time>
      </trkpt>
      <trkpt lat="44.36819" lon="5.15375">
        <ele>277</ele>
        <time>2022-02-27T11:24:23.808Z</time>
      </trkpt>
      <trkpt lat="44.36821" lon="5.15375">
        <ele>277</ele>
        <time>2022-02-27T11:24:24.808Z</time>
      </trkpt>
      <trkpt lat="44.36824" lon="5.15374">
        <ele>277</ele>
        <time>2022-02-27T11:24:25.808Z</time>
      </trkpt>
      <trkpt lat="44.36826" lon="5.15374">
        <ele>277</ele>
        <time>2022-02-27T11:24:26.808Z</time>
      </trkpt>
      <trkpt lat="44.36829" lon="5.15374">
        <ele>278</ele>
        <time>2022-02-27T11:24:27.808Z</time>
      </trkpt>
      <trkpt lat="44.36831" lon="5.15374">
        <ele>278</ele>
        <time>2022-02-27T11:24:28.808Z</time>
      </trkpt>
      <trkpt lat="44.36833" lon="5.15374">
        <ele>279</ele>
        <time>2022-02-27T11:24:29.807Z</time>
      </trkpt>
      <trkpt lat="44.36835" lon="5.15374">
        <ele>279</ele>
        <time>2022-02-27T11:24:30.808Z</time>
      </trkpt>
      <trkpt lat="44.36837" lon="5.15375">
        <ele>280</ele>
        <time>2022-02-27T11:24:31.808Z</time>
      </trkpt>
      <trkpt lat="44.3684" lon="5.15375">
        <ele>280</ele>
        <time>2022-02-27T11:24:32.808Z</time>
      </trkpt>
      <trkpt lat="44.36841" lon="5.15376">
        <ele>280</ele>
        <time>2022-02-27T11:24:33.808Z</time>
      </trkpt>
      <trkpt lat="44.36843" lon="5.15376">
        <ele>280</ele>
        <time>2022-02-27T11:24:34.808Z</time>
      </trkpt>
      <trkpt lat="44.36845" lon="5.15376">
        <ele>280</ele>
        <time>2022-02-27T11:24:35.808Z</time>
      </trkpt>
      <trkpt lat="44.36847" lon="5.15376">
        <ele>280</ele>
        <time>2022-02-27T11:24:36.807Z</time>
      </trkpt>
      <trkpt lat="44.36849" lon="5.15376">
        <ele>280</ele>
        <time>2022-02-27T11:24:37.808Z</time>
      </trkpt>
      <trkpt lat="44.36852" lon="5.15376">
        <ele>280</ele>
        <time>2022-02-27T11:24:38.808Z</time>
      </trkpt>
      <trkpt lat="44.36854" lon="5.15376">
        <ele>280</ele>
        <time>2022-02-27T11:24:39.808Z</time>
      </trkpt>
      <trkpt lat="44.36856" lon="5.15376">
        <ele>281</ele>
        <time>2022-02-27T11:24:40.807Z</time>
      </trkpt>
      <trkpt lat="44.36858" lon="5.15376">
        <ele>281</ele>
        <time>2022-02-27T11:24:41.808Z</time>
      </trkpt>
      <trkpt lat="44.3686" lon="5.15376">
        <ele>281</ele>
        <time>2022-02-27T11:24:42.808Z</time>
      </trkpt>
      <trkpt lat="44.36861" lon="5.15376">
        <ele>282</ele>
        <time>2022-02-27T11:24:43.808Z</time>
      </trkpt>
      <trkpt lat="44.36863" lon="5.15375">
        <ele>283</ele>
        <time>2022-02-27T11:24:44.808Z</time>
      </trkpt>
      <trkpt lat="44.36865" lon="5.15375">
        <ele>283</ele>
        <time>2022-02-27T11:24:45.808Z</time>
      </trkpt>
      <trkpt lat="44.36867" lon="5.15375">
        <ele>283</ele>
        <time>2022-02-27T11:24:46.807Z</time>
      </trkpt>
      <trkpt lat="44.36869" lon="5.15374">
        <ele>283</ele>
        <time>2022-02-27T11:24:47.808Z</time>
      </trkpt>
      <trkpt lat="44.36871" lon="5.15374">
        <ele>283</ele>
        <time>2022-02-27T11:24:48.808Z</time>
      </trkpt>
      <trkpt lat="44.36873" lon="5.15374">
        <ele>283</ele>
        <time>2022-02-27T11:24:49.808Z</time>
      </trkpt>
      <trkpt lat="44.36875" lon="5.15373">
        <ele>282</ele>
        <time>2022-02-27T11:24:50.808Z</time>
      </trkpt>
      <trkpt lat="44.36877" lon="5.15373">
        <ele>282</ele>
        <time>2022-02-27T11:24:51.808Z</time>
      </trkpt>
      <trkpt lat="44.36879" lon="5.15372">
        <ele>282</ele>
        <time>2022-02-27T11:24:52.808Z</time>
      </trkpt>
      <trkpt lat="44.36881" lon="5.15372">
        <ele>282</ele>
        <time>2022-02-27T11:24:53.807Z</time>
      </trkpt>
      <trkpt lat="44.36883" lon="5.15372">
        <ele>282</ele>
        <time>2022-02-27T11:24:54.807Z</time>
      </trkpt>
      <trkpt lat="44.36885" lon="5.15372">
        <ele>281</ele>
        <time>2022-02-27T11:24:55.808Z</time>
      </trkpt>
      <trkpt lat="44.36887" lon="5.15372">
        <ele>282</ele>
        <time>2022-02-27T11:24:56.808Z</time>
      </trkpt>
      <trkpt lat="44.36889" lon="5.15371">
        <ele>282</ele>
        <time>2022-02-27T11:24:57.807Z</time>
      </trkpt>
      <trkpt lat="44.36891" lon="5.15371">
        <ele>282</ele>
        <time>2022-02-27T11:24:58.808Z</time>
      </trkpt>
      <trkpt lat="44.36894" lon="5.15371">
        <ele>281</ele>
        <time>2022-02-27T11:24:59.808Z</time>
      </trkpt>
      <trkpt lat="44.36896" lon="5.15371">
        <ele>281</ele>
        <time>2022-02-27T11:25:00.807Z</time>
      </trkpt>
      <trkpt lat="44.36897" lon="5.15371">
        <ele>281</ele>
        <time>2022-02-27T11:25:01.808Z</time>
      </trkpt>
      <trkpt lat="44.36899" lon="5.15371">
        <ele>280</ele>
        <time>2022-02-27T11:25:02.808Z</time>
      </trkpt>
      <trkpt lat="44.36901" lon="5.15372">
        <ele>280</ele>
        <time>2022-02-27T11:25:03.807Z</time>
      </trkpt>
      <trkpt lat="44.36903" lon="5.15371">
        <ele>279</ele>
        <time>2022-02-27T11:25:04.807Z</time>
      </trkpt>
      <trkpt lat="44.36905" lon="5.15371">
        <ele>279</ele>
        <time>2022-02-27T11:25:05.808Z</time>
      </trkpt>
      <trkpt lat="44.36907" lon="5.1537">
        <ele>278</ele>
        <time>2022-02-27T11:25:06.808Z</time>
      </trkpt>
      <trkpt lat="44.36909" lon="5.1537">
        <ele>278</ele>
        <time>2022-02-27T11:25:07.808Z</time>
      </trkpt>
      <trkpt lat="44.36911" lon="5.1537">
        <ele>278</ele>
        <time>2022-02-27T11:25:08.807Z</time>
      </trkpt>
      <trkpt lat="44.36913" lon="5.1537">
        <ele>278</ele>
        <time>2022-02-27T11:25:09.808Z</time>
      </trkpt>
      <trkpt lat="44.36915" lon="5.1537">
        <ele>278</ele>
        <time>2022-02-27T11:25:10.808Z</time>
      </trkpt>
      <trkpt lat="44.36918" lon="5.1537">
        <ele>279</ele>
        <time>2022-02-27T11:25:11.808Z</time>
      </trkpt>
      <trkpt lat="44.3692" lon="5.1537">
        <ele>279</ele>
        <time>2022-02-27T11:25:12.808Z</time>
      </trkpt>
      <trkpt lat="44.36922" lon="5.1537">
        <ele>279</ele>
        <time>2022-02-27T11:25:13.808Z</time>
      </trkpt>
      <trkpt lat="44.36924" lon="5.1537">
        <ele>279</ele>
        <time>2022-02-27T11:25:14.807Z</time>
      </trkpt>
      <trkpt lat="44.36926" lon="5.15369">
        <ele>279</ele>
        <time>2022-02-27T11:25:15.808Z</time>
      </trkpt>
      <trkpt lat="44.36928" lon="5.15369">
        <ele>279</ele>
        <time>2022-02-27T11:25:16.808Z</time>
      </trkpt>
      <trkpt lat="44.3693" lon="5.15369">
        <ele>280</ele>
        <time>2022-02-27T11:25:17.808Z</time>
      </trkpt>
      <trkpt lat="44.36933" lon="5.15369">
        <ele>280</ele>
        <time>2022-02-27T11:25:18.808Z</time>
      </trkpt>
      <trkpt lat="44.36935" lon="5.15369">
        <ele>281</ele>
        <time>2022-02-27T11:25:19.808Z</time>
      </trkpt>
      <trkpt lat="44.36937" lon="5.15369">
        <ele>281</ele>
        <time>2022-02-27T11:25:20.808Z</time>
      </trkpt>
      <trkpt lat="44.36939" lon="5.15369">
        <ele>281</ele>
        <time>2022-02-27T11:25:21.808Z</time>
      </trkpt>
      <trkpt lat="44.36941" lon="5.15369">
        <ele>282</ele>
        <time>2022-02-27T11:25:22.808Z</time>
      </trkpt>
      <trkpt lat="44.36944" lon="5.15369">
        <ele>282</ele>
        <time>2022-02-27T11:25:23.808Z</time>
      </trkpt>
      <trkpt lat="44.36946" lon="5.15369">
        <ele>282</ele>
        <time>2022-02-27T11:25:24.808Z</time>
      </trkpt>
      <trkpt lat="44.36948" lon="5.15369">
        <ele>282</ele>
        <time>2022-02-27T11:25:25.808Z</time>
      </trkpt>
      <trkpt lat="44.36951" lon="5.15369">
        <ele>282</ele>
        <time>2022-02-27T11:25:26.808Z</time>
      </trkpt>
      <trkpt lat="44.36953" lon="5.15369">
        <ele>282</ele>
        <time>2022-02-27T11:25:27.808Z</time>
      </trkpt>
      <trkpt lat="44.36956" lon="5.15369">
        <ele>282</ele>
        <time>2022-02-27T11:25:28.807Z</time>
      </trkpt>
      <trkpt lat="44.36958" lon="5.15369">
        <ele>282</ele>
        <time>2022-02-27T11:25:29.808Z</time>
      </trkpt>
      <trkpt lat="44.3696" lon="5.1537">
        <ele>282</ele>
        <time>2022-02-27T11:25:30.808Z</time>
      </trkpt>
      <trkpt lat="44.36962" lon="5.1537">
        <ele>282</ele>
        <time>2022-02-27T11:25:31.808Z</time>
      </trkpt>
      <trkpt lat="44.36965" lon="5.1537">
        <ele>282</ele>
        <time>2022-02-27T11:25:32.808Z</time>
      </trkpt>
      <trkpt lat="44.36967" lon="5.1537">
        <ele>282</ele>
        <time>2022-02-27T11:25:33.808Z</time>
      </trkpt>
      <trkpt lat="44.36969" lon="5.15371">
        <ele>282</ele>
        <time>2022-02-27T11:25:34.808Z</time>
      </trkpt>
      <trkpt lat="44.36972" lon="5.15371">
        <ele>282</ele>
        <time>2022-02-27T11:25:35.808Z</time>
      </trkpt>
      <trkpt lat="44.36974" lon="5.15372">
        <ele>283</ele>
        <time>2022-02-27T11:25:36.808Z</time>
      </trkpt>
      <trkpt lat="44.36976" lon="5.15372">
        <ele>283</ele>
        <time>2022-02-27T11:25:37.808Z</time>
      </trkpt>
      <trkpt lat="44.36978" lon="5.15372">
        <ele>283</ele>
        <time>2022-02-27T11:25:38.808Z</time>
      </trkpt>
      <trkpt lat="44.36981" lon="5.15373">
        <ele>283</ele>
        <time>2022-02-27T11:25:39.808Z</time>
      </trkpt>
      <trkpt lat="44.36983" lon="5.15374">
        <ele>283</ele>
        <time>2022-02-27T11:25:40.808Z</time>
      </trkpt>
      <trkpt lat="44.36985" lon="5.15375">
        <ele>283</ele>
        <time>2022-02-27T11:25:41.808Z</time>
      </trkpt>
      <trkpt lat="44.36987" lon="5.15376">
        <ele>283</ele>
        <time>2022-02-27T11:25:42.807Z</time>
      </trkpt>
      <trkpt lat="44.36989" lon="5.15377">
        <ele>283</ele>
        <time>2022-02-27T11:25:43.808Z</time>
      </trkpt>
      <trkpt lat="44.36991" lon="5.15377">
        <ele>283</ele>
        <time>2022-02-27T11:25:44.807Z</time>
      </trkpt>
      <trkpt lat="44.36993" lon="5.15379">
        <ele>283</ele>
        <time>2022-02-27T11:25:45.808Z</time>
      </trkpt>
      <trkpt lat="44.36995" lon="5.1538">
        <ele>283</ele>
        <time>2022-02-27T11:25:46.807Z</time>
      </trkpt>
      <trkpt lat="44.36997" lon="5.15381">
        <ele>282</ele>
        <time>2022-02-27T11:25:47.808Z</time>
      </trkpt>
      <trkpt lat="44.37" lon="5.15383">
        <ele>282</ele>
        <time>2022-02-27T11:25:48.808Z</time>
      </trkpt>
      <trkpt lat="44.37002" lon="5.15384">
        <ele>282</ele>
        <time>2022-02-27T11:25:49.808Z</time>
      </trkpt>
      <trkpt lat="44.37004" lon="5.15386">
        <ele>282</ele>
        <time>2022-02-27T11:25:50.808Z</time>
      </trkpt>
      <trkpt lat="44.37006" lon="5.15387">
        <ele>283</ele>
        <time>2022-02-27T11:25:51.808Z</time>
      </trkpt>
      <trkpt lat="44.37008" lon="5.15389">
        <ele>283</ele>
        <time>2022-02-27T11:25:52.808Z</time>
      </trkpt>
      <trkpt lat="44.3701" lon="5.1539">
        <ele>284</ele>
        <time>2022-02-27T11:25:53.808Z</time>
      </trkpt>
      <trkpt lat="44.37012" lon="5.15392">
        <ele>285</ele>
        <time>2022-02-27T11:25:54.807Z</time>
      </trkpt>
      <trkpt lat="44.37014" lon="5.15393">
        <ele>285</ele>
        <time>2022-02-27T11:25:55.807Z</time>
      </trkpt>
      <trkpt lat="44.37016" lon="5.15395">
        <ele>286</ele>
        <time>2022-02-27T11:25:56.808Z</time>
      </trkpt>
      <trkpt lat="44.37018" lon="5.15397">
        <ele>286</ele>
        <time>2022-02-27T11:25:57.808Z</time>
      </trkpt>
      <trkpt lat="44.3702" lon="5.15399">
        <ele>287</ele>
        <time>2022-02-27T11:25:58.808Z</time>
      </trkpt>
      <trkpt lat="44.37022" lon="5.154">
        <ele>287</ele>
        <time>2022-02-27T11:25:59.808Z</time>
      </trkpt>
      <trkpt lat="44.37024" lon="5.15402">
        <ele>287</ele>
        <time>2022-02-27T11:26:00.807Z</time>
      </trkpt>
      <trkpt lat="44.37027" lon="5.15405">
        <ele>287</ele>
        <time>2022-02-27T11:26:01.807Z</time>
      </trkpt>
      <trkpt lat="44.37028" lon="5.15407">
        <ele>287</ele>
        <time>2022-02-27T11:26:02.808Z</time>
      </trkpt>
      <trkpt lat="44.3703" lon="5.15409">
        <ele>287</ele>
        <time>2022-02-27T11:26:03.808Z</time>
      </trkpt>
      <trkpt lat="44.37033" lon="5.15411">
        <ele>287</ele>
        <time>2022-02-27T11:26:04.808Z</time>
      </trkpt>
      <trkpt lat="44.37035" lon="5.15414">
        <ele>287</ele>
        <time>2022-02-27T11:26:05.807Z</time>
      </trkpt>
      <trkpt lat="44.37036" lon="5.15417">
        <ele>287</ele>
        <time>2022-02-27T11:26:06.808Z</time>
      </trkpt>
      <trkpt lat="44.37038" lon="5.1542">
        <ele>287</ele>
        <time>2022-02-27T11:26:07.808Z</time>
      </trkpt>
      <trkpt lat="44.37039" lon="5.15422">
        <ele>287</ele>
        <time>2022-02-27T11:26:08.808Z</time>
      </trkpt>
      <trkpt lat="44.37041" lon="5.15425">
        <ele>287</ele>
        <time>2022-02-27T11:26:09.808Z</time>
      </trkpt>
      <trkpt lat="44.37042" lon="5.15427">
        <ele>287</ele>
        <time>2022-02-27T11:26:10.808Z</time>
      </trkpt>
      <trkpt lat="44.37043" lon="5.1543">
        <ele>287</ele>
        <time>2022-02-27T11:26:11.808Z</time>
      </trkpt>
      <trkpt lat="44.37045" lon="5.15432">
        <ele>286</ele>
        <time>2022-02-27T11:26:12.808Z</time>
      </trkpt>
      <trkpt lat="44.37046" lon="5.15434">
        <ele>286</ele>
        <time>2022-02-27T11:26:13.807Z</time>
      </trkpt>
      <trkpt lat="44.37047" lon="5.15436">
        <ele>286</ele>
        <time>2022-02-27T11:26:14.807Z</time>
      </trkpt>
      <trkpt lat="44.37048" lon="5.15439">
        <ele>286</ele>
        <time>2022-02-27T11:26:15.807Z</time>
      </trkpt>
      <trkpt lat="44.37049" lon="5.15441">
        <ele>286</ele>
        <time>2022-02-27T11:26:16.808Z</time>
      </trkpt>
      <trkpt lat="44.3705" lon="5.15444">
        <ele>286</ele>
        <time>2022-02-27T11:26:17.807Z</time>
      </trkpt>
      <trkpt lat="44.37051" lon="5.15448">
        <ele>285</ele>
        <time>2022-02-27T11:26:18.808Z</time>
      </trkpt>
      <trkpt lat="44.37051" lon="5.15451">
        <ele>285</ele>
        <time>2022-02-27T11:26:19.808Z</time>
      </trkpt>
      <trkpt lat="44.37051" lon="5.15455">
        <ele>285</ele>
        <time>2022-02-27T11:26:20.808Z</time>
      </trkpt>
      <trkpt lat="44.37051" lon="5.15458">
        <ele>284</ele>
        <time>2022-02-27T11:26:21.807Z</time>
      </trkpt>
      <trkpt lat="44.37051" lon="5.15462">
        <ele>283</ele>
        <time>2022-02-27T11:26:22.808Z</time>
      </trkpt>
      <trkpt lat="44.37051" lon="5.15465">
        <ele>283</ele>
        <time>2022-02-27T11:26:23.808Z</time>
      </trkpt>
      <trkpt lat="44.37051" lon="5.15468">
        <ele>282</ele>
        <time>2022-02-27T11:26:24.807Z</time>
      </trkpt>
      <trkpt lat="44.37051" lon="5.15473">
        <ele>282</ele>
        <time>2022-02-27T11:26:25.808Z</time>
      </trkpt>
      <trkpt lat="44.37051" lon="5.15477">
        <ele>281</ele>
        <time>2022-02-27T11:26:26.808Z</time>
      </trkpt>
      <trkpt lat="44.37051" lon="5.1548">
        <ele>281</ele>
        <time>2022-02-27T11:26:27.807Z</time>
      </trkpt>
      <trkpt lat="44.37051" lon="5.15483">
        <ele>281</ele>
        <time>2022-02-27T11:26:28.808Z</time>
      </trkpt>
      <trkpt lat="44.3705" lon="5.15486">
        <ele>281</ele>
        <time>2022-02-27T11:26:29.808Z</time>
      </trkpt>
      <trkpt lat="44.3705" lon="5.15489">
        <ele>281</ele>
        <time>2022-02-27T11:26:30.808Z</time>
      </trkpt>
      <trkpt lat="44.3705" lon="5.15493">
        <ele>281</ele>
        <time>2022-02-27T11:26:31.808Z</time>
      </trkpt>
      <trkpt lat="44.3705" lon="5.15497">
        <ele>281</ele>
        <time>2022-02-27T11:26:32.808Z</time>
      </trkpt>
      <trkpt lat="44.37051" lon="5.155">
        <ele>282</ele>
        <time>2022-02-27T11:26:33.808Z</time>
      </trkpt>
      <trkpt lat="44.37051" lon="5.15503">
        <ele>282</ele>
        <time>2022-02-27T11:26:34.808Z</time>
      </trkpt>
      <trkpt lat="44.37051" lon="5.15506">
        <ele>282</ele>
        <time>2022-02-27T11:26:35.808Z</time>
      </trkpt>
      <trkpt lat="44.37051" lon="5.1551">
        <ele>282</ele>
        <time>2022-02-27T11:26:36.808Z</time>
      </trkpt>
      <trkpt lat="44.37051" lon="5.15514">
        <ele>283</ele>
        <time>2022-02-27T11:26:37.808Z</time>
      </trkpt>
      <trkpt lat="44.37051" lon="5.15518">
        <ele>283</ele>
        <time>2022-02-27T11:26:38.807Z</time>
      </trkpt>
      <trkpt lat="44.3705" lon="5.15521">
        <ele>282</ele>
        <time>2022-02-27T11:26:39.808Z</time>
      </trkpt>
      <trkpt lat="44.37049" lon="5.15524">
        <ele>281</ele>
        <time>2022-02-27T11:26:40.808Z</time>
      </trkpt>
      <trkpt lat="44.37048" lon="5.15528">
        <ele>281</ele>
        <time>2022-02-27T11:26:41.808Z</time>
      </trkpt>
      <trkpt lat="44.37048" lon="5.15531">
        <ele>280</ele>
        <time>2022-02-27T11:26:42.808Z</time>
      </trkpt>
      <trkpt lat="44.37047" lon="5.15535">
        <ele>279</ele>
        <time>2022-02-27T11:26:43.808Z</time>
      </trkpt>
      <trkpt lat="44.37047" lon="5.15538">
        <ele>279</ele>
        <time>2022-02-27T11:26:44.808Z</time>
      </trkpt>
      <trkpt lat="44.37047" lon="5.15541">
        <ele>279</ele>
        <time>2022-02-27T11:26:45.808Z</time>
      </trkpt>
      <trkpt lat="44.37046" lon="5.15544">
        <ele>278</ele>
        <time>2022-02-27T11:26:46.808Z</time>
      </trkpt>
      <trkpt lat="44.37046" lon="5.15548">
        <ele>278</ele>
        <time>2022-02-27T11:26:47.808Z</time>
      </trkpt>
      <trkpt lat="44.37046" lon="5.15551">
        <ele>278</ele>
        <time>2022-02-27T11:26:48.807Z</time>
      </trkpt>
      <trkpt lat="44.37047" lon="5.15554">
        <ele>277</ele>
        <time>2022-02-27T11:26:49.808Z</time>
      </trkpt>
      <trkpt lat="44.37047" lon="5.15559">
        <ele>277</ele>
        <time>2022-02-27T11:26:50.807Z</time>
      </trkpt>
      <trkpt lat="44.37047" lon="5.15562">
        <ele>277</ele>
        <time>2022-02-27T11:26:51.807Z</time>
      </trkpt>
      <trkpt lat="44.37046" lon="5.15565">
        <ele>277</ele>
        <time>2022-02-27T11:26:52.808Z</time>
      </trkpt>
      <trkpt lat="44.37046" lon="5.15567">
        <ele>277</ele>
        <time>2022-02-27T11:26:53.808Z</time>
      </trkpt>
      <trkpt lat="44.37046" lon="5.1557">
        <ele>277</ele>
        <time>2022-02-27T11:26:54.808Z</time>
      </trkpt>
      <trkpt lat="44.37046" lon="5.15572">
        <ele>278</ele>
        <time>2022-02-27T11:26:55.808Z</time>
      </trkpt>
      <trkpt lat="44.37046" lon="5.15575">
        <ele>278</ele>
        <time>2022-02-27T11:26:56.808Z</time>
      </trkpt>
      <trkpt lat="44.37047" lon="5.15579">
        <ele>278</ele>
        <time>2022-02-27T11:26:57.807Z</time>
      </trkpt>
      <trkpt lat="44.37047" lon="5.15581">
        <ele>278</ele>
        <time>2022-02-27T11:26:58.808Z</time>
      </trkpt>
      <trkpt lat="44.37048" lon="5.15583">
        <ele>279</ele>
        <time>2022-02-27T11:26:59.808Z</time>
      </trkpt>
      <trkpt lat="44.37049" lon="5.15586">
        <ele>279</ele>
        <time>2022-02-27T11:27:00.807Z</time>
      </trkpt>
      <trkpt lat="44.3705" lon="5.15589">
        <ele>279</ele>
        <time>2022-02-27T11:27:01.807Z</time>
      </trkpt>
      <trkpt lat="44.37051" lon="5.15592">
        <ele>279</ele>
        <time>2022-02-27T11:27:02.808Z</time>
      </trkpt>
      <trkpt lat="44.37052" lon="5.15594">
        <ele>279</ele>
        <time>2022-02-27T11:27:03.808Z</time>
      </trkpt>
      <trkpt lat="44.37054" lon="5.15597">
        <ele>279</ele>
        <time>2022-02-27T11:27:04.808Z</time>
      </trkpt>
      <trkpt lat="44.37055" lon="5.156">
        <ele>280</ele>
        <time>2022-02-27T11:27:05.807Z</time>
      </trkpt>
      <trkpt lat="44.37056" lon="5.15602">
        <ele>280</ele>
        <time>2022-02-27T11:27:06.807Z</time>
      </trkpt>
      <trkpt lat="44.37057" lon="5.15605">
        <ele>280</ele>
        <time>2022-02-27T11:27:07.808Z</time>
      </trkpt>
      <trkpt lat="44.37059" lon="5.15608">
        <ele>280</ele>
        <time>2022-02-27T11:27:08.807Z</time>
      </trkpt>
      <trkpt lat="44.3706" lon="5.15611">
        <ele>280</ele>
        <time>2022-02-27T11:27:09.808Z</time>
      </trkpt>
      <trkpt lat="44.37061" lon="5.15613">
        <ele>280</ele>
        <time>2022-02-27T11:27:10.808Z</time>
      </trkpt>
      <trkpt lat="44.37062" lon="5.15616">
        <ele>280</ele>
        <time>2022-02-27T11:27:11.807Z</time>
      </trkpt>
      <trkpt lat="44.37063" lon="5.15619">
        <ele>281</ele>
        <time>2022-02-27T11:27:12.808Z</time>
      </trkpt>
      <trkpt lat="44.37064" lon="5.15621">
        <ele>281</ele>
        <time>2022-02-27T11:27:13.807Z</time>
      </trkpt>
      <trkpt lat="44.37065" lon="5.15623">
        <ele>282</ele>
        <time>2022-02-27T11:27:14.808Z</time>
      </trkpt>
      <trkpt lat="44.37066" lon="5.15626">
        <ele>282</ele>
        <time>2022-02-27T11:27:15.808Z</time>
      </trkpt>
      <trkpt lat="44.37067" lon="5.15628">
        <ele>283</ele>
        <time>2022-02-27T11:27:16.807Z</time>
      </trkpt>
      <trkpt lat="44.37068" lon="5.15631">
        <ele>283</ele>
        <time>2022-02-27T11:27:17.808Z</time>
      </trkpt>
      <trkpt lat="44.37069" lon="5.15633">
        <ele>284</ele>
        <time>2022-02-27T11:27:18.808Z</time>
      </trkpt>
      <trkpt lat="44.3707" lon="5.15636">
        <ele>284</ele>
        <time>2022-02-27T11:27:19.808Z</time>
      </trkpt>
      <trkpt lat="44.37071" lon="5.15639">
        <ele>284</ele>
        <time>2022-02-27T11:27:20.808Z</time>
      </trkpt>
      <trkpt lat="44.37073" lon="5.15641">
        <ele>285</ele>
        <time>2022-02-27T11:27:21.808Z</time>
      </trkpt>
      <trkpt lat="44.37074" lon="5.15643">
        <ele>285</ele>
        <time>2022-02-27T11:27:22.808Z</time>
      </trkpt>
      <trkpt lat="44.37075" lon="5.15646">
        <ele>285</ele>
        <time>2022-02-27T11:27:23.808Z</time>
      </trkpt>
      <trkpt lat="44.37076" lon="5.15648">
        <ele>285</ele>
        <time>2022-02-27T11:27:24.808Z</time>
      </trkpt>
      <trkpt lat="44.37078" lon="5.15652">
        <ele>286</ele>
        <time>2022-02-27T11:27:25.808Z</time>
      </trkpt>
      <trkpt lat="44.3708" lon="5.15654">
        <ele>286</ele>
        <time>2022-02-27T11:27:26.807Z</time>
      </trkpt>
      <trkpt lat="44.37082" lon="5.15657">
        <ele>286</ele>
        <time>2022-02-27T11:27:27.808Z</time>
      </trkpt>
      <trkpt lat="44.37084" lon="5.1566">
        <ele>287</ele>
        <time>2022-02-27T11:27:28.808Z</time>
      </trkpt>
      <trkpt lat="44.37085" lon="5.15664">
        <ele>287</ele>
        <time>2022-02-27T11:27:29.807Z</time>
      </trkpt>
      <trkpt lat="44.37087" lon="5.15667">
        <ele>287</ele>
        <time>2022-02-27T11:27:30.807Z</time>
      </trkpt>
      <trkpt lat="44.37087" lon="5.1567">
        <ele>287</ele>
        <time>2022-02-27T11:27:31.808Z</time>
      </trkpt>
      <trkpt lat="44.37089" lon="5.15675">
        <ele>287</ele>
        <time>2022-02-27T11:27:32.808Z</time>
      </trkpt>
      <trkpt lat="44.37089" lon="5.15678">
        <ele>287</ele>
        <time>2022-02-27T11:27:33.808Z</time>
      </trkpt>
      <trkpt lat="44.3709" lon="5.15681">
        <ele>287</ele>
        <time>2022-02-27T11:27:34.808Z</time>
      </trkpt>
      <trkpt lat="44.37091" lon="5.15683">
        <ele>287</ele>
        <time>2022-02-27T11:27:35.807Z</time>
      </trkpt>
      <trkpt lat="44.37092" lon="5.15686">
        <ele>287</ele>
        <time>2022-02-27T11:27:36.808Z</time>
      </trkpt>
      <trkpt lat="44.37093" lon="5.15689">
        <ele>287</ele>
        <time>2022-02-27T11:27:37.808Z</time>
      </trkpt>
      <trkpt lat="44.37094" lon="5.15692">
        <ele>287</ele>
        <time>2022-02-27T11:27:38.807Z</time>
      </trkpt>
      <trkpt lat="44.37095" lon="5.15696">
        <ele>287</ele>
        <time>2022-02-27T11:27:39.808Z</time>
      </trkpt>
      <trkpt lat="44.37096" lon="5.15699">
        <ele>287</ele>
        <time>2022-02-27T11:27:40.808Z</time>
      </trkpt>
      <trkpt lat="44.37097" lon="5.15702">
        <ele>286</ele>
        <time>2022-02-27T11:27:41.808Z</time>
      </trkpt>
      <trkpt lat="44.37098" lon="5.15705">
        <ele>286</ele>
        <time>2022-02-27T11:27:42.807Z</time>
      </trkpt>
      <trkpt lat="44.37099" lon="5.15709">
        <ele>286</ele>
        <time>2022-02-27T11:27:43.808Z</time>
      </trkpt>
      <trkpt lat="44.37101" lon="5.15712">
        <ele>286</ele>
        <time>2022-02-27T11:27:44.808Z</time>
      </trkpt>
      <trkpt lat="44.37102" lon="5.15715">
        <ele>285</ele>
        <time>2022-02-27T11:27:45.808Z</time>
      </trkpt>
      <trkpt lat="44.37103" lon="5.15719">
        <ele>285</ele>
        <time>2022-02-27T11:27:46.808Z</time>
      </trkpt>
      <trkpt lat="44.37104" lon="5.15722">
        <ele>284</ele>
        <time>2022-02-27T11:27:47.808Z</time>
      </trkpt>
      <trkpt lat="44.37105" lon="5.15726">
        <ele>283</ele>
        <time>2022-02-27T11:27:48.807Z</time>
      </trkpt>
      <trkpt lat="44.37106" lon="5.15729">
        <ele>282</ele>
        <time>2022-02-27T11:27:49.808Z</time>
      </trkpt>
      <trkpt lat="44.37107" lon="5.15732">
        <ele>281</ele>
        <time>2022-02-27T11:27:50.807Z</time>
      </trkpt>
      <trkpt lat="44.37108" lon="5.15735">
        <ele>281</ele>
        <time>2022-02-27T11:27:51.807Z</time>
      </trkpt>
      <trkpt lat="44.37109" lon="5.15738">
        <ele>280</ele>
        <time>2022-02-27T11:27:52.807Z</time>
      </trkpt>
      <trkpt lat="44.3711" lon="5.15741">
        <ele>280</ele>
        <time>2022-02-27T11:27:53.808Z</time>
      </trkpt>
      <trkpt lat="44.37111" lon="5.15743">
        <ele>280</ele>
        <time>2022-02-27T11:27:54.808Z</time>
      </trkpt>
      <trkpt lat="44.37112" lon="5.15746">
        <ele>281</ele>
        <time>2022-02-27T11:27:55.808Z</time>
      </trkpt>
      <trkpt lat="44.37114" lon="5.15749">
        <ele>281</ele>
        <time>2022-02-27T11:27:56.808Z</time>
      </trkpt>
      <trkpt lat="44.37115" lon="5.15752">
        <ele>281</ele>
        <time>2022-02-27T11:27:57.808Z</time>
      </trkpt>
      <trkpt lat="44.37116" lon="5.15755">
        <ele>281</ele>
        <time>2022-02-27T11:27:58.808Z</time>
      </trkpt>
      <trkpt lat="44.37117" lon="5.15758">
        <ele>281</ele>
        <time>2022-02-27T11:27:59.808Z</time>
      </trkpt>
      <trkpt lat="44.37118" lon="5.1576">
        <ele>282</ele>
        <time>2022-02-27T11:28:00.808Z</time>
      </trkpt>
      <trkpt lat="44.37119" lon="5.15763">
        <ele>282</ele>
        <time>2022-02-27T11:28:01.808Z</time>
      </trkpt>
      <trkpt lat="44.3712" lon="5.15767">
        <ele>281</ele>
        <time>2022-02-27T11:28:02.808Z</time>
      </trkpt>
      <trkpt lat="44.37121" lon="5.15769">
        <ele>281</ele>
        <time>2022-02-27T11:28:03.808Z</time>
      </trkpt>
      <trkpt lat="44.37121" lon="5.15773">
        <ele>281</ele>
        <time>2022-02-27T11:28:04.808Z</time>
      </trkpt>
      <trkpt lat="44.37123" lon="5.15775">
        <ele>281</ele>
        <time>2022-02-27T11:28:05.808Z</time>
      </trkpt>
      <trkpt lat="44.37124" lon="5.15778">
        <ele>281</ele>
        <time>2022-02-27T11:28:06.808Z</time>
      </trkpt>
      <trkpt lat="44.37125" lon="5.1578">
        <ele>281</ele>
        <time>2022-02-27T11:28:07.808Z</time>
      </trkpt>
      <trkpt lat="44.37126" lon="5.15782">
        <ele>281</ele>
        <time>2022-02-27T11:28:08.808Z</time>
      </trkpt>
      <trkpt lat="44.37127" lon="5.15786">
        <ele>281</ele>
        <time>2022-02-27T11:28:09.808Z</time>
      </trkpt>
      <trkpt lat="44.37127" lon="5.15789">
        <ele>281</ele>
        <time>2022-02-27T11:28:10.807Z</time>
      </trkpt>
      <trkpt lat="44.37128" lon="5.15794">
        <ele>280</ele>
        <time>2022-02-27T11:28:11.808Z</time>
      </trkpt>
      <trkpt lat="44.3713" lon="5.15798">
        <ele>280</ele>
        <time>2022-02-27T11:28:12.808Z</time>
      </trkpt>
      <trkpt lat="44.37131" lon="5.15801">
        <ele>280</ele>
        <time>2022-02-27T11:28:13.808Z</time>
      </trkpt>
      <trkpt lat="44.37132" lon="5.15804">
        <ele>280</ele>
        <time>2022-02-27T11:28:14.807Z</time>
      </trkpt>
      <trkpt lat="44.37132" lon="5.15806">
        <ele>280</ele>
        <time>2022-02-27T11:28:15.807Z</time>
      </trkpt>
      <trkpt lat="44.37133" lon="5.15809">
        <ele>281</ele>
        <time>2022-02-27T11:28:16.808Z</time>
      </trkpt>
      <trkpt lat="44.37135" lon="5.15812">
        <ele>281</ele>
        <time>2022-02-27T11:28:17.808Z</time>
      </trkpt>
      <trkpt lat="44.37135" lon="5.15813">
        <ele>281</ele>
        <time>2022-02-27T11:28:18.808Z</time>
      </trkpt>
      <trkpt lat="44.37137" lon="5.15816">
        <ele>282</ele>
        <time>2022-02-27T11:28:19.808Z</time>
      </trkpt>
      <trkpt lat="44.37139" lon="5.15819">
        <ele>282</ele>
        <time>2022-02-27T11:28:20.808Z</time>
      </trkpt>
      <trkpt lat="44.3714" lon="5.15821">
        <ele>283</ele>
        <time>2022-02-27T11:28:21.808Z</time>
      </trkpt>
      <trkpt lat="44.37142" lon="5.15824">
        <ele>283</ele>
        <time>2022-02-27T11:28:22.808Z</time>
      </trkpt>
      <trkpt lat="44.37144" lon="5.15826">
        <ele>284</ele>
        <time>2022-02-27T11:28:23.808Z</time>
      </trkpt>
      <trkpt lat="44.37146" lon="5.15829">
        <ele>284</ele>
        <time>2022-02-27T11:28:24.808Z</time>
      </trkpt>
      <trkpt lat="44.37147" lon="5.15832">
        <ele>285</ele>
        <time>2022-02-27T11:28:25.807Z</time>
      </trkpt>
      <trkpt lat="44.37148" lon="5.15834">
        <ele>285</ele>
        <time>2022-02-27T11:28:26.808Z</time>
      </trkpt>
      <trkpt lat="44.37149" lon="5.15838">
        <ele>284</ele>
        <time>2022-02-27T11:28:27.808Z</time>
      </trkpt>
      <trkpt lat="44.37149" lon="5.15841">
        <ele>284</ele>
        <time>2022-02-27T11:28:28.808Z</time>
      </trkpt>
      <trkpt lat="44.3715" lon="5.15843">
        <ele>284</ele>
        <time>2022-02-27T11:28:29.808Z</time>
      </trkpt>
      <trkpt lat="44.37151" lon="5.15845">
        <ele>283</ele>
        <time>2022-02-27T11:28:30.808Z</time>
      </trkpt>
      <trkpt lat="44.37152" lon="5.15848">
        <ele>283</ele>
        <time>2022-02-27T11:28:31.807Z</time>
      </trkpt>
      <trkpt lat="44.37152" lon="5.1585">
        <ele>283</ele>
        <time>2022-02-27T11:28:32.808Z</time>
      </trkpt>
      <trkpt lat="44.37154" lon="5.15853">
        <ele>283</ele>
        <time>2022-02-27T11:28:33.807Z</time>
      </trkpt>
      <trkpt lat="44.37155" lon="5.15856">
        <ele>283</ele>
        <time>2022-02-27T11:28:34.808Z</time>
      </trkpt>
      <trkpt lat="44.37155" lon="5.15858">
        <ele>282</ele>
        <time>2022-02-27T11:28:35.807Z</time>
      </trkpt>
      <trkpt lat="44.37156" lon="5.15862">
        <ele>282</ele>
        <time>2022-02-27T11:28:36.807Z</time>
      </trkpt>
      <trkpt lat="44.37157" lon="5.15865">
        <ele>282</ele>
        <time>2022-02-27T11:28:37.808Z</time>
      </trkpt>
      <trkpt lat="44.37158" lon="5.15868">
        <ele>282</ele>
        <time>2022-02-27T11:28:38.808Z</time>
      </trkpt>
      <trkpt lat="44.37159" lon="5.15871">
        <ele>282</ele>
        <time>2022-02-27T11:28:39.808Z</time>
      </trkpt>
      <trkpt lat="44.3716" lon="5.15874">
        <ele>282</ele>
        <time>2022-02-27T11:28:40.807Z</time>
      </trkpt>
      <trkpt lat="44.37161" lon="5.15876">
        <ele>282</ele>
        <time>2022-02-27T11:28:41.807Z</time>
      </trkpt>
      <trkpt lat="44.37163" lon="5.15879">
        <ele>283</ele>
        <time>2022-02-27T11:28:42.808Z</time>
      </trkpt>
      <trkpt lat="44.37164" lon="5.15881">
        <ele>283</ele>
        <time>2022-02-27T11:28:43.808Z</time>
      </trkpt>
      <trkpt lat="44.37166" lon="5.15884">
        <ele>284</ele>
        <time>2022-02-27T11:28:44.808Z</time>
      </trkpt>
      <trkpt lat="44.37167" lon="5.15886">
        <ele>284</ele>
        <time>2022-02-27T11:28:45.807Z</time>
      </trkpt>
      <trkpt lat="44.37168" lon="5.15889">
        <ele>285</ele>
        <time>2022-02-27T11:28:46.807Z</time>
      </trkpt>
      <trkpt lat="44.37169" lon="5.15891">
        <ele>285</ele>
        <time>2022-02-27T11:28:47.808Z</time>
      </trkpt>
      <trkpt lat="44.37171" lon="5.15894">
        <ele>286</ele>
        <time>2022-02-27T11:28:48.808Z</time>
      </trkpt>
      <trkpt lat="44.37172" lon="5.15896">
        <ele>286</ele>
        <time>2022-02-27T11:28:49.808Z</time>
      </trkpt>
      <trkpt lat="44.37172" lon="5.15899">
        <ele>286</ele>
        <time>2022-02-27T11:28:50.808Z</time>
      </trkpt>
      <trkpt lat="44.37173" lon="5.15902">
        <ele>286</ele>
        <time>2022-02-27T11:28:51.807Z</time>
      </trkpt>
      <trkpt lat="44.37175" lon="5.15906">
        <ele>286</ele>
        <time>2022-02-27T11:28:52.808Z</time>
      </trkpt>
      <trkpt lat="44.37176" lon="5.15908">
        <ele>286</ele>
        <time>2022-02-27T11:28:53.807Z</time>
      </trkpt>
      <trkpt lat="44.37177" lon="5.15911">
        <ele>286</ele>
        <time>2022-02-27T11:28:54.808Z</time>
      </trkpt>
      <trkpt lat="44.37178" lon="5.15915">
        <ele>286</ele>
        <time>2022-02-27T11:28:55.807Z</time>
      </trkpt>
      <trkpt lat="44.37179" lon="5.15918">
        <ele>286</ele>
        <time>2022-02-27T11:28:56.808Z</time>
      </trkpt>
      <trkpt lat="44.37179" lon="5.15921">
        <ele>286</ele>
        <time>2022-02-27T11:28:57.808Z</time>
      </trkpt>
      <trkpt lat="44.3718" lon="5.15924">
        <ele>286</ele>
        <time>2022-02-27T11:28:58.808Z</time>
      </trkpt>
      <trkpt lat="44.37181" lon="5.15927">
        <ele>286</ele>
        <time>2022-02-27T11:28:59.808Z</time>
      </trkpt>
      <trkpt lat="44.37182" lon="5.1593">
        <ele>286</ele>
        <time>2022-02-27T11:29:00.807Z</time>
      </trkpt>
      <trkpt lat="44.37183" lon="5.15933">
        <ele>286</ele>
        <time>2022-02-27T11:29:01.808Z</time>
      </trkpt>
      <trkpt lat="44.37185" lon="5.15936">
        <ele>287</ele>
        <time>2022-02-27T11:29:02.808Z</time>
      </trkpt>
      <trkpt lat="44.37186" lon="5.1594">
        <ele>287</ele>
        <time>2022-02-27T11:29:03.808Z</time>
      </trkpt>
      <trkpt lat="44.37187" lon="5.15943">
        <ele>287</ele>
        <time>2022-02-27T11:29:04.807Z</time>
      </trkpt>
      <trkpt lat="44.37188" lon="5.15946">
        <ele>287</ele>
        <time>2022-02-27T11:29:05.808Z</time>
      </trkpt>
      <trkpt lat="44.37188" lon="5.15949">
        <ele>287</ele>
        <time>2022-02-27T11:29:06.808Z</time>
      </trkpt>
      <trkpt lat="44.37189" lon="5.15952">
        <ele>287</ele>
        <time>2022-02-27T11:29:07.808Z</time>
      </trkpt>
      <trkpt lat="44.3719" lon="5.15956">
        <ele>286</ele>
        <time>2022-02-27T11:29:08.807Z</time>
      </trkpt>
      <trkpt lat="44.3719" lon="5.15959">
        <ele>286</ele>
        <time>2022-02-27T11:29:09.807Z</time>
      </trkpt>
      <trkpt lat="44.37192" lon="5.15963">
        <ele>286</ele>
        <time>2022-02-27T11:29:10.808Z</time>
      </trkpt>
      <trkpt lat="44.37193" lon="5.15967">
        <ele>285</ele>
        <time>2022-02-27T11:29:11.807Z</time>
      </trkpt>
      <trkpt lat="44.37193" lon="5.1597">
        <ele>285</ele>
        <time>2022-02-27T11:29:12.808Z</time>
      </trkpt>
      <trkpt lat="44.37193" lon="5.15974">
        <ele>285</ele>
        <time>2022-02-27T11:29:13.807Z</time>
      </trkpt>
      <trkpt lat="44.37193" lon="5.15977">
        <ele>285</ele>
        <time>2022-02-27T11:29:14.807Z</time>
      </trkpt>
      <trkpt lat="44.37193" lon="5.1598">
        <ele>285</ele>
        <time>2022-02-27T11:29:15.808Z</time>
      </trkpt>
      <trkpt lat="44.37193" lon="5.15984">
        <ele>285</ele>
        <time>2022-02-27T11:29:16.807Z</time>
      </trkpt>
      <trkpt lat="44.37193" lon="5.15987">
        <ele>284</ele>
        <time>2022-02-27T11:29:17.808Z</time>
      </trkpt>
      <trkpt lat="44.37192" lon="5.15992">
        <ele>284</ele>
        <time>2022-02-27T11:29:18.808Z</time>
      </trkpt>
      <trkpt lat="44.37192" lon="5.15996">
        <ele>284</ele>
        <time>2022-02-27T11:29:19.808Z</time>
      </trkpt>
      <trkpt lat="44.37193" lon="5.16">
        <ele>283</ele>
        <time>2022-02-27T11:29:20.808Z</time>
      </trkpt>
      <trkpt lat="44.37192" lon="5.16003">
        <ele>283</ele>
        <time>2022-02-27T11:29:21.807Z</time>
      </trkpt>
      <trkpt lat="44.37192" lon="5.16006">
        <ele>283</ele>
        <time>2022-02-27T11:29:22.808Z</time>
      </trkpt>
      <trkpt lat="44.37192" lon="5.16009">
        <ele>283</ele>
        <time>2022-02-27T11:29:23.808Z</time>
      </trkpt>
      <trkpt lat="44.37191" lon="5.16012">
        <ele>283</ele>
        <time>2022-02-27T11:29:24.808Z</time>
      </trkpt>
      <trkpt lat="44.37191" lon="5.16016">
        <ele>283</ele>
        <time>2022-02-27T11:29:25.808Z</time>
      </trkpt>
      <trkpt lat="44.3719" lon="5.16019">
        <ele>283</ele>
        <time>2022-02-27T11:29:26.808Z</time>
      </trkpt>
      <trkpt lat="44.3719" lon="5.16023">
        <ele>284</ele>
        <time>2022-02-27T11:29:27.808Z</time>
      </trkpt>
      <trkpt lat="44.3719" lon="5.16027">
        <ele>284</ele>
        <time>2022-02-27T11:29:28.808Z</time>
      </trkpt>
      <trkpt lat="44.3719" lon="5.16031">
        <ele>284</ele>
        <time>2022-02-27T11:29:29.807Z</time>
      </trkpt>
      <trkpt lat="44.37189" lon="5.16034">
        <ele>284</ele>
        <time>2022-02-27T11:29:30.808Z</time>
      </trkpt>
      <trkpt lat="44.37188" lon="5.16038">
        <ele>284</ele>
        <time>2022-02-27T11:29:31.808Z</time>
      </trkpt>
      <trkpt lat="44.37188" lon="5.16041">
        <ele>284</ele>
        <time>2022-02-27T11:29:32.808Z</time>
      </trkpt>
      <trkpt lat="44.37187" lon="5.16045">
        <ele>284</ele>
        <time>2022-02-27T11:29:33.807Z</time>
      </trkpt>
      <trkpt lat="44.37187" lon="5.16049">
        <ele>284</ele>
        <time>2022-02-27T11:29:34.808Z</time>
      </trkpt>
      <trkpt lat="44.37187" lon="5.16053">
        <ele>283</ele>
        <time>2022-02-27T11:29:35.808Z</time>
      </trkpt>
      <trkpt lat="44.37186" lon="5.16057">
        <ele>283</ele>
        <time>2022-02-27T11:29:36.808Z</time>
      </trkpt>
      <trkpt lat="44.37186" lon="5.16061">
        <ele>282</ele>
        <time>2022-02-27T11:29:37.808Z</time>
      </trkpt>
      <trkpt lat="44.37185" lon="5.16065">
        <ele>282</ele>
        <time>2022-02-27T11:29:38.808Z</time>
      </trkpt>
      <trkpt lat="44.37184" lon="5.16068">
        <ele>281</ele>
        <time>2022-02-27T11:29:39.807Z</time>
      </trkpt>
      <trkpt lat="44.37183" lon="5.16071">
        <ele>281</ele>
        <time>2022-02-27T11:29:40.808Z</time>
      </trkpt>
      <trkpt lat="44.37182" lon="5.16074">
        <ele>280</ele>
        <time>2022-02-27T11:29:41.808Z</time>
      </trkpt>
      <trkpt lat="44.37181" lon="5.16076">
        <ele>281</ele>
        <time>2022-02-27T11:29:42.808Z</time>
      </trkpt>
      <trkpt lat="44.37179" lon="5.16079">
        <ele>281</ele>
        <time>2022-02-27T11:29:43.808Z</time>
      </trkpt>
      <trkpt lat="44.37177" lon="5.16081">
        <ele>281</ele>
        <time>2022-02-27T11:29:44.808Z</time>
      </trkpt>
      <trkpt lat="44.37175" lon="5.16083">
        <ele>281</ele>
        <time>2022-02-27T11:29:45.808Z</time>
      </trkpt>
      <trkpt lat="44.37174" lon="5.16085">
        <ele>281</ele>
        <time>2022-02-27T11:29:46.807Z</time>
      </trkpt>
      <trkpt lat="44.37172" lon="5.16089">
        <ele>281</ele>
        <time>2022-02-27T11:29:47.808Z</time>
      </trkpt>
      <trkpt lat="44.37171" lon="5.16092">
        <ele>280</ele>
        <time>2022-02-27T11:29:48.808Z</time>
      </trkpt>
      <trkpt lat="44.3717" lon="5.16094">
        <ele>280</ele>
        <time>2022-02-27T11:29:49.808Z</time>
      </trkpt>
      <trkpt lat="44.37169" lon="5.16096">
        <ele>280</ele>
        <time>2022-02-27T11:29:50.808Z</time>
      </trkpt>
      <trkpt lat="44.37167" lon="5.16099">
        <ele>280</ele>
        <time>2022-02-27T11:29:51.807Z</time>
      </trkpt>
      <trkpt lat="44.37165" lon="5.16101">
        <ele>279</ele>
        <time>2022-02-27T11:29:52.808Z</time>
      </trkpt>
      <trkpt lat="44.37163" lon="5.16103">
        <ele>279</ele>
        <time>2022-02-27T11:29:53.807Z</time>
      </trkpt>
      <trkpt lat="44.37161" lon="5.16105">
        <ele>279</ele>
        <time>2022-02-27T11:29:54.808Z</time>
      </trkpt>
      <trkpt lat="44.37159" lon="5.16106">
        <ele>279</ele>
        <time>2022-02-27T11:29:55.808Z</time>
      </trkpt>
      <trkpt lat="44.37157" lon="5.16107">
        <ele>279</ele>
        <time>2022-02-27T11:29:56.808Z</time>
      </trkpt>
      <trkpt lat="44.37155" lon="5.16109">
        <ele>278</ele>
        <time>2022-02-27T11:29:57.808Z</time>
      </trkpt>
      <trkpt lat="44.37153" lon="5.1611">
        <ele>278</ele>
        <time>2022-02-27T11:29:58.808Z</time>
      </trkpt>
      <trkpt lat="44.37151" lon="5.16112">
        <ele>279</ele>
        <time>2022-02-27T11:29:59.808Z</time>
      </trkpt>
      <trkpt lat="44.37149" lon="5.16113">
        <ele>279</ele>
        <time>2022-02-27T11:30:00.807Z</time>
      </trkpt>
      <trkpt lat="44.37147" lon="5.16115">
        <ele>279</ele>
        <time>2022-02-27T11:30:01.808Z</time>
      </trkpt>
      <trkpt lat="44.37145" lon="5.16116">
        <ele>279</ele>
        <time>2022-02-27T11:30:02.808Z</time>
      </trkpt>
      <trkpt lat="44.37143" lon="5.16116">
        <ele>279</ele>
        <time>2022-02-27T11:30:03.808Z</time>
      </trkpt>
      <trkpt lat="44.3714" lon="5.16117">
        <ele>279</ele>
        <time>2022-02-27T11:30:04.808Z</time>
      </trkpt>
      <trkpt lat="44.37138" lon="5.16118">
        <ele>280</ele>
        <time>2022-02-27T11:30:05.808Z</time>
      </trkpt>
      <trkpt lat="44.37135" lon="5.16119">
        <ele>280</ele>
        <time>2022-02-27T11:30:06.808Z</time>
      </trkpt>
      <trkpt lat="44.37133" lon="5.1612">
        <ele>280</ele>
        <time>2022-02-27T11:30:07.807Z</time>
      </trkpt>
      <trkpt lat="44.37131" lon="5.16121">
        <ele>280</ele>
        <time>2022-02-27T11:30:08.808Z</time>
      </trkpt>
      <trkpt lat="44.37129" lon="5.16122">
        <ele>281</ele>
        <time>2022-02-27T11:30:09.808Z</time>
      </trkpt>
      <trkpt lat="44.37127" lon="5.16122">
        <ele>281</ele>
        <time>2022-02-27T11:30:10.808Z</time>
      </trkpt>
      <trkpt lat="44.37125" lon="5.16123">
        <ele>281</ele>
        <time>2022-02-27T11:30:11.807Z</time>
      </trkpt>
      <trkpt lat="44.37122" lon="5.16124">
        <ele>282</ele>
        <time>2022-02-27T11:30:12.808Z</time>
      </trkpt>
      <trkpt lat="44.3712" lon="5.16125">
        <ele>282</ele>
        <time>2022-02-27T11:30:13.807Z</time>
      </trkpt>
      <trkpt lat="44.37118" lon="5.16125">
        <ele>282</ele>
        <time>2022-02-27T11:30:14.808Z</time>
      </trkpt>
      <trkpt lat="44.37115" lon="5.16125">
        <ele>283</ele>
        <time>2022-02-27T11:30:15.808Z</time>
      </trkpt>
      <trkpt lat="44.37112" lon="5.16126">
        <ele>283</ele>
        <time>2022-02-27T11:30:16.808Z</time>
      </trkpt>
      <trkpt lat="44.3711" lon="5.16126">
        <ele>284</ele>
        <time>2022-02-27T11:30:17.808Z</time>
      </trkpt>
      <trkpt lat="44.37108" lon="5.16126">
        <ele>284</ele>
        <time>2022-02-27T11:30:18.807Z</time>
      </trkpt>
      <trkpt lat="44.37106" lon="5.16127">
        <ele>285</ele>
        <time>2022-02-27T11:30:19.808Z</time>
      </trkpt>
      <trkpt lat="44.37104" lon="5.16128">
        <ele>285</ele>
        <time>2022-02-27T11:30:20.808Z</time>
      </trkpt>
      <trkpt lat="44.37102" lon="5.16131">
        <ele>286</ele>
        <time>2022-02-27T11:30:21.808Z</time>
      </trkpt>
      <trkpt lat="44.371" lon="5.16133">
        <ele>286</ele>
        <time>2022-02-27T11:30:22.808Z</time>
      </trkpt>
      <trkpt lat="44.37099" lon="5.16136">
        <ele>286</ele>
        <time>2022-02-27T11:30:23.808Z</time>
      </trkpt>
      <trkpt lat="44.37097" lon="5.16138">
        <ele>287</ele>
        <time>2022-02-27T11:30:24.808Z</time>
      </trkpt>
      <trkpt lat="44.37096" lon="5.16141">
        <ele>287</ele>
        <time>2022-02-27T11:30:25.808Z</time>
      </trkpt>
      <trkpt lat="44.37094" lon="5.16144">
        <ele>287</ele>
        <time>2022-02-27T11:30:26.808Z</time>
      </trkpt>
      <trkpt lat="44.37093" lon="5.16146">
        <ele>287</ele>
        <time>2022-02-27T11:30:27.808Z</time>
      </trkpt>
      <trkpt lat="44.37091" lon="5.16149">
        <ele>286</ele>
        <time>2022-02-27T11:30:28.807Z</time>
      </trkpt>
      <trkpt lat="44.37089" lon="5.16151">
        <ele>286</ele>
        <time>2022-02-27T11:30:29.808Z</time>
      </trkpt>
      <trkpt lat="44.37088" lon="5.16155">
        <ele>285</ele>
        <time>2022-02-27T11:30:30.808Z</time>
      </trkpt>
      <trkpt lat="44.37087" lon="5.16158">
        <ele>284</ele>
        <time>2022-02-27T11:30:31.808Z</time>
      </trkpt>
      <trkpt lat="44.37085" lon="5.1616">
        <ele>283</ele>
        <time>2022-02-27T11:30:32.808Z</time>
      </trkpt>
      <trkpt lat="44.37084" lon="5.16163">
        <ele>283</ele>
        <time>2022-02-27T11:30:33.807Z</time>
      </trkpt>
      <trkpt lat="44.37083" lon="5.16166">
        <ele>282</ele>
        <time>2022-02-27T11:30:34.808Z</time>
      </trkpt>
      <trkpt lat="44.37082" lon="5.16169">
        <ele>282</ele>
        <time>2022-02-27T11:30:35.808Z</time>
      </trkpt>
      <trkpt lat="44.37081" lon="5.16173">
        <ele>281</ele>
        <time>2022-02-27T11:30:36.807Z</time>
      </trkpt>
      <trkpt lat="44.3708" lon="5.16176">
        <ele>281</ele>
        <time>2022-02-27T11:30:37.808Z</time>
      </trkpt>
      <trkpt lat="44.37079" lon="5.1618">
        <ele>281</ele>
        <time>2022-02-27T11:30:38.808Z</time>
      </trkpt>
      <trkpt lat="44.37077" lon="5.16184">
        <ele>281</ele>
        <time>2022-02-27T11:30:39.808Z</time>
      </trkpt>
      <trkpt lat="44.37076" lon="5.16186">
        <ele>280</ele>
        <time>2022-02-27T11:30:40.807Z</time>
      </trkpt>
      <trkpt lat="44.37075" lon="5.1619">
        <ele>280</ele>
        <time>2022-02-27T11:30:41.808Z</time>
      </trkpt>
      <trkpt lat="44.37074" lon="5.16193">
        <ele>280</ele>
        <time>2022-02-27T11:30:42.808Z</time>
      </trkpt>
      <trkpt lat="44.37073" lon="5.16196">
        <ele>280</ele>
        <time>2022-02-27T11:30:43.808Z</time>
      </trkpt>
      <trkpt lat="44.37071" lon="5.162">
        <ele>280</ele>
        <time>2022-02-27T11:30:44.808Z</time>
      </trkpt>
      <trkpt lat="44.3707" lon="5.16203">
        <ele>280</ele>
        <time>2022-02-27T11:30:45.807Z</time>
      </trkpt>
      <trkpt lat="44.37069" lon="5.16207">
        <ele>281</ele>
        <time>2022-02-27T11:30:46.807Z</time>
      </trkpt>
      <trkpt lat="44.37067" lon="5.1621">
        <ele>281</ele>
        <time>2022-02-27T11:30:47.808Z</time>
      </trkpt>
      <trkpt lat="44.37067" lon="5.16214">
        <ele>281</ele>
        <time>2022-02-27T11:30:48.808Z</time>
      </trkpt>
      <trkpt lat="44.37066" lon="5.16217">
        <ele>281</ele>
        <time>2022-02-27T11:30:49.808Z</time>
      </trkpt>
      <trkpt lat="44.37065" lon="5.1622">
        <ele>281</ele>
        <time>2022-02-27T11:30:50.808Z</time>
      </trkpt>
      <trkpt lat="44.37063" lon="5.16223">
        <ele>282</ele>
        <time>2022-02-27T11:30:51.807Z</time>
      </trkpt>
      <trkpt lat="44.37062" lon="5.16226">
        <ele>282</ele>
        <time>2022-02-27T11:30:52.807Z</time>
      </trkpt>
      <trkpt lat="44.37061" lon="5.16229">
        <ele>282</ele>
        <time>2022-02-27T11:30:53.807Z</time>
      </trkpt>
      <trkpt lat="44.3706" lon="5.16233">
        <ele>282</ele>
        <time>2022-02-27T11:30:54.807Z</time>
      </trkpt>
      <trkpt lat="44.37059" lon="5.16236">
        <ele>282</ele>
        <time>2022-02-27T11:30:55.808Z</time>
      </trkpt>
      <trkpt lat="44.37059" lon="5.16239">
        <ele>282</ele>
        <time>2022-02-27T11:30:56.807Z</time>
      </trkpt>
      <trkpt lat="44.37058" lon="5.16242">
        <ele>282</ele>
        <time>2022-02-27T11:30:57.807Z</time>
      </trkpt>
      <trkpt lat="44.37057" lon="5.16245">
        <ele>282</ele>
        <time>2022-02-27T11:30:58.808Z</time>
      </trkpt>
      <trkpt lat="44.37056" lon="5.16248">
        <ele>282</ele>
        <time>2022-02-27T11:30:59.808Z</time>
      </trkpt>
      <trkpt lat="44.37055" lon="5.16251">
        <ele>282</ele>
        <time>2022-02-27T11:31:00.808Z</time>
      </trkpt>
      <trkpt lat="44.37054" lon="5.16254">
        <ele>281</ele>
        <time>2022-02-27T11:31:01.808Z</time>
      </trkpt>
      <trkpt lat="44.37053" lon="5.16257">
        <ele>281</ele>
        <time>2022-02-27T11:31:02.808Z</time>
      </trkpt>
      <trkpt lat="44.37052" lon="5.16261">
        <ele>281</ele>
        <time>2022-02-27T11:31:03.808Z</time>
      </trkpt>
      <trkpt lat="44.37052" lon="5.16264">
        <ele>281</ele>
        <time>2022-02-27T11:31:04.808Z</time>
      </trkpt>
      <trkpt lat="44.37051" lon="5.16267">
        <ele>281</ele>
        <time>2022-02-27T11:31:05.807Z</time>
      </trkpt>
      <trkpt lat="44.37051" lon="5.1627">
        <ele>281</ele>
        <time>2022-02-27T11:31:06.808Z</time>
      </trkpt>
      <trkpt lat="44.3705" lon="5.16273">
        <ele>281</ele>
        <time>2022-02-27T11:31:07.808Z</time>
      </trkpt>
      <trkpt lat="44.37049" lon="5.16276">
        <ele>281</ele>
        <time>2022-02-27T11:31:08.807Z</time>
      </trkpt>
      <trkpt lat="44.37048" lon="5.1628">
        <ele>281</ele>
        <time>2022-02-27T11:31:09.808Z</time>
      </trkpt>
      <trkpt lat="44.37047" lon="5.16283">
        <ele>281</ele>
        <time>2022-02-27T11:31:10.808Z</time>
      </trkpt>
      <trkpt lat="44.37047" lon="5.16286">
        <ele>281</ele>
        <time>2022-02-27T11:31:11.808Z</time>
      </trkpt>
      <trkpt lat="44.37046" lon="5.16289">
        <ele>281</ele>
        <time>2022-02-27T11:31:12.808Z</time>
      </trkpt>
      <trkpt lat="44.37045" lon="5.16292">
        <ele>281</ele>
        <time>2022-02-27T11:31:13.808Z</time>
      </trkpt>
      <trkpt lat="44.37045" lon="5.16295">
        <ele>281</ele>
        <time>2022-02-27T11:31:14.808Z</time>
      </trkpt>
      <trkpt lat="44.37044" lon="5.16297">
        <ele>281</ele>
        <time>2022-02-27T11:31:15.807Z</time>
      </trkpt>
      <trkpt lat="44.37043" lon="5.163">
        <ele>281</ele>
        <time>2022-02-27T11:31:16.808Z</time>
      </trkpt>
      <trkpt lat="44.37043" lon="5.16303">
        <ele>280</ele>
        <time>2022-02-27T11:31:17.808Z</time>
      </trkpt>
      <trkpt lat="44.37042" lon="5.16306">
        <ele>280</ele>
        <time>2022-02-27T11:31:18.808Z</time>
      </trkpt>
      <trkpt lat="44.37041" lon="5.16309">
        <ele>280</ele>
        <time>2022-02-27T11:31:19.808Z</time>
      </trkpt>
      <trkpt lat="44.37041" lon="5.16312">
        <ele>280</ele>
        <time>2022-02-27T11:31:20.808Z</time>
      </trkpt>
      <trkpt lat="44.3704" lon="5.16315">
        <ele>280</ele>
        <time>2022-02-27T11:31:21.807Z</time>
      </trkpt>
      <trkpt lat="44.37039" lon="5.16318">
        <ele>280</ele>
        <time>2022-02-27T11:31:22.808Z</time>
      </trkpt>
      <trkpt lat="44.37039" lon="5.1632">
        <ele>281</ele>
        <time>2022-02-27T11:31:23.808Z</time>
      </trkpt>
      <trkpt lat="44.37039" lon="5.16323">
        <ele>281</ele>
        <time>2022-02-27T11:31:24.808Z</time>
      </trkpt>
      <trkpt lat="44.37038" lon="5.16326">
        <ele>281</ele>
        <time>2022-02-27T11:31:25.807Z</time>
      </trkpt>
      <trkpt lat="44.37038" lon="5.16329">
        <ele>281</ele>
        <time>2022-02-27T11:31:26.808Z</time>
      </trkpt>
      <trkpt lat="44.37038" lon="5.16333">
        <ele>281</ele>
        <time>2022-02-27T11:31:27.808Z</time>
      </trkpt>
      <trkpt lat="44.37039" lon="5.16336">
        <ele>281</ele>
        <time>2022-02-27T11:31:28.808Z</time>
      </trkpt>
      <trkpt lat="44.37039" lon="5.16339">
        <ele>281</ele>
        <time>2022-02-27T11:31:29.808Z</time>
      </trkpt>
      <trkpt lat="44.37039" lon="5.16342">
        <ele>281</ele>
        <time>2022-02-27T11:31:30.807Z</time>
      </trkpt>
      <trkpt lat="44.3704" lon="5.16345">
        <ele>282</ele>
        <time>2022-02-27T11:31:31.808Z</time>
      </trkpt>
      <trkpt lat="44.37041" lon="5.16347">
        <ele>282</ele>
        <time>2022-02-27T11:31:32.807Z</time>
      </trkpt>
      <trkpt lat="44.37041" lon="5.1635">
        <ele>282</ele>
        <time>2022-02-27T11:31:33.808Z</time>
      </trkpt>
      <trkpt lat="44.37042" lon="5.16353">
        <ele>282</ele>
        <time>2022-02-27T11:31:34.807Z</time>
      </trkpt>
      <trkpt lat="44.37043" lon="5.16357">
        <ele>282</ele>
        <time>2022-02-27T11:31:35.807Z</time>
      </trkpt>
      <trkpt lat="44.37045" lon="5.1636">
        <ele>282</ele>
        <time>2022-02-27T11:31:36.807Z</time>
      </trkpt>
      <trkpt lat="44.37046" lon="5.16362">
        <ele>282</ele>
        <time>2022-02-27T11:31:37.808Z</time>
      </trkpt>
      <trkpt lat="44.37046" lon="5.16365">
        <ele>282</ele>
        <time>2022-02-27T11:31:38.808Z</time>
      </trkpt>
      <trkpt lat="44.37047" lon="5.16368">
        <ele>282</ele>
        <time>2022-02-27T11:31:39.808Z</time>
      </trkpt>
      <trkpt lat="44.37049" lon="5.1637">
        <ele>282</ele>
        <time>2022-02-27T11:31:40.807Z</time>
      </trkpt>
      <trkpt lat="44.3705" lon="5.16373">
        <ele>283</ele>
        <time>2022-02-27T11:31:41.808Z</time>
      </trkpt>
      <trkpt lat="44.37051" lon="5.16376">
        <ele>283</ele>
        <time>2022-02-27T11:31:42.808Z</time>
      </trkpt>
      <trkpt lat="44.37052" lon="5.16379">
        <ele>283</ele>
        <time>2022-02-27T11:31:43.808Z</time>
      </trkpt>
      <trkpt lat="44.37052" lon="5.16382">
        <ele>283</ele>
        <time>2022-02-27T11:31:44.808Z</time>
      </trkpt>
      <trkpt lat="44.37053" lon="5.16385">
        <ele>283</ele>
        <time>2022-02-27T11:31:45.808Z</time>
      </trkpt>
      <trkpt lat="44.37053" lon="5.16387">
        <ele>282</ele>
        <time>2022-02-27T11:31:46.807Z</time>
      </trkpt>
      <trkpt lat="44.37054" lon="5.1639">
        <ele>281</ele>
        <time>2022-02-27T11:31:47.807Z</time>
      </trkpt>
      <trkpt lat="44.37055" lon="5.16393">
        <ele>281</ele>
        <time>2022-02-27T11:31:48.807Z</time>
      </trkpt>
      <trkpt lat="44.37056" lon="5.16396">
        <ele>281</ele>
        <time>2022-02-27T11:31:49.807Z</time>
      </trkpt>
      <trkpt lat="44.37058" lon="5.16399">
        <ele>280</ele>
        <time>2022-02-27T11:31:50.807Z</time>
      </trkpt>
      <trkpt lat="44.37059" lon="5.16402">
        <ele>280</ele>
        <time>2022-02-27T11:31:51.807Z</time>
      </trkpt>
      <trkpt lat="44.3706" lon="5.16405">
        <ele>280</ele>
        <time>2022-02-27T11:31:52.807Z</time>
      </trkpt>
      <trkpt lat="44.37061" lon="5.16408">
        <ele>281</ele>
        <time>2022-02-27T11:31:53.807Z</time>
      </trkpt>
      <trkpt lat="44.37062" lon="5.1641">
        <ele>281</ele>
        <time>2022-02-27T11:31:54.808Z</time>
      </trkpt>
      <trkpt lat="44.37064" lon="5.16413">
        <ele>282</ele>
        <time>2022-02-27T11:31:55.807Z</time>
      </trkpt>
      <trkpt lat="44.37065" lon="5.16415">
        <ele>282</ele>
        <time>2022-02-27T11:31:56.808Z</time>
      </trkpt>
      <trkpt lat="44.37067" lon="5.16418">
        <ele>283</ele>
        <time>2022-02-27T11:31:57.808Z</time>
      </trkpt>
      <trkpt lat="44.37068" lon="5.1642">
        <ele>283</ele>
        <time>2022-02-27T11:31:58.807Z</time>
      </trkpt>
      <trkpt lat="44.3707" lon="5.16422">
        <ele>284</ele>
        <time>2022-02-27T11:31:59.807Z</time>
      </trkpt>
      <trkpt lat="44.37072" lon="5.16423">
        <ele>284</ele>
        <time>2022-02-27T11:32:00.807Z</time>
      </trkpt>
      <trkpt lat="44.37074" lon="5.16424">
        <ele>285</ele>
        <time>2022-02-27T11:32:01.808Z</time>
      </trkpt>
      <trkpt lat="44.37076" lon="5.16425">
        <ele>286</ele>
        <time>2022-02-27T11:32:02.807Z</time>
      </trkpt>
      <trkpt lat="44.37078" lon="5.16425">
        <ele>287</ele>
        <time>2022-02-27T11:32:03.807Z</time>
      </trkpt>
      <trkpt lat="44.3708" lon="5.16426">
        <ele>288</ele>
        <time>2022-02-27T11:32:04.807Z</time>
      </trkpt>
      <trkpt lat="44.37083" lon="5.16427">
        <ele>289</ele>
        <time>2022-02-27T11:32:05.807Z</time>
      </trkpt>
      <trkpt lat="44.37085" lon="5.16427">
        <ele>290</ele>
        <time>2022-02-27T11:32:06.808Z</time>
      </trkpt>
      <trkpt lat="44.37088" lon="5.16428">
        <ele>291</ele>
        <time>2022-02-27T11:32:07.808Z</time>
      </trkpt>
      <trkpt lat="44.3709" lon="5.16428">
        <ele>292</ele>
        <time>2022-02-27T11:32:08.808Z</time>
      </trkpt>
      <trkpt lat="44.37093" lon="5.16428">
        <ele>292</ele>
        <time>2022-02-27T11:32:09.808Z</time>
      </trkpt>
      <trkpt lat="44.37095" lon="5.16429">
        <ele>293</ele>
        <time>2022-02-27T11:32:10.807Z</time>
      </trkpt>
      <trkpt lat="44.37098" lon="5.16429">
        <ele>293</ele>
        <time>2022-02-27T11:32:11.807Z</time>
      </trkpt>
      <trkpt lat="44.37101" lon="5.1643">
        <ele>293</ele>
        <time>2022-02-27T11:32:12.808Z</time>
      </trkpt>
      <trkpt lat="44.37103" lon="5.16431">
        <ele>294</ele>
        <time>2022-02-27T11:32:13.808Z</time>
      </trkpt>
      <trkpt lat="44.37106" lon="5.16432">
        <ele>294</ele>
        <time>2022-02-27T11:32:14.807Z</time>
      </trkpt>
      <trkpt lat="44.37108" lon="5.16433">
        <ele>294</ele>
        <time>2022-02-27T11:32:15.808Z</time>
      </trkpt>
      <trkpt lat="44.37111" lon="5.16433">
        <ele>295</ele>
        <time>2022-02-27T11:32:16.808Z</time>
      </trkpt>
      <trkpt lat="44.37113" lon="5.16433">
        <ele>295</ele>
        <time>2022-02-27T11:32:17.808Z</time>
      </trkpt>
      <trkpt lat="44.37116" lon="5.16434">
        <ele>295</ele>
        <time>2022-02-27T11:32:18.807Z</time>
      </trkpt>
      <trkpt lat="44.37118" lon="5.16434">
        <ele>295</ele>
        <time>2022-02-27T11:32:19.808Z</time>
      </trkpt>
      <trkpt lat="44.3712" lon="5.16435">
        <ele>295</ele>
        <time>2022-02-27T11:32:20.808Z</time>
      </trkpt>
      <trkpt lat="44.37123" lon="5.16435">
        <ele>296</ele>
        <time>2022-02-27T11:32:21.808Z</time>
      </trkpt>
      <trkpt lat="44.37125" lon="5.16436">
        <ele>296</ele>
        <time>2022-02-27T11:32:22.808Z</time>
      </trkpt>
      <trkpt lat="44.37127" lon="5.16437">
        <ele>296</ele>
        <time>2022-02-27T11:32:23.808Z</time>
      </trkpt>
      <trkpt lat="44.3713" lon="5.16438">
        <ele>295</ele>
        <time>2022-02-27T11:32:24.808Z</time>
      </trkpt>
      <trkpt lat="44.37132" lon="5.1644">
        <ele>295</ele>
        <time>2022-02-27T11:32:25.808Z</time>
      </trkpt>
      <trkpt lat="44.37134" lon="5.16441">
        <ele>295</ele>
        <time>2022-02-27T11:32:26.807Z</time>
      </trkpt>
      <trkpt lat="44.37136" lon="5.16442">
        <ele>294</ele>
        <time>2022-02-27T11:32:27.808Z</time>
      </trkpt>
      <trkpt lat="44.37138" lon="5.16444">
        <ele>294</ele>
        <time>2022-02-27T11:32:28.808Z</time>
      </trkpt>
      <trkpt lat="44.3714" lon="5.16445">
        <ele>294</ele>
        <time>2022-02-27T11:32:29.808Z</time>
      </trkpt>
      <trkpt lat="44.37142" lon="5.16446">
        <ele>294</ele>
        <time>2022-02-27T11:32:30.808Z</time>
      </trkpt>
      <trkpt lat="44.37144" lon="5.16448">
        <ele>294</ele>
        <time>2022-02-27T11:32:31.808Z</time>
      </trkpt>
      <trkpt lat="44.37146" lon="5.1645">
        <ele>293</ele>
        <time>2022-02-27T11:32:32.807Z</time>
      </trkpt>
      <trkpt lat="44.37148" lon="5.16452">
        <ele>293</ele>
        <time>2022-02-27T11:32:33.808Z</time>
      </trkpt>
      <trkpt lat="44.3715" lon="5.16453">
        <ele>293</ele>
        <time>2022-02-27T11:32:34.808Z</time>
      </trkpt>
      <trkpt lat="44.37152" lon="5.16455">
        <ele>292</ele>
        <time>2022-02-27T11:32:35.807Z</time>
      </trkpt>
      <trkpt lat="44.37154" lon="5.16456">
        <ele>292</ele>
        <time>2022-02-27T11:32:36.808Z</time>
      </trkpt>
      <trkpt lat="44.37156" lon="5.16458">
        <ele>292</ele>
        <time>2022-02-27T11:32:37.808Z</time>
      </trkpt>
      <trkpt lat="44.37158" lon="5.16459">
        <ele>293</ele>
        <time>2022-02-27T11:32:38.807Z</time>
      </trkpt>
      <trkpt lat="44.3716" lon="5.16461">
        <ele>293</ele>
        <time>2022-02-27T11:32:39.807Z</time>
      </trkpt>
      <trkpt lat="44.37162" lon="5.16463">
        <ele>293</ele>
        <time>2022-02-27T11:32:40.807Z</time>
      </trkpt>
      <trkpt lat="44.37164" lon="5.16464">
        <ele>293</ele>
        <time>2022-02-27T11:32:41.807Z</time>
      </trkpt>
      <trkpt lat="44.37166" lon="5.16465">
        <ele>293</ele>
        <time>2022-02-27T11:32:42.808Z</time>
      </trkpt>
      <trkpt lat="44.37168" lon="5.16467">
        <ele>293</ele>
        <time>2022-02-27T11:32:43.808Z</time>
      </trkpt>
      <trkpt lat="44.37171" lon="5.16469">
        <ele>293</ele>
        <time>2022-02-27T11:32:44.808Z</time>
      </trkpt>
      <trkpt lat="44.37173" lon="5.16471">
        <ele>293</ele>
        <time>2022-02-27T11:32:45.808Z</time>
      </trkpt>
      <trkpt lat="44.37175" lon="5.16472">
        <ele>293</ele>
        <time>2022-02-27T11:32:46.808Z</time>
      </trkpt>
      <trkpt lat="44.37178" lon="5.16474">
        <ele>292</ele>
        <time>2022-02-27T11:32:47.808Z</time>
      </trkpt>
      <trkpt lat="44.3718" lon="5.16477">
        <ele>292</ele>
        <time>2022-02-27T11:32:48.808Z</time>
      </trkpt>
      <trkpt lat="44.37182" lon="5.16479">
        <ele>292</ele>
        <time>2022-02-27T11:32:49.808Z</time>
      </trkpt>
      <trkpt lat="44.37185" lon="5.16481">
        <ele>292</ele>
        <time>2022-02-27T11:32:50.808Z</time>
      </trkpt>
      <trkpt lat="44.37187" lon="5.16483">
        <ele>292</ele>
        <time>2022-02-27T11:32:51.808Z</time>
      </trkpt>
      <trkpt lat="44.37189" lon="5.16485">
        <ele>292</ele>
        <time>2022-02-27T11:32:52.808Z</time>
      </trkpt>
      <trkpt lat="44.37191" lon="5.16488">
        <ele>291</ele>
        <time>2022-02-27T11:32:53.808Z</time>
      </trkpt>
      <trkpt lat="44.37193" lon="5.1649">
        <ele>291</ele>
        <time>2022-02-27T11:32:54.808Z</time>
      </trkpt>
      <trkpt lat="44.37195" lon="5.16493">
        <ele>290</ele>
        <time>2022-02-27T11:32:55.808Z</time>
      </trkpt>
      <trkpt lat="44.37197" lon="5.16495">
        <ele>290</ele>
        <time>2022-02-27T11:32:56.808Z</time>
      </trkpt>
      <trkpt lat="44.37199" lon="5.16498">
        <ele>290</ele>
        <time>2022-02-27T11:32:57.808Z</time>
      </trkpt>
      <trkpt lat="44.37201" lon="5.165">
        <ele>289</ele>
        <time>2022-02-27T11:32:58.807Z</time>
      </trkpt>
      <trkpt lat="44.37203" lon="5.16503">
        <ele>289</ele>
        <time>2022-02-27T11:32:59.808Z</time>
      </trkpt>
      <trkpt lat="44.37205" lon="5.16506">
        <ele>288</ele>
        <time>2022-02-27T11:33:00.808Z</time>
      </trkpt>
      <trkpt lat="44.37206" lon="5.16508">
        <ele>288</ele>
        <time>2022-02-27T11:33:01.807Z</time>
      </trkpt>
      <trkpt lat="44.37208" lon="5.16511">
        <ele>288</ele>
        <time>2022-02-27T11:33:02.808Z</time>
      </trkpt>
      <trkpt lat="44.37209" lon="5.16514">
        <ele>288</ele>
        <time>2022-02-27T11:33:03.807Z</time>
      </trkpt>
      <trkpt lat="44.37211" lon="5.16517">
        <ele>287</ele>
        <time>2022-02-27T11:33:04.808Z</time>
      </trkpt>
      <trkpt lat="44.37213" lon="5.1652">
        <ele>287</ele>
        <time>2022-02-27T11:33:05.808Z</time>
      </trkpt>
      <trkpt lat="44.37214" lon="5.16523">
        <ele>286</ele>
        <time>2022-02-27T11:33:06.807Z</time>
      </trkpt>
      <trkpt lat="44.37216" lon="5.16526">
        <ele>286</ele>
        <time>2022-02-27T11:33:07.807Z</time>
      </trkpt>
      <trkpt lat="44.37219" lon="5.1653">
        <ele>286</ele>
        <time>2022-02-27T11:33:08.807Z</time>
      </trkpt>
      <trkpt lat="44.37219" lon="5.16533">
        <ele>285</ele>
        <time>2022-02-27T11:33:09.808Z</time>
      </trkpt>
      <trkpt lat="44.3722" lon="5.16536">
        <ele>285</ele>
        <time>2022-02-27T11:33:10.808Z</time>
      </trkpt>
      <trkpt lat="44.37221" lon="5.16539">
        <ele>285</ele>
        <time>2022-02-27T11:33:11.808Z</time>
      </trkpt>
      <trkpt lat="44.37223" lon="5.16543">
        <ele>285</ele>
        <time>2022-02-27T11:33:12.808Z</time>
      </trkpt>
      <trkpt lat="44.37224" lon="5.16546">
        <ele>285</ele>
        <time>2022-02-27T11:33:13.808Z</time>
      </trkpt>
      <trkpt lat="44.37226" lon="5.16549">
        <ele>284</ele>
        <time>2022-02-27T11:33:14.808Z</time>
      </trkpt>
      <trkpt lat="44.37227" lon="5.16552">
        <ele>284</ele>
        <time>2022-02-27T11:33:15.808Z</time>
      </trkpt>
      <trkpt lat="44.37228" lon="5.16556">
        <ele>283</ele>
        <time>2022-02-27T11:33:16.808Z</time>
      </trkpt>
      <trkpt lat="44.37229" lon="5.16559">
        <ele>283</ele>
        <time>2022-02-27T11:33:17.808Z</time>
      </trkpt>
      <trkpt lat="44.37229" lon="5.16563">
        <ele>283</ele>
        <time>2022-02-27T11:33:18.808Z</time>
      </trkpt>
      <trkpt lat="44.37229" lon="5.16566">
        <ele>282</ele>
        <time>2022-02-27T11:33:19.808Z</time>
      </trkpt>
      <trkpt lat="44.3723" lon="5.1657">
        <ele>282</ele>
        <time>2022-02-27T11:33:20.807Z</time>
      </trkpt>
      <trkpt lat="44.37231" lon="5.16574">
        <ele>282</ele>
        <time>2022-02-27T11:33:21.808Z</time>
      </trkpt>
      <trkpt lat="44.37231" lon="5.16578">
        <ele>282</ele>
        <time>2022-02-27T11:33:22.808Z</time>
      </trkpt>
      <trkpt lat="44.37232" lon="5.16582">
        <ele>282</ele>
        <time>2022-02-27T11:33:23.808Z</time>
      </trkpt>
      <trkpt lat="44.37233" lon="5.16586">
        <ele>281</ele>
        <time>2022-02-27T11:33:24.808Z</time>
      </trkpt>
      <trkpt lat="44.37233" lon="5.16589">
        <ele>281</ele>
        <time>2022-02-27T11:33:25.808Z</time>
      </trkpt>
      <trkpt lat="44.37232" lon="5.16593">
        <ele>281</ele>
        <time>2022-02-27T11:33:26.808Z</time>
      </trkpt>
      <trkpt lat="44.37232" lon="5.16596">
        <ele>280</ele>
        <time>2022-02-27T11:33:27.808Z</time>
      </trkpt>
      <trkpt lat="44.37231" lon="5.16599">
        <ele>280</ele>
        <time>2022-02-27T11:33:28.808Z</time>
      </trkpt>
      <trkpt lat="44.37231" lon="5.16603">
        <ele>280</ele>
        <time>2022-02-27T11:33:29.808Z</time>
      </trkpt>
      <trkpt lat="44.3723" lon="5.16606">
        <ele>280</ele>
        <time>2022-02-27T11:33:30.807Z</time>
      </trkpt>
      <trkpt lat="44.3723" lon="5.16609">
        <ele>280</ele>
        <time>2022-02-27T11:33:31.808Z</time>
      </trkpt>
      <trkpt lat="44.3723" lon="5.16613">
        <ele>280</ele>
        <time>2022-02-27T11:33:32.807Z</time>
      </trkpt>
      <trkpt lat="44.3723" lon="5.16616">
        <ele>280</ele>
        <time>2022-02-27T11:33:33.808Z</time>
      </trkpt>
      <trkpt lat="44.3723" lon="5.16619">
        <ele>280</ele>
        <time>2022-02-27T11:33:34.807Z</time>
      </trkpt>
      <trkpt lat="44.3723" lon="5.16622">
        <ele>280</ele>
        <time>2022-02-27T11:33:35.808Z</time>
      </trkpt>
      <trkpt lat="44.37229" lon="5.16626">
        <ele>281</ele>
        <time>2022-02-27T11:33:36.807Z</time>
      </trkpt>
      <trkpt lat="44.3723" lon="5.1663">
        <ele>281</ele>
        <time>2022-02-27T11:33:37.808Z</time>
      </trkpt>
      <trkpt lat="44.3723" lon="5.16633">
        <ele>281</ele>
        <time>2022-02-27T11:33:38.808Z</time>
      </trkpt>
      <trkpt lat="44.3723" lon="5.16636">
        <ele>281</ele>
        <time>2022-02-27T11:33:39.808Z</time>
      </trkpt>
      <trkpt lat="44.37229" lon="5.16639">
        <ele>281</ele>
        <time>2022-02-27T11:33:40.807Z</time>
      </trkpt>
      <trkpt lat="44.37229" lon="5.16643">
        <ele>281</ele>
        <time>2022-02-27T11:33:41.808Z</time>
      </trkpt>
      <trkpt lat="44.37229" lon="5.16646">
        <ele>281</ele>
        <time>2022-02-27T11:33:42.807Z</time>
      </trkpt>
      <trkpt lat="44.37229" lon="5.16649">
        <ele>281</ele>
        <time>2022-02-27T11:33:43.808Z</time>
      </trkpt>
      <trkpt lat="44.3723" lon="5.16652">
        <ele>281</ele>
        <time>2022-02-27T11:33:44.807Z</time>
      </trkpt>
      <trkpt lat="44.37231" lon="5.16655">
        <ele>281</ele>
        <time>2022-02-27T11:33:45.808Z</time>
      </trkpt>
      <trkpt lat="44.37232" lon="5.16658">
        <ele>282</ele>
        <time>2022-02-27T11:33:46.807Z</time>
      </trkpt>
      <trkpt lat="44.37233" lon="5.16661">
        <ele>282</ele>
        <time>2022-02-27T11:33:47.808Z</time>
      </trkpt>
      <trkpt lat="44.37233" lon="5.16664">
        <ele>282</ele>
        <time>2022-02-27T11:33:48.807Z</time>
      </trkpt>
      <trkpt lat="44.37234" lon="5.16668">
        <ele>282</ele>
        <time>2022-02-27T11:33:49.808Z</time>
      </trkpt>
      <trkpt lat="44.37235" lon="5.16671">
        <ele>282</ele>
        <time>2022-02-27T11:33:50.808Z</time>
      </trkpt>
      <trkpt lat="44.37235" lon="5.16674">
        <ele>282</ele>
        <time>2022-02-27T11:33:51.808Z</time>
      </trkpt>
      <trkpt lat="44.37236" lon="5.16677">
        <ele>281</ele>
        <time>2022-02-27T11:33:52.808Z</time>
      </trkpt>
      <trkpt lat="44.37237" lon="5.1668">
        <ele>281</ele>
        <time>2022-02-27T11:33:53.808Z</time>
      </trkpt>
      <trkpt lat="44.37238" lon="5.16683">
        <ele>281</ele>
        <time>2022-02-27T11:33:54.808Z</time>
      </trkpt>
      <trkpt lat="44.37239" lon="5.16686">
        <ele>281</ele>
        <time>2022-02-27T11:33:55.808Z</time>
      </trkpt>
      <trkpt lat="44.37239" lon="5.16689">
        <ele>281</ele>
        <time>2022-02-27T11:33:56.807Z</time>
      </trkpt>
      <trkpt lat="44.3724" lon="5.16692">
        <ele>281</ele>
        <time>2022-02-27T11:33:57.808Z</time>
      </trkpt>
      <trkpt lat="44.37241" lon="5.16695">
        <ele>281</ele>
        <time>2022-02-27T11:33:58.808Z</time>
      </trkpt>
      <trkpt lat="44.37242" lon="5.16698">
        <ele>282</ele>
        <time>2022-02-27T11:33:59.808Z</time>
      </trkpt>
      <trkpt lat="44.37242" lon="5.167">
        <ele>282</ele>
        <time>2022-02-27T11:34:00.807Z</time>
      </trkpt>
      <trkpt lat="44.37243" lon="5.16704">
        <ele>282</ele>
        <time>2022-02-27T11:34:01.808Z</time>
      </trkpt>
      <trkpt lat="44.37244" lon="5.16707">
        <ele>282</ele>
        <time>2022-02-27T11:34:02.808Z</time>
      </trkpt>
      <trkpt lat="44.37244" lon="5.1671">
        <ele>281</ele>
        <time>2022-02-27T11:34:03.808Z</time>
      </trkpt>
      <trkpt lat="44.37245" lon="5.16713">
        <ele>281</ele>
        <time>2022-02-27T11:34:04.808Z</time>
      </trkpt>
      <trkpt lat="44.37246" lon="5.16716">
        <ele>281</ele>
        <time>2022-02-27T11:34:05.807Z</time>
      </trkpt>
      <trkpt lat="44.37248" lon="5.16719">
        <ele>281</ele>
        <time>2022-02-27T11:34:06.808Z</time>
      </trkpt>
      <trkpt lat="44.37249" lon="5.16722">
        <ele>281</ele>
        <time>2022-02-27T11:34:07.807Z</time>
      </trkpt>
      <trkpt lat="44.3725" lon="5.16725">
        <ele>281</ele>
        <time>2022-02-27T11:34:08.808Z</time>
      </trkpt>
      <trkpt lat="44.37252" lon="5.16728">
        <ele>281</ele>
        <time>2022-02-27T11:34:09.808Z</time>
      </trkpt>
      <trkpt lat="44.37253" lon="5.16731">
        <ele>281</ele>
        <time>2022-02-27T11:34:10.808Z</time>
      </trkpt>
      <trkpt lat="44.37255" lon="5.16734">
        <ele>281</ele>
        <time>2022-02-27T11:34:11.808Z</time>
      </trkpt>
      <trkpt lat="44.37256" lon="5.16737">
        <ele>281</ele>
        <time>2022-02-27T11:34:12.808Z</time>
      </trkpt>
      <trkpt lat="44.37258" lon="5.16739">
        <ele>281</ele>
        <time>2022-02-27T11:34:13.807Z</time>
      </trkpt>
      <trkpt lat="44.3726" lon="5.16743">
        <ele>281</ele>
        <time>2022-02-27T11:34:14.808Z</time>
      </trkpt>
      <trkpt lat="44.37262" lon="5.16746">
        <ele>281</ele>
        <time>2022-02-27T11:34:15.808Z</time>
      </trkpt>
      <trkpt lat="44.37263" lon="5.16748">
        <ele>281</ele>
        <time>2022-02-27T11:34:16.807Z</time>
      </trkpt>
      <trkpt lat="44.37265" lon="5.16751">
        <ele>281</ele>
        <time>2022-02-27T11:34:17.808Z</time>
      </trkpt>
      <trkpt lat="44.37266" lon="5.16753">
        <ele>282</ele>
        <time>2022-02-27T11:34:18.807Z</time>
      </trkpt>
      <trkpt lat="44.37267" lon="5.16756">
        <ele>282</ele>
        <time>2022-02-27T11:34:19.808Z</time>
      </trkpt>
      <trkpt lat="44.37269" lon="5.16759">
        <ele>283</ele>
        <time>2022-02-27T11:34:20.808Z</time>
      </trkpt>
      <trkpt lat="44.3727" lon="5.16761">
        <ele>283</ele>
        <time>2022-02-27T11:34:21.808Z</time>
      </trkpt>
      <trkpt lat="44.37272" lon="5.16764">
        <ele>284</ele>
        <time>2022-02-27T11:34:22.807Z</time>
      </trkpt>
      <trkpt lat="44.37274" lon="5.16766">
        <ele>284</ele>
        <time>2022-02-27T11:34:23.808Z</time>
      </trkpt>
      <trkpt lat="44.37275" lon="5.16768">
        <ele>285</ele>
        <time>2022-02-27T11:34:24.808Z</time>
      </trkpt>
      <trkpt lat="44.37278" lon="5.16771">
        <ele>286</ele>
        <time>2022-02-27T11:34:25.807Z</time>
      </trkpt>
      <trkpt lat="44.3728" lon="5.16773">
        <ele>286</ele>
        <time>2022-02-27T11:34:26.808Z</time>
      </trkpt>
      <trkpt lat="44.37282" lon="5.16776">
        <ele>286</ele>
        <time>2022-02-27T11:34:27.807Z</time>
      </trkpt>
      <trkpt lat="44.37284" lon="5.16778">
        <ele>286</ele>
        <time>2022-02-27T11:34:28.807Z</time>
      </trkpt>
      <trkpt lat="44.37285" lon="5.16779">
        <ele>286</ele>
        <time>2022-02-27T11:34:29.808Z</time>
      </trkpt>
      <trkpt lat="44.37287" lon="5.16781">
        <ele>286</ele>
        <time>2022-02-27T11:34:30.808Z</time>
      </trkpt>
      <trkpt lat="44.37289" lon="5.16783">
        <ele>286</ele>
        <time>2022-02-27T11:34:31.807Z</time>
      </trkpt>
      <trkpt lat="44.37291" lon="5.16786">
        <ele>286</ele>
        <time>2022-02-27T11:34:32.808Z</time>
      </trkpt>
      <trkpt lat="44.37293" lon="5.16788">
        <ele>286</ele>
        <time>2022-02-27T11:34:33.808Z</time>
      </trkpt>
      <trkpt lat="44.37295" lon="5.1679">
        <ele>286</ele>
        <time>2022-02-27T11:34:34.808Z</time>
      </trkpt>
      <trkpt lat="44.37297" lon="5.16793">
        <ele>286</ele>
        <time>2022-02-27T11:34:35.808Z</time>
      </trkpt>
      <trkpt lat="44.37299" lon="5.16796">
        <ele>285</ele>
        <time>2022-02-27T11:34:36.808Z</time>
      </trkpt>
      <trkpt lat="44.373" lon="5.16798">
        <ele>285</ele>
        <time>2022-02-27T11:34:37.807Z</time>
      </trkpt>
      <trkpt lat="44.37302" lon="5.16801">
        <ele>284</ele>
        <time>2022-02-27T11:34:38.808Z</time>
      </trkpt>
      <trkpt lat="44.37304" lon="5.16803">
        <ele>284</ele>
        <time>2022-02-27T11:34:39.808Z</time>
      </trkpt>
      <trkpt lat="44.37305" lon="5.16806">
        <ele>284</ele>
        <time>2022-02-27T11:34:40.808Z</time>
      </trkpt>
      <trkpt lat="44.37307" lon="5.16808">
        <ele>284</ele>
        <time>2022-02-27T11:34:41.808Z</time>
      </trkpt>
      <trkpt lat="44.37309" lon="5.1681">
        <ele>284</ele>
        <time>2022-02-27T11:34:42.808Z</time>
      </trkpt>
      <trkpt lat="44.3731" lon="5.16812">
        <ele>284</ele>
        <time>2022-02-27T11:34:43.808Z</time>
      </trkpt>
      <trkpt lat="44.37313" lon="5.16815">
        <ele>284</ele>
        <time>2022-02-27T11:34:44.808Z</time>
      </trkpt>
      <trkpt lat="44.37316" lon="5.16818">
        <ele>285</ele>
        <time>2022-02-27T11:34:45.808Z</time>
      </trkpt>
      <trkpt lat="44.37317" lon="5.16821">
        <ele>285</ele>
        <time>2022-02-27T11:34:46.808Z</time>
      </trkpt>
      <trkpt lat="44.37319" lon="5.16823">
        <ele>285</ele>
        <time>2022-02-27T11:34:47.807Z</time>
      </trkpt>
      <trkpt lat="44.37321" lon="5.16826">
        <ele>285</ele>
        <time>2022-02-27T11:34:48.808Z</time>
      </trkpt>
      <trkpt lat="44.37322" lon="5.16829">
        <ele>284</ele>
        <time>2022-02-27T11:34:49.807Z</time>
      </trkpt>
      <trkpt lat="44.37324" lon="5.16832">
        <ele>284</ele>
        <time>2022-02-27T11:34:50.807Z</time>
      </trkpt>
      <trkpt lat="44.37326" lon="5.16835">
        <ele>284</ele>
        <time>2022-02-27T11:34:51.808Z</time>
      </trkpt>
      <trkpt lat="44.37328" lon="5.16838">
        <ele>284</ele>
        <time>2022-02-27T11:34:52.808Z</time>
      </trkpt>
      <trkpt lat="44.3733" lon="5.1684">
        <ele>284</ele>
        <time>2022-02-27T11:34:53.808Z</time>
      </trkpt>
      <trkpt lat="44.37331" lon="5.16843">
        <ele>284</ele>
        <time>2022-02-27T11:34:54.808Z</time>
      </trkpt>
      <trkpt lat="44.37333" lon="5.16845">
        <ele>285</ele>
        <time>2022-02-27T11:34:55.808Z</time>
      </trkpt>
      <trkpt lat="44.37335" lon="5.16848">
        <ele>285</ele>
        <time>2022-02-27T11:34:56.807Z</time>
      </trkpt>
      <trkpt lat="44.37336" lon="5.1685">
        <ele>285</ele>
        <time>2022-02-27T11:34:57.808Z</time>
      </trkpt>
      <trkpt lat="44.37338" lon="5.16853">
        <ele>285</ele>
        <time>2022-02-27T11:34:58.808Z</time>
      </trkpt>
      <trkpt lat="44.3734" lon="5.16856">
        <ele>285</ele>
        <time>2022-02-27T11:34:59.808Z</time>
      </trkpt>
      <trkpt lat="44.3734" lon="5.16859">
        <ele>285</ele>
        <time>2022-02-27T11:35:00.808Z</time>
      </trkpt>
      <trkpt lat="44.37341" lon="5.16862">
        <ele>285</ele>
        <time>2022-02-27T11:35:01.807Z</time>
      </trkpt>
      <trkpt lat="44.37342" lon="5.16864">
        <ele>285</ele>
        <time>2022-02-27T11:35:02.808Z</time>
      </trkpt>
      <trkpt lat="44.37343" lon="5.16867">
        <ele>285</ele>
        <time>2022-02-27T11:35:03.808Z</time>
      </trkpt>
      <trkpt lat="44.37344" lon="5.1687">
        <ele>285</ele>
        <time>2022-02-27T11:35:04.808Z</time>
      </trkpt>
      <trkpt lat="44.37345" lon="5.16873">
        <ele>285</ele>
        <time>2022-02-27T11:35:05.807Z</time>
      </trkpt>
      <trkpt lat="44.37346" lon="5.16875">
        <ele>285</ele>
        <time>2022-02-27T11:35:06.808Z</time>
      </trkpt>
      <trkpt lat="44.37346" lon="5.16878">
        <ele>286</ele>
        <time>2022-02-27T11:35:07.808Z</time>
      </trkpt>
      <trkpt lat="44.37347" lon="5.16881">
        <ele>285</ele>
        <time>2022-02-27T11:35:08.808Z</time>
      </trkpt>
      <trkpt lat="44.37347" lon="5.16884">
        <ele>285</ele>
        <time>2022-02-27T11:35:09.808Z</time>
      </trkpt>
      <trkpt lat="44.37348" lon="5.16887">
        <ele>285</ele>
        <time>2022-02-27T11:35:10.808Z</time>
      </trkpt>
      <trkpt lat="44.37348" lon="5.16891">
        <ele>285</ele>
        <time>2022-02-27T11:35:11.808Z</time>
      </trkpt>
      <trkpt lat="44.37349" lon="5.16894">
        <ele>285</ele>
        <time>2022-02-27T11:35:12.808Z</time>
      </trkpt>
      <trkpt lat="44.3735" lon="5.16898">
        <ele>285</ele>
        <time>2022-02-27T11:35:13.808Z</time>
      </trkpt>
      <trkpt lat="44.37351" lon="5.16902">
        <ele>285</ele>
        <time>2022-02-27T11:35:14.808Z</time>
      </trkpt>
      <trkpt lat="44.37351" lon="5.16905">
        <ele>285</ele>
        <time>2022-02-27T11:35:15.807Z</time>
      </trkpt>
      <trkpt lat="44.37351" lon="5.16908">
        <ele>285</ele>
        <time>2022-02-27T11:35:16.807Z</time>
      </trkpt>
      <trkpt lat="44.37352" lon="5.16911">
        <ele>284</ele>
        <time>2022-02-27T11:35:17.808Z</time>
      </trkpt>
      <trkpt lat="44.37354" lon="5.16915">
        <ele>284</ele>
        <time>2022-02-27T11:35:18.808Z</time>
      </trkpt>
      <trkpt lat="44.37355" lon="5.16918">
        <ele>284</ele>
        <time>2022-02-27T11:35:19.808Z</time>
      </trkpt>
      <trkpt lat="44.37356" lon="5.16921">
        <ele>284</ele>
        <time>2022-02-27T11:35:20.808Z</time>
      </trkpt>
      <trkpt lat="44.37356" lon="5.16924">
        <ele>284</ele>
        <time>2022-02-27T11:35:21.807Z</time>
      </trkpt>
      <trkpt lat="44.37357" lon="5.16928">
        <ele>284</ele>
        <time>2022-02-27T11:35:22.808Z</time>
      </trkpt>
      <trkpt lat="44.37357" lon="5.16931">
        <ele>284</ele>
        <time>2022-02-27T11:35:23.807Z</time>
      </trkpt>
      <trkpt lat="44.37358" lon="5.16934">
        <ele>283</ele>
        <time>2022-02-27T11:35:24.808Z</time>
      </trkpt>
      <trkpt lat="44.37359" lon="5.16937">
        <ele>283</ele>
        <time>2022-02-27T11:35:25.807Z</time>
      </trkpt>
      <trkpt lat="44.3736" lon="5.1694">
        <ele>283</ele>
        <time>2022-02-27T11:35:26.808Z</time>
      </trkpt>
      <trkpt lat="44.37361" lon="5.16943">
        <ele>283</ele>
        <time>2022-02-27T11:35:27.808Z</time>
      </trkpt>
      <trkpt lat="44.37362" lon="5.16946">
        <ele>283</ele>
        <time>2022-02-27T11:35:28.808Z</time>
      </trkpt>
      <trkpt lat="44.37363" lon="5.16949">
        <ele>283</ele>
        <time>2022-02-27T11:35:29.808Z</time>
      </trkpt>
      <trkpt lat="44.37364" lon="5.16952">
        <ele>283</ele>
        <time>2022-02-27T11:35:30.807Z</time>
      </trkpt>
      <trkpt lat="44.37364" lon="5.16956">
        <ele>283</ele>
        <time>2022-02-27T11:35:31.807Z</time>
      </trkpt>
      <trkpt lat="44.37365" lon="5.16959">
        <ele>283</ele>
        <time>2022-02-27T11:35:32.808Z</time>
      </trkpt>
      <trkpt lat="44.37365" lon="5.16963">
        <ele>283</ele>
        <time>2022-02-27T11:35:33.808Z</time>
      </trkpt>
      <trkpt lat="44.37366" lon="5.16966">
        <ele>283</ele>
        <time>2022-02-27T11:35:34.808Z</time>
      </trkpt>
      <trkpt lat="44.37367" lon="5.1697">
        <ele>282</ele>
        <time>2022-02-27T11:35:35.808Z</time>
      </trkpt>
      <trkpt lat="44.37367" lon="5.16973">
        <ele>282</ele>
        <time>2022-02-27T11:35:36.808Z</time>
      </trkpt>
      <trkpt lat="44.37368" lon="5.16977">
        <ele>282</ele>
        <time>2022-02-27T11:35:37.808Z</time>
      </trkpt>
      <trkpt lat="44.37368" lon="5.16981">
        <ele>282</ele>
        <time>2022-02-27T11:35:38.807Z</time>
      </trkpt>
      <trkpt lat="44.37369" lon="5.16985">
        <ele>282</ele>
        <time>2022-02-27T11:35:39.808Z</time>
      </trkpt>
      <trkpt lat="44.37369" lon="5.16989">
        <ele>282</ele>
        <time>2022-02-27T11:35:40.807Z</time>
      </trkpt>
      <trkpt lat="44.37369" lon="5.16992">
        <ele>282</ele>
        <time>2022-02-27T11:35:41.808Z</time>
      </trkpt>
      <trkpt lat="44.37369" lon="5.16996">
        <ele>282</ele>
        <time>2022-02-27T11:35:42.807Z</time>
      </trkpt>
      <trkpt lat="44.37368" lon="5.16999">
        <ele>282</ele>
        <time>2022-02-27T11:35:43.808Z</time>
      </trkpt>
      <trkpt lat="44.37368" lon="5.17002">
        <ele>283</ele>
        <time>2022-02-27T11:35:44.808Z</time>
      </trkpt>
      <trkpt lat="44.37368" lon="5.17005">
        <ele>283</ele>
        <time>2022-02-27T11:35:45.807Z</time>
      </trkpt>
      <trkpt lat="44.37368" lon="5.17008">
        <ele>283</ele>
        <time>2022-02-27T11:35:46.808Z</time>
      </trkpt>
      <trkpt lat="44.37368" lon="5.17012">
        <ele>284</ele>
        <time>2022-02-27T11:35:47.808Z</time>
      </trkpt>
      <trkpt lat="44.37368" lon="5.17015">
        <ele>284</ele>
        <time>2022-02-27T11:35:48.808Z</time>
      </trkpt>
      <trkpt lat="44.37367" lon="5.17018">
        <ele>283</ele>
        <time>2022-02-27T11:35:49.808Z</time>
      </trkpt>
      <trkpt lat="44.37367" lon="5.17021">
        <ele>283</ele>
        <time>2022-02-27T11:35:50.808Z</time>
      </trkpt>
      <trkpt lat="44.37366" lon="5.17024">
        <ele>283</ele>
        <time>2022-02-27T11:35:51.807Z</time>
      </trkpt>
      <trkpt lat="44.37366" lon="5.17027">
        <ele>283</ele>
        <time>2022-02-27T11:35:52.807Z</time>
      </trkpt>
      <trkpt lat="44.37366" lon="5.1703">
        <ele>283</ele>
        <time>2022-02-27T11:35:53.808Z</time>
      </trkpt>
      <trkpt lat="44.37366" lon="5.17033">
        <ele>283</ele>
        <time>2022-02-27T11:35:54.808Z</time>
      </trkpt>
      <trkpt lat="44.37367" lon="5.17036">
        <ele>283</ele>
        <time>2022-02-27T11:35:55.807Z</time>
      </trkpt>
      <trkpt lat="44.37367" lon="5.17039">
        <ele>283</ele>
        <time>2022-02-27T11:35:56.808Z</time>
      </trkpt>
      <trkpt lat="44.37368" lon="5.17042">
        <ele>283</ele>
        <time>2022-02-27T11:35:57.808Z</time>
      </trkpt>
      <trkpt lat="44.37369" lon="5.17044">
        <ele>283</ele>
        <time>2022-02-27T11:35:58.808Z</time>
      </trkpt>
      <trkpt lat="44.37371" lon="5.17046">
        <ele>283</ele>
        <time>2022-02-27T11:35:59.808Z</time>
      </trkpt>
      <trkpt lat="44.37373" lon="5.17049">
        <ele>284</ele>
        <time>2022-02-27T11:36:00.807Z</time>
      </trkpt>
      <trkpt lat="44.37375" lon="5.17051">
        <ele>284</ele>
        <time>2022-02-27T11:36:01.808Z</time>
      </trkpt>
      <trkpt lat="44.37377" lon="5.17053">
        <ele>284</ele>
        <time>2022-02-27T11:36:02.808Z</time>
      </trkpt>
      <trkpt lat="44.3738" lon="5.17054">
        <ele>284</ele>
        <time>2022-02-27T11:36:03.807Z</time>
      </trkpt>
      <trkpt lat="44.37382" lon="5.17054">
        <ele>285</ele>
        <time>2022-02-27T11:36:04.808Z</time>
      </trkpt>
      <trkpt lat="44.37385" lon="5.17055">
        <ele>285</ele>
        <time>2022-02-27T11:36:05.808Z</time>
      </trkpt>
      <trkpt lat="44.37387" lon="5.17055">
        <ele>286</ele>
        <time>2022-02-27T11:36:06.808Z</time>
      </trkpt>
      <trkpt lat="44.3739" lon="5.17055">
        <ele>286</ele>
        <time>2022-02-27T11:36:07.808Z</time>
      </trkpt>
      <trkpt lat="44.37392" lon="5.17056">
        <ele>287</ele>
        <time>2022-02-27T11:36:08.808Z</time>
      </trkpt>
      <trkpt lat="44.37395" lon="5.17056">
        <ele>287</ele>
        <time>2022-02-27T11:36:09.807Z</time>
      </trkpt>
      <trkpt lat="44.37397" lon="5.17057">
        <ele>287</ele>
        <time>2022-02-27T11:36:10.808Z</time>
      </trkpt>
      <trkpt lat="44.37399" lon="5.17057">
        <ele>287</ele>
        <time>2022-02-27T11:36:11.808Z</time>
      </trkpt>
      <trkpt lat="44.37402" lon="5.17057">
        <ele>286</ele>
        <time>2022-02-27T11:36:12.808Z</time>
      </trkpt>
      <trkpt lat="44.37404" lon="5.17058">
        <ele>286</ele>
        <time>2022-02-27T11:36:13.808Z</time>
      </trkpt>
      <trkpt lat="44.37407" lon="5.17058">
        <ele>286</ele>
        <time>2022-02-27T11:36:14.808Z</time>
      </trkpt>
      <trkpt lat="44.37409" lon="5.17058">
        <ele>286</ele>
        <time>2022-02-27T11:36:15.807Z</time>
      </trkpt>
      <trkpt lat="44.37412" lon="5.17059">
        <ele>286</ele>
        <time>2022-02-27T11:36:16.808Z</time>
      </trkpt>
      <trkpt lat="44.37414" lon="5.17059">
        <ele>286</ele>
        <time>2022-02-27T11:36:17.807Z</time>
      </trkpt>
      <trkpt lat="44.37416" lon="5.17059">
        <ele>286</ele>
        <time>2022-02-27T11:36:18.808Z</time>
      </trkpt>
      <trkpt lat="44.37419" lon="5.17059">
        <ele>286</ele>
        <time>2022-02-27T11:36:19.807Z</time>
      </trkpt>
      <trkpt lat="44.37421" lon="5.1706">
        <ele>286</ele>
        <time>2022-02-27T11:36:20.808Z</time>
      </trkpt>
      <trkpt lat="44.37423" lon="5.1706">
        <ele>286</ele>
        <time>2022-02-27T11:36:21.808Z</time>
      </trkpt>
      <trkpt lat="44.37426" lon="5.1706">
        <ele>287</ele>
        <time>2022-02-27T11:36:22.808Z</time>
      </trkpt>
      <trkpt lat="44.37428" lon="5.1706">
        <ele>287</ele>
        <time>2022-02-27T11:36:23.808Z</time>
      </trkpt>
      <trkpt lat="44.37431" lon="5.1706">
        <ele>287</ele>
        <time>2022-02-27T11:36:24.807Z</time>
      </trkpt>
      <trkpt lat="44.37433" lon="5.1706">
        <ele>287</ele>
        <time>2022-02-27T11:36:25.808Z</time>
      </trkpt>
      <trkpt lat="44.37436" lon="5.1706">
        <ele>287</ele>
        <time>2022-02-27T11:36:26.807Z</time>
      </trkpt>
      <trkpt lat="44.37438" lon="5.1706">
        <ele>288</ele>
        <time>2022-02-27T11:36:27.808Z</time>
      </trkpt>
      <trkpt lat="44.3744" lon="5.1706">
        <ele>288</ele>
        <time>2022-02-27T11:36:28.808Z</time>
      </trkpt>
      <trkpt lat="44.37442" lon="5.1706">
        <ele>288</ele>
        <time>2022-02-27T11:36:29.808Z</time>
      </trkpt>
      <trkpt lat="44.37445" lon="5.1706">
        <ele>289</ele>
        <time>2022-02-27T11:36:30.808Z</time>
      </trkpt>
      <trkpt lat="44.37447" lon="5.1706">
        <ele>289</ele>
        <time>2022-02-27T11:36:31.807Z</time>
      </trkpt>
      <trkpt lat="44.3745" lon="5.17061">
        <ele>290</ele>
        <time>2022-02-27T11:36:32.808Z</time>
      </trkpt>
      <trkpt lat="44.37451" lon="5.17063">
        <ele>291</ele>
        <time>2022-02-27T11:36:33.807Z</time>
      </trkpt>
      <trkpt lat="44.37453" lon="5.17064">
        <ele>291</ele>
        <time>2022-02-27T11:36:34.808Z</time>
      </trkpt>
      <trkpt lat="44.37454" lon="5.17067">
        <ele>292</ele>
        <time>2022-02-27T11:36:35.808Z</time>
      </trkpt>
      <trkpt lat="44.37455" lon="5.17069">
        <ele>292</ele>
        <time>2022-02-27T11:36:36.808Z</time>
      </trkpt>
      <trkpt lat="44.37456" lon="5.17071">
        <ele>292</ele>
        <time>2022-02-27T11:36:37.808Z</time>
      </trkpt>
      <trkpt lat="44.37458" lon="5.17074">
        <ele>292</ele>
        <time>2022-02-27T11:36:38.808Z</time>
      </trkpt>
      <trkpt lat="44.37459" lon="5.17078">
        <ele>292</ele>
        <time>2022-02-27T11:36:39.808Z</time>
      </trkpt>
      <trkpt lat="44.3746" lon="5.17081">
        <ele>292</ele>
        <time>2022-02-27T11:36:40.808Z</time>
      </trkpt>
      <trkpt lat="44.37461" lon="5.17085">
        <ele>291</ele>
        <time>2022-02-27T11:36:41.808Z</time>
      </trkpt>
      <trkpt lat="44.37462" lon="5.17089">
        <ele>290</ele>
        <time>2022-02-27T11:36:42.808Z</time>
      </trkpt>
      <trkpt lat="44.37463" lon="5.17094">
        <ele>290</ele>
        <time>2022-02-27T11:36:43.808Z</time>
      </trkpt>
      <trkpt lat="44.37464" lon="5.17096">
        <ele>289</ele>
        <time>2022-02-27T11:36:44.808Z</time>
      </trkpt>
      <trkpt lat="44.37465" lon="5.17099">
        <ele>289</ele>
        <time>2022-02-27T11:36:45.808Z</time>
      </trkpt>
      <trkpt lat="44.37466" lon="5.17102">
        <ele>289</ele>
        <time>2022-02-27T11:36:46.808Z</time>
      </trkpt>
      <trkpt lat="44.37467" lon="5.17106">
        <ele>289</ele>
        <time>2022-02-27T11:36:47.808Z</time>
      </trkpt>
      <trkpt lat="44.37468" lon="5.17109">
        <ele>289</ele>
        <time>2022-02-27T11:36:48.808Z</time>
      </trkpt>
      <trkpt lat="44.37469" lon="5.17112">
        <ele>289</ele>
        <time>2022-02-27T11:36:49.808Z</time>
      </trkpt>
      <trkpt lat="44.3747" lon="5.17115">
        <ele>289</ele>
        <time>2022-02-27T11:36:50.808Z</time>
      </trkpt>
      <trkpt lat="44.37471" lon="5.17118">
        <ele>289</ele>
        <time>2022-02-27T11:36:51.808Z</time>
      </trkpt>
      <trkpt lat="44.37472" lon="5.17121">
        <ele>289</ele>
        <time>2022-02-27T11:36:52.807Z</time>
      </trkpt>
      <trkpt lat="44.37473" lon="5.17125">
        <ele>288</ele>
        <time>2022-02-27T11:36:53.808Z</time>
      </trkpt>
      <trkpt lat="44.37474" lon="5.17128">
        <ele>288</ele>
        <time>2022-02-27T11:36:54.808Z</time>
      </trkpt>
      <trkpt lat="44.37476" lon="5.17131">
        <ele>288</ele>
        <time>2022-02-27T11:36:55.807Z</time>
      </trkpt>
      <trkpt lat="44.37477" lon="5.17134">
        <ele>289</ele>
        <time>2022-02-27T11:36:56.807Z</time>
      </trkpt>
      <trkpt lat="44.37479" lon="5.17136">
        <ele>289</ele>
        <time>2022-02-27T11:36:57.808Z</time>
      </trkpt>
      <trkpt lat="44.3748" lon="5.17139">
        <ele>289</ele>
        <time>2022-02-27T11:36:58.807Z</time>
      </trkpt>
      <trkpt lat="44.37482" lon="5.17142">
        <ele>290</ele>
        <time>2022-02-27T11:36:59.808Z</time>
      </trkpt>
      <trkpt lat="44.37484" lon="5.17144">
        <ele>290</ele>
        <time>2022-02-27T11:37:00.807Z</time>
      </trkpt>
      <trkpt lat="44.37485" lon="5.17146">
        <ele>291</ele>
        <time>2022-02-27T11:37:01.808Z</time>
      </trkpt>
      <trkpt lat="44.37486" lon="5.17148">
        <ele>291</ele>
        <time>2022-02-27T11:37:02.808Z</time>
      </trkpt>
      <trkpt lat="44.37488" lon="5.1715">
        <ele>291</ele>
        <time>2022-02-27T11:37:03.808Z</time>
      </trkpt>
      <trkpt lat="44.3749" lon="5.17151">
        <ele>291</ele>
        <time>2022-02-27T11:37:04.808Z</time>
      </trkpt>
      <trkpt lat="44.37492" lon="5.17153">
        <ele>291</ele>
        <time>2022-02-27T11:37:05.808Z</time>
      </trkpt>
      <trkpt lat="44.37494" lon="5.17154">
        <ele>291</ele>
        <time>2022-02-27T11:37:06.808Z</time>
      </trkpt>
      <trkpt lat="44.37496" lon="5.17155">
        <ele>291</ele>
        <time>2022-02-27T11:37:07.808Z</time>
      </trkpt>
      <trkpt lat="44.37498" lon="5.17155">
        <ele>291</ele>
        <time>2022-02-27T11:37:08.807Z</time>
      </trkpt>
      <trkpt lat="44.375" lon="5.17155">
        <ele>291</ele>
        <time>2022-02-27T11:37:09.808Z</time>
      </trkpt>
      <trkpt lat="44.37501" lon="5.17154">
        <ele>291</ele>
        <time>2022-02-27T11:37:10.808Z</time>
      </trkpt>
      <trkpt lat="44.37503" lon="5.17153">
        <ele>291</ele>
        <time>2022-02-27T11:37:11.808Z</time>
      </trkpt>
      <trkpt lat="44.37505" lon="5.17152">
        <ele>291</ele>
        <time>2022-02-27T11:37:12.807Z</time>
      </trkpt>
      <trkpt lat="44.37506" lon="5.1715">
        <ele>291</ele>
        <time>2022-02-27T11:37:13.808Z</time>
      </trkpt>
      <trkpt lat="44.37508" lon="5.17149">
        <ele>290</ele>
        <time>2022-02-27T11:37:14.808Z</time>
      </trkpt>
      <trkpt lat="44.3751" lon="5.17148">
        <ele>290</ele>
        <time>2022-02-27T11:37:15.808Z</time>
      </trkpt>
      <trkpt lat="44.37511" lon="5.17147">
        <ele>290</ele>
        <time>2022-02-27T11:37:16.808Z</time>
      </trkpt>
      <trkpt lat="44.37512" lon="5.17145">
        <ele>290</ele>
        <time>2022-02-27T11:37:17.808Z</time>
      </trkpt>
      <trkpt lat="44.37514" lon="5.17143">
        <ele>289</ele>
        <time>2022-02-27T11:37:18.808Z</time>
      </trkpt>
      <trkpt lat="44.37515" lon="5.17141">
        <ele>289</ele>
        <time>2022-02-27T11:37:19.808Z</time>
      </trkpt>
      <trkpt lat="44.37517" lon="5.17139">
        <ele>289</ele>
        <time>2022-02-27T11:37:20.808Z</time>
      </trkpt>
      <trkpt lat="44.37518" lon="5.17137">
        <ele>289</ele>
        <time>2022-02-27T11:37:21.808Z</time>
      </trkpt>
      <trkpt lat="44.3752" lon="5.17135">
        <ele>288</ele>
        <time>2022-02-27T11:37:22.808Z</time>
      </trkpt>
      <trkpt lat="44.37521" lon="5.17133">
        <ele>287</ele>
        <time>2022-02-27T11:37:23.808Z</time>
      </trkpt>
      <trkpt lat="44.37523" lon="5.1713">
        <ele>287</ele>
        <time>2022-02-27T11:37:24.807Z</time>
      </trkpt>
      <trkpt lat="44.37524" lon="5.17128">
        <ele>286</ele>
        <time>2022-02-27T11:37:25.807Z</time>
      </trkpt>
      <trkpt lat="44.37526" lon="5.17126">
        <ele>286</ele>
        <time>2022-02-27T11:37:26.807Z</time>
      </trkpt>
      <trkpt lat="44.37527" lon="5.17123">
        <ele>286</ele>
        <time>2022-02-27T11:37:27.808Z</time>
      </trkpt>
      <trkpt lat="44.37528" lon="5.17121">
        <ele>285</ele>
        <time>2022-02-27T11:37:28.807Z</time>
      </trkpt>
      <trkpt lat="44.3753" lon="5.17118">
        <ele>285</ele>
        <time>2022-02-27T11:37:29.807Z</time>
      </trkpt>
      <trkpt lat="44.37531" lon="5.17116">
        <ele>285</ele>
        <time>2022-02-27T11:37:30.807Z</time>
      </trkpt>
      <trkpt lat="44.37532" lon="5.17114">
        <ele>285</ele>
        <time>2022-02-27T11:37:31.808Z</time>
      </trkpt>
      <trkpt lat="44.37534" lon="5.17112">
        <ele>285</ele>
        <time>2022-02-27T11:37:32.807Z</time>
      </trkpt>
      <trkpt lat="44.37535" lon="5.17109">
        <ele>285</ele>
        <time>2022-02-27T11:37:33.808Z</time>
      </trkpt>
      <trkpt lat="44.37537" lon="5.17107">
        <ele>285</ele>
        <time>2022-02-27T11:37:34.808Z</time>
      </trkpt>
      <trkpt lat="44.37538" lon="5.17104">
        <ele>284</ele>
        <time>2022-02-27T11:37:35.808Z</time>
      </trkpt>
      <trkpt lat="44.37539" lon="5.17102">
        <ele>284</ele>
        <time>2022-02-27T11:37:36.808Z</time>
      </trkpt>
      <trkpt lat="44.3754" lon="5.171">
        <ele>284</ele>
        <time>2022-02-27T11:37:37.808Z</time>
      </trkpt>
      <trkpt lat="44.37541" lon="5.17097">
        <ele>284</ele>
        <time>2022-02-27T11:37:38.807Z</time>
      </trkpt>
      <trkpt lat="44.37542" lon="5.17095">
        <ele>283</ele>
        <time>2022-02-27T11:37:39.808Z</time>
      </trkpt>
      <trkpt lat="44.37543" lon="5.17092">
        <ele>283</ele>
        <time>2022-02-27T11:37:40.808Z</time>
      </trkpt>
      <trkpt lat="44.37545" lon="5.17089">
        <ele>283</ele>
        <time>2022-02-27T11:37:41.808Z</time>
      </trkpt>
      <trkpt lat="44.37546" lon="5.17087">
        <ele>283</ele>
        <time>2022-02-27T11:37:42.808Z</time>
      </trkpt>
      <trkpt lat="44.37547" lon="5.17084">
        <ele>283</ele>
        <time>2022-02-27T11:37:43.808Z</time>
      </trkpt>
      <trkpt lat="44.37548" lon="5.17081">
        <ele>282</ele>
        <time>2022-02-27T11:37:44.808Z</time>
      </trkpt>
      <trkpt lat="44.37548" lon="5.17078">
        <ele>282</ele>
        <time>2022-02-27T11:37:45.808Z</time>
      </trkpt>
      <trkpt lat="44.37549" lon="5.17076">
        <ele>282</ele>
        <time>2022-02-27T11:37:46.807Z</time>
      </trkpt>
      <trkpt lat="44.37551" lon="5.17073">
        <ele>282</ele>
        <time>2022-02-27T11:37:47.808Z</time>
      </trkpt>
      <trkpt lat="44.37552" lon="5.1707">
        <ele>282</ele>
        <time>2022-02-27T11:37:48.807Z</time>
      </trkpt>
      <trkpt lat="44.37552" lon="5.17067">
        <ele>281</ele>
        <time>2022-02-27T11:37:49.808Z</time>
      </trkpt>
      <trkpt lat="44.37553" lon="5.17064">
        <ele>281</ele>
        <time>2022-02-27T11:37:50.808Z</time>
      </trkpt>
      <trkpt lat="44.37554" lon="5.17061">
        <ele>281</ele>
        <time>2022-02-27T11:37:51.808Z</time>
      </trkpt>
      <trkpt lat="44.37555" lon="5.17058">
        <ele>281</ele>
        <time>2022-02-27T11:37:52.808Z</time>
      </trkpt>
      <trkpt lat="44.37556" lon="5.17055">
        <ele>281</ele>
        <time>2022-02-27T11:37:53.808Z</time>
      </trkpt>
      <trkpt lat="44.37557" lon="5.17052">
        <ele>281</ele>
        <time>2022-02-27T11:37:54.808Z</time>
      </trkpt>
      <trkpt lat="44.37559" lon="5.17049">
        <ele>282</ele>
        <time>2022-02-27T11:37:55.808Z</time>
      </trkpt>
      <trkpt lat="44.37561" lon="5.17047">
        <ele>283</ele>
        <time>2022-02-27T11:37:56.808Z</time>
      </trkpt>
      <trkpt lat="44.37562" lon="5.17045">
        <ele>283</ele>
        <time>2022-02-27T11:37:57.808Z</time>
      </trkpt>
      <trkpt lat="44.37564" lon="5.17043">
        <ele>284</ele>
        <time>2022-02-27T11:37:58.808Z</time>
      </trkpt>
      <trkpt lat="44.37566" lon="5.17041">
        <ele>284</ele>
        <time>2022-02-27T11:37:59.808Z</time>
      </trkpt>
      <trkpt lat="44.37568" lon="5.1704">
        <ele>284</ele>
        <time>2022-02-27T11:38:00.808Z</time>
      </trkpt>
      <trkpt lat="44.3757" lon="5.17038">
        <ele>284</ele>
        <time>2022-02-27T11:38:01.808Z</time>
      </trkpt>
      <trkpt lat="44.37572" lon="5.17036">
        <ele>285</ele>
        <time>2022-02-27T11:38:02.808Z</time>
      </trkpt>
      <trkpt lat="44.37575" lon="5.17035">
        <ele>286</ele>
        <time>2022-02-27T11:38:03.808Z</time>
      </trkpt>
      <trkpt lat="44.37577" lon="5.17034">
        <ele>287</ele>
        <time>2022-02-27T11:38:04.807Z</time>
      </trkpt>
      <trkpt lat="44.37579" lon="5.17034">
        <ele>288</ele>
        <time>2022-02-27T11:38:05.808Z</time>
      </trkpt>
      <trkpt lat="44.37582" lon="5.17034">
        <ele>289</ele>
        <time>2022-02-27T11:38:06.808Z</time>
      </trkpt>
      <trkpt lat="44.37584" lon="5.17033">
        <ele>289</ele>
        <time>2022-02-27T11:38:07.808Z</time>
      </trkpt>
      <trkpt lat="44.37586" lon="5.17034">
        <ele>290</ele>
        <time>2022-02-27T11:38:08.808Z</time>
      </trkpt>
      <trkpt lat="44.37589" lon="5.17035">
        <ele>291</ele>
        <time>2022-02-27T11:38:09.807Z</time>
      </trkpt>
      <trkpt lat="44.37591" lon="5.17037">
        <ele>292</ele>
        <time>2022-02-27T11:38:10.807Z</time>
      </trkpt>
      <trkpt lat="44.37592" lon="5.17038">
        <ele>292</ele>
        <time>2022-02-27T11:38:11.808Z</time>
      </trkpt>
      <trkpt lat="44.37594" lon="5.1704">
        <ele>292</ele>
        <time>2022-02-27T11:38:12.808Z</time>
      </trkpt>
      <trkpt lat="44.37595" lon="5.17043">
        <ele>293</ele>
        <time>2022-02-27T11:38:13.807Z</time>
      </trkpt>
      <trkpt lat="44.37596" lon="5.17045">
        <ele>293</ele>
        <time>2022-02-27T11:38:14.807Z</time>
      </trkpt>
      <trkpt lat="44.37596" lon="5.17048">
        <ele>293</ele>
        <time>2022-02-27T11:38:15.807Z</time>
      </trkpt>
      <trkpt lat="44.37596" lon="5.17051">
        <ele>293</ele>
        <time>2022-02-27T11:38:16.807Z</time>
      </trkpt>
      <trkpt lat="44.37597" lon="5.17053">
        <ele>293</ele>
        <time>2022-02-27T11:38:17.807Z</time>
      </trkpt>
      <trkpt lat="44.37598" lon="5.17056">
        <ele>293</ele>
        <time>2022-02-27T11:38:18.808Z</time>
      </trkpt>
      <trkpt lat="44.37599" lon="5.17058">
        <ele>293</ele>
        <time>2022-02-27T11:38:19.808Z</time>
      </trkpt>
      <trkpt lat="44.376" lon="5.1706">
        <ele>293</ele>
        <time>2022-02-27T11:38:20.808Z</time>
      </trkpt>
      <trkpt lat="44.37601" lon="5.17063">
        <ele>293</ele>
        <time>2022-02-27T11:38:21.808Z</time>
      </trkpt>
      <trkpt lat="44.37602" lon="5.17065">
        <ele>294</ele>
        <time>2022-02-27T11:38:22.808Z</time>
      </trkpt>
      <trkpt lat="44.37603" lon="5.17067">
        <ele>294</ele>
        <time>2022-02-27T11:38:23.808Z</time>
      </trkpt>
      <trkpt lat="44.37604" lon="5.1707">
        <ele>294</ele>
        <time>2022-02-27T11:38:24.808Z</time>
      </trkpt>
      <trkpt lat="44.37605" lon="5.17072">
        <ele>294</ele>
        <time>2022-02-27T11:38:25.807Z</time>
      </trkpt>
      <trkpt lat="44.37606" lon="5.17075">
        <ele>294</ele>
        <time>2022-02-27T11:38:26.808Z</time>
      </trkpt>
      <trkpt lat="44.37606" lon="5.17078">
        <ele>294</ele>
        <time>2022-02-27T11:38:27.808Z</time>
      </trkpt>
      <trkpt lat="44.37607" lon="5.17081">
        <ele>294</ele>
        <time>2022-02-27T11:38:28.807Z</time>
      </trkpt>
      <trkpt lat="44.37608" lon="5.17084">
        <ele>294</ele>
        <time>2022-02-27T11:38:29.807Z</time>
      </trkpt>
      <trkpt lat="44.37609" lon="5.17087">
        <ele>294</ele>
        <time>2022-02-27T11:38:30.808Z</time>
      </trkpt>
      <trkpt lat="44.3761" lon="5.1709">
        <ele>294</ele>
        <time>2022-02-27T11:38:31.808Z</time>
      </trkpt>
      <trkpt lat="44.37611" lon="5.17092">
        <ele>294</ele>
        <time>2022-02-27T11:38:32.808Z</time>
      </trkpt>
      <trkpt lat="44.37613" lon="5.17095">
        <ele>294</ele>
        <time>2022-02-27T11:38:33.808Z</time>
      </trkpt>
      <trkpt lat="44.37614" lon="5.17097">
        <ele>294</ele>
        <time>2022-02-27T11:38:34.807Z</time>
      </trkpt>
      <trkpt lat="44.37616" lon="5.17098">
        <ele>295</ele>
        <time>2022-02-27T11:38:35.807Z</time>
      </trkpt>
      <trkpt lat="44.37618" lon="5.17099">
        <ele>295</ele>
        <time>2022-02-27T11:38:36.808Z</time>
      </trkpt>
      <trkpt lat="44.3762" lon="5.17099">
        <ele>296</ele>
        <time>2022-02-27T11:38:37.808Z</time>
      </trkpt>
      <trkpt lat="44.37622" lon="5.17099">
        <ele>296</ele>
        <time>2022-02-27T11:38:38.808Z</time>
      </trkpt>
      <trkpt lat="44.37624" lon="5.17099">
        <ele>297</ele>
        <time>2022-02-27T11:38:39.808Z</time>
      </trkpt>
      <trkpt lat="44.37626" lon="5.17098">
        <ele>297</ele>
        <time>2022-02-27T11:38:40.808Z</time>
      </trkpt>
      <trkpt lat="44.37628" lon="5.17097">
        <ele>296</ele>
        <time>2022-02-27T11:38:41.808Z</time>
      </trkpt>
      <trkpt lat="44.3763" lon="5.17096">
        <ele>296</ele>
        <time>2022-02-27T11:38:42.808Z</time>
      </trkpt>
      <trkpt lat="44.37632" lon="5.17094">
        <ele>297</ele>
        <time>2022-02-27T11:38:43.808Z</time>
      </trkpt>
      <trkpt lat="44.37634" lon="5.17093">
        <ele>297</ele>
        <time>2022-02-27T11:38:44.808Z</time>
      </trkpt>
      <trkpt lat="44.37636" lon="5.17091">
        <ele>297</ele>
        <time>2022-02-27T11:38:45.808Z</time>
      </trkpt>
      <trkpt lat="44.37637" lon="5.1709">
        <ele>297</ele>
        <time>2022-02-27T11:38:46.808Z</time>
      </trkpt>
      <trkpt lat="44.37639" lon="5.17088">
        <ele>297</ele>
        <time>2022-02-27T11:38:47.808Z</time>
      </trkpt>
      <trkpt lat="44.37641" lon="5.17087">
        <ele>297</ele>
        <time>2022-02-27T11:38:48.808Z</time>
      </trkpt>
      <trkpt lat="44.37642" lon="5.17085">
        <ele>297</ele>
        <time>2022-02-27T11:38:49.808Z</time>
      </trkpt>
      <trkpt lat="44.37644" lon="5.17084">
        <ele>296</ele>
        <time>2022-02-27T11:38:50.808Z</time>
      </trkpt>
      <trkpt lat="44.37646" lon="5.17083">
        <ele>296</ele>
        <time>2022-02-27T11:38:51.807Z</time>
      </trkpt>
      <trkpt lat="44.37648" lon="5.17081">
        <ele>296</ele>
        <time>2022-02-27T11:38:52.807Z</time>
      </trkpt>
      <trkpt lat="44.37649" lon="5.1708">
        <ele>296</ele>
        <time>2022-02-27T11:38:53.807Z</time>
      </trkpt>
      <trkpt lat="44.37651" lon="5.17078">
        <ele>296</ele>
        <time>2022-02-27T11:38:54.807Z</time>
      </trkpt>
      <trkpt lat="44.37653" lon="5.17077">
        <ele>296</ele>
        <time>2022-02-27T11:38:55.808Z</time>
      </trkpt>
      <trkpt lat="44.37655" lon="5.17075">
        <ele>296</ele>
        <time>2022-02-27T11:38:56.808Z</time>
      </trkpt>
      <trkpt lat="44.37657" lon="5.17074">
        <ele>296</ele>
        <time>2022-02-27T11:38:57.808Z</time>
      </trkpt>
      <trkpt lat="44.37659" lon="5.17073">
        <ele>296</ele>
        <time>2022-02-27T11:38:58.808Z</time>
      </trkpt>
      <trkpt lat="44.37661" lon="5.17072">
        <ele>296</ele>
        <time>2022-02-27T11:38:59.807Z</time>
      </trkpt>
      <trkpt lat="44.37663" lon="5.1707">
        <ele>296</ele>
        <time>2022-02-27T11:39:00.807Z</time>
      </trkpt>
      <trkpt lat="44.37665" lon="5.17069">
        <ele>296</ele>
        <time>2022-02-27T11:39:01.807Z</time>
      </trkpt>
      <trkpt lat="44.37667" lon="5.17067">
        <ele>296</ele>
        <time>2022-02-27T11:39:02.807Z</time>
      </trkpt>
      <trkpt lat="44.37669" lon="5.17066">
        <ele>296</ele>
        <time>2022-02-27T11:39:03.808Z</time>
      </trkpt>
      <trkpt lat="44.37671" lon="5.17065">
        <ele>296</ele>
        <time>2022-02-27T11:39:04.808Z</time>
      </trkpt>
      <trkpt lat="44.37674" lon="5.17064">
        <ele>297</ele>
        <time>2022-02-27T11:39:05.808Z</time>
      </trkpt>
      <trkpt lat="44.37676" lon="5.17062">
        <ele>297</ele>
        <time>2022-02-27T11:39:06.808Z</time>
      </trkpt>
      <trkpt lat="44.37678" lon="5.17061">
        <ele>297</ele>
        <time>2022-02-27T11:39:07.808Z</time>
      </trkpt>
      <trkpt lat="44.37679" lon="5.1706">
        <ele>298</ele>
        <time>2022-02-27T11:39:08.808Z</time>
      </trkpt>
      <trkpt lat="44.37681" lon="5.17059">
        <ele>297</ele>
        <time>2022-02-27T11:39:09.808Z</time>
      </trkpt>
      <trkpt lat="44.37683" lon="5.17057">
        <ele>297</ele>
        <time>2022-02-27T11:39:10.808Z</time>
      </trkpt>
      <trkpt lat="44.37685" lon="5.17056">
        <ele>298</ele>
        <time>2022-02-27T11:39:11.808Z</time>
      </trkpt>
      <trkpt lat="44.37687" lon="5.17054">
        <ele>298</ele>
        <time>2022-02-27T11:39:12.808Z</time>
      </trkpt>
      <trkpt lat="44.37689" lon="5.17053">
        <ele>298</ele>
        <time>2022-02-27T11:39:13.808Z</time>
      </trkpt>
      <trkpt lat="44.37692" lon="5.17051">
        <ele>298</ele>
        <time>2022-02-27T11:39:14.808Z</time>
      </trkpt>
      <trkpt lat="44.37694" lon="5.17049">
        <ele>299</ele>
        <time>2022-02-27T11:39:15.808Z</time>
      </trkpt>
      <trkpt lat="44.37696" lon="5.17048">
        <ele>299</ele>
        <time>2022-02-27T11:39:16.808Z</time>
      </trkpt>
      <trkpt lat="44.37698" lon="5.17046">
        <ele>299</ele>
        <time>2022-02-27T11:39:17.808Z</time>
      </trkpt>
      <trkpt lat="44.377" lon="5.17044">
        <ele>300</ele>
        <time>2022-02-27T11:39:18.808Z</time>
      </trkpt>
      <trkpt lat="44.37701" lon="5.17042">
        <ele>300</ele>
        <time>2022-02-27T11:39:19.807Z</time>
      </trkpt>
      <trkpt lat="44.37703" lon="5.17041">
        <ele>300</ele>
        <time>2022-02-27T11:39:20.808Z</time>
      </trkpt>
      <trkpt lat="44.37705" lon="5.17039">
        <ele>300</ele>
        <time>2022-02-27T11:39:21.807Z</time>
      </trkpt>
      <trkpt lat="44.37707" lon="5.17038">
        <ele>299</ele>
        <time>2022-02-27T11:39:22.808Z</time>
      </trkpt>
      <trkpt lat="44.37708" lon="5.17036">
        <ele>299</ele>
        <time>2022-02-27T11:39:23.808Z</time>
      </trkpt>
      <trkpt lat="44.3771" lon="5.17034">
        <ele>298</ele>
        <time>2022-02-27T11:39:24.807Z</time>
      </trkpt>
      <trkpt lat="44.37712" lon="5.17032">
        <ele>298</ele>
        <time>2022-02-27T11:39:25.807Z</time>
      </trkpt>
      <trkpt lat="44.37714" lon="5.1703">
        <ele>297</ele>
        <time>2022-02-27T11:39:26.808Z</time>
      </trkpt>
      <trkpt lat="44.37716" lon="5.17028">
        <ele>297</ele>
        <time>2022-02-27T11:39:27.808Z</time>
      </trkpt>
      <trkpt lat="44.37718" lon="5.17027">
        <ele>298</ele>
        <time>2022-02-27T11:39:28.808Z</time>
      </trkpt>
      <trkpt lat="44.37719" lon="5.17026">
        <ele>298</ele>
        <time>2022-02-27T11:39:29.808Z</time>
      </trkpt>
      <trkpt lat="44.37721" lon="5.17025">
        <ele>298</ele>
        <time>2022-02-27T11:39:30.808Z</time>
      </trkpt>
      <trkpt lat="44.37722" lon="5.17024">
        <ele>298</ele>
        <time>2022-02-27T11:39:31.808Z</time>
      </trkpt>
      <trkpt lat="44.37724" lon="5.17022">
        <ele>298</ele>
        <time>2022-02-27T11:39:32.808Z</time>
      </trkpt>
      <trkpt lat="44.37726" lon="5.17021">
        <ele>298</ele>
        <time>2022-02-27T11:39:33.808Z</time>
      </trkpt>
      <trkpt lat="44.37728" lon="5.17019">
        <ele>298</ele>
        <time>2022-02-27T11:39:34.807Z</time>
      </trkpt>
      <trkpt lat="44.3773" lon="5.17019">
        <ele>297</ele>
        <time>2022-02-27T11:39:35.808Z</time>
      </trkpt>
      <trkpt lat="44.37732" lon="5.1702">
        <ele>297</ele>
        <time>2022-02-27T11:39:36.808Z</time>
      </trkpt>
      <trkpt lat="44.37734" lon="5.17021">
        <ele>297</ele>
        <time>2022-02-27T11:39:37.808Z</time>
      </trkpt>
      <trkpt lat="44.37736" lon="5.17022">
        <ele>297</ele>
        <time>2022-02-27T11:39:38.808Z</time>
      </trkpt>
      <trkpt lat="44.37738" lon="5.17023">
        <ele>297</ele>
        <time>2022-02-27T11:39:39.808Z</time>
      </trkpt>
      <trkpt lat="44.3774" lon="5.17023">
        <ele>297</ele>
        <time>2022-02-27T11:39:40.808Z</time>
      </trkpt>
      <trkpt lat="44.37743" lon="5.17024">
        <ele>297</ele>
        <time>2022-02-27T11:39:41.808Z</time>
      </trkpt>
      <trkpt lat="44.37745" lon="5.17024">
        <ele>297</ele>
        <time>2022-02-27T11:39:42.808Z</time>
      </trkpt>
      <trkpt lat="44.37746" lon="5.17023">
        <ele>297</ele>
        <time>2022-02-27T11:39:43.807Z</time>
      </trkpt>
      <trkpt lat="44.37748" lon="5.17021">
        <ele>297</ele>
        <time>2022-02-27T11:39:44.808Z</time>
      </trkpt>
      <trkpt lat="44.37749" lon="5.1702">
        <ele>297</ele>
        <time>2022-02-27T11:39:45.808Z</time>
      </trkpt>
      <trkpt lat="44.37751" lon="5.17018">
        <ele>296</ele>
        <time>2022-02-27T11:39:46.807Z</time>
      </trkpt>
      <trkpt lat="44.37752" lon="5.17017">
        <ele>295</ele>
        <time>2022-02-27T11:39:47.807Z</time>
      </trkpt>
      <trkpt lat="44.37754" lon="5.17015">
        <ele>295</ele>
        <time>2022-02-27T11:39:48.808Z</time>
      </trkpt>
      <trkpt lat="44.37755" lon="5.17013">
        <ele>295</ele>
        <time>2022-02-27T11:39:49.807Z</time>
      </trkpt>
      <trkpt lat="44.37756" lon="5.17011">
        <ele>294</ele>
        <time>2022-02-27T11:39:50.807Z</time>
      </trkpt>
      <trkpt lat="44.37757" lon="5.17009">
        <ele>294</ele>
        <time>2022-02-27T11:39:51.807Z</time>
      </trkpt>
      <trkpt lat="44.37758" lon="5.17008">
        <ele>294</ele>
        <time>2022-02-27T11:39:52.808Z</time>
      </trkpt>
      <trkpt lat="44.3776" lon="5.17007">
        <ele>294</ele>
        <time>2022-02-27T11:39:53.808Z</time>
      </trkpt>
      <trkpt lat="44.37761" lon="5.17005">
        <ele>294</ele>
        <time>2022-02-27T11:39:54.808Z</time>
      </trkpt>
      <trkpt lat="44.37763" lon="5.17005">
        <ele>293</ele>
        <time>2022-02-27T11:39:55.807Z</time>
      </trkpt>
      <trkpt lat="44.37765" lon="5.17004">
        <ele>293</ele>
        <time>2022-02-27T11:39:56.807Z</time>
      </trkpt>
      <trkpt lat="44.37767" lon="5.17004">
        <ele>293</ele>
        <time>2022-02-27T11:39:57.808Z</time>
      </trkpt>
      <trkpt lat="44.37769" lon="5.17003">
        <ele>293</ele>
        <time>2022-02-27T11:39:58.808Z</time>
      </trkpt>
      <trkpt lat="44.37771" lon="5.17003">
        <ele>293</ele>
        <time>2022-02-27T11:39:59.808Z</time>
      </trkpt>
      <trkpt lat="44.37773" lon="5.17004">
        <ele>294</ele>
        <time>2022-02-27T11:40:00.808Z</time>
      </trkpt>
      <trkpt lat="44.37774" lon="5.17005">
        <ele>294</ele>
        <time>2022-02-27T11:40:01.808Z</time>
      </trkpt>
      <trkpt lat="44.37776" lon="5.17006">
        <ele>294</ele>
        <time>2022-02-27T11:40:02.808Z</time>
      </trkpt>
      <trkpt lat="44.37778" lon="5.17007">
        <ele>295</ele>
        <time>2022-02-27T11:40:03.807Z</time>
      </trkpt>
      <trkpt lat="44.3778" lon="5.17008">
        <ele>295</ele>
        <time>2022-02-27T11:40:04.808Z</time>
      </trkpt>
      <trkpt lat="44.37782" lon="5.17009">
        <ele>296</ele>
        <time>2022-02-27T11:40:05.808Z</time>
      </trkpt>
      <trkpt lat="44.37784" lon="5.1701">
        <ele>296</ele>
        <time>2022-02-27T11:40:06.808Z</time>
      </trkpt>
      <trkpt lat="44.37786" lon="5.17011">
        <ele>297</ele>
        <time>2022-02-27T11:40:07.808Z</time>
      </trkpt>
      <trkpt lat="44.37787" lon="5.17012">
        <ele>297</ele>
        <time>2022-02-27T11:40:08.808Z</time>
      </trkpt>
      <trkpt lat="44.37789" lon="5.17013">
        <ele>297</ele>
        <time>2022-02-27T11:40:09.807Z</time>
      </trkpt>
      <trkpt lat="44.37791" lon="5.17014">
        <ele>297</ele>
        <time>2022-02-27T11:40:10.808Z</time>
      </trkpt>
      <trkpt lat="44.37793" lon="5.17014">
        <ele>297</ele>
        <time>2022-02-27T11:40:11.808Z</time>
      </trkpt>
      <trkpt lat="44.37794" lon="5.17015">
        <ele>297</ele>
        <time>2022-02-27T11:40:12.808Z</time>
      </trkpt>
      <trkpt lat="44.37796" lon="5.17016">
        <ele>297</ele>
        <time>2022-02-27T11:40:13.807Z</time>
      </trkpt>
      <trkpt lat="44.37799" lon="5.17017">
        <ele>297</ele>
        <time>2022-02-27T11:40:14.808Z</time>
      </trkpt>
      <trkpt lat="44.378" lon="5.17017">
        <ele>298</ele>
        <time>2022-02-27T11:40:15.808Z</time>
      </trkpt>
      <trkpt lat="44.37802" lon="5.17017">
        <ele>299</ele>
        <time>2022-02-27T11:40:16.807Z</time>
      </trkpt>
      <trkpt lat="44.37804" lon="5.17017">
        <ele>300</ele>
        <time>2022-02-27T11:40:17.807Z</time>
      </trkpt>
      <trkpt lat="44.37806" lon="5.17017">
        <ele>300</ele>
        <time>2022-02-27T11:40:18.808Z</time>
      </trkpt>
      <trkpt lat="44.37808" lon="5.17017">
        <ele>301</ele>
        <time>2022-02-27T11:40:19.808Z</time>
      </trkpt>
      <trkpt lat="44.37809" lon="5.17017">
        <ele>302</ele>
        <time>2022-02-27T11:40:20.808Z</time>
      </trkpt>
      <trkpt lat="44.37811" lon="5.17016">
        <ele>302</ele>
        <time>2022-02-27T11:40:21.807Z</time>
      </trkpt>
      <trkpt lat="44.37813" lon="5.17015">
        <ele>302</ele>
        <time>2022-02-27T11:40:22.808Z</time>
      </trkpt>
      <trkpt lat="44.37814" lon="5.17014">
        <ele>302</ele>
        <time>2022-02-27T11:40:23.808Z</time>
      </trkpt>
      <trkpt lat="44.37816" lon="5.17013">
        <ele>303</ele>
        <time>2022-02-27T11:40:24.807Z</time>
      </trkpt>
      <trkpt lat="44.37817" lon="5.17012">
        <ele>303</ele>
        <time>2022-02-27T11:40:25.808Z</time>
      </trkpt>
      <trkpt lat="44.37819" lon="5.17011">
        <ele>303</ele>
        <time>2022-02-27T11:40:26.807Z</time>
      </trkpt>
      <trkpt lat="44.3782" lon="5.1701">
        <ele>303</ele>
        <time>2022-02-27T11:40:27.807Z</time>
      </trkpt>
      <trkpt lat="44.37821" lon="5.17009">
        <ele>303</ele>
        <time>2022-02-27T11:40:28.808Z</time>
      </trkpt>
      <trkpt lat="44.37823" lon="5.17008">
        <ele>303</ele>
        <time>2022-02-27T11:40:29.807Z</time>
      </trkpt>
      <trkpt lat="44.37825" lon="5.17008">
        <ele>303</ele>
        <time>2022-02-27T11:40:30.807Z</time>
      </trkpt>
      <trkpt lat="44.37826" lon="5.17006">
        <ele>303</ele>
        <time>2022-02-27T11:40:31.808Z</time>
      </trkpt>
      <trkpt lat="44.37828" lon="5.17005">
        <ele>304</ele>
        <time>2022-02-27T11:40:32.808Z</time>
      </trkpt>
      <trkpt lat="44.3783" lon="5.17004">
        <ele>304</ele>
        <time>2022-02-27T11:40:33.807Z</time>
      </trkpt>
      <trkpt lat="44.37831" lon="5.17003">
        <ele>304</ele>
        <time>2022-02-27T11:40:34.807Z</time>
      </trkpt>
      <trkpt lat="44.37833" lon="5.17001">
        <ele>304</ele>
        <time>2022-02-27T11:40:35.808Z</time>
      </trkpt>
      <trkpt lat="44.37834" lon="5.17">
        <ele>304</ele>
        <time>2022-02-27T11:40:36.807Z</time>
      </trkpt>
      <trkpt lat="44.37836" lon="5.16999">
        <ele>304</ele>
        <time>2022-02-27T11:40:37.808Z</time>
      </trkpt>
      <trkpt lat="44.37837" lon="5.16997">
        <ele>305</ele>
        <time>2022-02-27T11:40:38.808Z</time>
      </trkpt>
      <trkpt lat="44.37838" lon="5.16996">
        <ele>305</ele>
        <time>2022-02-27T11:40:39.808Z</time>
      </trkpt>
      <trkpt lat="44.3784" lon="5.16996">
        <ele>305</ele>
        <time>2022-02-27T11:40:40.808Z</time>
      </trkpt>
      <trkpt lat="44.37841" lon="5.16996">
        <ele>305</ele>
        <time>2022-02-27T11:40:41.808Z</time>
      </trkpt>
      <trkpt lat="44.37841" lon="5.16995">
        <ele>305</ele>
        <time>2022-02-27T11:40:42.808Z</time>
      </trkpt>
      <trkpt lat="44.37842" lon="5.16995">
        <ele>305</ele>
        <time>2022-02-27T11:40:43.808Z</time>
      </trkpt>
      <trkpt lat="44.37843" lon="5.16995">
        <ele>306</ele>
        <time>2022-02-27T11:40:44.808Z</time>
      </trkpt>
      <trkpt lat="44.37844" lon="5.16995">
        <ele>306</ele>
        <time>2022-02-27T11:40:45.808Z</time>
      </trkpt>
      <trkpt lat="44.37845" lon="5.16995">
        <ele>306</ele>
        <time>2022-02-27T11:40:46.808Z</time>
      </trkpt>
      <trkpt lat="44.37846" lon="5.16993">
        <ele>306</ele>
        <time>2022-02-27T11:40:47.808Z</time>
      </trkpt>
      <trkpt lat="44.37847" lon="5.16992">
        <ele>307</ele>
        <time>2022-02-27T11:40:48.808Z</time>
      </trkpt>
      <trkpt lat="44.37848" lon="5.16989">
        <ele>307</ele>
        <time>2022-02-27T11:40:49.808Z</time>
      </trkpt>
      <trkpt lat="44.37849" lon="5.16987">
        <ele>308</ele>
        <time>2022-02-27T11:40:50.808Z</time>
      </trkpt>
      <trkpt lat="44.37851" lon="5.16985">
        <ele>308</ele>
        <time>2022-02-27T11:40:51.808Z</time>
      </trkpt>
      <trkpt lat="44.37852" lon="5.16983">
        <ele>309</ele>
        <time>2022-02-27T11:40:52.808Z</time>
      </trkpt>
      <trkpt lat="44.37853" lon="5.16981">
        <ele>309</ele>
        <time>2022-02-27T11:40:53.807Z</time>
      </trkpt>
      <trkpt lat="44.37855" lon="5.16979">
        <ele>309</ele>
        <time>2022-02-27T11:40:54.807Z</time>
      </trkpt>
      <trkpt lat="44.37856" lon="5.16978">
        <ele>310</ele>
        <time>2022-02-27T11:40:55.808Z</time>
      </trkpt>
      <trkpt lat="44.37857" lon="5.16976">
        <ele>310</ele>
        <time>2022-02-27T11:40:56.807Z</time>
      </trkpt>
      <trkpt lat="44.37859" lon="5.16974">
        <ele>310</ele>
        <time>2022-02-27T11:40:57.808Z</time>
      </trkpt>
      <trkpt lat="44.3786" lon="5.16972">
        <ele>310</ele>
        <time>2022-02-27T11:40:58.808Z</time>
      </trkpt>
      <trkpt lat="44.37862" lon="5.16972">
        <ele>311</ele>
        <time>2022-02-27T11:40:59.807Z</time>
      </trkpt>
      <trkpt lat="44.37864" lon="5.16971">
        <ele>311</ele>
        <time>2022-02-27T11:41:00.808Z</time>
      </trkpt>
      <trkpt lat="44.37866" lon="5.1697">
        <ele>311</ele>
        <time>2022-02-27T11:41:01.808Z</time>
      </trkpt>
      <trkpt lat="44.37868" lon="5.16969">
        <ele>312</ele>
        <time>2022-02-27T11:41:02.808Z</time>
      </trkpt>
      <trkpt lat="44.3787" lon="5.16968">
        <ele>312</ele>
        <time>2022-02-27T11:41:03.808Z</time>
      </trkpt>
      <trkpt lat="44.37871" lon="5.16967">
        <ele>313</ele>
        <time>2022-02-27T11:41:04.807Z</time>
      </trkpt>
      <trkpt lat="44.37873" lon="5.16966">
        <ele>313</ele>
        <time>2022-02-27T11:41:05.808Z</time>
      </trkpt>
      <trkpt lat="44.37875" lon="5.16965">
        <ele>314</ele>
        <time>2022-02-27T11:41:06.808Z</time>
      </trkpt>
      <trkpt lat="44.37876" lon="5.16964">
        <ele>314</ele>
        <time>2022-02-27T11:41:07.808Z</time>
      </trkpt>
      <trkpt lat="44.37879" lon="5.16964">
        <ele>315</ele>
        <time>2022-02-27T11:41:08.807Z</time>
      </trkpt>
      <trkpt lat="44.37881" lon="5.16963">
        <ele>314</ele>
        <time>2022-02-27T11:41:09.808Z</time>
      </trkpt>
      <trkpt lat="44.37882" lon="5.16962">
        <ele>314</ele>
        <time>2022-02-27T11:41:10.808Z</time>
      </trkpt>
      <trkpt lat="44.37884" lon="5.16961">
        <ele>314</ele>
        <time>2022-02-27T11:41:11.807Z</time>
      </trkpt>
      <trkpt lat="44.37886" lon="5.1696">
        <ele>314</ele>
        <time>2022-02-27T11:41:12.808Z</time>
      </trkpt>
      <trkpt lat="44.37888" lon="5.1696">
        <ele>314</ele>
        <time>2022-02-27T11:41:13.808Z</time>
      </trkpt>
      <trkpt lat="44.3789" lon="5.16959">
        <ele>314</ele>
        <time>2022-02-27T11:41:14.808Z</time>
      </trkpt>
      <trkpt lat="44.37892" lon="5.16959">
        <ele>314</ele>
        <time>2022-02-27T11:41:15.808Z</time>
      </trkpt>
      <trkpt lat="44.37894" lon="5.16958">
        <ele>314</ele>
        <time>2022-02-27T11:41:16.808Z</time>
      </trkpt>
      <trkpt lat="44.37896" lon="5.16958">
        <ele>314</ele>
        <time>2022-02-27T11:41:17.807Z</time>
      </trkpt>
      <trkpt lat="44.37898" lon="5.16957">
        <ele>314</ele>
        <time>2022-02-27T11:41:18.807Z</time>
      </trkpt>
      <trkpt lat="44.37899" lon="5.16956">
        <ele>314</ele>
        <time>2022-02-27T11:41:19.808Z</time>
      </trkpt>
      <trkpt lat="44.37902" lon="5.16956">
        <ele>314</ele>
        <time>2022-02-27T11:41:20.808Z</time>
      </trkpt>
      <trkpt lat="44.37904" lon="5.16955">
        <ele>314</ele>
        <time>2022-02-27T11:41:21.807Z</time>
      </trkpt>
      <trkpt lat="44.37906" lon="5.16954">
        <ele>314</ele>
        <time>2022-02-27T11:41:22.808Z</time>
      </trkpt>
      <trkpt lat="44.37908" lon="5.16954">
        <ele>314</ele>
        <time>2022-02-27T11:41:23.808Z</time>
      </trkpt>
      <trkpt lat="44.3791" lon="5.16953">
        <ele>314</ele>
        <time>2022-02-27T11:41:24.808Z</time>
      </trkpt>
      <trkpt lat="44.37912" lon="5.16953">
        <ele>314</ele>
        <time>2022-02-27T11:41:25.808Z</time>
      </trkpt>
      <trkpt lat="44.37914" lon="5.16952">
        <ele>314</ele>
        <time>2022-02-27T11:41:26.808Z</time>
      </trkpt>
      <trkpt lat="44.37916" lon="5.16952">
        <ele>314</ele>
        <time>2022-02-27T11:41:27.807Z</time>
      </trkpt>
      <trkpt lat="44.37918" lon="5.16951">
        <ele>314</ele>
        <time>2022-02-27T11:41:28.808Z</time>
      </trkpt>
      <trkpt lat="44.3792" lon="5.16951">
        <ele>314</ele>
        <time>2022-02-27T11:41:29.808Z</time>
      </trkpt>
      <trkpt lat="44.37922" lon="5.1695">
        <ele>314</ele>
        <time>2022-02-27T11:41:30.808Z</time>
      </trkpt>
      <trkpt lat="44.37925" lon="5.16949">
        <ele>314</ele>
        <time>2022-02-27T11:41:31.808Z</time>
      </trkpt>
      <trkpt lat="44.37927" lon="5.16949">
        <ele>315</ele>
        <time>2022-02-27T11:41:32.808Z</time>
      </trkpt>
      <trkpt lat="44.37929" lon="5.16948">
        <ele>315</ele>
        <time>2022-02-27T11:41:33.808Z</time>
      </trkpt>
      <trkpt lat="44.3793" lon="5.16948">
        <ele>315</ele>
        <time>2022-02-27T11:41:34.807Z</time>
      </trkpt>
      <trkpt lat="44.37932" lon="5.16947">
        <ele>315</ele>
        <time>2022-02-27T11:41:35.807Z</time>
      </trkpt>
      <trkpt lat="44.37935" lon="5.16947">
        <ele>315</ele>
        <time>2022-02-27T11:41:36.807Z</time>
      </trkpt>
      <trkpt lat="44.37937" lon="5.16946">
        <ele>315</ele>
        <time>2022-02-27T11:41:37.808Z</time>
      </trkpt>
      <trkpt lat="44.37939" lon="5.16946">
        <ele>315</ele>
        <time>2022-02-27T11:41:38.808Z</time>
      </trkpt>
      <trkpt lat="44.37941" lon="5.16945">
        <ele>316</ele>
        <time>2022-02-27T11:41:39.808Z</time>
      </trkpt>
      <trkpt lat="44.37943" lon="5.16944">
        <ele>316</ele>
        <time>2022-02-27T11:41:40.807Z</time>
      </trkpt>
      <trkpt lat="44.37945" lon="5.16943">
        <ele>316</ele>
        <time>2022-02-27T11:41:41.808Z</time>
      </trkpt>
      <trkpt lat="44.37947" lon="5.16943">
        <ele>316</ele>
        <time>2022-02-27T11:41:42.808Z</time>
      </trkpt>
      <trkpt lat="44.37948" lon="5.16942">
        <ele>316</ele>
        <time>2022-02-27T11:41:43.807Z</time>
      </trkpt>
      <trkpt lat="44.37949" lon="5.16941">
        <ele>316</ele>
        <time>2022-02-27T11:41:44.807Z</time>
      </trkpt>
      <trkpt lat="44.37951" lon="5.16941">
        <ele>317</ele>
        <time>2022-02-27T11:41:45.808Z</time>
      </trkpt>
      <trkpt lat="44.37952" lon="5.1694">
        <ele>317</ele>
        <time>2022-02-27T11:41:46.807Z</time>
      </trkpt>
    </trkseg>
  </trk>
</gpx>